<?xml version="1.0" encoding="UTF-8" standalone="no" ?>
<gpx xmlns="http://www.topografix.com/GPX/1/1" xmlns:xsi="http://www.w3.org/2001/XMLSchema-instance" xsi:schemaLocation="http://www.topografix.com/GPX/1/1 http://www.topografix.com/GPX/1/1/gpx.xsd" version="1.1" creator="VisuGPX - https://www.visugpx.com">
  <metadata>
    <name>Costabonne</name>
    <desc><![CDATA[Le Costabonne par les Esquerdes de Rotja en boucle avec départ du chalet des Conques.]]></desc>
  </metadata>
  <trk>
    <name><![CDATA[08-MAI-17 18:48:42]]></name>
    <trkseg>
      <trkpt lat="42.42669" lon="2.39745">
        <ele>1602.66</ele>
        <time>2017-05-08T07:49:32Z</time>
      </trkpt>
      <trkpt lat="42.42668" lon="2.39746">
        <ele>1601.69</ele>
        <time>2017-05-08T07:49:53Z</time>
      </trkpt>
      <trkpt lat="42.42668" lon="2.39746">
        <ele>1601.69</ele>
        <time>2017-05-08T07:49:54Z</time>
      </trkpt>
      <trkpt lat="42.42668" lon="2.39749">
        <ele>1602.17</ele>
        <time>2017-05-08T07:49:56Z</time>
      </trkpt>
      <trkpt lat="42.42655" lon="2.39766">
        <ele>1601.69</ele>
        <time>2017-05-08T07:50:09Z</time>
      </trkpt>
      <trkpt lat="42.42646" lon="2.39775">
        <ele>1600.73</ele>
        <time>2017-05-08T07:50:19Z</time>
      </trkpt>
      <trkpt lat="42.42642" lon="2.39779">
        <ele>1600.25</ele>
        <time>2017-05-08T07:50:23Z</time>
      </trkpt>
      <trkpt lat="42.42638" lon="2.39783">
        <ele>1599.77</ele>
        <time>2017-05-08T07:50:27Z</time>
      </trkpt>
      <trkpt lat="42.42631" lon="2.39784">
        <ele>1600.25</ele>
        <time>2017-05-08T07:50:40Z</time>
      </trkpt>
      <trkpt lat="42.4263" lon="2.39784">
        <ele>1599.77</ele>
        <time>2017-05-08T07:51:01Z</time>
      </trkpt>
      <trkpt lat="42.42629" lon="2.39789">
        <ele>1599.77</ele>
        <time>2017-05-08T07:51:13Z</time>
      </trkpt>
      <trkpt lat="42.42628" lon="2.39791">
        <ele>1600.25</ele>
        <time>2017-05-08T07:51:28Z</time>
      </trkpt>
      <trkpt lat="42.42625" lon="2.39792">
        <ele>1598.81</ele>
        <time>2017-05-08T07:51:37Z</time>
      </trkpt>
      <trkpt lat="42.42615" lon="2.39787">
        <ele>1601.69</ele>
        <time>2017-05-08T07:51:50Z</time>
      </trkpt>
      <trkpt lat="42.42609" lon="2.39776">
        <ele>1603.62</ele>
        <time>2017-05-08T07:52:04Z</time>
      </trkpt>
      <trkpt lat="42.42607" lon="2.39761">
        <ele>1606.02</ele>
        <time>2017-05-08T07:52:17Z</time>
      </trkpt>
      <trkpt lat="42.42608" lon="2.39759">
        <ele>1606.02</ele>
        <time>2017-05-08T07:52:19Z</time>
      </trkpt>
      <trkpt lat="42.42604" lon="2.39745">
        <ele>1607.94</ele>
        <time>2017-05-08T07:52:31Z</time>
      </trkpt>
      <trkpt lat="42.42599" lon="2.39736">
        <ele>1610.35</ele>
        <time>2017-05-08T07:52:43Z</time>
      </trkpt>
      <trkpt lat="42.42597" lon="2.39722">
        <ele>1613.23</ele>
        <time>2017-05-08T07:52:57Z</time>
      </trkpt>
      <trkpt lat="42.42595" lon="2.39706">
        <ele>1615.63</ele>
        <time>2017-05-08T07:53:11Z</time>
      </trkpt>
      <trkpt lat="42.42594" lon="2.39699">
        <ele>1616.59</ele>
        <time>2017-05-08T07:53:17Z</time>
      </trkpt>
      <trkpt lat="42.42595" lon="2.39684">
        <ele>1619</ele>
        <time>2017-05-08T07:53:30Z</time>
      </trkpt>
      <trkpt lat="42.42596" lon="2.39672">
        <ele>1619.96</ele>
        <time>2017-05-08T07:53:38Z</time>
      </trkpt>
      <trkpt lat="42.42601" lon="2.39656">
        <ele>1621.88</ele>
        <time>2017-05-08T07:53:52Z</time>
      </trkpt>
      <trkpt lat="42.42603" lon="2.39651">
        <ele>1622.84</ele>
        <time>2017-05-08T07:53:57Z</time>
      </trkpt>
      <trkpt lat="42.42604" lon="2.39641">
        <ele>1624.28</ele>
        <time>2017-05-08T07:54:06Z</time>
      </trkpt>
      <trkpt lat="42.42607" lon="2.39637">
        <ele>1624.77</ele>
        <time>2017-05-08T07:54:09Z</time>
      </trkpt>
      <trkpt lat="42.42611" lon="2.39626">
        <ele>1626.21</ele>
        <time>2017-05-08T07:54:20Z</time>
      </trkpt>
      <trkpt lat="42.42615" lon="2.39617">
        <ele>1627.65</ele>
        <time>2017-05-08T07:54:30Z</time>
      </trkpt>
      <trkpt lat="42.42615" lon="2.39605">
        <ele>1630.53</ele>
        <time>2017-05-08T07:54:44Z</time>
      </trkpt>
      <trkpt lat="42.42613" lon="2.39596">
        <ele>1633.42</ele>
        <time>2017-05-08T07:54:57Z</time>
      </trkpt>
      <trkpt lat="42.42611" lon="2.39581">
        <ele>1635.82</ele>
        <time>2017-05-08T07:55:10Z</time>
      </trkpt>
      <trkpt lat="42.42611" lon="2.39571">
        <ele>1638.22</ele>
        <time>2017-05-08T07:55:21Z</time>
      </trkpt>
      <trkpt lat="42.42611" lon="2.39562">
        <ele>1640.15</ele>
        <time>2017-05-08T07:55:32Z</time>
      </trkpt>
      <trkpt lat="42.42606" lon="2.39554">
        <ele>1643.03</ele>
        <time>2017-05-08T07:55:48Z</time>
      </trkpt>
      <trkpt lat="42.42604" lon="2.39547">
        <ele>1644.95</ele>
        <time>2017-05-08T07:56:00Z</time>
      </trkpt>
      <trkpt lat="42.42601" lon="2.39537">
        <ele>1647.36</ele>
        <time>2017-05-08T07:56:13Z</time>
      </trkpt>
      <trkpt lat="42.42602" lon="2.39527">
        <ele>1649.76</ele>
        <time>2017-05-08T07:56:26Z</time>
      </trkpt>
      <trkpt lat="42.42603" lon="2.39517">
        <ele>1652.16</ele>
        <time>2017-05-08T07:56:37Z</time>
      </trkpt>
      <trkpt lat="42.42603" lon="2.39507">
        <ele>1654.57</ele>
        <time>2017-05-08T07:56:49Z</time>
      </trkpt>
      <trkpt lat="42.42604" lon="2.39501">
        <ele>1656.97</ele>
        <time>2017-05-08T07:57:03Z</time>
      </trkpt>
      <trkpt lat="42.42608" lon="2.39488">
        <ele>1659.85</ele>
        <time>2017-05-08T07:57:16Z</time>
      </trkpt>
      <trkpt lat="42.42613" lon="2.39471">
        <ele>1662.26</ele>
        <time>2017-05-08T07:57:28Z</time>
      </trkpt>
      <trkpt lat="42.42612" lon="2.39464">
        <ele>1665.14</ele>
        <time>2017-05-08T07:57:42Z</time>
      </trkpt>
      <trkpt lat="42.42615" lon="2.39455">
        <ele>1667.54</ele>
        <time>2017-05-08T07:57:56Z</time>
      </trkpt>
      <trkpt lat="42.42617" lon="2.3944">
        <ele>1669.47</ele>
        <time>2017-05-08T07:58:10Z</time>
      </trkpt>
      <trkpt lat="42.42618" lon="2.39431">
        <ele>1671.87</ele>
        <time>2017-05-08T07:58:25Z</time>
      </trkpt>
      <trkpt lat="42.42621" lon="2.39422">
        <ele>1673.79</ele>
        <time>2017-05-08T07:58:37Z</time>
      </trkpt>
      <trkpt lat="42.42624" lon="2.39412">
        <ele>1675.72</ele>
        <time>2017-05-08T07:58:47Z</time>
      </trkpt>
      <trkpt lat="42.42628" lon="2.39395">
        <ele>1678.12</ele>
        <time>2017-05-08T07:59:02Z</time>
      </trkpt>
      <trkpt lat="42.42628" lon="2.39386">
        <ele>1680.04</ele>
        <time>2017-05-08T07:59:13Z</time>
      </trkpt>
      <trkpt lat="42.42629" lon="2.39371">
        <ele>1681.96</ele>
        <time>2017-05-08T07:59:25Z</time>
      </trkpt>
      <trkpt lat="42.42628" lon="2.39365">
        <ele>1682.93</ele>
        <time>2017-05-08T07:59:33Z</time>
      </trkpt>
      <trkpt lat="42.42628" lon="2.39367">
        <ele>1683.41</ele>
        <time>2017-05-08T07:59:59Z</time>
      </trkpt>
      <trkpt lat="42.42627" lon="2.39359">
        <ele>1682.93</ele>
        <time>2017-05-08T08:00:11Z</time>
      </trkpt>
      <trkpt lat="42.4263" lon="2.39353">
        <ele>1682.93</ele>
        <time>2017-05-08T08:00:25Z</time>
      </trkpt>
      <trkpt lat="42.4263" lon="2.39352">
        <ele>1682.44</ele>
        <time>2017-05-08T08:00:26Z</time>
      </trkpt>
      <trkpt lat="42.42631" lon="2.39344">
        <ele>1683.41</ele>
        <time>2017-05-08T08:00:32Z</time>
      </trkpt>
      <trkpt lat="42.42629" lon="2.3933">
        <ele>1684.85</ele>
        <time>2017-05-08T08:00:45Z</time>
      </trkpt>
      <trkpt lat="42.42628" lon="2.39325">
        <ele>1684.85</ele>
        <time>2017-05-08T08:00:57Z</time>
      </trkpt>
      <trkpt lat="42.42627" lon="2.39321">
        <ele>1685.33</ele>
        <time>2017-05-08T08:01:21Z</time>
      </trkpt>
      <trkpt lat="42.42627" lon="2.3931">
        <ele>1687.25</ele>
        <time>2017-05-08T08:01:35Z</time>
      </trkpt>
      <trkpt lat="42.42627" lon="2.39305">
        <ele>1686.29</ele>
        <time>2017-05-08T08:01:49Z</time>
      </trkpt>
      <trkpt lat="42.42626" lon="2.393">
        <ele>1686.29</ele>
        <time>2017-05-08T08:02:07Z</time>
      </trkpt>
      <trkpt lat="42.42624" lon="2.39297">
        <ele>1686.29</ele>
        <time>2017-05-08T08:02:26Z</time>
      </trkpt>
      <trkpt lat="42.42625" lon="2.39296">
        <ele>1685.81</ele>
        <time>2017-05-08T08:02:41Z</time>
      </trkpt>
      <trkpt lat="42.42625" lon="2.39295">
        <ele>1685.81</ele>
        <time>2017-05-08T08:03:17Z</time>
      </trkpt>
      <trkpt lat="42.42626" lon="2.39297">
        <ele>1686.77</ele>
        <time>2017-05-08T08:03:31Z</time>
      </trkpt>
      <trkpt lat="42.42626" lon="2.39298">
        <ele>1687.25</ele>
        <time>2017-05-08T08:03:55Z</time>
      </trkpt>
      <trkpt lat="42.42625" lon="2.39298">
        <ele>1687.25</ele>
        <time>2017-05-08T08:04:17Z</time>
      </trkpt>
      <trkpt lat="42.42625" lon="2.39298">
        <ele>1687.25</ele>
        <time>2017-05-08T08:04:35Z</time>
      </trkpt>
      <trkpt lat="42.42626" lon="2.39297">
        <ele>1687.73</ele>
        <time>2017-05-08T08:04:47Z</time>
      </trkpt>
      <trkpt lat="42.42628" lon="2.39296">
        <ele>1687.25</ele>
        <time>2017-05-08T08:04:51Z</time>
      </trkpt>
      <trkpt lat="42.4264" lon="2.39287">
        <ele>1686.77</ele>
        <time>2017-05-08T08:05:04Z</time>
      </trkpt>
      <trkpt lat="42.42647" lon="2.39282">
        <ele>1687.25</ele>
        <time>2017-05-08T08:05:12Z</time>
      </trkpt>
      <trkpt lat="42.4265" lon="2.39281">
        <ele>1687.25</ele>
        <time>2017-05-08T08:05:14Z</time>
      </trkpt>
      <trkpt lat="42.42665" lon="2.39268">
        <ele>1688.21</ele>
        <time>2017-05-08T08:05:29Z</time>
      </trkpt>
      <trkpt lat="42.42671" lon="2.39263">
        <ele>1688.69</ele>
        <time>2017-05-08T08:05:34Z</time>
      </trkpt>
      <trkpt lat="42.42674" lon="2.39262">
        <ele>1689.17</ele>
        <time>2017-05-08T08:05:37Z</time>
      </trkpt>
      <trkpt lat="42.42677" lon="2.39261">
        <ele>1689.65</ele>
        <time>2017-05-08T08:05:40Z</time>
      </trkpt>
      <trkpt lat="42.42687" lon="2.39258">
        <ele>1690.62</ele>
        <time>2017-05-08T08:05:49Z</time>
      </trkpt>
      <trkpt lat="42.42695" lon="2.39254">
        <ele>1691.1</ele>
        <time>2017-05-08T08:06:01Z</time>
      </trkpt>
      <trkpt lat="42.42694" lon="2.39254">
        <ele>1690.62</ele>
        <time>2017-05-08T08:06:16Z</time>
      </trkpt>
      <trkpt lat="42.42702" lon="2.39252">
        <ele>1691.58</ele>
        <time>2017-05-08T08:06:28Z</time>
      </trkpt>
      <trkpt lat="42.42704" lon="2.39252">
        <ele>1691.58</ele>
        <time>2017-05-08T08:06:30Z</time>
      </trkpt>
      <trkpt lat="42.42708" lon="2.39252">
        <ele>1691.58</ele>
        <time>2017-05-08T08:06:34Z</time>
      </trkpt>
      <trkpt lat="42.42712" lon="2.39251">
        <ele>1692.06</ele>
        <time>2017-05-08T08:06:39Z</time>
      </trkpt>
      <trkpt lat="42.42714" lon="2.39246">
        <ele>1692.06</ele>
        <time>2017-05-08T08:06:43Z</time>
      </trkpt>
      <trkpt lat="42.4272" lon="2.39239">
        <ele>1692.54</ele>
        <time>2017-05-08T08:06:50Z</time>
      </trkpt>
      <trkpt lat="42.42722" lon="2.39236">
        <ele>1693.02</ele>
        <time>2017-05-08T08:06:53Z</time>
      </trkpt>
      <trkpt lat="42.42725" lon="2.3923">
        <ele>1693.5</ele>
        <time>2017-05-08T08:06:57Z</time>
      </trkpt>
      <trkpt lat="42.42728" lon="2.39219">
        <ele>1694.94</ele>
        <time>2017-05-08T08:07:06Z</time>
      </trkpt>
      <trkpt lat="42.42731" lon="2.39215">
        <ele>1695.9</ele>
        <time>2017-05-08T08:07:12Z</time>
      </trkpt>
      <trkpt lat="42.42731" lon="2.392">
        <ele>1698.31</ele>
        <time>2017-05-08T08:07:26Z</time>
      </trkpt>
      <trkpt lat="42.42734" lon="2.39178">
        <ele>1700.23</ele>
        <time>2017-05-08T08:07:41Z</time>
      </trkpt>
      <trkpt lat="42.42732" lon="2.39165">
        <ele>1702.63</ele>
        <time>2017-05-08T08:07:53Z</time>
      </trkpt>
      <trkpt lat="42.42732" lon="2.39155">
        <ele>1705.04</ele>
        <time>2017-05-08T08:08:08Z</time>
      </trkpt>
      <trkpt lat="42.42733" lon="2.39138">
        <ele>1706.96</ele>
        <time>2017-05-08T08:08:21Z</time>
      </trkpt>
      <trkpt lat="42.42733" lon="2.39125">
        <ele>1709.36</ele>
        <time>2017-05-08T08:08:35Z</time>
      </trkpt>
      <trkpt lat="42.4273" lon="2.39112">
        <ele>1711.28</ele>
        <time>2017-05-08T08:08:49Z</time>
      </trkpt>
      <trkpt lat="42.42729" lon="2.39099">
        <ele>1713.21</ele>
        <time>2017-05-08T08:09:01Z</time>
      </trkpt>
      <trkpt lat="42.42733" lon="2.39079">
        <ele>1714.65</ele>
        <time>2017-05-08T08:09:13Z</time>
      </trkpt>
      <trkpt lat="42.42737" lon="2.39065">
        <ele>1717.05</ele>
        <time>2017-05-08T08:09:25Z</time>
      </trkpt>
      <trkpt lat="42.4274" lon="2.39052">
        <ele>1718.97</ele>
        <time>2017-05-08T08:09:39Z</time>
      </trkpt>
      <trkpt lat="42.42748" lon="2.39038">
        <ele>1721.38</ele>
        <time>2017-05-08T08:09:53Z</time>
      </trkpt>
      <trkpt lat="42.42749" lon="2.39036">
        <ele>1721.38</ele>
        <time>2017-05-08T08:09:56Z</time>
      </trkpt>
      <trkpt lat="42.42753" lon="2.39022">
        <ele>1722.34</ele>
        <time>2017-05-08T08:10:08Z</time>
      </trkpt>
      <trkpt lat="42.42757" lon="2.39016">
        <ele>1721.86</ele>
        <time>2017-05-08T08:10:18Z</time>
      </trkpt>
      <trkpt lat="42.42765" lon="2.39">
        <ele>1722.82</ele>
        <time>2017-05-08T08:10:31Z</time>
      </trkpt>
      <trkpt lat="42.42766" lon="2.38985">
        <ele>1723.3</ele>
        <time>2017-05-08T08:10:44Z</time>
      </trkpt>
      <trkpt lat="42.42772" lon="2.3897">
        <ele>1723.3</ele>
        <time>2017-05-08T08:10:55Z</time>
      </trkpt>
      <trkpt lat="42.42772" lon="2.38965">
        <ele>1724.74</ele>
        <time>2017-05-08T08:11:05Z</time>
      </trkpt>
      <trkpt lat="42.42776" lon="2.38948">
        <ele>1725.7</ele>
        <time>2017-05-08T08:11:17Z</time>
      </trkpt>
      <trkpt lat="42.42777" lon="2.38942">
        <ele>1725.7</ele>
        <time>2017-05-08T08:11:21Z</time>
      </trkpt>
      <trkpt lat="42.42777" lon="2.38933">
        <ele>1727.63</ele>
        <time>2017-05-08T08:11:33Z</time>
      </trkpt>
      <trkpt lat="42.42774" lon="2.38924">
        <ele>1729.55</ele>
        <time>2017-05-08T08:11:44Z</time>
      </trkpt>
      <trkpt lat="42.42775" lon="2.38909">
        <ele>1730.99</ele>
        <time>2017-05-08T08:11:56Z</time>
      </trkpt>
      <trkpt lat="42.42778" lon="2.38894">
        <ele>1731.95</ele>
        <time>2017-05-08T08:12:08Z</time>
      </trkpt>
      <trkpt lat="42.42778" lon="2.38879">
        <ele>1732.91</ele>
        <time>2017-05-08T08:12:24Z</time>
      </trkpt>
      <trkpt lat="42.4278" lon="2.38862">
        <ele>1733.88</ele>
        <time>2017-05-08T08:12:34Z</time>
      </trkpt>
      <trkpt lat="42.42779" lon="2.38846">
        <ele>1736.28</ele>
        <time>2017-05-08T08:12:48Z</time>
      </trkpt>
      <trkpt lat="42.42779" lon="2.3883">
        <ele>1737.24</ele>
        <time>2017-05-08T08:13:00Z</time>
      </trkpt>
      <trkpt lat="42.42778" lon="2.38819">
        <ele>1739.16</ele>
        <time>2017-05-08T08:13:11Z</time>
      </trkpt>
      <trkpt lat="42.42779" lon="2.38815">
        <ele>1739.64</ele>
        <time>2017-05-08T08:13:15Z</time>
      </trkpt>
      <trkpt lat="42.42783" lon="2.388">
        <ele>1742.53</ele>
        <time>2017-05-08T08:13:30Z</time>
      </trkpt>
      <trkpt lat="42.42787" lon="2.38786">
        <ele>1743.49</ele>
        <time>2017-05-08T08:13:39Z</time>
      </trkpt>
      <trkpt lat="42.42792" lon="2.38779">
        <ele>1745.89</ele>
        <time>2017-05-08T08:13:51Z</time>
      </trkpt>
      <trkpt lat="42.42797" lon="2.38771">
        <ele>1748.29</ele>
        <time>2017-05-08T08:14:04Z</time>
      </trkpt>
      <trkpt lat="42.42801" lon="2.38765">
        <ele>1750.7</ele>
        <time>2017-05-08T08:14:15Z</time>
      </trkpt>
      <trkpt lat="42.42808" lon="2.38755">
        <ele>1753.1</ele>
        <time>2017-05-08T08:14:27Z</time>
      </trkpt>
      <trkpt lat="42.42814" lon="2.38746">
        <ele>1754.06</ele>
        <time>2017-05-08T08:14:38Z</time>
      </trkpt>
      <trkpt lat="42.42818" lon="2.38732">
        <ele>1754.06</ele>
        <time>2017-05-08T08:14:48Z</time>
      </trkpt>
      <trkpt lat="42.4282" lon="2.38725">
        <ele>1754.06</ele>
        <time>2017-05-08T08:14:54Z</time>
      </trkpt>
      <trkpt lat="42.42825" lon="2.38714">
        <ele>1753.1</ele>
        <time>2017-05-08T08:15:05Z</time>
      </trkpt>
      <trkpt lat="42.42831" lon="2.38707">
        <ele>1753.58</ele>
        <time>2017-05-08T08:15:15Z</time>
      </trkpt>
      <trkpt lat="42.42839" lon="2.38696">
        <ele>1753.58</ele>
        <time>2017-05-08T08:15:26Z</time>
      </trkpt>
      <trkpt lat="42.42848" lon="2.38687">
        <ele>1754.54</ele>
        <time>2017-05-08T08:15:37Z</time>
      </trkpt>
      <trkpt lat="42.4285" lon="2.38685">
        <ele>1753.1</ele>
        <time>2017-05-08T08:15:40Z</time>
      </trkpt>
      <trkpt lat="42.42856" lon="2.38675">
        <ele>1754.06</ele>
        <time>2017-05-08T08:15:50Z</time>
      </trkpt>
      <trkpt lat="42.42859" lon="2.38667">
        <ele>1754.06</ele>
        <time>2017-05-08T08:15:56Z</time>
      </trkpt>
      <trkpt lat="42.42864" lon="2.38657">
        <ele>1755.5</ele>
        <time>2017-05-08T08:16:07Z</time>
      </trkpt>
      <trkpt lat="42.42869" lon="2.38651">
        <ele>1755.5</ele>
        <time>2017-05-08T08:16:12Z</time>
      </trkpt>
      <trkpt lat="42.42878" lon="2.38644">
        <ele>1755.99</ele>
        <time>2017-05-08T08:16:21Z</time>
      </trkpt>
      <trkpt lat="42.4288" lon="2.38639">
        <ele>1755.5</ele>
        <time>2017-05-08T08:16:26Z</time>
      </trkpt>
      <trkpt lat="42.42885" lon="2.38629">
        <ele>1756.95</ele>
        <time>2017-05-08T08:16:38Z</time>
      </trkpt>
      <trkpt lat="42.42889" lon="2.38617">
        <ele>1757.43</ele>
        <time>2017-05-08T08:16:49Z</time>
      </trkpt>
      <trkpt lat="42.42888" lon="2.38611">
        <ele>1758.39</ele>
        <time>2017-05-08T08:17:02Z</time>
      </trkpt>
      <trkpt lat="42.42887" lon="2.38608">
        <ele>1759.83</ele>
        <time>2017-05-08T08:17:16Z</time>
      </trkpt>
      <trkpt lat="42.42888" lon="2.38597">
        <ele>1763.2</ele>
        <time>2017-05-08T08:17:30Z</time>
      </trkpt>
      <trkpt lat="42.42885" lon="2.38586">
        <ele>1764.16</ele>
        <time>2017-05-08T08:17:41Z</time>
      </trkpt>
      <trkpt lat="42.42884" lon="2.38569">
        <ele>1765.6</ele>
        <time>2017-05-08T08:17:54Z</time>
      </trkpt>
      <trkpt lat="42.42884" lon="2.38556">
        <ele>1766.56</ele>
        <time>2017-05-08T08:18:05Z</time>
      </trkpt>
      <trkpt lat="42.42884" lon="2.38544">
        <ele>1769.44</ele>
        <time>2017-05-08T08:18:17Z</time>
      </trkpt>
      <trkpt lat="42.42885" lon="2.38533">
        <ele>1770.41</ele>
        <time>2017-05-08T08:18:29Z</time>
      </trkpt>
      <trkpt lat="42.42885" lon="2.38521">
        <ele>1771.85</ele>
        <time>2017-05-08T08:18:42Z</time>
      </trkpt>
      <trkpt lat="42.42885" lon="2.38509">
        <ele>1772.33</ele>
        <time>2017-05-08T08:18:52Z</time>
      </trkpt>
      <trkpt lat="42.42889" lon="2.38488">
        <ele>1773.29</ele>
        <time>2017-05-08T08:19:05Z</time>
      </trkpt>
      <trkpt lat="42.4289" lon="2.38478">
        <ele>1775.21</ele>
        <time>2017-05-08T08:19:17Z</time>
      </trkpt>
      <trkpt lat="42.42894" lon="2.38463">
        <ele>1776.17</ele>
        <time>2017-05-08T08:19:29Z</time>
      </trkpt>
      <trkpt lat="42.42898" lon="2.38455">
        <ele>1777.13</ele>
        <time>2017-05-08T08:19:45Z</time>
      </trkpt>
      <trkpt lat="42.42899" lon="2.38445">
        <ele>1777.61</ele>
        <time>2017-05-08T08:19:57Z</time>
      </trkpt>
      <trkpt lat="42.42904" lon="2.38429">
        <ele>1779.06</ele>
        <time>2017-05-08T08:20:11Z</time>
      </trkpt>
      <trkpt lat="42.42908" lon="2.38422">
        <ele>1780.98</ele>
        <time>2017-05-08T08:20:21Z</time>
      </trkpt>
      <trkpt lat="42.42913" lon="2.38411">
        <ele>1782.9</ele>
        <time>2017-05-08T08:20:34Z</time>
      </trkpt>
      <trkpt lat="42.42916" lon="2.38405">
        <ele>1784.82</ele>
        <time>2017-05-08T08:20:47Z</time>
      </trkpt>
      <trkpt lat="42.42919" lon="2.38401">
        <ele>1787.71</ele>
        <time>2017-05-08T08:20:58Z</time>
      </trkpt>
      <trkpt lat="42.42925" lon="2.38395">
        <ele>1791.07</ele>
        <time>2017-05-08T08:21:11Z</time>
      </trkpt>
      <trkpt lat="42.42931" lon="2.38385">
        <ele>1792.52</ele>
        <time>2017-05-08T08:21:22Z</time>
      </trkpt>
      <trkpt lat="42.42936" lon="2.38372">
        <ele>1793.96</ele>
        <time>2017-05-08T08:21:35Z</time>
      </trkpt>
      <trkpt lat="42.42941" lon="2.38359">
        <ele>1794.44</ele>
        <time>2017-05-08T08:21:47Z</time>
      </trkpt>
      <trkpt lat="42.42949" lon="2.38346">
        <ele>1795.4</ele>
        <time>2017-05-08T08:22:00Z</time>
      </trkpt>
      <trkpt lat="42.4295" lon="2.38345">
        <ele>1795.88</ele>
        <time>2017-05-08T08:22:01Z</time>
      </trkpt>
      <trkpt lat="42.42962" lon="2.38338">
        <ele>1796.84</ele>
        <time>2017-05-08T08:22:15Z</time>
      </trkpt>
      <trkpt lat="42.42968" lon="2.38335">
        <ele>1798.28</ele>
        <time>2017-05-08T08:22:26Z</time>
      </trkpt>
      <trkpt lat="42.42973" lon="2.38329">
        <ele>1798.76</ele>
        <time>2017-05-08T08:22:33Z</time>
      </trkpt>
      <trkpt lat="42.4298" lon="2.38326">
        <ele>1800.21</ele>
        <time>2017-05-08T08:22:44Z</time>
      </trkpt>
      <trkpt lat="42.42987" lon="2.38318">
        <ele>1802.13</ele>
        <time>2017-05-08T08:22:56Z</time>
      </trkpt>
      <trkpt lat="42.42992" lon="2.38308">
        <ele>1803.57</ele>
        <time>2017-05-08T08:23:05Z</time>
      </trkpt>
      <trkpt lat="42.43002" lon="2.38301">
        <ele>1805.01</ele>
        <time>2017-05-08T08:23:18Z</time>
      </trkpt>
      <trkpt lat="42.43004" lon="2.38301">
        <ele>1805.49</ele>
        <time>2017-05-08T08:23:22Z</time>
      </trkpt>
      <trkpt lat="42.43005" lon="2.38301">
        <ele>1806.45</ele>
        <time>2017-05-08T08:23:24Z</time>
      </trkpt>
      <trkpt lat="42.43014" lon="2.38294">
        <ele>1807.42</ele>
        <time>2017-05-08T08:23:35Z</time>
      </trkpt>
      <trkpt lat="42.43017" lon="2.38293">
        <ele>1809.82</ele>
        <time>2017-05-08T08:23:47Z</time>
      </trkpt>
      <trkpt lat="42.43026" lon="2.38294">
        <ele>1811.74</ele>
        <time>2017-05-08T08:23:59Z</time>
      </trkpt>
      <trkpt lat="42.43032" lon="2.38293">
        <ele>1812.22</ele>
        <time>2017-05-08T08:24:10Z</time>
      </trkpt>
      <trkpt lat="42.43039" lon="2.38294">
        <ele>1813.18</ele>
        <time>2017-05-08T08:24:18Z</time>
      </trkpt>
      <trkpt lat="42.43047" lon="2.38293">
        <ele>1815.11</ele>
        <time>2017-05-08T08:24:30Z</time>
      </trkpt>
      <trkpt lat="42.43056" lon="2.38294">
        <ele>1817.51</ele>
        <time>2017-05-08T08:24:42Z</time>
      </trkpt>
      <trkpt lat="42.43059" lon="2.38293">
        <ele>1817.99</ele>
        <time>2017-05-08T08:24:47Z</time>
      </trkpt>
      <trkpt lat="42.43064" lon="2.38294">
        <ele>1818.95</ele>
        <time>2017-05-08T08:24:52Z</time>
      </trkpt>
      <trkpt lat="42.43067" lon="2.38294">
        <ele>1819.43</ele>
        <time>2017-05-08T08:24:55Z</time>
      </trkpt>
      <trkpt lat="42.43073" lon="2.38293">
        <ele>1819.91</ele>
        <time>2017-05-08T08:25:02Z</time>
      </trkpt>
      <trkpt lat="42.43076" lon="2.3829">
        <ele>1820.39</ele>
        <time>2017-05-08T08:25:07Z</time>
      </trkpt>
      <trkpt lat="42.43079" lon="2.38289">
        <ele>1820.87</ele>
        <time>2017-05-08T08:25:10Z</time>
      </trkpt>
      <trkpt lat="42.43089" lon="2.38282">
        <ele>1822.8</ele>
        <time>2017-05-08T08:25:23Z</time>
      </trkpt>
      <trkpt lat="42.43099" lon="2.38281">
        <ele>1824.72</ele>
        <time>2017-05-08T08:25:36Z</time>
      </trkpt>
      <trkpt lat="42.43106" lon="2.38279">
        <ele>1827.12</ele>
        <time>2017-05-08T08:25:48Z</time>
      </trkpt>
      <trkpt lat="42.43114" lon="2.38277">
        <ele>1829.53</ele>
        <time>2017-05-08T08:26:00Z</time>
      </trkpt>
      <trkpt lat="42.4312" lon="2.38272">
        <ele>1831.93</ele>
        <time>2017-05-08T08:26:12Z</time>
      </trkpt>
      <trkpt lat="42.43128" lon="2.38269">
        <ele>1833.85</ele>
        <time>2017-05-08T08:26:24Z</time>
      </trkpt>
      <trkpt lat="42.43138" lon="2.38266">
        <ele>1836.74</ele>
        <time>2017-05-08T08:26:40Z</time>
      </trkpt>
      <trkpt lat="42.43142" lon="2.38263">
        <ele>1837.22</ele>
        <time>2017-05-08T08:26:48Z</time>
      </trkpt>
      <trkpt lat="42.43151" lon="2.38256">
        <ele>1839.14</ele>
        <time>2017-05-08T08:27:02Z</time>
      </trkpt>
      <trkpt lat="42.43158" lon="2.38249">
        <ele>1841.06</ele>
        <time>2017-05-08T08:27:15Z</time>
      </trkpt>
      <trkpt lat="42.43164" lon="2.38247">
        <ele>1842.5</ele>
        <time>2017-05-08T08:27:28Z</time>
      </trkpt>
      <trkpt lat="42.43167" lon="2.38237">
        <ele>1844.43</ele>
        <time>2017-05-08T08:27:40Z</time>
      </trkpt>
      <trkpt lat="42.4317" lon="2.3823">
        <ele>1846.83</ele>
        <time>2017-05-08T08:27:50Z</time>
      </trkpt>
      <trkpt lat="42.4317" lon="2.38218">
        <ele>1848.27</ele>
        <time>2017-05-08T08:28:03Z</time>
      </trkpt>
      <trkpt lat="42.43171" lon="2.38215">
        <ele>1848.27</ele>
        <time>2017-05-08T08:28:16Z</time>
      </trkpt>
      <trkpt lat="42.4317" lon="2.38209">
        <ele>1848.75</ele>
        <time>2017-05-08T08:28:31Z</time>
      </trkpt>
      <trkpt lat="42.4317" lon="2.38207">
        <ele>1848.75</ele>
        <time>2017-05-08T08:28:33Z</time>
      </trkpt>
      <trkpt lat="42.4317" lon="2.38199">
        <ele>1849.71</ele>
        <time>2017-05-08T08:28:38Z</time>
      </trkpt>
      <trkpt lat="42.43169" lon="2.38182">
        <ele>1851.16</ele>
        <time>2017-05-08T08:28:52Z</time>
      </trkpt>
      <trkpt lat="42.43169" lon="2.38168">
        <ele>1852.6</ele>
        <time>2017-05-08T08:29:05Z</time>
      </trkpt>
      <trkpt lat="42.43166" lon="2.38164">
        <ele>1852.6</ele>
        <time>2017-05-08T08:29:09Z</time>
      </trkpt>
      <trkpt lat="42.43165" lon="2.3815">
        <ele>1854.52</ele>
        <time>2017-05-08T08:29:23Z</time>
      </trkpt>
      <trkpt lat="42.43165" lon="2.3815">
        <ele>1854.52</ele>
        <time>2017-05-08T08:29:41Z</time>
      </trkpt>
      <trkpt lat="42.43165" lon="2.38151">
        <ele>1853.56</ele>
        <time>2017-05-08T08:30:08Z</time>
      </trkpt>
      <trkpt lat="42.43166" lon="2.38151">
        <ele>1854.04</ele>
        <time>2017-05-08T08:30:26Z</time>
      </trkpt>
      <trkpt lat="42.43166" lon="2.38151">
        <ele>1854.04</ele>
        <time>2017-05-08T08:30:46Z</time>
      </trkpt>
      <trkpt lat="42.43165" lon="2.38141">
        <ele>1855.96</ele>
        <time>2017-05-08T08:30:59Z</time>
      </trkpt>
      <trkpt lat="42.43162" lon="2.38136">
        <ele>1856.92</ele>
        <time>2017-05-08T08:31:12Z</time>
      </trkpt>
      <trkpt lat="42.43159" lon="2.38125">
        <ele>1857.4</ele>
        <time>2017-05-08T08:31:24Z</time>
      </trkpt>
      <trkpt lat="42.43161" lon="2.3812">
        <ele>1858.85</ele>
        <time>2017-05-08T08:31:30Z</time>
      </trkpt>
      <trkpt lat="42.4316" lon="2.38116">
        <ele>1858.37</ele>
        <time>2017-05-08T08:31:33Z</time>
      </trkpt>
      <trkpt lat="42.4316" lon="2.38103">
        <ele>1859.33</ele>
        <time>2017-05-08T08:31:45Z</time>
      </trkpt>
      <trkpt lat="42.43158" lon="2.38093">
        <ele>1861.73</ele>
        <time>2017-05-08T08:31:58Z</time>
      </trkpt>
      <trkpt lat="42.43154" lon="2.38081">
        <ele>1863.65</ele>
        <time>2017-05-08T08:32:10Z</time>
      </trkpt>
      <trkpt lat="42.43151" lon="2.38076">
        <ele>1865.58</ele>
        <time>2017-05-08T08:32:21Z</time>
      </trkpt>
      <trkpt lat="42.43146" lon="2.38061">
        <ele>1867.02</ele>
        <time>2017-05-08T08:32:35Z</time>
      </trkpt>
      <trkpt lat="42.43142" lon="2.38052">
        <ele>1869.42</ele>
        <time>2017-05-08T08:32:50Z</time>
      </trkpt>
      <trkpt lat="42.43141" lon="2.38046">
        <ele>1871.34</ele>
        <time>2017-05-08T08:33:02Z</time>
      </trkpt>
      <trkpt lat="42.4314" lon="2.38025">
        <ele>1874.23</ele>
        <time>2017-05-08T08:33:17Z</time>
      </trkpt>
      <trkpt lat="42.43137" lon="2.38018">
        <ele>1877.11</ele>
        <time>2017-05-08T08:33:31Z</time>
      </trkpt>
      <trkpt lat="42.43138" lon="2.38007">
        <ele>1880</ele>
        <time>2017-05-08T08:33:45Z</time>
      </trkpt>
      <trkpt lat="42.43136" lon="2.37998">
        <ele>1882.4</ele>
        <time>2017-05-08T08:33:58Z</time>
      </trkpt>
      <trkpt lat="42.43134" lon="2.37992">
        <ele>1884.32</ele>
        <time>2017-05-08T08:34:11Z</time>
      </trkpt>
      <trkpt lat="42.4313" lon="2.37989">
        <ele>1885.76</ele>
        <time>2017-05-08T08:34:25Z</time>
      </trkpt>
      <trkpt lat="42.43125" lon="2.3798">
        <ele>1886.72</ele>
        <time>2017-05-08T08:34:35Z</time>
      </trkpt>
      <trkpt lat="42.4312" lon="2.37967">
        <ele>1889.13</ele>
        <time>2017-05-08T08:34:51Z</time>
      </trkpt>
      <trkpt lat="42.43114" lon="2.37958">
        <ele>1891.05</ele>
        <time>2017-05-08T08:35:06Z</time>
      </trkpt>
      <trkpt lat="42.43114" lon="2.3795">
        <ele>1893.93</ele>
        <time>2017-05-08T08:35:20Z</time>
      </trkpt>
      <trkpt lat="42.43111" lon="2.37944">
        <ele>1895.86</ele>
        <time>2017-05-08T08:35:33Z</time>
      </trkpt>
      <trkpt lat="42.43109" lon="2.37935">
        <ele>1898.74</ele>
        <time>2017-05-08T08:35:46Z</time>
      </trkpt>
      <trkpt lat="42.43108" lon="2.37919">
        <ele>1901.63</ele>
        <time>2017-05-08T08:36:00Z</time>
      </trkpt>
      <trkpt lat="42.43105" lon="2.37915">
        <ele>1903.55</ele>
        <time>2017-05-08T08:36:12Z</time>
      </trkpt>
      <trkpt lat="42.43103" lon="2.3791">
        <ele>1905.95</ele>
        <time>2017-05-08T08:36:25Z</time>
      </trkpt>
      <trkpt lat="42.43104" lon="2.37907">
        <ele>1905.47</ele>
        <time>2017-05-08T08:36:47Z</time>
      </trkpt>
      <trkpt lat="42.43107" lon="2.37905">
        <ele>1906.91</ele>
        <time>2017-05-08T08:37:03Z</time>
      </trkpt>
      <trkpt lat="42.43113" lon="2.37901">
        <ele>1909.8</ele>
        <time>2017-05-08T08:37:16Z</time>
      </trkpt>
      <trkpt lat="42.43113" lon="2.37899">
        <ele>1911.72</ele>
        <time>2017-05-08T08:37:28Z</time>
      </trkpt>
      <trkpt lat="42.43112" lon="2.37897">
        <ele>1913.64</ele>
        <time>2017-05-08T08:37:38Z</time>
      </trkpt>
      <trkpt lat="42.43111" lon="2.37886">
        <ele>1914.6</ele>
        <time>2017-05-08T08:37:51Z</time>
      </trkpt>
      <trkpt lat="42.43109" lon="2.37877">
        <ele>1917.49</ele>
        <time>2017-05-08T08:38:04Z</time>
      </trkpt>
      <trkpt lat="42.43109" lon="2.37867">
        <ele>1919.89</ele>
        <time>2017-05-08T08:38:17Z</time>
      </trkpt>
      <trkpt lat="42.43109" lon="2.37857">
        <ele>1922.77</ele>
        <time>2017-05-08T08:38:31Z</time>
      </trkpt>
      <trkpt lat="42.43108" lon="2.37855">
        <ele>1922.77</ele>
        <time>2017-05-08T08:38:46Z</time>
      </trkpt>
      <trkpt lat="42.43109" lon="2.37854">
        <ele>1922.77</ele>
        <time>2017-05-08T08:39:03Z</time>
      </trkpt>
      <trkpt lat="42.43109" lon="2.37855">
        <ele>1922.29</ele>
        <time>2017-05-08T08:39:20Z</time>
      </trkpt>
      <trkpt lat="42.4311" lon="2.37856">
        <ele>1921.81</ele>
        <time>2017-05-08T08:39:42Z</time>
      </trkpt>
      <trkpt lat="42.4311" lon="2.37855">
        <ele>1920.37</ele>
        <time>2017-05-08T08:40:07Z</time>
      </trkpt>
      <trkpt lat="42.43109" lon="2.37855">
        <ele>1920.37</ele>
        <time>2017-05-08T08:40:29Z</time>
      </trkpt>
      <trkpt lat="42.43109" lon="2.37855">
        <ele>1921.81</ele>
        <time>2017-05-08T08:40:54Z</time>
      </trkpt>
      <trkpt lat="42.43112" lon="2.37851">
        <ele>1923.25</ele>
        <time>2017-05-08T08:41:11Z</time>
      </trkpt>
      <trkpt lat="42.43111" lon="2.37851">
        <ele>1922.77</ele>
        <time>2017-05-08T08:41:26Z</time>
      </trkpt>
      <trkpt lat="42.4311" lon="2.37852">
        <ele>1921.33</ele>
        <time>2017-05-08T08:41:56Z</time>
      </trkpt>
      <trkpt lat="42.43111" lon="2.37852">
        <ele>1920.85</ele>
        <time>2017-05-08T08:42:14Z</time>
      </trkpt>
      <trkpt lat="42.4311" lon="2.3785">
        <ele>1922.29</ele>
        <time>2017-05-08T08:42:29Z</time>
      </trkpt>
      <trkpt lat="42.43111" lon="2.37846">
        <ele>1924.22</ele>
        <time>2017-05-08T08:42:45Z</time>
      </trkpt>
      <trkpt lat="42.43112" lon="2.37838">
        <ele>1927.1</ele>
        <time>2017-05-08T08:42:59Z</time>
      </trkpt>
      <trkpt lat="42.43112" lon="2.37837">
        <ele>1924.22</ele>
        <time>2017-05-08T08:43:18Z</time>
      </trkpt>
      <trkpt lat="42.43112" lon="2.37835">
        <ele>1925.66</ele>
        <time>2017-05-08T08:43:21Z</time>
      </trkpt>
      <trkpt lat="42.43112" lon="2.37833">
        <ele>1929.02</ele>
        <time>2017-05-08T08:43:25Z</time>
      </trkpt>
      <trkpt lat="42.43111" lon="2.37833">
        <ele>1928.54</ele>
        <time>2017-05-08T08:43:49Z</time>
      </trkpt>
      <trkpt lat="42.43108" lon="2.37831">
        <ele>1929.98</ele>
        <time>2017-05-08T08:44:03Z</time>
      </trkpt>
      <trkpt lat="42.43111" lon="2.37825">
        <ele>1928.54</ele>
        <time>2017-05-08T08:44:19Z</time>
      </trkpt>
      <trkpt lat="42.43114" lon="2.37819">
        <ele>1926.14</ele>
        <time>2017-05-08T08:44:27Z</time>
      </trkpt>
      <trkpt lat="42.43115" lon="2.37815">
        <ele>1926.14</ele>
        <time>2017-05-08T08:44:33Z</time>
      </trkpt>
      <trkpt lat="42.43118" lon="2.37807">
        <ele>1926.14</ele>
        <time>2017-05-08T08:44:39Z</time>
      </trkpt>
      <trkpt lat="42.43121" lon="2.37801">
        <ele>1925.66</ele>
        <time>2017-05-08T08:44:44Z</time>
      </trkpt>
      <trkpt lat="42.43128" lon="2.37796">
        <ele>1928.54</ele>
        <time>2017-05-08T08:44:54Z</time>
      </trkpt>
      <trkpt lat="42.43137" lon="2.37796">
        <ele>1931.91</ele>
        <time>2017-05-08T08:45:07Z</time>
      </trkpt>
      <trkpt lat="42.43143" lon="2.37796">
        <ele>1933.35</ele>
        <time>2017-05-08T08:45:17Z</time>
      </trkpt>
      <trkpt lat="42.43148" lon="2.37794">
        <ele>1935.27</ele>
        <time>2017-05-08T08:45:29Z</time>
      </trkpt>
      <trkpt lat="42.43154" lon="2.37793">
        <ele>1937.19</ele>
        <time>2017-05-08T08:45:39Z</time>
      </trkpt>
      <trkpt lat="42.43155" lon="2.37792">
        <ele>1937.67</ele>
        <time>2017-05-08T08:45:41Z</time>
      </trkpt>
      <trkpt lat="42.43161" lon="2.3779">
        <ele>1939.12</ele>
        <time>2017-05-08T08:45:53Z</time>
      </trkpt>
      <trkpt lat="42.43169" lon="2.3779">
        <ele>1940.56</ele>
        <time>2017-05-08T08:46:04Z</time>
      </trkpt>
      <trkpt lat="42.43177" lon="2.37789">
        <ele>1940.56</ele>
        <time>2017-05-08T08:46:13Z</time>
      </trkpt>
      <trkpt lat="42.4318" lon="2.37788">
        <ele>1940.56</ele>
        <time>2017-05-08T08:46:16Z</time>
      </trkpt>
      <trkpt lat="42.43182" lon="2.3779">
        <ele>1941.04</ele>
        <time>2017-05-08T08:46:19Z</time>
      </trkpt>
      <trkpt lat="42.43191" lon="2.37792">
        <ele>1942.48</ele>
        <time>2017-05-08T08:46:31Z</time>
      </trkpt>
      <trkpt lat="42.43197" lon="2.37793">
        <ele>1943.44</ele>
        <time>2017-05-08T08:46:41Z</time>
      </trkpt>
      <trkpt lat="42.43203" lon="2.37794">
        <ele>1944.88</ele>
        <time>2017-05-08T08:46:52Z</time>
      </trkpt>
      <trkpt lat="42.43213" lon="2.37794">
        <ele>1946.33</ele>
        <time>2017-05-08T08:47:04Z</time>
      </trkpt>
      <trkpt lat="42.43221" lon="2.37793">
        <ele>1947.29</ele>
        <time>2017-05-08T08:47:17Z</time>
      </trkpt>
      <trkpt lat="42.4323" lon="2.37797">
        <ele>1950.17</ele>
        <time>2017-05-08T08:47:32Z</time>
      </trkpt>
      <trkpt lat="42.43237" lon="2.37799">
        <ele>1952.57</ele>
        <time>2017-05-08T08:47:46Z</time>
      </trkpt>
      <trkpt lat="42.43237" lon="2.378">
        <ele>1954.02</ele>
        <time>2017-05-08T08:48:00Z</time>
      </trkpt>
      <trkpt lat="42.43244" lon="2.378">
        <ele>1955.46</ele>
        <time>2017-05-08T08:48:10Z</time>
      </trkpt>
      <trkpt lat="42.43247" lon="2.37802">
        <ele>1958.34</ele>
        <time>2017-05-08T08:48:20Z</time>
      </trkpt>
      <trkpt lat="42.43253" lon="2.37803">
        <ele>1960.75</ele>
        <time>2017-05-08T08:48:32Z</time>
      </trkpt>
      <trkpt lat="42.43262" lon="2.37803">
        <ele>1963.63</ele>
        <time>2017-05-08T08:48:45Z</time>
      </trkpt>
      <trkpt lat="42.43268" lon="2.37802">
        <ele>1966.03</ele>
        <time>2017-05-08T08:48:57Z</time>
      </trkpt>
      <trkpt lat="42.43272" lon="2.37803">
        <ele>1967.96</ele>
        <time>2017-05-08T08:49:08Z</time>
      </trkpt>
      <trkpt lat="42.43272" lon="2.37805">
        <ele>1967.48</ele>
        <time>2017-05-08T08:49:25Z</time>
      </trkpt>
      <trkpt lat="42.43273" lon="2.37805">
        <ele>1967.96</ele>
        <time>2017-05-08T08:49:38Z</time>
      </trkpt>
      <trkpt lat="42.43278" lon="2.37802">
        <ele>1968.92</ele>
        <time>2017-05-08T08:49:46Z</time>
      </trkpt>
      <trkpt lat="42.43287" lon="2.378">
        <ele>1971.32</ele>
        <time>2017-05-08T08:49:59Z</time>
      </trkpt>
      <trkpt lat="42.43291" lon="2.37809">
        <ele>1973.72</ele>
        <time>2017-05-08T08:50:11Z</time>
      </trkpt>
      <trkpt lat="42.43295" lon="2.37815">
        <ele>1976.61</ele>
        <time>2017-05-08T08:50:25Z</time>
      </trkpt>
      <trkpt lat="42.43299" lon="2.3782">
        <ele>1979.01</ele>
        <time>2017-05-08T08:50:37Z</time>
      </trkpt>
      <trkpt lat="42.43302" lon="2.3782">
        <ele>1980.93</ele>
        <time>2017-05-08T08:50:48Z</time>
      </trkpt>
      <trkpt lat="42.43304" lon="2.37823">
        <ele>1983.82</ele>
        <time>2017-05-08T08:51:03Z</time>
      </trkpt>
      <trkpt lat="42.43308" lon="2.37825">
        <ele>1987.18</ele>
        <time>2017-05-08T08:51:18Z</time>
      </trkpt>
      <trkpt lat="42.4331" lon="2.37827">
        <ele>1987.18</ele>
        <time>2017-05-08T08:51:33Z</time>
      </trkpt>
      <trkpt lat="42.43313" lon="2.37827">
        <ele>1989.59</ele>
        <time>2017-05-08T08:51:51Z</time>
      </trkpt>
      <trkpt lat="42.43322" lon="2.37828">
        <ele>1992.47</ele>
        <time>2017-05-08T08:52:02Z</time>
      </trkpt>
      <trkpt lat="42.43326" lon="2.37831">
        <ele>1994.87</ele>
        <time>2017-05-08T08:52:17Z</time>
      </trkpt>
      <trkpt lat="42.43333" lon="2.3784">
        <ele>1997.76</ele>
        <time>2017-05-08T08:52:30Z</time>
      </trkpt>
      <trkpt lat="42.43337" lon="2.37843">
        <ele>1998.72</ele>
        <time>2017-05-08T08:52:48Z</time>
      </trkpt>
      <trkpt lat="42.43345" lon="2.37849">
        <ele>2001.12</ele>
        <time>2017-05-08T08:53:02Z</time>
      </trkpt>
      <trkpt lat="42.43352" lon="2.37853">
        <ele>2003.52</ele>
        <time>2017-05-08T08:53:14Z</time>
      </trkpt>
      <trkpt lat="42.43357" lon="2.37853">
        <ele>2006.41</ele>
        <time>2017-05-08T08:53:23Z</time>
      </trkpt>
      <trkpt lat="42.43365" lon="2.37856">
        <ele>2006.89</ele>
        <time>2017-05-08T08:53:37Z</time>
      </trkpt>
      <trkpt lat="42.43369" lon="2.37856">
        <ele>2008.81</ele>
        <time>2017-05-08T08:53:49Z</time>
      </trkpt>
      <trkpt lat="42.43373" lon="2.37857">
        <ele>2010.25</ele>
        <time>2017-05-08T08:53:56Z</time>
      </trkpt>
      <trkpt lat="42.4338" lon="2.37859">
        <ele>2012.18</ele>
        <time>2017-05-08T08:54:08Z</time>
      </trkpt>
      <trkpt lat="42.43387" lon="2.37856">
        <ele>2014.58</ele>
        <time>2017-05-08T08:54:21Z</time>
      </trkpt>
      <trkpt lat="42.43392" lon="2.37852">
        <ele>2016.98</ele>
        <time>2017-05-08T08:54:34Z</time>
      </trkpt>
      <trkpt lat="42.43393" lon="2.37852">
        <ele>2017.46</ele>
        <time>2017-05-08T08:54:45Z</time>
      </trkpt>
      <trkpt lat="42.43393" lon="2.37851">
        <ele>2017.46</ele>
        <time>2017-05-08T08:55:01Z</time>
      </trkpt>
      <trkpt lat="42.43398" lon="2.37845">
        <ele>2018.43</ele>
        <time>2017-05-08T08:55:14Z</time>
      </trkpt>
      <trkpt lat="42.434" lon="2.37847">
        <ele>2020.83</ele>
        <time>2017-05-08T08:55:28Z</time>
      </trkpt>
      <trkpt lat="42.43401" lon="2.37846">
        <ele>2021.31</ele>
        <time>2017-05-08T08:55:50Z</time>
      </trkpt>
      <trkpt lat="42.43405" lon="2.37842">
        <ele>2020.83</ele>
        <time>2017-05-08T08:56:06Z</time>
      </trkpt>
      <trkpt lat="42.43405" lon="2.3784">
        <ele>2021.79</ele>
        <time>2017-05-08T08:56:09Z</time>
      </trkpt>
      <trkpt lat="42.43408" lon="2.37831">
        <ele>2024.67</ele>
        <time>2017-05-08T08:56:19Z</time>
      </trkpt>
      <trkpt lat="42.43411" lon="2.37823">
        <ele>2027.56</ele>
        <time>2017-05-08T08:56:30Z</time>
      </trkpt>
      <trkpt lat="42.43414" lon="2.37813">
        <ele>2030.92</ele>
        <time>2017-05-08T08:56:43Z</time>
      </trkpt>
      <trkpt lat="42.43417" lon="2.37802">
        <ele>2032.84</ele>
        <time>2017-05-08T08:56:56Z</time>
      </trkpt>
      <trkpt lat="42.43419" lon="2.37792">
        <ele>2035.25</ele>
        <time>2017-05-08T08:57:10Z</time>
      </trkpt>
      <trkpt lat="42.4342" lon="2.37784">
        <ele>2036.69</ele>
        <time>2017-05-08T08:57:23Z</time>
      </trkpt>
      <trkpt lat="42.43421" lon="2.3778">
        <ele>2037.17</ele>
        <time>2017-05-08T08:57:34Z</time>
      </trkpt>
      <trkpt lat="42.43421" lon="2.3778">
        <ele>2037.17</ele>
        <time>2017-05-08T08:57:49Z</time>
      </trkpt>
      <trkpt lat="42.43421" lon="2.3778">
        <ele>2038.13</ele>
        <time>2017-05-08T08:58:15Z</time>
      </trkpt>
      <trkpt lat="42.43422" lon="2.3778">
        <ele>2040.05</ele>
        <time>2017-05-08T08:58:40Z</time>
      </trkpt>
      <trkpt lat="42.43424" lon="2.37776">
        <ele>2039.57</ele>
        <time>2017-05-08T08:58:59Z</time>
      </trkpt>
      <trkpt lat="42.43426" lon="2.37765">
        <ele>2041.98</ele>
        <time>2017-05-08T08:59:12Z</time>
      </trkpt>
      <trkpt lat="42.43428" lon="2.37756">
        <ele>2043.9</ele>
        <time>2017-05-08T08:59:25Z</time>
      </trkpt>
      <trkpt lat="42.43431" lon="2.37748">
        <ele>2046.78</ele>
        <time>2017-05-08T08:59:37Z</time>
      </trkpt>
      <trkpt lat="42.43431" lon="2.37739">
        <ele>2049.19</ele>
        <time>2017-05-08T08:59:51Z</time>
      </trkpt>
      <trkpt lat="42.43432" lon="2.37733">
        <ele>2051.59</ele>
        <time>2017-05-08T09:00:00Z</time>
      </trkpt>
      <trkpt lat="42.4343" lon="2.3772">
        <ele>2052.55</ele>
        <time>2017-05-08T09:00:13Z</time>
      </trkpt>
      <trkpt lat="42.43433" lon="2.37713">
        <ele>2054.96</ele>
        <time>2017-05-08T09:00:26Z</time>
      </trkpt>
      <trkpt lat="42.43436" lon="2.37708">
        <ele>2057.36</ele>
        <time>2017-05-08T09:00:36Z</time>
      </trkpt>
      <trkpt lat="42.4344" lon="2.37702">
        <ele>2059.76</ele>
        <time>2017-05-08T09:00:48Z</time>
      </trkpt>
      <trkpt lat="42.43443" lon="2.37696">
        <ele>2061.2</ele>
        <time>2017-05-08T09:01:01Z</time>
      </trkpt>
      <trkpt lat="42.43448" lon="2.3769">
        <ele>2062.65</ele>
        <time>2017-05-08T09:01:12Z</time>
      </trkpt>
      <trkpt lat="42.43455" lon="2.37687">
        <ele>2065.05</ele>
        <time>2017-05-08T09:01:25Z</time>
      </trkpt>
      <trkpt lat="42.4346" lon="2.37685">
        <ele>2066.01</ele>
        <time>2017-05-08T09:01:35Z</time>
      </trkpt>
      <trkpt lat="42.43466" lon="2.3768">
        <ele>2066.01</ele>
        <time>2017-05-08T09:01:47Z</time>
      </trkpt>
      <trkpt lat="42.4347" lon="2.37678">
        <ele>2065.53</ele>
        <time>2017-05-08T09:02:02Z</time>
      </trkpt>
      <trkpt lat="42.43478" lon="2.37674">
        <ele>2066.49</ele>
        <time>2017-05-08T09:02:13Z</time>
      </trkpt>
      <trkpt lat="42.43481" lon="2.37671">
        <ele>2066.49</ele>
        <time>2017-05-08T09:02:17Z</time>
      </trkpt>
      <trkpt lat="42.43488" lon="2.37668">
        <ele>2067.45</ele>
        <time>2017-05-08T09:02:26Z</time>
      </trkpt>
      <trkpt lat="42.4349" lon="2.37667">
        <ele>2067.45</ele>
        <time>2017-05-08T09:02:28Z</time>
      </trkpt>
      <trkpt lat="42.43496" lon="2.3766">
        <ele>2068.41</ele>
        <time>2017-05-08T09:02:40Z</time>
      </trkpt>
      <trkpt lat="42.43499" lon="2.37655">
        <ele>2069.86</ele>
        <time>2017-05-08T09:02:54Z</time>
      </trkpt>
      <trkpt lat="42.43504" lon="2.37645">
        <ele>2071.3</ele>
        <time>2017-05-08T09:03:07Z</time>
      </trkpt>
      <trkpt lat="42.43512" lon="2.37639">
        <ele>2073.7</ele>
        <time>2017-05-08T09:03:19Z</time>
      </trkpt>
      <trkpt lat="42.43513" lon="2.37633">
        <ele>2073.22</ele>
        <time>2017-05-08T09:03:25Z</time>
      </trkpt>
      <trkpt lat="42.43519" lon="2.37623">
        <ele>2074.18</ele>
        <time>2017-05-08T09:03:38Z</time>
      </trkpt>
      <trkpt lat="42.43525" lon="2.37617">
        <ele>2074.18</ele>
        <time>2017-05-08T09:03:50Z</time>
      </trkpt>
      <trkpt lat="42.43526" lon="2.37614">
        <ele>2074.18</ele>
        <time>2017-05-08T09:04:02Z</time>
      </trkpt>
      <trkpt lat="42.43527" lon="2.37608">
        <ele>2075.14</ele>
        <time>2017-05-08T09:04:12Z</time>
      </trkpt>
      <trkpt lat="42.43527" lon="2.37608">
        <ele>2075.14</ele>
        <time>2017-05-08T09:04:13Z</time>
      </trkpt>
      <trkpt lat="42.43527" lon="2.37599">
        <ele>2076.59</ele>
        <time>2017-05-08T09:04:22Z</time>
      </trkpt>
      <trkpt lat="42.43529" lon="2.37594">
        <ele>2076.1</ele>
        <time>2017-05-08T09:04:27Z</time>
      </trkpt>
      <trkpt lat="42.43536" lon="2.3758">
        <ele>2078.51</ele>
        <time>2017-05-08T09:04:41Z</time>
      </trkpt>
      <trkpt lat="42.43536" lon="2.37579">
        <ele>2078.51</ele>
        <time>2017-05-08T09:04:42Z</time>
      </trkpt>
      <trkpt lat="42.43537" lon="2.37568">
        <ele>2077.07</ele>
        <time>2017-05-08T09:04:55Z</time>
      </trkpt>
      <trkpt lat="42.43537" lon="2.37559">
        <ele>2079.95</ele>
        <time>2017-05-08T09:05:04Z</time>
      </trkpt>
      <trkpt lat="42.43537" lon="2.37556">
        <ele>2081.39</ele>
        <time>2017-05-08T09:05:08Z</time>
      </trkpt>
      <trkpt lat="42.43535" lon="2.37552">
        <ele>2081.87</ele>
        <time>2017-05-08T09:05:11Z</time>
      </trkpt>
      <trkpt lat="42.43534" lon="2.37546">
        <ele>2083.31</ele>
        <time>2017-05-08T09:05:16Z</time>
      </trkpt>
      <trkpt lat="42.43534" lon="2.37536">
        <ele>2083.31</ele>
        <time>2017-05-08T09:05:24Z</time>
      </trkpt>
      <trkpt lat="42.43534" lon="2.37533">
        <ele>2082.35</ele>
        <time>2017-05-08T09:05:27Z</time>
      </trkpt>
      <trkpt lat="42.43533" lon="2.3752">
        <ele>2082.83</ele>
        <time>2017-05-08T09:05:40Z</time>
      </trkpt>
      <trkpt lat="42.4353" lon="2.37513">
        <ele>2084.28</ele>
        <time>2017-05-08T09:05:53Z</time>
      </trkpt>
      <trkpt lat="42.43529" lon="2.37512">
        <ele>2082.83</ele>
        <time>2017-05-08T09:05:57Z</time>
      </trkpt>
      <trkpt lat="42.4353" lon="2.37511">
        <ele>2084.28</ele>
        <time>2017-05-08T09:06:09Z</time>
      </trkpt>
      <trkpt lat="42.43531" lon="2.37511">
        <ele>2084.76</ele>
        <time>2017-05-08T09:06:34Z</time>
      </trkpt>
      <trkpt lat="42.43531" lon="2.37511">
        <ele>2084.76</ele>
        <time>2017-05-08T09:06:55Z</time>
      </trkpt>
      <trkpt lat="42.43533" lon="2.37511">
        <ele>2084.28</ele>
        <time>2017-05-08T09:07:18Z</time>
      </trkpt>
      <trkpt lat="42.43532" lon="2.37506">
        <ele>2083.79</ele>
        <time>2017-05-08T09:07:32Z</time>
      </trkpt>
      <trkpt lat="42.43531" lon="2.37489">
        <ele>2083.79</ele>
        <time>2017-05-08T09:07:46Z</time>
      </trkpt>
      <trkpt lat="42.43531" lon="2.37489">
        <ele>2083.79</ele>
        <time>2017-05-08T09:07:52Z</time>
      </trkpt>
      <trkpt lat="42.43532" lon="2.37483">
        <ele>2083.79</ele>
        <time>2017-05-08T09:07:56Z</time>
      </trkpt>
      <trkpt lat="42.43532" lon="2.37477">
        <ele>2083.79</ele>
        <time>2017-05-08T09:08:00Z</time>
      </trkpt>
      <trkpt lat="42.43532" lon="2.37461">
        <ele>2084.76</ele>
        <time>2017-05-08T09:08:13Z</time>
      </trkpt>
      <trkpt lat="42.43533" lon="2.37444">
        <ele>2086.68</ele>
        <time>2017-05-08T09:08:27Z</time>
      </trkpt>
      <trkpt lat="42.43533" lon="2.37439">
        <ele>2086.68</ele>
        <time>2017-05-08T09:08:31Z</time>
      </trkpt>
      <trkpt lat="42.43531" lon="2.37426">
        <ele>2087.16</ele>
        <time>2017-05-08T09:08:40Z</time>
      </trkpt>
      <trkpt lat="42.43527" lon="2.37411">
        <ele>2087.16</ele>
        <time>2017-05-08T09:08:52Z</time>
      </trkpt>
      <trkpt lat="42.43525" lon="2.37404">
        <ele>2088.12</ele>
        <time>2017-05-08T09:08:58Z</time>
      </trkpt>
      <trkpt lat="42.43518" lon="2.37396">
        <ele>2089.56</ele>
        <time>2017-05-08T09:09:09Z</time>
      </trkpt>
      <trkpt lat="42.43516" lon="2.37391">
        <ele>2090.04</ele>
        <time>2017-05-08T09:09:14Z</time>
      </trkpt>
      <trkpt lat="42.43515" lon="2.37389">
        <ele>2091</ele>
        <time>2017-05-08T09:09:17Z</time>
      </trkpt>
      <trkpt lat="42.43509" lon="2.37376">
        <ele>2090.04</ele>
        <time>2017-05-08T09:09:29Z</time>
      </trkpt>
      <trkpt lat="42.43505" lon="2.37374">
        <ele>2091.49</ele>
        <time>2017-05-08T09:09:34Z</time>
      </trkpt>
      <trkpt lat="42.43498" lon="2.37364">
        <ele>2091.97</ele>
        <time>2017-05-08T09:09:45Z</time>
      </trkpt>
      <trkpt lat="42.43497" lon="2.37363">
        <ele>2091.97</ele>
        <time>2017-05-08T09:09:46Z</time>
      </trkpt>
      <trkpt lat="42.43491" lon="2.37353">
        <ele>2093.89</ele>
        <time>2017-05-08T09:09:57Z</time>
      </trkpt>
      <trkpt lat="42.43496" lon="2.37345">
        <ele>2097.73</ele>
        <time>2017-05-08T09:10:08Z</time>
      </trkpt>
      <trkpt lat="42.43499" lon="2.37335">
        <ele>2098.7</ele>
        <time>2017-05-08T09:10:20Z</time>
      </trkpt>
      <trkpt lat="42.43503" lon="2.37324">
        <ele>2100.14</ele>
        <time>2017-05-08T09:10:34Z</time>
      </trkpt>
      <trkpt lat="42.43508" lon="2.37316">
        <ele>2102.06</ele>
        <time>2017-05-08T09:10:46Z</time>
      </trkpt>
      <trkpt lat="42.43511" lon="2.37306">
        <ele>2104.46</ele>
        <time>2017-05-08T09:10:59Z</time>
      </trkpt>
      <trkpt lat="42.43511" lon="2.373">
        <ele>2104.46</ele>
        <time>2017-05-08T09:11:04Z</time>
      </trkpt>
      <trkpt lat="42.43511" lon="2.37296">
        <ele>2105.42</ele>
        <time>2017-05-08T09:11:08Z</time>
      </trkpt>
      <trkpt lat="42.43511" lon="2.37289">
        <ele>2105.91</ele>
        <time>2017-05-08T09:11:13Z</time>
      </trkpt>
      <trkpt lat="42.43514" lon="2.37272">
        <ele>2107.83</ele>
        <time>2017-05-08T09:11:28Z</time>
      </trkpt>
      <trkpt lat="42.43515" lon="2.37261">
        <ele>2107.83</ele>
        <time>2017-05-08T09:11:40Z</time>
      </trkpt>
      <trkpt lat="42.43517" lon="2.37253">
        <ele>2110.23</ele>
        <time>2017-05-08T09:11:53Z</time>
      </trkpt>
      <trkpt lat="42.43518" lon="2.37241">
        <ele>2111.67</ele>
        <time>2017-05-08T09:12:05Z</time>
      </trkpt>
      <trkpt lat="42.43521" lon="2.37228">
        <ele>2115.04</ele>
        <time>2017-05-08T09:12:17Z</time>
      </trkpt>
      <trkpt lat="42.43522" lon="2.37223">
        <ele>2115.52</ele>
        <time>2017-05-08T09:12:22Z</time>
      </trkpt>
      <trkpt lat="42.43523" lon="2.37211">
        <ele>2117.92</ele>
        <time>2017-05-08T09:12:36Z</time>
      </trkpt>
      <trkpt lat="42.43526" lon="2.37199">
        <ele>2121.29</ele>
        <time>2017-05-08T09:12:50Z</time>
      </trkpt>
      <trkpt lat="42.43526" lon="2.37187">
        <ele>2122.73</ele>
        <time>2017-05-08T09:13:04Z</time>
      </trkpt>
      <trkpt lat="42.43525" lon="2.3718">
        <ele>2123.21</ele>
        <time>2017-05-08T09:13:10Z</time>
      </trkpt>
      <trkpt lat="42.43524" lon="2.37176">
        <ele>2123.69</ele>
        <time>2017-05-08T09:13:14Z</time>
      </trkpt>
      <trkpt lat="42.43526" lon="2.37169">
        <ele>2124.17</ele>
        <time>2017-05-08T09:13:27Z</time>
      </trkpt>
      <trkpt lat="42.43529" lon="2.37164">
        <ele>2126.09</ele>
        <time>2017-05-08T09:13:40Z</time>
      </trkpt>
      <trkpt lat="42.43529" lon="2.37164">
        <ele>2125.61</ele>
        <time>2017-05-08T09:13:49Z</time>
      </trkpt>
      <trkpt lat="42.43529" lon="2.37165">
        <ele>2125.61</ele>
        <time>2017-05-08T09:14:26Z</time>
      </trkpt>
      <trkpt lat="42.43529" lon="2.37165">
        <ele>2126.57</ele>
        <time>2017-05-08T09:14:47Z</time>
      </trkpt>
      <trkpt lat="42.43529" lon="2.37165">
        <ele>2126.57</ele>
        <time>2017-05-08T09:15:07Z</time>
      </trkpt>
      <trkpt lat="42.43529" lon="2.37165">
        <ele>2126.09</ele>
        <time>2017-05-08T09:15:29Z</time>
      </trkpt>
      <trkpt lat="42.43529" lon="2.37165">
        <ele>2126.09</ele>
        <time>2017-05-08T09:15:43Z</time>
      </trkpt>
      <trkpt lat="42.43529" lon="2.37165">
        <ele>2126.57</ele>
        <time>2017-05-08T09:16:03Z</time>
      </trkpt>
      <trkpt lat="42.4353" lon="2.37165">
        <ele>2126.09</ele>
        <time>2017-05-08T09:16:15Z</time>
      </trkpt>
      <trkpt lat="42.4353" lon="2.37164">
        <ele>2126.09</ele>
        <time>2017-05-08T09:16:26Z</time>
      </trkpt>
      <trkpt lat="42.43531" lon="2.37162">
        <ele>2127.05</ele>
        <time>2017-05-08T09:16:42Z</time>
      </trkpt>
      <trkpt lat="42.43535" lon="2.37159">
        <ele>2128.5</ele>
        <time>2017-05-08T09:16:48Z</time>
      </trkpt>
      <trkpt lat="42.4354" lon="2.37153">
        <ele>2129.46</ele>
        <time>2017-05-08T09:16:56Z</time>
      </trkpt>
      <trkpt lat="42.43543" lon="2.3715">
        <ele>2130.9</ele>
        <time>2017-05-08T09:17:00Z</time>
      </trkpt>
      <trkpt lat="42.43549" lon="2.3714">
        <ele>2132.34</ele>
        <time>2017-05-08T09:17:13Z</time>
      </trkpt>
      <trkpt lat="42.43552" lon="2.37131">
        <ele>2134.74</ele>
        <time>2017-05-08T09:17:26Z</time>
      </trkpt>
      <trkpt lat="42.43557" lon="2.37123">
        <ele>2137.63</ele>
        <time>2017-05-08T09:17:40Z</time>
      </trkpt>
      <trkpt lat="42.43559" lon="2.37117">
        <ele>2140.03</ele>
        <time>2017-05-08T09:17:53Z</time>
      </trkpt>
      <trkpt lat="42.43564" lon="2.37107">
        <ele>2142.92</ele>
        <time>2017-05-08T09:18:05Z</time>
      </trkpt>
      <trkpt lat="42.43567" lon="2.37098">
        <ele>2144.36</ele>
        <time>2017-05-08T09:18:18Z</time>
      </trkpt>
      <trkpt lat="42.43568" lon="2.37093">
        <ele>2145.32</ele>
        <time>2017-05-08T09:18:24Z</time>
      </trkpt>
      <trkpt lat="42.43574" lon="2.37083">
        <ele>2148.68</ele>
        <time>2017-05-08T09:18:39Z</time>
      </trkpt>
      <trkpt lat="42.43577" lon="2.37077">
        <ele>2150.61</ele>
        <time>2017-05-08T09:18:49Z</time>
      </trkpt>
      <trkpt lat="42.43581" lon="2.37066">
        <ele>2152.53</ele>
        <time>2017-05-08T09:19:04Z</time>
      </trkpt>
      <trkpt lat="42.43582" lon="2.37062">
        <ele>2152.53</ele>
        <time>2017-05-08T09:19:08Z</time>
      </trkpt>
      <trkpt lat="42.43587" lon="2.37051">
        <ele>2154.45</ele>
        <time>2017-05-08T09:19:23Z</time>
      </trkpt>
      <trkpt lat="42.4359" lon="2.37044">
        <ele>2155.41</ele>
        <time>2017-05-08T09:19:37Z</time>
      </trkpt>
      <trkpt lat="42.43591" lon="2.37043">
        <ele>2157.82</ele>
        <time>2017-05-08T09:19:57Z</time>
      </trkpt>
      <trkpt lat="42.43598" lon="2.37029">
        <ele>2159.26</ele>
        <time>2017-05-08T09:20:13Z</time>
      </trkpt>
      <trkpt lat="42.43603" lon="2.37018">
        <ele>2160.22</ele>
        <time>2017-05-08T09:20:27Z</time>
      </trkpt>
      <trkpt lat="42.43604" lon="2.37014">
        <ele>2161.66</ele>
        <time>2017-05-08T09:20:33Z</time>
      </trkpt>
      <trkpt lat="42.43604" lon="2.37012">
        <ele>2163.1</ele>
        <time>2017-05-08T09:20:35Z</time>
      </trkpt>
      <trkpt lat="42.43605" lon="2.37009">
        <ele>2165.03</ele>
        <time>2017-05-08T09:20:38Z</time>
      </trkpt>
      <trkpt lat="42.43608" lon="2.37001">
        <ele>2164.06</ele>
        <time>2017-05-08T09:20:46Z</time>
      </trkpt>
      <trkpt lat="42.43608" lon="2.36999">
        <ele>2164.55</ele>
        <time>2017-05-08T09:20:48Z</time>
      </trkpt>
      <trkpt lat="42.43613" lon="2.36984">
        <ele>2166.95</ele>
        <time>2017-05-08T09:21:02Z</time>
      </trkpt>
      <trkpt lat="42.43614" lon="2.36982">
        <ele>2167.43</ele>
        <time>2017-05-08T09:21:06Z</time>
      </trkpt>
      <trkpt lat="42.43614" lon="2.36972">
        <ele>2168.39</ele>
        <time>2017-05-08T09:21:16Z</time>
      </trkpt>
      <trkpt lat="42.43616" lon="2.36967">
        <ele>2170.79</ele>
        <time>2017-05-08T09:21:30Z</time>
      </trkpt>
      <trkpt lat="42.43614" lon="2.36968">
        <ele>2170.31</ele>
        <time>2017-05-08T09:21:41Z</time>
      </trkpt>
      <trkpt lat="42.43614" lon="2.36968">
        <ele>2171.76</ele>
        <time>2017-05-08T09:22:05Z</time>
      </trkpt>
      <trkpt lat="42.43615" lon="2.36966">
        <ele>2171.76</ele>
        <time>2017-05-08T09:22:17Z</time>
      </trkpt>
      <trkpt lat="42.43616" lon="2.36963">
        <ele>2171.76</ele>
        <time>2017-05-08T09:22:21Z</time>
      </trkpt>
      <trkpt lat="42.43618" lon="2.36959">
        <ele>2171.76</ele>
        <time>2017-05-08T09:22:25Z</time>
      </trkpt>
      <trkpt lat="42.43628" lon="2.36949">
        <ele>2174.16</ele>
        <time>2017-05-08T09:22:39Z</time>
      </trkpt>
      <trkpt lat="42.43629" lon="2.36946">
        <ele>2174.64</ele>
        <time>2017-05-08T09:22:41Z</time>
      </trkpt>
      <trkpt lat="42.43633" lon="2.3694">
        <ele>2176.08</ele>
        <time>2017-05-08T09:22:48Z</time>
      </trkpt>
      <trkpt lat="42.43633" lon="2.36926">
        <ele>2176.56</ele>
        <time>2017-05-08T09:23:02Z</time>
      </trkpt>
      <trkpt lat="42.43641" lon="2.36914">
        <ele>2179.45</ele>
        <time>2017-05-08T09:23:17Z</time>
      </trkpt>
      <trkpt lat="42.43642" lon="2.3691">
        <ele>2180.41</ele>
        <time>2017-05-08T09:23:21Z</time>
      </trkpt>
      <trkpt lat="42.43649" lon="2.36899">
        <ele>2183.77</ele>
        <time>2017-05-08T09:23:36Z</time>
      </trkpt>
      <trkpt lat="42.43655" lon="2.36885">
        <ele>2185.69</ele>
        <time>2017-05-08T09:23:49Z</time>
      </trkpt>
      <trkpt lat="42.43658" lon="2.36876">
        <ele>2187.14</ele>
        <time>2017-05-08T09:23:56Z</time>
      </trkpt>
      <trkpt lat="42.43659" lon="2.3687">
        <ele>2188.1</ele>
        <time>2017-05-08T09:24:02Z</time>
      </trkpt>
      <trkpt lat="42.43659" lon="2.36865">
        <ele>2187.14</ele>
        <time>2017-05-08T09:24:06Z</time>
      </trkpt>
      <trkpt lat="42.43656" lon="2.36852">
        <ele>2187.62</ele>
        <time>2017-05-08T09:24:18Z</time>
      </trkpt>
      <trkpt lat="42.43655" lon="2.36851">
        <ele>2187.14</ele>
        <time>2017-05-08T09:24:19Z</time>
      </trkpt>
      <trkpt lat="42.43654" lon="2.36842">
        <ele>2188.1</ele>
        <time>2017-05-08T09:24:27Z</time>
      </trkpt>
      <trkpt lat="42.43654" lon="2.36837">
        <ele>2189.54</ele>
        <time>2017-05-08T09:24:31Z</time>
      </trkpt>
      <trkpt lat="42.43655" lon="2.36818">
        <ele>2190.5</ele>
        <time>2017-05-08T09:24:47Z</time>
      </trkpt>
      <trkpt lat="42.43656" lon="2.36814">
        <ele>2190.98</ele>
        <time>2017-05-08T09:24:50Z</time>
      </trkpt>
      <trkpt lat="42.43663" lon="2.36799">
        <ele>2192.9</ele>
        <time>2017-05-08T09:25:04Z</time>
      </trkpt>
      <trkpt lat="42.43663" lon="2.36797">
        <ele>2194.35</ele>
        <time>2017-05-08T09:25:06Z</time>
      </trkpt>
      <trkpt lat="42.43664" lon="2.36795">
        <ele>2194.35</ele>
        <time>2017-05-08T09:25:08Z</time>
      </trkpt>
      <trkpt lat="42.43665" lon="2.36779">
        <ele>2194.35</ele>
        <time>2017-05-08T09:25:21Z</time>
      </trkpt>
      <trkpt lat="42.43667" lon="2.36769">
        <ele>2195.31</ele>
        <time>2017-05-08T09:25:30Z</time>
      </trkpt>
      <trkpt lat="42.43669" lon="2.36753">
        <ele>2196.75</ele>
        <time>2017-05-08T09:25:43Z</time>
      </trkpt>
      <trkpt lat="42.43671" lon="2.36741">
        <ele>2198.67</ele>
        <time>2017-05-08T09:25:53Z</time>
      </trkpt>
      <trkpt lat="42.43673" lon="2.36726">
        <ele>2200.11</ele>
        <time>2017-05-08T09:26:07Z</time>
      </trkpt>
      <trkpt lat="42.43673" lon="2.36716">
        <ele>2201.08</ele>
        <time>2017-05-08T09:26:16Z</time>
      </trkpt>
      <trkpt lat="42.43679" lon="2.36702">
        <ele>2202.52</ele>
        <time>2017-05-08T09:26:29Z</time>
      </trkpt>
      <trkpt lat="42.43679" lon="2.36701">
        <ele>2202.52</ele>
        <time>2017-05-08T09:26:30Z</time>
      </trkpt>
      <trkpt lat="42.4368" lon="2.36689">
        <ele>2203.48</ele>
        <time>2017-05-08T09:26:41Z</time>
      </trkpt>
      <trkpt lat="42.4368" lon="2.36685">
        <ele>2203.96</ele>
        <time>2017-05-08T09:26:45Z</time>
      </trkpt>
      <trkpt lat="42.4368" lon="2.36683">
        <ele>2204.44</ele>
        <time>2017-05-08T09:26:47Z</time>
      </trkpt>
      <trkpt lat="42.43681" lon="2.36671">
        <ele>2206.84</ele>
        <time>2017-05-08T09:26:58Z</time>
      </trkpt>
      <trkpt lat="42.43684" lon="2.36662">
        <ele>2208.29</ele>
        <time>2017-05-08T09:27:08Z</time>
      </trkpt>
      <trkpt lat="42.43687" lon="2.36653">
        <ele>2210.21</ele>
        <time>2017-05-08T09:27:16Z</time>
      </trkpt>
      <trkpt lat="42.43689" lon="2.36647">
        <ele>2212.13</ele>
        <time>2017-05-08T09:27:23Z</time>
      </trkpt>
      <trkpt lat="42.43694" lon="2.36635">
        <ele>2212.61</ele>
        <time>2017-05-08T09:27:38Z</time>
      </trkpt>
      <trkpt lat="42.43699" lon="2.36624">
        <ele>2215.01</ele>
        <time>2017-05-08T09:27:53Z</time>
      </trkpt>
      <trkpt lat="42.43703" lon="2.36613">
        <ele>2215.98</ele>
        <time>2017-05-08T09:28:04Z</time>
      </trkpt>
      <trkpt lat="42.43708" lon="2.36601">
        <ele>2217.9</ele>
        <time>2017-05-08T09:28:19Z</time>
      </trkpt>
      <trkpt lat="42.43709" lon="2.36598">
        <ele>2218.86</ele>
        <time>2017-05-08T09:28:21Z</time>
      </trkpt>
      <trkpt lat="42.43713" lon="2.36587">
        <ele>2220.3</ele>
        <time>2017-05-08T09:28:33Z</time>
      </trkpt>
      <trkpt lat="42.43716" lon="2.36583">
        <ele>2220.78</ele>
        <time>2017-05-08T09:28:42Z</time>
      </trkpt>
      <trkpt lat="42.43723" lon="2.3657">
        <ele>2222.71</ele>
        <time>2017-05-08T09:28:56Z</time>
      </trkpt>
      <trkpt lat="42.43728" lon="2.36563">
        <ele>2223.19</ele>
        <time>2017-05-08T09:29:05Z</time>
      </trkpt>
      <trkpt lat="42.43734" lon="2.36552">
        <ele>2226.55</ele>
        <time>2017-05-08T09:29:17Z</time>
      </trkpt>
      <trkpt lat="42.43738" lon="2.36543">
        <ele>2226.07</ele>
        <time>2017-05-08T09:29:26Z</time>
      </trkpt>
      <trkpt lat="42.43743" lon="2.3653">
        <ele>2227.51</ele>
        <time>2017-05-08T09:29:39Z</time>
      </trkpt>
      <trkpt lat="42.43746" lon="2.36522">
        <ele>2227.51</ele>
        <time>2017-05-08T09:29:47Z</time>
      </trkpt>
      <trkpt lat="42.43748" lon="2.36521">
        <ele>2230.4</ele>
        <time>2017-05-08T09:29:51Z</time>
      </trkpt>
      <trkpt lat="42.43747" lon="2.3652">
        <ele>2228.47</ele>
        <time>2017-05-08T09:29:56Z</time>
      </trkpt>
      <trkpt lat="42.43749" lon="2.36518">
        <ele>2225.11</ele>
        <time>2017-05-08T09:30:01Z</time>
      </trkpt>
      <trkpt lat="42.4375" lon="2.36518">
        <ele>2231.36</ele>
        <time>2017-05-08T09:30:03Z</time>
      </trkpt>
      <trkpt lat="42.4375" lon="2.36519">
        <ele>2230.4</ele>
        <time>2017-05-08T09:30:04Z</time>
      </trkpt>
      <trkpt lat="42.43748" lon="2.36519">
        <ele>2231.84</ele>
        <time>2017-05-08T09:30:14Z</time>
      </trkpt>
      <trkpt lat="42.43747" lon="2.36519">
        <ele>2232.8</ele>
        <time>2017-05-08T09:30:30Z</time>
      </trkpt>
      <trkpt lat="42.43746" lon="2.36518">
        <ele>2232.32</ele>
        <time>2017-05-08T09:30:33Z</time>
      </trkpt>
      <trkpt lat="42.43741" lon="2.3651">
        <ele>2232.32</ele>
        <time>2017-05-08T09:30:43Z</time>
      </trkpt>
      <trkpt lat="42.43735" lon="2.36499">
        <ele>2234.72</ele>
        <time>2017-05-08T09:30:54Z</time>
      </trkpt>
      <trkpt lat="42.43734" lon="2.36498">
        <ele>2234.72</ele>
        <time>2017-05-08T09:30:55Z</time>
      </trkpt>
      <trkpt lat="42.43727" lon="2.36486">
        <ele>2234.72</ele>
        <time>2017-05-08T09:31:07Z</time>
      </trkpt>
      <trkpt lat="42.43725" lon="2.36478">
        <ele>2235.68</ele>
        <time>2017-05-08T09:31:18Z</time>
      </trkpt>
      <trkpt lat="42.43723" lon="2.36477">
        <ele>2236.64</ele>
        <time>2017-05-08T09:31:30Z</time>
      </trkpt>
      <trkpt lat="42.43719" lon="2.36476">
        <ele>2235.2</ele>
        <time>2017-05-08T09:31:33Z</time>
      </trkpt>
      <trkpt lat="42.43713" lon="2.3647">
        <ele>2234.72</ele>
        <time>2017-05-08T09:31:41Z</time>
      </trkpt>
      <trkpt lat="42.43708" lon="2.36467">
        <ele>2234.72</ele>
        <time>2017-05-08T09:31:46Z</time>
      </trkpt>
      <trkpt lat="42.43701" lon="2.36462">
        <ele>2235.2</ele>
        <time>2017-05-08T09:31:55Z</time>
      </trkpt>
      <trkpt lat="42.43699" lon="2.3646">
        <ele>2235.68</ele>
        <time>2017-05-08T09:31:59Z</time>
      </trkpt>
      <trkpt lat="42.43693" lon="2.36453">
        <ele>2234.72</ele>
        <time>2017-05-08T09:32:06Z</time>
      </trkpt>
      <trkpt lat="42.43691" lon="2.36451">
        <ele>2235.2</ele>
        <time>2017-05-08T09:32:08Z</time>
      </trkpt>
      <trkpt lat="42.43691" lon="2.36448">
        <ele>2235.68</ele>
        <time>2017-05-08T09:32:22Z</time>
      </trkpt>
      <trkpt lat="42.43689" lon="2.36446">
        <ele>2237.13</ele>
        <time>2017-05-08T09:32:25Z</time>
      </trkpt>
      <trkpt lat="42.43686" lon="2.36441">
        <ele>2237.13</ele>
        <time>2017-05-08T09:32:30Z</time>
      </trkpt>
      <trkpt lat="42.43685" lon="2.36436">
        <ele>2237.13</ele>
        <time>2017-05-08T09:32:43Z</time>
      </trkpt>
      <trkpt lat="42.43685" lon="2.36431">
        <ele>2237.13</ele>
        <time>2017-05-08T09:32:54Z</time>
      </trkpt>
      <trkpt lat="42.43683" lon="2.36422">
        <ele>2238.09</ele>
        <time>2017-05-08T09:33:02Z</time>
      </trkpt>
      <trkpt lat="42.43681" lon="2.36413">
        <ele>2239.05</ele>
        <time>2017-05-08T09:33:12Z</time>
      </trkpt>
      <trkpt lat="42.43681" lon="2.36413">
        <ele>2238.57</ele>
        <time>2017-05-08T09:33:36Z</time>
      </trkpt>
      <trkpt lat="42.43681" lon="2.3641">
        <ele>2238.09</ele>
        <time>2017-05-08T09:33:41Z</time>
      </trkpt>
      <trkpt lat="42.43678" lon="2.36403">
        <ele>2238.57</ele>
        <time>2017-05-08T09:33:47Z</time>
      </trkpt>
      <trkpt lat="42.43677" lon="2.36399">
        <ele>2238.09</ele>
        <time>2017-05-08T09:33:50Z</time>
      </trkpt>
      <trkpt lat="42.43674" lon="2.36387">
        <ele>2239.05</ele>
        <time>2017-05-08T09:34:02Z</time>
      </trkpt>
      <trkpt lat="42.43667" lon="2.36375">
        <ele>2238.57</ele>
        <time>2017-05-08T09:34:14Z</time>
      </trkpt>
      <trkpt lat="42.43662" lon="2.36365">
        <ele>2240.01</ele>
        <time>2017-05-08T09:34:25Z</time>
      </trkpt>
      <trkpt lat="42.43662" lon="2.36364">
        <ele>2240.97</ele>
        <time>2017-05-08T09:34:27Z</time>
      </trkpt>
      <trkpt lat="42.4366" lon="2.36359">
        <ele>2240.49</ele>
        <time>2017-05-08T09:34:38Z</time>
      </trkpt>
      <trkpt lat="42.43657" lon="2.36346">
        <ele>2240.01</ele>
        <time>2017-05-08T09:34:50Z</time>
      </trkpt>
      <trkpt lat="42.43656" lon="2.36339">
        <ele>2240.97</ele>
        <time>2017-05-08T09:34:57Z</time>
      </trkpt>
      <trkpt lat="42.43652" lon="2.36332">
        <ele>2239.05</ele>
        <time>2017-05-08T09:35:11Z</time>
      </trkpt>
      <trkpt lat="42.43652" lon="2.3632">
        <ele>2239.05</ele>
        <time>2017-05-08T09:35:23Z</time>
      </trkpt>
      <trkpt lat="42.43652" lon="2.36319">
        <ele>2238.57</ele>
        <time>2017-05-08T09:35:25Z</time>
      </trkpt>
      <trkpt lat="42.43654" lon="2.3631">
        <ele>2241.45</ele>
        <time>2017-05-08T09:35:39Z</time>
      </trkpt>
      <trkpt lat="42.43656" lon="2.36307">
        <ele>2241.45</ele>
        <time>2017-05-08T09:35:50Z</time>
      </trkpt>
      <trkpt lat="42.43655" lon="2.36311">
        <ele>2241.93</ele>
        <time>2017-05-08T09:36:03Z</time>
      </trkpt>
      <trkpt lat="42.43657" lon="2.36314">
        <ele>2242.89</ele>
        <time>2017-05-08T09:36:16Z</time>
      </trkpt>
      <trkpt lat="42.43657" lon="2.36314">
        <ele>2241.93</ele>
        <time>2017-05-08T09:36:39Z</time>
      </trkpt>
      <trkpt lat="42.43657" lon="2.36314">
        <ele>2242.41</ele>
        <time>2017-05-08T09:37:05Z</time>
      </trkpt>
      <trkpt lat="42.43656" lon="2.36313">
        <ele>2242.41</ele>
        <time>2017-05-08T09:37:24Z</time>
      </trkpt>
      <trkpt lat="42.43656" lon="2.3631">
        <ele>2242.41</ele>
        <time>2017-05-08T09:37:42Z</time>
      </trkpt>
      <trkpt lat="42.43657" lon="2.36306">
        <ele>2241.45</ele>
        <time>2017-05-08T09:37:45Z</time>
      </trkpt>
      <trkpt lat="42.43661" lon="2.36291">
        <ele>2244.33</ele>
        <time>2017-05-08T09:38:00Z</time>
      </trkpt>
      <trkpt lat="42.43661" lon="2.36289">
        <ele>2245.3</ele>
        <time>2017-05-08T09:38:05Z</time>
      </trkpt>
      <trkpt lat="42.4366" lon="2.36288">
        <ele>2245.3</ele>
        <time>2017-05-08T09:38:06Z</time>
      </trkpt>
      <trkpt lat="42.43659" lon="2.36284">
        <ele>2247.7</ele>
        <time>2017-05-08T09:38:11Z</time>
      </trkpt>
      <trkpt lat="42.43658" lon="2.3628">
        <ele>2246.74</ele>
        <time>2017-05-08T09:38:14Z</time>
      </trkpt>
      <trkpt lat="42.43654" lon="2.36272">
        <ele>2246.74</ele>
        <time>2017-05-08T09:38:21Z</time>
      </trkpt>
      <trkpt lat="42.43651" lon="2.36267">
        <ele>2246.26</ele>
        <time>2017-05-08T09:38:26Z</time>
      </trkpt>
      <trkpt lat="42.43649" lon="2.36261">
        <ele>2246.74</ele>
        <time>2017-05-08T09:38:31Z</time>
      </trkpt>
      <trkpt lat="42.43644" lon="2.36247">
        <ele>2246.26</ele>
        <time>2017-05-08T09:38:44Z</time>
      </trkpt>
      <trkpt lat="42.43643" lon="2.36239">
        <ele>2248.18</ele>
        <time>2017-05-08T09:38:56Z</time>
      </trkpt>
      <trkpt lat="42.43644" lon="2.36234">
        <ele>2248.66</ele>
        <time>2017-05-08T09:39:01Z</time>
      </trkpt>
      <trkpt lat="42.43641" lon="2.36218">
        <ele>2245.3</ele>
        <time>2017-05-08T09:39:16Z</time>
      </trkpt>
      <trkpt lat="42.4364" lon="2.36218">
        <ele>2245.3</ele>
        <time>2017-05-08T09:39:17Z</time>
      </trkpt>
      <trkpt lat="42.4364" lon="2.36211">
        <ele>2244.33</ele>
        <time>2017-05-08T09:39:31Z</time>
      </trkpt>
      <trkpt lat="42.4364" lon="2.36211">
        <ele>2241.93</ele>
        <time>2017-05-08T09:39:51Z</time>
      </trkpt>
      <trkpt lat="42.43645" lon="2.36208">
        <ele>2243.37</ele>
        <time>2017-05-08T09:40:07Z</time>
      </trkpt>
      <trkpt lat="42.4365" lon="2.36208">
        <ele>2244.33</ele>
        <time>2017-05-08T09:40:22Z</time>
      </trkpt>
      <trkpt lat="42.4365" lon="2.36208">
        <ele>2243.85</ele>
        <time>2017-05-08T09:40:35Z</time>
      </trkpt>
      <trkpt lat="42.4365" lon="2.36207">
        <ele>2243.85</ele>
        <time>2017-05-08T09:40:53Z</time>
      </trkpt>
      <trkpt lat="42.4365" lon="2.36207">
        <ele>2242.89</ele>
        <time>2017-05-08T09:41:24Z</time>
      </trkpt>
      <trkpt lat="42.4365" lon="2.36207">
        <ele>2242.89</ele>
        <time>2017-05-08T09:41:28Z</time>
      </trkpt>
      <trkpt lat="42.4365" lon="2.36206">
        <ele>2242.41</ele>
        <time>2017-05-08T09:41:40Z</time>
      </trkpt>
      <trkpt lat="42.4365" lon="2.36206">
        <ele>2243.37</ele>
        <time>2017-05-08T09:42:17Z</time>
      </trkpt>
      <trkpt lat="42.43651" lon="2.36207">
        <ele>2241.93</ele>
        <time>2017-05-08T09:42:55Z</time>
      </trkpt>
      <trkpt lat="42.4365" lon="2.36206">
        <ele>2242.41</ele>
        <time>2017-05-08T09:43:34Z</time>
      </trkpt>
      <trkpt lat="42.4365" lon="2.36206">
        <ele>2244.82</ele>
        <time>2017-05-08T09:44:01Z</time>
      </trkpt>
      <trkpt lat="42.4365" lon="2.36206">
        <ele>2243.85</ele>
        <time>2017-05-08T09:44:15Z</time>
      </trkpt>
      <trkpt lat="42.4365" lon="2.36206">
        <ele>2242.89</ele>
        <time>2017-05-08T09:44:47Z</time>
      </trkpt>
      <trkpt lat="42.4365" lon="2.36206">
        <ele>2242.89</ele>
        <time>2017-05-08T09:45:17Z</time>
      </trkpt>
      <trkpt lat="42.4365" lon="2.36206">
        <ele>2242.89</ele>
        <time>2017-05-08T09:45:47Z</time>
      </trkpt>
      <trkpt lat="42.4365" lon="2.36206">
        <ele>2243.37</ele>
        <time>2017-05-08T09:46:26Z</time>
      </trkpt>
      <trkpt lat="42.4365" lon="2.36206">
        <ele>2243.37</ele>
        <time>2017-05-08T09:46:50Z</time>
      </trkpt>
      <trkpt lat="42.4365" lon="2.36207">
        <ele>2243.37</ele>
        <time>2017-05-08T09:47:17Z</time>
      </trkpt>
      <trkpt lat="42.4365" lon="2.36207">
        <ele>2244.82</ele>
        <time>2017-05-08T09:47:33Z</time>
      </trkpt>
      <trkpt lat="42.43651" lon="2.36207">
        <ele>2243.85</ele>
        <time>2017-05-08T09:47:48Z</time>
      </trkpt>
      <trkpt lat="42.4365" lon="2.36208">
        <ele>2243.85</ele>
        <time>2017-05-08T09:48:03Z</time>
      </trkpt>
      <trkpt lat="42.43649" lon="2.36206">
        <ele>2243.37</ele>
        <time>2017-05-08T09:48:21Z</time>
      </trkpt>
      <trkpt lat="42.43647" lon="2.36202">
        <ele>2242.41</ele>
        <time>2017-05-08T09:48:26Z</time>
      </trkpt>
      <trkpt lat="42.43644" lon="2.36193">
        <ele>2242.41</ele>
        <time>2017-05-08T09:48:34Z</time>
      </trkpt>
      <trkpt lat="42.43643" lon="2.36192">
        <ele>2242.41</ele>
        <time>2017-05-08T09:48:36Z</time>
      </trkpt>
      <trkpt lat="42.43634" lon="2.3618">
        <ele>2241.45</ele>
        <time>2017-05-08T09:48:49Z</time>
      </trkpt>
      <trkpt lat="42.43633" lon="2.36178">
        <ele>2241.45</ele>
        <time>2017-05-08T09:48:51Z</time>
      </trkpt>
      <trkpt lat="42.43632" lon="2.36176">
        <ele>2240.01</ele>
        <time>2017-05-08T09:48:53Z</time>
      </trkpt>
      <trkpt lat="42.43626" lon="2.36163">
        <ele>2236.64</ele>
        <time>2017-05-08T09:49:05Z</time>
      </trkpt>
      <trkpt lat="42.4362" lon="2.3615">
        <ele>2233.76</ele>
        <time>2017-05-08T09:49:16Z</time>
      </trkpt>
      <trkpt lat="42.43616" lon="2.36142">
        <ele>2232.8</ele>
        <time>2017-05-08T09:49:24Z</time>
      </trkpt>
      <trkpt lat="42.43612" lon="2.36135">
        <ele>2231.36</ele>
        <time>2017-05-08T09:49:32Z</time>
      </trkpt>
      <trkpt lat="42.43603" lon="2.36126">
        <ele>2229.43</ele>
        <time>2017-05-08T09:49:42Z</time>
      </trkpt>
      <trkpt lat="42.436" lon="2.36119">
        <ele>2228.95</ele>
        <time>2017-05-08T09:49:49Z</time>
      </trkpt>
      <trkpt lat="42.43599" lon="2.36113">
        <ele>2228.95</ele>
        <time>2017-05-08T09:49:53Z</time>
      </trkpt>
      <trkpt lat="42.43597" lon="2.3611">
        <ele>2228.95</ele>
        <time>2017-05-08T09:49:55Z</time>
      </trkpt>
      <trkpt lat="42.43595" lon="2.36102">
        <ele>2227.99</ele>
        <time>2017-05-08T09:50:02Z</time>
      </trkpt>
      <trkpt lat="42.43594" lon="2.36101">
        <ele>2227.51</ele>
        <time>2017-05-08T09:50:03Z</time>
      </trkpt>
      <trkpt lat="42.43592" lon="2.36082">
        <ele>2226.55</ele>
        <time>2017-05-08T09:50:15Z</time>
      </trkpt>
      <trkpt lat="42.43591" lon="2.3608">
        <ele>2226.55</ele>
        <time>2017-05-08T09:50:17Z</time>
      </trkpt>
      <trkpt lat="42.43582" lon="2.36068">
        <ele>2225.59</ele>
        <time>2017-05-08T09:50:28Z</time>
      </trkpt>
      <trkpt lat="42.43576" lon="2.36059">
        <ele>2225.11</ele>
        <time>2017-05-08T09:50:35Z</time>
      </trkpt>
      <trkpt lat="42.43575" lon="2.36051">
        <ele>2225.59</ele>
        <time>2017-05-08T09:50:40Z</time>
      </trkpt>
      <trkpt lat="42.43571" lon="2.36037">
        <ele>2225.11</ele>
        <time>2017-05-08T09:50:50Z</time>
      </trkpt>
      <trkpt lat="42.43568" lon="2.36018">
        <ele>2225.59</ele>
        <time>2017-05-08T09:51:03Z</time>
      </trkpt>
      <trkpt lat="42.43563" lon="2.35997">
        <ele>2226.55</ele>
        <time>2017-05-08T09:51:17Z</time>
      </trkpt>
      <trkpt lat="42.43566" lon="2.35976">
        <ele>2227.99</ele>
        <time>2017-05-08T09:51:31Z</time>
      </trkpt>
      <trkpt lat="42.43566" lon="2.35975">
        <ele>2227.99</ele>
        <time>2017-05-08T09:51:32Z</time>
      </trkpt>
      <trkpt lat="42.43563" lon="2.35961">
        <ele>2228.47</ele>
        <time>2017-05-08T09:51:42Z</time>
      </trkpt>
      <trkpt lat="42.43558" lon="2.35954">
        <ele>2229.43</ele>
        <time>2017-05-08T09:51:50Z</time>
      </trkpt>
      <trkpt lat="42.43551" lon="2.35944">
        <ele>2232.32</ele>
        <time>2017-05-08T09:51:59Z</time>
      </trkpt>
      <trkpt lat="42.43546" lon="2.35941">
        <ele>2231.84</ele>
        <time>2017-05-08T09:52:04Z</time>
      </trkpt>
      <trkpt lat="42.43545" lon="2.3594">
        <ele>2231.84</ele>
        <time>2017-05-08T09:52:06Z</time>
      </trkpt>
      <trkpt lat="42.43542" lon="2.35938">
        <ele>2231.84</ele>
        <time>2017-05-08T09:52:12Z</time>
      </trkpt>
      <trkpt lat="42.4354" lon="2.35936">
        <ele>2231.84</ele>
        <time>2017-05-08T09:52:14Z</time>
      </trkpt>
      <trkpt lat="42.43536" lon="2.35931">
        <ele>2230.88</ele>
        <time>2017-05-08T09:52:19Z</time>
      </trkpt>
      <trkpt lat="42.43532" lon="2.35928">
        <ele>2230.4</ele>
        <time>2017-05-08T09:52:23Z</time>
      </trkpt>
      <trkpt lat="42.43526" lon="2.35919">
        <ele>2231.84</ele>
        <time>2017-05-08T09:52:35Z</time>
      </trkpt>
      <trkpt lat="42.43525" lon="2.35918">
        <ele>2231.84</ele>
        <time>2017-05-08T09:52:36Z</time>
      </trkpt>
      <trkpt lat="42.43522" lon="2.35911">
        <ele>2231.84</ele>
        <time>2017-05-08T09:52:44Z</time>
      </trkpt>
      <trkpt lat="42.43521" lon="2.359">
        <ele>2233.76</ele>
        <time>2017-05-08T09:52:58Z</time>
      </trkpt>
      <trkpt lat="42.4352" lon="2.35889">
        <ele>2236.64</ele>
        <time>2017-05-08T09:53:11Z</time>
      </trkpt>
      <trkpt lat="42.43519" lon="2.35882">
        <ele>2238.57</ele>
        <time>2017-05-08T09:53:23Z</time>
      </trkpt>
      <trkpt lat="42.43517" lon="2.35879">
        <ele>2239.05</ele>
        <time>2017-05-08T09:53:33Z</time>
      </trkpt>
      <trkpt lat="42.43518" lon="2.35875">
        <ele>2240.97</ele>
        <time>2017-05-08T09:53:45Z</time>
      </trkpt>
      <trkpt lat="42.4352" lon="2.35868">
        <ele>2242.41</ele>
        <time>2017-05-08T09:53:59Z</time>
      </trkpt>
      <trkpt lat="42.4352" lon="2.35857">
        <ele>2244.33</ele>
        <time>2017-05-08T09:54:11Z</time>
      </trkpt>
      <trkpt lat="42.43519" lon="2.35851">
        <ele>2244.82</ele>
        <time>2017-05-08T09:54:22Z</time>
      </trkpt>
      <trkpt lat="42.43517" lon="2.35843">
        <ele>2245.78</ele>
        <time>2017-05-08T09:54:36Z</time>
      </trkpt>
      <trkpt lat="42.43516" lon="2.35841">
        <ele>2245.78</ele>
        <time>2017-05-08T09:54:52Z</time>
      </trkpt>
      <trkpt lat="42.43514" lon="2.35838">
        <ele>2244.82</ele>
        <time>2017-05-08T09:55:07Z</time>
      </trkpt>
      <trkpt lat="42.43514" lon="2.35835">
        <ele>2243.85</ele>
        <time>2017-05-08T09:55:22Z</time>
      </trkpt>
      <trkpt lat="42.43512" lon="2.35831">
        <ele>2242.41</ele>
        <time>2017-05-08T09:55:38Z</time>
      </trkpt>
      <trkpt lat="42.43509" lon="2.35826">
        <ele>2241.93</ele>
        <time>2017-05-08T09:55:50Z</time>
      </trkpt>
      <trkpt lat="42.43505" lon="2.35821">
        <ele>2241.93</ele>
        <time>2017-05-08T09:56:04Z</time>
      </trkpt>
      <trkpt lat="42.43502" lon="2.35819">
        <ele>2241.45</ele>
        <time>2017-05-08T09:56:17Z</time>
      </trkpt>
      <trkpt lat="42.43498" lon="2.35819">
        <ele>2240.49</ele>
        <time>2017-05-08T09:56:24Z</time>
      </trkpt>
      <trkpt lat="42.43499" lon="2.35825">
        <ele>2239.05</ele>
        <time>2017-05-08T09:56:31Z</time>
      </trkpt>
      <trkpt lat="42.43499" lon="2.35829">
        <ele>2238.57</ele>
        <time>2017-05-08T09:56:34Z</time>
      </trkpt>
      <trkpt lat="42.43504" lon="2.35845">
        <ele>2240.01</ele>
        <time>2017-05-08T09:56:49Z</time>
      </trkpt>
      <trkpt lat="42.43504" lon="2.35849">
        <ele>2237.61</ele>
        <time>2017-05-08T09:56:54Z</time>
      </trkpt>
      <trkpt lat="42.43502" lon="2.35855">
        <ele>2235.2</ele>
        <time>2017-05-08T09:57:05Z</time>
      </trkpt>
      <trkpt lat="42.43504" lon="2.3587">
        <ele>2232.8</ele>
        <time>2017-05-08T09:57:18Z</time>
      </trkpt>
      <trkpt lat="42.43506" lon="2.35874">
        <ele>2231.84</ele>
        <time>2017-05-08T09:57:29Z</time>
      </trkpt>
      <trkpt lat="42.43501" lon="2.35868">
        <ele>2231.36</ele>
        <time>2017-05-08T09:57:41Z</time>
      </trkpt>
      <trkpt lat="42.435" lon="2.35865">
        <ele>2231.84</ele>
        <time>2017-05-08T09:57:45Z</time>
      </trkpt>
      <trkpt lat="42.43499" lon="2.35862">
        <ele>2231.84</ele>
        <time>2017-05-08T09:57:47Z</time>
      </trkpt>
      <trkpt lat="42.43496" lon="2.35858">
        <ele>2231.84</ele>
        <time>2017-05-08T09:57:52Z</time>
      </trkpt>
      <trkpt lat="42.43494" lon="2.35852">
        <ele>2232.32</ele>
        <time>2017-05-08T09:58:01Z</time>
      </trkpt>
      <trkpt lat="42.43493" lon="2.35848">
        <ele>2232.32</ele>
        <time>2017-05-08T09:58:04Z</time>
      </trkpt>
      <trkpt lat="42.43489" lon="2.35833">
        <ele>2232.8</ele>
        <time>2017-05-08T09:58:18Z</time>
      </trkpt>
      <trkpt lat="42.43488" lon="2.3583">
        <ele>2233.28</ele>
        <time>2017-05-08T09:58:21Z</time>
      </trkpt>
      <trkpt lat="42.43487" lon="2.35824">
        <ele>2234.24</ele>
        <time>2017-05-08T09:58:26Z</time>
      </trkpt>
      <trkpt lat="42.4348" lon="2.35816">
        <ele>2233.76</ele>
        <time>2017-05-08T09:58:35Z</time>
      </trkpt>
      <trkpt lat="42.43479" lon="2.35813">
        <ele>2233.28</ele>
        <time>2017-05-08T09:58:38Z</time>
      </trkpt>
      <trkpt lat="42.43477" lon="2.3581">
        <ele>2233.28</ele>
        <time>2017-05-08T09:58:41Z</time>
      </trkpt>
      <trkpt lat="42.43473" lon="2.35802">
        <ele>2233.28</ele>
        <time>2017-05-08T09:58:48Z</time>
      </trkpt>
      <trkpt lat="42.43466" lon="2.35792">
        <ele>2234.24</ele>
        <time>2017-05-08T09:58:59Z</time>
      </trkpt>
      <trkpt lat="42.43462" lon="2.3578">
        <ele>2235.68</ele>
        <time>2017-05-08T09:59:13Z</time>
      </trkpt>
      <trkpt lat="42.43462" lon="2.35779">
        <ele>2235.68</ele>
        <time>2017-05-08T09:59:35Z</time>
      </trkpt>
      <trkpt lat="42.43458" lon="2.35766">
        <ele>2235.2</ele>
        <time>2017-05-08T09:59:50Z</time>
      </trkpt>
      <trkpt lat="42.43455" lon="2.35752">
        <ele>2234.72</ele>
        <time>2017-05-08T10:00:02Z</time>
      </trkpt>
      <trkpt lat="42.43454" lon="2.35741">
        <ele>2233.76</ele>
        <time>2017-05-08T10:00:12Z</time>
      </trkpt>
      <trkpt lat="42.43452" lon="2.35731">
        <ele>2233.76</ele>
        <time>2017-05-08T10:00:27Z</time>
      </trkpt>
      <trkpt lat="42.43451" lon="2.3572">
        <ele>2232.8</ele>
        <time>2017-05-08T10:00:42Z</time>
      </trkpt>
      <trkpt lat="42.4345" lon="2.35712">
        <ele>2231.36</ele>
        <time>2017-05-08T10:00:55Z</time>
      </trkpt>
      <trkpt lat="42.43447" lon="2.35699">
        <ele>2230.4</ele>
        <time>2017-05-08T10:01:11Z</time>
      </trkpt>
      <trkpt lat="42.43445" lon="2.35691">
        <ele>2229.92</ele>
        <time>2017-05-08T10:01:21Z</time>
      </trkpt>
      <trkpt lat="42.43441" lon="2.35681">
        <ele>2228.95</ele>
        <time>2017-05-08T10:01:32Z</time>
      </trkpt>
      <trkpt lat="42.4344" lon="2.35678">
        <ele>2227.99</ele>
        <time>2017-05-08T10:01:35Z</time>
      </trkpt>
      <trkpt lat="42.43437" lon="2.35671">
        <ele>2226.07</ele>
        <time>2017-05-08T10:01:44Z</time>
      </trkpt>
      <trkpt lat="42.43435" lon="2.35663">
        <ele>2224.63</ele>
        <time>2017-05-08T10:01:56Z</time>
      </trkpt>
      <trkpt lat="42.43431" lon="2.35653">
        <ele>2222.22</ele>
        <time>2017-05-08T10:02:08Z</time>
      </trkpt>
      <trkpt lat="42.43426" lon="2.35645">
        <ele>2219.82</ele>
        <time>2017-05-08T10:02:20Z</time>
      </trkpt>
      <trkpt lat="42.43426" lon="2.35643">
        <ele>2219.34</ele>
        <time>2017-05-08T10:02:22Z</time>
      </trkpt>
      <trkpt lat="42.43424" lon="2.35634">
        <ele>2218.86</ele>
        <time>2017-05-08T10:02:30Z</time>
      </trkpt>
      <trkpt lat="42.43421" lon="2.35623">
        <ele>2217.9</ele>
        <time>2017-05-08T10:02:43Z</time>
      </trkpt>
      <trkpt lat="42.43417" lon="2.35615">
        <ele>2216.46</ele>
        <time>2017-05-08T10:02:55Z</time>
      </trkpt>
      <trkpt lat="42.43418" lon="2.35613">
        <ele>2215.98</ele>
        <time>2017-05-08T10:03:11Z</time>
      </trkpt>
      <trkpt lat="42.43419" lon="2.35609">
        <ele>2216.94</ele>
        <time>2017-05-08T10:03:24Z</time>
      </trkpt>
      <trkpt lat="42.4342" lon="2.3561">
        <ele>2218.38</ele>
        <time>2017-05-08T10:03:51Z</time>
      </trkpt>
      <trkpt lat="42.43419" lon="2.35603">
        <ele>2218.86</ele>
        <time>2017-05-08T10:04:04Z</time>
      </trkpt>
      <trkpt lat="42.4342" lon="2.35596">
        <ele>2219.82</ele>
        <time>2017-05-08T10:04:18Z</time>
      </trkpt>
      <trkpt lat="42.43418" lon="2.35584">
        <ele>2219.34</ele>
        <time>2017-05-08T10:04:30Z</time>
      </trkpt>
      <trkpt lat="42.43415" lon="2.35578">
        <ele>2220.3</ele>
        <time>2017-05-08T10:04:38Z</time>
      </trkpt>
      <trkpt lat="42.43412" lon="2.35576">
        <ele>2218.86</ele>
        <time>2017-05-08T10:04:41Z</time>
      </trkpt>
      <trkpt lat="42.43409" lon="2.3557">
        <ele>2217.9</ele>
        <time>2017-05-08T10:04:47Z</time>
      </trkpt>
      <trkpt lat="42.43406" lon="2.35564">
        <ele>2216.46</ele>
        <time>2017-05-08T10:04:54Z</time>
      </trkpt>
      <trkpt lat="42.43404" lon="2.35562">
        <ele>2214.53</ele>
        <time>2017-05-08T10:04:57Z</time>
      </trkpt>
      <trkpt lat="42.43396" lon="2.35554">
        <ele>2211.65</ele>
        <time>2017-05-08T10:05:09Z</time>
      </trkpt>
      <trkpt lat="42.43391" lon="2.35549">
        <ele>2210.69</ele>
        <time>2017-05-08T10:05:17Z</time>
      </trkpt>
      <trkpt lat="42.43389" lon="2.35546">
        <ele>2209.25</ele>
        <time>2017-05-08T10:05:20Z</time>
      </trkpt>
      <trkpt lat="42.43386" lon="2.35542">
        <ele>2207.81</ele>
        <time>2017-05-08T10:05:25Z</time>
      </trkpt>
      <trkpt lat="42.43382" lon="2.35526">
        <ele>2206.36</ele>
        <time>2017-05-08T10:05:38Z</time>
      </trkpt>
      <trkpt lat="42.43378" lon="2.35513">
        <ele>2208.77</ele>
        <time>2017-05-08T10:05:50Z</time>
      </trkpt>
      <trkpt lat="42.43375" lon="2.35501">
        <ele>2209.73</ele>
        <time>2017-05-08T10:06:02Z</time>
      </trkpt>
      <trkpt lat="42.43373" lon="2.35497">
        <ele>2210.21</ele>
        <time>2017-05-08T10:06:06Z</time>
      </trkpt>
      <trkpt lat="42.43372" lon="2.35494">
        <ele>2209.73</ele>
        <time>2017-05-08T10:06:08Z</time>
      </trkpt>
      <trkpt lat="42.4337" lon="2.35492">
        <ele>2209.73</ele>
        <time>2017-05-08T10:06:11Z</time>
      </trkpt>
      <trkpt lat="42.43368" lon="2.35489">
        <ele>2210.69</ele>
        <time>2017-05-08T10:06:14Z</time>
      </trkpt>
      <trkpt lat="42.43365" lon="2.35482">
        <ele>2209.73</ele>
        <time>2017-05-08T10:06:21Z</time>
      </trkpt>
      <trkpt lat="42.43364" lon="2.3548">
        <ele>2210.21</ele>
        <time>2017-05-08T10:06:23Z</time>
      </trkpt>
      <trkpt lat="42.43361" lon="2.35469">
        <ele>2209.73</ele>
        <time>2017-05-08T10:06:32Z</time>
      </trkpt>
      <trkpt lat="42.43357" lon="2.35463">
        <ele>2209.25</ele>
        <time>2017-05-08T10:06:38Z</time>
      </trkpt>
      <trkpt lat="42.43353" lon="2.35453">
        <ele>2209.73</ele>
        <time>2017-05-08T10:06:49Z</time>
      </trkpt>
      <trkpt lat="42.4335" lon="2.35447">
        <ele>2211.17</ele>
        <time>2017-05-08T10:06:55Z</time>
      </trkpt>
      <trkpt lat="42.43344" lon="2.35431">
        <ele>2212.13</ele>
        <time>2017-05-08T10:07:11Z</time>
      </trkpt>
      <trkpt lat="42.43342" lon="2.35421">
        <ele>2213.09</ele>
        <time>2017-05-08T10:07:21Z</time>
      </trkpt>
      <trkpt lat="42.43339" lon="2.3541">
        <ele>2215.01</ele>
        <time>2017-05-08T10:07:34Z</time>
      </trkpt>
      <trkpt lat="42.43338" lon="2.35399">
        <ele>2216.94</ele>
        <time>2017-05-08T10:07:47Z</time>
      </trkpt>
      <trkpt lat="42.43336" lon="2.35389">
        <ele>2219.34</ele>
        <time>2017-05-08T10:07:59Z</time>
      </trkpt>
      <trkpt lat="42.43335" lon="2.35378">
        <ele>2221.26</ele>
        <time>2017-05-08T10:08:12Z</time>
      </trkpt>
      <trkpt lat="42.43332" lon="2.35366">
        <ele>2223.67</ele>
        <time>2017-05-08T10:08:26Z</time>
      </trkpt>
      <trkpt lat="42.4333" lon="2.35357">
        <ele>2225.59</ele>
        <time>2017-05-08T10:08:38Z</time>
      </trkpt>
      <trkpt lat="42.4333" lon="2.35346">
        <ele>2228.47</ele>
        <time>2017-05-08T10:08:52Z</time>
      </trkpt>
      <trkpt lat="42.43331" lon="2.35345">
        <ele>2229.43</ele>
        <time>2017-05-08T10:09:13Z</time>
      </trkpt>
      <trkpt lat="42.43332" lon="2.35344">
        <ele>2229.43</ele>
        <time>2017-05-08T10:09:35Z</time>
      </trkpt>
      <trkpt lat="42.43332" lon="2.35342">
        <ele>2229.43</ele>
        <time>2017-05-08T10:09:37Z</time>
      </trkpt>
      <trkpt lat="42.43331" lon="2.3534">
        <ele>2229.43</ele>
        <time>2017-05-08T10:09:39Z</time>
      </trkpt>
      <trkpt lat="42.4333" lon="2.35326">
        <ele>2230.4</ele>
        <time>2017-05-08T10:09:53Z</time>
      </trkpt>
      <trkpt lat="42.4333" lon="2.35325">
        <ele>2230.4</ele>
        <time>2017-05-08T10:09:54Z</time>
      </trkpt>
      <trkpt lat="42.43329" lon="2.3532">
        <ele>2229.92</ele>
        <time>2017-05-08T10:09:58Z</time>
      </trkpt>
      <trkpt lat="42.43328" lon="2.35317">
        <ele>2230.88</ele>
        <time>2017-05-08T10:10:01Z</time>
      </trkpt>
      <trkpt lat="42.43327" lon="2.35309">
        <ele>2230.88</ele>
        <time>2017-05-08T10:10:08Z</time>
      </trkpt>
      <trkpt lat="42.43323" lon="2.35293">
        <ele>2229.92</ele>
        <time>2017-05-08T10:10:22Z</time>
      </trkpt>
      <trkpt lat="42.43321" lon="2.35287">
        <ele>2229.43</ele>
        <time>2017-05-08T10:10:29Z</time>
      </trkpt>
      <trkpt lat="42.4332" lon="2.35281">
        <ele>2229.43</ele>
        <time>2017-05-08T10:10:41Z</time>
      </trkpt>
      <trkpt lat="42.43316" lon="2.35268">
        <ele>2229.43</ele>
        <time>2017-05-08T10:10:55Z</time>
      </trkpt>
      <trkpt lat="42.43315" lon="2.35263">
        <ele>2228.47</ele>
        <time>2017-05-08T10:11:04Z</time>
      </trkpt>
      <trkpt lat="42.43316" lon="2.35263">
        <ele>2228.47</ele>
        <time>2017-05-08T10:11:28Z</time>
      </trkpt>
      <trkpt lat="42.43317" lon="2.35263">
        <ele>2228.47</ele>
        <time>2017-05-08T10:11:56Z</time>
      </trkpt>
      <trkpt lat="42.43314" lon="2.3525">
        <ele>2228.47</ele>
        <time>2017-05-08T10:12:06Z</time>
      </trkpt>
      <trkpt lat="42.4331" lon="2.35233">
        <ele>2227.51</ele>
        <time>2017-05-08T10:12:21Z</time>
      </trkpt>
      <trkpt lat="42.43308" lon="2.35225">
        <ele>2226.55</ele>
        <time>2017-05-08T10:12:34Z</time>
      </trkpt>
      <trkpt lat="42.43304" lon="2.35213">
        <ele>2225.11</ele>
        <time>2017-05-08T10:12:49Z</time>
      </trkpt>
      <trkpt lat="42.43304" lon="2.35206">
        <ele>2225.59</ele>
        <time>2017-05-08T10:12:57Z</time>
      </trkpt>
      <trkpt lat="42.43302" lon="2.35193">
        <ele>2226.07</ele>
        <time>2017-05-08T10:13:08Z</time>
      </trkpt>
      <trkpt lat="42.43299" lon="2.35178">
        <ele>2226.55</ele>
        <time>2017-05-08T10:13:22Z</time>
      </trkpt>
      <trkpt lat="42.43298" lon="2.35167">
        <ele>2227.51</ele>
        <time>2017-05-08T10:13:35Z</time>
      </trkpt>
      <trkpt lat="42.43298" lon="2.35164">
        <ele>2227.99</ele>
        <time>2017-05-08T10:13:37Z</time>
      </trkpt>
      <trkpt lat="42.43295" lon="2.35152">
        <ele>2228.95</ele>
        <time>2017-05-08T10:13:49Z</time>
      </trkpt>
      <trkpt lat="42.43295" lon="2.35149">
        <ele>2229.43</ele>
        <time>2017-05-08T10:14:02Z</time>
      </trkpt>
      <trkpt lat="42.43294" lon="2.35144">
        <ele>2229.92</ele>
        <time>2017-05-08T10:14:10Z</time>
      </trkpt>
      <trkpt lat="42.43292" lon="2.35141">
        <ele>2229.43</ele>
        <time>2017-05-08T10:14:25Z</time>
      </trkpt>
      <trkpt lat="42.4329" lon="2.35133">
        <ele>2229.92</ele>
        <time>2017-05-08T10:14:39Z</time>
      </trkpt>
      <trkpt lat="42.43291" lon="2.35133">
        <ele>2228.95</ele>
        <time>2017-05-08T10:14:57Z</time>
      </trkpt>
      <trkpt lat="42.43291" lon="2.35132">
        <ele>2228.95</ele>
        <time>2017-05-08T10:15:30Z</time>
      </trkpt>
      <trkpt lat="42.43291" lon="2.35132">
        <ele>2228.95</ele>
        <time>2017-05-08T10:16:04Z</time>
      </trkpt>
      <trkpt lat="42.43292" lon="2.35132">
        <ele>2228.95</ele>
        <time>2017-05-08T10:16:36Z</time>
      </trkpt>
      <trkpt lat="42.43292" lon="2.35132">
        <ele>2229.92</ele>
        <time>2017-05-08T10:16:57Z</time>
      </trkpt>
      <trkpt lat="42.43291" lon="2.35132">
        <ele>2229.43</ele>
        <time>2017-05-08T10:17:16Z</time>
      </trkpt>
      <trkpt lat="42.43289" lon="2.35123">
        <ele>2229.92</ele>
        <time>2017-05-08T10:17:27Z</time>
      </trkpt>
      <trkpt lat="42.43288" lon="2.35115">
        <ele>2229.43</ele>
        <time>2017-05-08T10:17:33Z</time>
      </trkpt>
      <trkpt lat="42.43285" lon="2.35105">
        <ele>2229.92</ele>
        <time>2017-05-08T10:17:45Z</time>
      </trkpt>
      <trkpt lat="42.43286" lon="2.35097">
        <ele>2231.36</ele>
        <time>2017-05-08T10:17:56Z</time>
      </trkpt>
      <trkpt lat="42.43285" lon="2.35087">
        <ele>2232.32</ele>
        <time>2017-05-08T10:18:06Z</time>
      </trkpt>
      <trkpt lat="42.43284" lon="2.35085">
        <ele>2232.32</ele>
        <time>2017-05-08T10:18:08Z</time>
      </trkpt>
      <trkpt lat="42.43282" lon="2.35073">
        <ele>2232.8</ele>
        <time>2017-05-08T10:18:19Z</time>
      </trkpt>
      <trkpt lat="42.4328" lon="2.35062">
        <ele>2233.28</ele>
        <time>2017-05-08T10:18:29Z</time>
      </trkpt>
      <trkpt lat="42.4328" lon="2.35046">
        <ele>2235.68</ele>
        <time>2017-05-08T10:18:45Z</time>
      </trkpt>
      <trkpt lat="42.43276" lon="2.3504">
        <ele>2236.64</ele>
        <time>2017-05-08T10:19:00Z</time>
      </trkpt>
      <trkpt lat="42.43276" lon="2.3504">
        <ele>2236.64</ele>
        <time>2017-05-08T10:19:17Z</time>
      </trkpt>
      <trkpt lat="42.43276" lon="2.3504">
        <ele>2236.64</ele>
        <time>2017-05-08T10:19:35Z</time>
      </trkpt>
      <trkpt lat="42.43274" lon="2.35028">
        <ele>2236.16</ele>
        <time>2017-05-08T10:19:47Z</time>
      </trkpt>
      <trkpt lat="42.43271" lon="2.35022">
        <ele>2236.16</ele>
        <time>2017-05-08T10:20:03Z</time>
      </trkpt>
      <trkpt lat="42.43269" lon="2.35014">
        <ele>2236.16</ele>
        <time>2017-05-08T10:20:11Z</time>
      </trkpt>
      <trkpt lat="42.43268" lon="2.35004">
        <ele>2236.16</ele>
        <time>2017-05-08T10:20:22Z</time>
      </trkpt>
      <trkpt lat="42.43266" lon="2.34998">
        <ele>2236.16</ele>
        <time>2017-05-08T10:20:27Z</time>
      </trkpt>
      <trkpt lat="42.43262" lon="2.34989">
        <ele>2235.68</ele>
        <time>2017-05-08T10:20:38Z</time>
      </trkpt>
      <trkpt lat="42.4326" lon="2.34977">
        <ele>2236.64</ele>
        <time>2017-05-08T10:20:52Z</time>
      </trkpt>
      <trkpt lat="42.43259" lon="2.34974">
        <ele>2236.64</ele>
        <time>2017-05-08T10:20:54Z</time>
      </trkpt>
      <trkpt lat="42.43258" lon="2.34969">
        <ele>2237.13</ele>
        <time>2017-05-08T10:21:02Z</time>
      </trkpt>
      <trkpt lat="42.43255" lon="2.34963">
        <ele>2237.13</ele>
        <time>2017-05-08T10:21:08Z</time>
      </trkpt>
      <trkpt lat="42.43251" lon="2.34954">
        <ele>2238.09</ele>
        <time>2017-05-08T10:21:20Z</time>
      </trkpt>
      <trkpt lat="42.43252" lon="2.34949">
        <ele>2240.01</ele>
        <time>2017-05-08T10:21:37Z</time>
      </trkpt>
      <trkpt lat="42.43253" lon="2.34949">
        <ele>2240.01</ele>
        <time>2017-05-08T10:21:51Z</time>
      </trkpt>
      <trkpt lat="42.43257" lon="2.34948">
        <ele>2242.41</ele>
        <time>2017-05-08T10:22:03Z</time>
      </trkpt>
      <trkpt lat="42.43258" lon="2.34945">
        <ele>2244.82</ele>
        <time>2017-05-08T10:22:10Z</time>
      </trkpt>
      <trkpt lat="42.4326" lon="2.34942">
        <ele>2246.74</ele>
        <time>2017-05-08T10:22:23Z</time>
      </trkpt>
      <trkpt lat="42.4326" lon="2.34934">
        <ele>2250.1</ele>
        <time>2017-05-08T10:22:37Z</time>
      </trkpt>
      <trkpt lat="42.43262" lon="2.3493">
        <ele>2251.54</ele>
        <time>2017-05-08T10:22:49Z</time>
      </trkpt>
      <trkpt lat="42.4326" lon="2.34924">
        <ele>2253.95</ele>
        <time>2017-05-08T10:23:00Z</time>
      </trkpt>
      <trkpt lat="42.4326" lon="2.34915">
        <ele>2255.39</ele>
        <time>2017-05-08T10:23:11Z</time>
      </trkpt>
      <trkpt lat="42.4326" lon="2.34907">
        <ele>2258.27</ele>
        <time>2017-05-08T10:23:25Z</time>
      </trkpt>
      <trkpt lat="42.43257" lon="2.34901">
        <ele>2259.72</ele>
        <time>2017-05-08T10:23:36Z</time>
      </trkpt>
      <trkpt lat="42.43256" lon="2.34896">
        <ele>2261.64</ele>
        <time>2017-05-08T10:23:47Z</time>
      </trkpt>
      <trkpt lat="42.43255" lon="2.34892">
        <ele>2263.08</ele>
        <time>2017-05-08T10:24:00Z</time>
      </trkpt>
      <trkpt lat="42.43254" lon="2.34889">
        <ele>2261.16</ele>
        <time>2017-05-08T10:24:10Z</time>
      </trkpt>
      <trkpt lat="42.43251" lon="2.34886">
        <ele>2259.24</ele>
        <time>2017-05-08T10:24:21Z</time>
      </trkpt>
      <trkpt lat="42.43247" lon="2.34883">
        <ele>2256.83</ele>
        <time>2017-05-08T10:24:33Z</time>
      </trkpt>
      <trkpt lat="42.43245" lon="2.34882">
        <ele>2256.83</ele>
        <time>2017-05-08T10:24:47Z</time>
      </trkpt>
      <trkpt lat="42.43245" lon="2.34879">
        <ele>2257.31</ele>
        <time>2017-05-08T10:25:04Z</time>
      </trkpt>
      <trkpt lat="42.43242" lon="2.34873">
        <ele>2256.35</ele>
        <time>2017-05-08T10:25:18Z</time>
      </trkpt>
      <trkpt lat="42.43242" lon="2.34873">
        <ele>2255.39</ele>
        <time>2017-05-08T10:25:19Z</time>
      </trkpt>
      <trkpt lat="42.43239" lon="2.34868">
        <ele>2255.39</ele>
        <time>2017-05-08T10:25:31Z</time>
      </trkpt>
      <trkpt lat="42.43237" lon="2.34865">
        <ele>2253.47</ele>
        <time>2017-05-08T10:25:43Z</time>
      </trkpt>
      <trkpt lat="42.43233" lon="2.34862">
        <ele>2251.54</ele>
        <time>2017-05-08T10:25:53Z</time>
      </trkpt>
      <trkpt lat="42.43233" lon="2.34861">
        <ele>2251.54</ele>
        <time>2017-05-08T10:25:54Z</time>
      </trkpt>
      <trkpt lat="42.43228" lon="2.34853">
        <ele>2251.54</ele>
        <time>2017-05-08T10:26:02Z</time>
      </trkpt>
      <trkpt lat="42.43224" lon="2.3484">
        <ele>2252.99</ele>
        <time>2017-05-08T10:26:16Z</time>
      </trkpt>
      <trkpt lat="42.43221" lon="2.34831">
        <ele>2253.47</ele>
        <time>2017-05-08T10:26:27Z</time>
      </trkpt>
      <trkpt lat="42.43221" lon="2.34825">
        <ele>2253.95</ele>
        <time>2017-05-08T10:26:31Z</time>
      </trkpt>
      <trkpt lat="42.43217" lon="2.34818">
        <ele>2252.51</ele>
        <time>2017-05-08T10:26:47Z</time>
      </trkpt>
      <trkpt lat="42.43217" lon="2.34818">
        <ele>2252.99</ele>
        <time>2017-05-08T10:27:11Z</time>
      </trkpt>
      <trkpt lat="42.43216" lon="2.34816">
        <ele>2253.47</ele>
        <time>2017-05-08T10:27:33Z</time>
      </trkpt>
      <trkpt lat="42.43215" lon="2.34813">
        <ele>2254.43</ele>
        <time>2017-05-08T10:27:37Z</time>
      </trkpt>
      <trkpt lat="42.43212" lon="2.34804">
        <ele>2256.83</ele>
        <time>2017-05-08T10:27:49Z</time>
      </trkpt>
      <trkpt lat="42.4321" lon="2.34801">
        <ele>2255.39</ele>
        <time>2017-05-08T10:28:03Z</time>
      </trkpt>
      <trkpt lat="42.43205" lon="2.348">
        <ele>2252.03</ele>
        <time>2017-05-08T10:28:12Z</time>
      </trkpt>
      <trkpt lat="42.432" lon="2.34789">
        <ele>2251.06</ele>
        <time>2017-05-08T10:28:25Z</time>
      </trkpt>
      <trkpt lat="42.43198" lon="2.34787">
        <ele>2250.58</ele>
        <time>2017-05-08T10:28:27Z</time>
      </trkpt>
      <trkpt lat="42.43193" lon="2.34774">
        <ele>2252.03</ele>
        <time>2017-05-08T10:28:41Z</time>
      </trkpt>
      <trkpt lat="42.43192" lon="2.3477">
        <ele>2251.06</ele>
        <time>2017-05-08T10:28:45Z</time>
      </trkpt>
      <trkpt lat="42.43188" lon="2.34765">
        <ele>2250.58</ele>
        <time>2017-05-08T10:28:50Z</time>
      </trkpt>
      <trkpt lat="42.43188" lon="2.34762">
        <ele>2250.58</ele>
        <time>2017-05-08T10:28:52Z</time>
      </trkpt>
      <trkpt lat="42.43186" lon="2.3476">
        <ele>2250.58</ele>
        <time>2017-05-08T10:28:55Z</time>
      </trkpt>
      <trkpt lat="42.43183" lon="2.34752">
        <ele>2250.58</ele>
        <time>2017-05-08T10:29:02Z</time>
      </trkpt>
      <trkpt lat="42.43176" lon="2.34739">
        <ele>2252.03</ele>
        <time>2017-05-08T10:29:18Z</time>
      </trkpt>
      <trkpt lat="42.43176" lon="2.34739">
        <ele>2252.51</ele>
        <time>2017-05-08T10:29:19Z</time>
      </trkpt>
      <trkpt lat="42.43172" lon="2.34728">
        <ele>2253.95</ele>
        <time>2017-05-08T10:29:32Z</time>
      </trkpt>
      <trkpt lat="42.4317" lon="2.34721">
        <ele>2256.83</ele>
        <time>2017-05-08T10:29:43Z</time>
      </trkpt>
      <trkpt lat="42.43165" lon="2.34709">
        <ele>2257.31</ele>
        <time>2017-05-08T10:29:56Z</time>
      </trkpt>
      <trkpt lat="42.43159" lon="2.347">
        <ele>2258.75</ele>
        <time>2017-05-08T10:30:09Z</time>
      </trkpt>
      <trkpt lat="42.43153" lon="2.34689">
        <ele>2260.2</ele>
        <time>2017-05-08T10:30:21Z</time>
      </trkpt>
      <trkpt lat="42.43149" lon="2.3468">
        <ele>2260.2</ele>
        <time>2017-05-08T10:30:33Z</time>
      </trkpt>
      <trkpt lat="42.43148" lon="2.34677">
        <ele>2261.16</ele>
        <time>2017-05-08T10:30:44Z</time>
      </trkpt>
      <trkpt lat="42.43141" lon="2.34663">
        <ele>2262.12</ele>
        <time>2017-05-08T10:30:59Z</time>
      </trkpt>
      <trkpt lat="42.43138" lon="2.3466">
        <ele>2262.12</ele>
        <time>2017-05-08T10:31:13Z</time>
      </trkpt>
      <trkpt lat="42.43136" lon="2.34653">
        <ele>2262.12</ele>
        <time>2017-05-08T10:31:20Z</time>
      </trkpt>
      <trkpt lat="42.43133" lon="2.34646">
        <ele>2264.04</ele>
        <time>2017-05-08T10:31:28Z</time>
      </trkpt>
      <trkpt lat="42.43127" lon="2.34634">
        <ele>2265.96</ele>
        <time>2017-05-08T10:31:42Z</time>
      </trkpt>
      <trkpt lat="42.43127" lon="2.34633">
        <ele>2266.45</ele>
        <time>2017-05-08T10:31:44Z</time>
      </trkpt>
      <trkpt lat="42.43124" lon="2.34624">
        <ele>2266.93</ele>
        <time>2017-05-08T10:31:53Z</time>
      </trkpt>
      <trkpt lat="42.43123" lon="2.34622">
        <ele>2266.93</ele>
        <time>2017-05-08T10:31:55Z</time>
      </trkpt>
      <trkpt lat="42.43119" lon="2.34613">
        <ele>2267.89</ele>
        <time>2017-05-08T10:32:06Z</time>
      </trkpt>
      <trkpt lat="42.43115" lon="2.34605">
        <ele>2271.25</ele>
        <time>2017-05-08T10:32:17Z</time>
      </trkpt>
      <trkpt lat="42.43112" lon="2.34598">
        <ele>2271.25</ele>
        <time>2017-05-08T10:32:27Z</time>
      </trkpt>
      <trkpt lat="42.4311" lon="2.3459">
        <ele>2272.21</ele>
        <time>2017-05-08T10:32:37Z</time>
      </trkpt>
      <trkpt lat="42.43106" lon="2.34585">
        <ele>2273.17</ele>
        <time>2017-05-08T10:32:50Z</time>
      </trkpt>
      <trkpt lat="42.43099" lon="2.34573">
        <ele>2273.66</ele>
        <time>2017-05-08T10:33:04Z</time>
      </trkpt>
      <trkpt lat="42.43095" lon="2.34564">
        <ele>2274.62</ele>
        <time>2017-05-08T10:33:15Z</time>
      </trkpt>
      <trkpt lat="42.43092" lon="2.34555">
        <ele>2277.5</ele>
        <time>2017-05-08T10:33:25Z</time>
      </trkpt>
      <trkpt lat="42.43088" lon="2.34549">
        <ele>2277.5</ele>
        <time>2017-05-08T10:33:32Z</time>
      </trkpt>
      <trkpt lat="42.43084" lon="2.34545">
        <ele>2277.98</ele>
        <time>2017-05-08T10:33:38Z</time>
      </trkpt>
      <trkpt lat="42.43077" lon="2.34536">
        <ele>2279.42</ele>
        <time>2017-05-08T10:33:52Z</time>
      </trkpt>
      <trkpt lat="42.43075" lon="2.3453">
        <ele>2280.38</ele>
        <time>2017-05-08T10:34:03Z</time>
      </trkpt>
      <trkpt lat="42.43074" lon="2.34527">
        <ele>2281.35</ele>
        <time>2017-05-08T10:34:23Z</time>
      </trkpt>
      <trkpt lat="42.43071" lon="2.34522">
        <ele>2282.31</ele>
        <time>2017-05-08T10:34:28Z</time>
      </trkpt>
      <trkpt lat="42.43068" lon="2.34519">
        <ele>2281.83</ele>
        <time>2017-05-08T10:34:32Z</time>
      </trkpt>
      <trkpt lat="42.43065" lon="2.34514">
        <ele>2282.31</ele>
        <time>2017-05-08T10:34:37Z</time>
      </trkpt>
      <trkpt lat="42.43062" lon="2.34509">
        <ele>2282.79</ele>
        <time>2017-05-08T10:34:42Z</time>
      </trkpt>
      <trkpt lat="42.4306" lon="2.34505">
        <ele>2283.27</ele>
        <time>2017-05-08T10:34:46Z</time>
      </trkpt>
      <trkpt lat="42.43057" lon="2.34501">
        <ele>2283.27</ele>
        <time>2017-05-08T10:34:51Z</time>
      </trkpt>
      <trkpt lat="42.43056" lon="2.345">
        <ele>2283.27</ele>
        <time>2017-05-08T10:34:53Z</time>
      </trkpt>
      <trkpt lat="42.43048" lon="2.34486">
        <ele>2282.79</ele>
        <time>2017-05-08T10:35:07Z</time>
      </trkpt>
      <trkpt lat="42.43046" lon="2.34482">
        <ele>2282.79</ele>
        <time>2017-05-08T10:35:12Z</time>
      </trkpt>
      <trkpt lat="42.4304" lon="2.3447">
        <ele>2285.19</ele>
        <time>2017-05-08T10:35:26Z</time>
      </trkpt>
      <trkpt lat="42.43035" lon="2.34466">
        <ele>2284.23</ele>
        <time>2017-05-08T10:35:32Z</time>
      </trkpt>
      <trkpt lat="42.4303" lon="2.34461">
        <ele>2284.23</ele>
        <time>2017-05-08T10:35:39Z</time>
      </trkpt>
      <trkpt lat="42.43023" lon="2.34454">
        <ele>2283.75</ele>
        <time>2017-05-08T10:35:49Z</time>
      </trkpt>
      <trkpt lat="42.43016" lon="2.34441">
        <ele>2284.23</ele>
        <time>2017-05-08T10:36:04Z</time>
      </trkpt>
      <trkpt lat="42.43012" lon="2.34436">
        <ele>2283.75</ele>
        <time>2017-05-08T10:36:11Z</time>
      </trkpt>
      <trkpt lat="42.43006" lon="2.34423">
        <ele>2285.19</ele>
        <time>2017-05-08T10:36:25Z</time>
      </trkpt>
      <trkpt lat="42.43003" lon="2.34412">
        <ele>2286.63</ele>
        <time>2017-05-08T10:36:38Z</time>
      </trkpt>
      <trkpt lat="42.42999" lon="2.34401">
        <ele>2288.56</ele>
        <time>2017-05-08T10:36:51Z</time>
      </trkpt>
      <trkpt lat="42.42999" lon="2.344">
        <ele>2289.52</ele>
        <time>2017-05-08T10:37:07Z</time>
      </trkpt>
      <trkpt lat="42.43" lon="2.344">
        <ele>2289.52</ele>
        <time>2017-05-08T10:37:25Z</time>
      </trkpt>
      <trkpt lat="42.43" lon="2.34397">
        <ele>2291.44</ele>
        <time>2017-05-08T10:37:42Z</time>
      </trkpt>
      <trkpt lat="42.42996" lon="2.34384">
        <ele>2293.36</ele>
        <time>2017-05-08T10:37:56Z</time>
      </trkpt>
      <trkpt lat="42.42995" lon="2.34383">
        <ele>2293.36</ele>
        <time>2017-05-08T10:37:57Z</time>
      </trkpt>
      <trkpt lat="42.42993" lon="2.34375">
        <ele>2294.8</ele>
        <time>2017-05-08T10:38:06Z</time>
      </trkpt>
      <trkpt lat="42.4299" lon="2.34367">
        <ele>2295.77</ele>
        <time>2017-05-08T10:38:15Z</time>
      </trkpt>
      <trkpt lat="42.4299" lon="2.34361">
        <ele>2295.28</ele>
        <time>2017-05-08T10:38:21Z</time>
      </trkpt>
      <trkpt lat="42.42986" lon="2.34354">
        <ele>2297.69</ele>
        <time>2017-05-08T10:38:30Z</time>
      </trkpt>
      <trkpt lat="42.42981" lon="2.3435">
        <ele>2298.17</ele>
        <time>2017-05-08T10:38:37Z</time>
      </trkpt>
      <trkpt lat="42.4298" lon="2.34346">
        <ele>2300.09</ele>
        <time>2017-05-08T10:38:41Z</time>
      </trkpt>
      <trkpt lat="42.42978" lon="2.34342">
        <ele>2298.65</ele>
        <time>2017-05-08T10:38:45Z</time>
      </trkpt>
      <trkpt lat="42.42977" lon="2.3434">
        <ele>2297.69</ele>
        <time>2017-05-08T10:38:48Z</time>
      </trkpt>
      <trkpt lat="42.42974" lon="2.34337">
        <ele>2297.69</ele>
        <time>2017-05-08T10:38:52Z</time>
      </trkpt>
      <trkpt lat="42.42973" lon="2.34334">
        <ele>2298.65</ele>
        <time>2017-05-08T10:38:55Z</time>
      </trkpt>
      <trkpt lat="42.42967" lon="2.34321">
        <ele>2299.61</ele>
        <time>2017-05-08T10:39:08Z</time>
      </trkpt>
      <trkpt lat="42.42964" lon="2.3431">
        <ele>2302.01</ele>
        <time>2017-05-08T10:39:21Z</time>
      </trkpt>
      <trkpt lat="42.42963" lon="2.3431">
        <ele>2302.01</ele>
        <time>2017-05-08T10:39:22Z</time>
      </trkpt>
      <trkpt lat="42.42958" lon="2.34303">
        <ele>2304.42</ele>
        <time>2017-05-08T10:39:35Z</time>
      </trkpt>
      <trkpt lat="42.42956" lon="2.343">
        <ele>2303.46</ele>
        <time>2017-05-08T10:39:50Z</time>
      </trkpt>
      <trkpt lat="42.42951" lon="2.34293">
        <ele>2302.98</ele>
        <time>2017-05-08T10:39:58Z</time>
      </trkpt>
      <trkpt lat="42.4295" lon="2.34289">
        <ele>2302.98</ele>
        <time>2017-05-08T10:40:02Z</time>
      </trkpt>
      <trkpt lat="42.42945" lon="2.34279">
        <ele>2302.01</ele>
        <time>2017-05-08T10:40:10Z</time>
      </trkpt>
      <trkpt lat="42.4294" lon="2.34269">
        <ele>2303.94</ele>
        <time>2017-05-08T10:40:22Z</time>
      </trkpt>
      <trkpt lat="42.42939" lon="2.34267">
        <ele>2304.42</ele>
        <time>2017-05-08T10:40:24Z</time>
      </trkpt>
      <trkpt lat="42.42938" lon="2.34265">
        <ele>2304.42</ele>
        <time>2017-05-08T10:40:26Z</time>
      </trkpt>
      <trkpt lat="42.42932" lon="2.34256">
        <ele>2305.86</ele>
        <time>2017-05-08T10:40:39Z</time>
      </trkpt>
      <trkpt lat="42.42929" lon="2.34251">
        <ele>2306.82</ele>
        <time>2017-05-08T10:40:45Z</time>
      </trkpt>
      <trkpt lat="42.42925" lon="2.34245">
        <ele>2308.74</ele>
        <time>2017-05-08T10:40:52Z</time>
      </trkpt>
      <trkpt lat="42.42918" lon="2.34236">
        <ele>2310.19</ele>
        <time>2017-05-08T10:41:05Z</time>
      </trkpt>
      <trkpt lat="42.42917" lon="2.34236">
        <ele>2310.19</ele>
        <time>2017-05-08T10:41:06Z</time>
      </trkpt>
      <trkpt lat="42.42914" lon="2.34231">
        <ele>2311.15</ele>
        <time>2017-05-08T10:41:14Z</time>
      </trkpt>
      <trkpt lat="42.4291" lon="2.34226">
        <ele>2310.67</ele>
        <time>2017-05-08T10:41:29Z</time>
      </trkpt>
      <trkpt lat="42.42906" lon="2.34218">
        <ele>2311.63</ele>
        <time>2017-05-08T10:41:39Z</time>
      </trkpt>
      <trkpt lat="42.42899" lon="2.34207">
        <ele>2312.59</ele>
        <time>2017-05-08T10:41:52Z</time>
      </trkpt>
      <trkpt lat="42.42896" lon="2.34201">
        <ele>2313.07</ele>
        <time>2017-05-08T10:41:58Z</time>
      </trkpt>
      <trkpt lat="42.4289" lon="2.34189">
        <ele>2314.99</ele>
        <time>2017-05-08T10:42:11Z</time>
      </trkpt>
      <trkpt lat="42.42887" lon="2.34182">
        <ele>2315.95</ele>
        <time>2017-05-08T10:42:19Z</time>
      </trkpt>
      <trkpt lat="42.42884" lon="2.34172">
        <ele>2319.32</ele>
        <time>2017-05-08T10:42:31Z</time>
      </trkpt>
      <trkpt lat="42.42882" lon="2.34163">
        <ele>2319.32</ele>
        <time>2017-05-08T10:42:43Z</time>
      </trkpt>
      <trkpt lat="42.42881" lon="2.34162">
        <ele>2318.84</ele>
        <time>2017-05-08T10:42:57Z</time>
      </trkpt>
      <trkpt lat="42.42881" lon="2.34161">
        <ele>2318.84</ele>
        <time>2017-05-08T10:43:18Z</time>
      </trkpt>
      <trkpt lat="42.42881" lon="2.34161">
        <ele>2317.88</ele>
        <time>2017-05-08T10:43:38Z</time>
      </trkpt>
      <trkpt lat="42.42881" lon="2.34161">
        <ele>2317.88</ele>
        <time>2017-05-08T10:43:56Z</time>
      </trkpt>
      <trkpt lat="42.42881" lon="2.34162">
        <ele>2317.88</ele>
        <time>2017-05-08T10:44:16Z</time>
      </trkpt>
      <trkpt lat="42.4288" lon="2.3416">
        <ele>2317.88</ele>
        <time>2017-05-08T10:44:32Z</time>
      </trkpt>
      <trkpt lat="42.4288" lon="2.34156">
        <ele>2317.88</ele>
        <time>2017-05-08T10:44:35Z</time>
      </trkpt>
      <trkpt lat="42.42874" lon="2.34138">
        <ele>2318.84</ele>
        <time>2017-05-08T10:44:50Z</time>
      </trkpt>
      <trkpt lat="42.42872" lon="2.34136">
        <ele>2318.84</ele>
        <time>2017-05-08T10:44:52Z</time>
      </trkpt>
      <trkpt lat="42.42867" lon="2.3412">
        <ele>2319.8</ele>
        <time>2017-05-08T10:45:06Z</time>
      </trkpt>
      <trkpt lat="42.42865" lon="2.3411">
        <ele>2320.76</ele>
        <time>2017-05-08T10:45:17Z</time>
      </trkpt>
      <trkpt lat="42.42865" lon="2.341">
        <ele>2322.68</ele>
        <time>2017-05-08T10:45:31Z</time>
      </trkpt>
      <trkpt lat="42.42864" lon="2.34097">
        <ele>2323.16</ele>
        <time>2017-05-08T10:45:43Z</time>
      </trkpt>
      <trkpt lat="42.42864" lon="2.34097">
        <ele>2322.2</ele>
        <time>2017-05-08T10:46:00Z</time>
      </trkpt>
      <trkpt lat="42.42862" lon="2.34087">
        <ele>2322.2</ele>
        <time>2017-05-08T10:46:16Z</time>
      </trkpt>
      <trkpt lat="42.42861" lon="2.34075">
        <ele>2322.68</ele>
        <time>2017-05-08T10:46:29Z</time>
      </trkpt>
      <trkpt lat="42.4286" lon="2.34067">
        <ele>2323.64</ele>
        <time>2017-05-08T10:46:42Z</time>
      </trkpt>
      <trkpt lat="42.42861" lon="2.34058">
        <ele>2324.12</ele>
        <time>2017-05-08T10:46:51Z</time>
      </trkpt>
      <trkpt lat="42.42861" lon="2.34047">
        <ele>2325.09</ele>
        <time>2017-05-08T10:47:03Z</time>
      </trkpt>
      <trkpt lat="42.42862" lon="2.34038">
        <ele>2326.53</ele>
        <time>2017-05-08T10:47:16Z</time>
      </trkpt>
      <trkpt lat="42.42863" lon="2.34033">
        <ele>2327.49</ele>
        <time>2017-05-08T10:47:24Z</time>
      </trkpt>
      <trkpt lat="42.42865" lon="2.34023">
        <ele>2328.93</ele>
        <time>2017-05-08T10:47:35Z</time>
      </trkpt>
      <trkpt lat="42.42866" lon="2.3401">
        <ele>2329.89</ele>
        <time>2017-05-08T10:47:46Z</time>
      </trkpt>
      <trkpt lat="42.42866" lon="2.34004">
        <ele>2331.33</ele>
        <time>2017-05-08T10:47:56Z</time>
      </trkpt>
      <trkpt lat="42.42866" lon="2.33997">
        <ele>2331.81</ele>
        <time>2017-05-08T10:48:10Z</time>
      </trkpt>
      <trkpt lat="42.42866" lon="2.33996">
        <ele>2331.81</ele>
        <time>2017-05-08T10:48:11Z</time>
      </trkpt>
      <trkpt lat="42.42867" lon="2.33982">
        <ele>2333.26</ele>
        <time>2017-05-08T10:48:24Z</time>
      </trkpt>
      <trkpt lat="42.42868" lon="2.33971">
        <ele>2334.7</ele>
        <time>2017-05-08T10:48:36Z</time>
      </trkpt>
      <trkpt lat="42.4287" lon="2.33964">
        <ele>2337.1</ele>
        <time>2017-05-08T10:48:47Z</time>
      </trkpt>
      <trkpt lat="42.4287" lon="2.33954">
        <ele>2339.02</ele>
        <time>2017-05-08T10:48:59Z</time>
      </trkpt>
      <trkpt lat="42.4287" lon="2.33951">
        <ele>2339.51</ele>
        <time>2017-05-08T10:49:13Z</time>
      </trkpt>
      <trkpt lat="42.4287" lon="2.3395">
        <ele>2339.51</ele>
        <time>2017-05-08T10:49:34Z</time>
      </trkpt>
      <trkpt lat="42.42869" lon="2.33943">
        <ele>2341.43</ele>
        <time>2017-05-08T10:49:55Z</time>
      </trkpt>
      <trkpt lat="42.42871" lon="2.3393">
        <ele>2343.35</ele>
        <time>2017-05-08T10:50:09Z</time>
      </trkpt>
      <trkpt lat="42.42871" lon="2.33917">
        <ele>2345.27</ele>
        <time>2017-05-08T10:50:23Z</time>
      </trkpt>
      <trkpt lat="42.4287" lon="2.33904">
        <ele>2345.75</ele>
        <time>2017-05-08T10:50:36Z</time>
      </trkpt>
      <trkpt lat="42.42871" lon="2.3389">
        <ele>2348.64</ele>
        <time>2017-05-08T10:50:52Z</time>
      </trkpt>
      <trkpt lat="42.4287" lon="2.33885">
        <ele>2348.64</ele>
        <time>2017-05-08T10:50:57Z</time>
      </trkpt>
      <trkpt lat="42.42869" lon="2.33881">
        <ele>2349.12</ele>
        <time>2017-05-08T10:51:01Z</time>
      </trkpt>
      <trkpt lat="42.42869" lon="2.33867">
        <ele>2350.56</ele>
        <time>2017-05-08T10:51:14Z</time>
      </trkpt>
      <trkpt lat="42.42869" lon="2.3386">
        <ele>2351.52</ele>
        <time>2017-05-08T10:51:25Z</time>
      </trkpt>
      <trkpt lat="42.42868" lon="2.33849">
        <ele>2352</ele>
        <time>2017-05-08T10:51:37Z</time>
      </trkpt>
      <trkpt lat="42.42864" lon="2.33835">
        <ele>2352.48</ele>
        <time>2017-05-08T10:51:50Z</time>
      </trkpt>
      <trkpt lat="42.42863" lon="2.33823">
        <ele>2353.93</ele>
        <time>2017-05-08T10:52:02Z</time>
      </trkpt>
      <trkpt lat="42.42864" lon="2.33821">
        <ele>2353.93</ele>
        <time>2017-05-08T10:52:04Z</time>
      </trkpt>
      <trkpt lat="42.42864" lon="2.33811">
        <ele>2356.33</ele>
        <time>2017-05-08T10:52:17Z</time>
      </trkpt>
      <trkpt lat="42.42864" lon="2.33801">
        <ele>2357.29</ele>
        <time>2017-05-08T10:52:26Z</time>
      </trkpt>
      <trkpt lat="42.42863" lon="2.33788">
        <ele>2358.25</ele>
        <time>2017-05-08T10:52:38Z</time>
      </trkpt>
      <trkpt lat="42.42861" lon="2.33775">
        <ele>2360.17</ele>
        <time>2017-05-08T10:52:51Z</time>
      </trkpt>
      <trkpt lat="42.42862" lon="2.33773">
        <ele>2361.14</ele>
        <time>2017-05-08T10:53:06Z</time>
      </trkpt>
      <trkpt lat="42.42861" lon="2.33772">
        <ele>2360.65</ele>
        <time>2017-05-08T10:53:15Z</time>
      </trkpt>
      <trkpt lat="42.42859" lon="2.33764">
        <ele>2361.62</ele>
        <time>2017-05-08T10:53:22Z</time>
      </trkpt>
      <trkpt lat="42.42856" lon="2.3375">
        <ele>2363.54</ele>
        <time>2017-05-08T10:53:34Z</time>
      </trkpt>
      <trkpt lat="42.42855" lon="2.33749">
        <ele>2363.54</ele>
        <time>2017-05-08T10:53:35Z</time>
      </trkpt>
      <trkpt lat="42.42854" lon="2.33743">
        <ele>2364.5</ele>
        <time>2017-05-08T10:53:40Z</time>
      </trkpt>
      <trkpt lat="42.42854" lon="2.33733">
        <ele>2367.38</ele>
        <time>2017-05-08T10:53:52Z</time>
      </trkpt>
      <trkpt lat="42.42855" lon="2.3373">
        <ele>2368.35</ele>
        <time>2017-05-08T10:53:55Z</time>
      </trkpt>
      <trkpt lat="42.42863" lon="2.33724">
        <ele>2370.27</ele>
        <time>2017-05-08T10:54:08Z</time>
      </trkpt>
      <trkpt lat="42.4287" lon="2.33719">
        <ele>2371.71</ele>
        <time>2017-05-08T10:54:20Z</time>
      </trkpt>
      <trkpt lat="42.42872" lon="2.3372">
        <ele>2371.71</ele>
        <time>2017-05-08T10:54:42Z</time>
      </trkpt>
      <trkpt lat="42.42877" lon="2.3372">
        <ele>2371.71</ele>
        <time>2017-05-08T10:54:54Z</time>
      </trkpt>
      <trkpt lat="42.42877" lon="2.3372">
        <ele>2372.67</ele>
        <time>2017-05-08T10:55:08Z</time>
      </trkpt>
      <trkpt lat="42.42877" lon="2.3372">
        <ele>2372.67</ele>
        <time>2017-05-08T10:55:39Z</time>
      </trkpt>
      <trkpt lat="42.42878" lon="2.3372">
        <ele>2372.67</ele>
        <time>2017-05-08T10:55:55Z</time>
      </trkpt>
      <trkpt lat="42.42879" lon="2.33718">
        <ele>2372.67</ele>
        <time>2017-05-08T10:56:09Z</time>
      </trkpt>
      <trkpt lat="42.42879" lon="2.33718">
        <ele>2371.71</ele>
        <time>2017-05-08T10:56:28Z</time>
      </trkpt>
      <trkpt lat="42.42879" lon="2.33718">
        <ele>2372.19</ele>
        <time>2017-05-08T10:56:42Z</time>
      </trkpt>
      <trkpt lat="42.42879" lon="2.33718">
        <ele>2373.15</ele>
        <time>2017-05-08T10:57:06Z</time>
      </trkpt>
      <trkpt lat="42.42879" lon="2.33718">
        <ele>2372.67</ele>
        <time>2017-05-08T10:57:26Z</time>
      </trkpt>
      <trkpt lat="42.42878" lon="2.33718">
        <ele>2373.15</ele>
        <time>2017-05-08T10:57:55Z</time>
      </trkpt>
      <trkpt lat="42.42878" lon="2.33717">
        <ele>2373.15</ele>
        <time>2017-05-08T10:58:18Z</time>
      </trkpt>
      <trkpt lat="42.42878" lon="2.33717">
        <ele>2372.19</ele>
        <time>2017-05-08T10:58:29Z</time>
      </trkpt>
      <trkpt lat="42.42877" lon="2.33718">
        <ele>2373.15</ele>
        <time>2017-05-08T10:58:31Z</time>
      </trkpt>
      <trkpt lat="42.42874" lon="2.33719">
        <ele>2373.15</ele>
        <time>2017-05-08T10:58:34Z</time>
      </trkpt>
      <trkpt lat="42.42869" lon="2.33717">
        <ele>2372.67</ele>
        <time>2017-05-08T10:58:47Z</time>
      </trkpt>
      <trkpt lat="42.42869" lon="2.33718">
        <ele>2372.67</ele>
        <time>2017-05-08T10:59:06Z</time>
      </trkpt>
      <trkpt lat="42.42869" lon="2.33719">
        <ele>2373.15</ele>
        <time>2017-05-08T10:59:39Z</time>
      </trkpt>
      <trkpt lat="42.42869" lon="2.33719">
        <ele>2373.15</ele>
        <time>2017-05-08T11:00:06Z</time>
      </trkpt>
      <trkpt lat="42.42869" lon="2.33718">
        <ele>2372.67</ele>
        <time>2017-05-08T11:00:32Z</time>
      </trkpt>
      <trkpt lat="42.42869" lon="2.33719">
        <ele>2373.15</ele>
        <time>2017-05-08T11:01:00Z</time>
      </trkpt>
      <trkpt lat="42.4287" lon="2.33719">
        <ele>2373.63</ele>
        <time>2017-05-08T11:01:35Z</time>
      </trkpt>
      <trkpt lat="42.4287" lon="2.3372">
        <ele>2373.63</ele>
        <time>2017-05-08T11:02:10Z</time>
      </trkpt>
      <trkpt lat="42.4287" lon="2.3372">
        <ele>2373.15</ele>
        <time>2017-05-08T11:02:41Z</time>
      </trkpt>
      <trkpt lat="42.4287" lon="2.3372">
        <ele>2373.15</ele>
        <time>2017-05-08T11:03:04Z</time>
      </trkpt>
      <trkpt lat="42.4287" lon="2.3372">
        <ele>2374.11</ele>
        <time>2017-05-08T11:03:17Z</time>
      </trkpt>
      <trkpt lat="42.4287" lon="2.3372">
        <ele>2373.15</ele>
        <time>2017-05-08T11:03:51Z</time>
      </trkpt>
      <trkpt lat="42.4287" lon="2.3372">
        <ele>2373.63</ele>
        <time>2017-05-08T11:04:14Z</time>
      </trkpt>
      <trkpt lat="42.42868" lon="2.33719">
        <ele>2373.63</ele>
        <time>2017-05-08T11:04:20Z</time>
      </trkpt>
      <trkpt lat="42.4286" lon="2.33716">
        <ele>2374.11</ele>
        <time>2017-05-08T11:04:28Z</time>
      </trkpt>
      <trkpt lat="42.42855" lon="2.33714">
        <ele>2374.11</ele>
        <time>2017-05-08T11:04:34Z</time>
      </trkpt>
      <trkpt lat="42.42853" lon="2.33712">
        <ele>2374.11</ele>
        <time>2017-05-08T11:04:36Z</time>
      </trkpt>
      <trkpt lat="42.42843" lon="2.33707">
        <ele>2374.59</ele>
        <time>2017-05-08T11:04:49Z</time>
      </trkpt>
      <trkpt lat="42.42842" lon="2.33705">
        <ele>2374.59</ele>
        <time>2017-05-08T11:04:51Z</time>
      </trkpt>
      <trkpt lat="42.42836" lon="2.33699">
        <ele>2375.07</ele>
        <time>2017-05-08T11:04:59Z</time>
      </trkpt>
      <trkpt lat="42.42835" lon="2.33698">
        <ele>2375.07</ele>
        <time>2017-05-08T11:05:01Z</time>
      </trkpt>
      <trkpt lat="42.42824" lon="2.33688">
        <ele>2375.55</ele>
        <time>2017-05-08T11:05:13Z</time>
      </trkpt>
      <trkpt lat="42.42823" lon="2.33687">
        <ele>2375.55</ele>
        <time>2017-05-08T11:05:15Z</time>
      </trkpt>
      <trkpt lat="42.42811" lon="2.33677">
        <ele>2374.11</ele>
        <time>2017-05-08T11:05:29Z</time>
      </trkpt>
      <trkpt lat="42.42799" lon="2.33663">
        <ele>2374.11</ele>
        <time>2017-05-08T11:05:43Z</time>
      </trkpt>
      <trkpt lat="42.42798" lon="2.33661">
        <ele>2374.11</ele>
        <time>2017-05-08T11:05:45Z</time>
      </trkpt>
      <trkpt lat="42.42786" lon="2.33646">
        <ele>2372.19</ele>
        <time>2017-05-08T11:06:02Z</time>
      </trkpt>
      <trkpt lat="42.4278" lon="2.33639">
        <ele>2370.75</ele>
        <time>2017-05-08T11:06:15Z</time>
      </trkpt>
      <trkpt lat="42.42778" lon="2.33638">
        <ele>2369.79</ele>
        <time>2017-05-08T11:06:30Z</time>
      </trkpt>
      <trkpt lat="42.42775" lon="2.33635">
        <ele>2368.83</ele>
        <time>2017-05-08T11:06:34Z</time>
      </trkpt>
      <trkpt lat="42.42773" lon="2.33634">
        <ele>2369.31</ele>
        <time>2017-05-08T11:06:36Z</time>
      </trkpt>
      <trkpt lat="42.4277" lon="2.3363">
        <ele>2368.83</ele>
        <time>2017-05-08T11:06:40Z</time>
      </trkpt>
      <trkpt lat="42.42759" lon="2.33625">
        <ele>2366.42</ele>
        <time>2017-05-08T11:06:52Z</time>
      </trkpt>
      <trkpt lat="42.42756" lon="2.33623">
        <ele>2365.94</ele>
        <time>2017-05-08T11:06:55Z</time>
      </trkpt>
      <trkpt lat="42.42754" lon="2.33622">
        <ele>2364.98</ele>
        <time>2017-05-08T11:06:57Z</time>
      </trkpt>
      <trkpt lat="42.42744" lon="2.33612">
        <ele>2363.54</ele>
        <time>2017-05-08T11:07:10Z</time>
      </trkpt>
      <trkpt lat="42.42743" lon="2.33612">
        <ele>2363.54</ele>
        <time>2017-05-08T11:07:11Z</time>
      </trkpt>
      <trkpt lat="42.42735" lon="2.33601">
        <ele>2363.54</ele>
        <time>2017-05-08T11:07:23Z</time>
      </trkpt>
      <trkpt lat="42.42734" lon="2.336">
        <ele>2362.58</ele>
        <time>2017-05-08T11:07:24Z</time>
      </trkpt>
      <trkpt lat="42.42728" lon="2.33591">
        <ele>2362.58</ele>
        <time>2017-05-08T11:07:32Z</time>
      </trkpt>
      <trkpt lat="42.42724" lon="2.33584">
        <ele>2362.1</ele>
        <time>2017-05-08T11:07:37Z</time>
      </trkpt>
      <trkpt lat="42.42711" lon="2.33565">
        <ele>2361.14</ele>
        <time>2017-05-08T11:07:54Z</time>
      </trkpt>
      <trkpt lat="42.42709" lon="2.33562">
        <ele>2361.62</ele>
        <time>2017-05-08T11:07:56Z</time>
      </trkpt>
      <trkpt lat="42.42709" lon="2.33558">
        <ele>2360.65</ele>
        <time>2017-05-08T11:07:59Z</time>
      </trkpt>
      <trkpt lat="42.42707" lon="2.33552">
        <ele>2360.17</ele>
        <time>2017-05-08T11:08:03Z</time>
      </trkpt>
      <trkpt lat="42.427" lon="2.33539">
        <ele>2359.69</ele>
        <time>2017-05-08T11:08:14Z</time>
      </trkpt>
      <trkpt lat="42.42691" lon="2.33524">
        <ele>2359.21</ele>
        <time>2017-05-08T11:08:27Z</time>
      </trkpt>
      <trkpt lat="42.42686" lon="2.33519">
        <ele>2358.25</ele>
        <time>2017-05-08T11:08:32Z</time>
      </trkpt>
      <trkpt lat="42.42684" lon="2.33515">
        <ele>2358.73</ele>
        <time>2017-05-08T11:08:37Z</time>
      </trkpt>
      <trkpt lat="42.42682" lon="2.33515">
        <ele>2358.73</ele>
        <time>2017-05-08T11:08:39Z</time>
      </trkpt>
      <trkpt lat="42.4268" lon="2.33513">
        <ele>2357.77</ele>
        <time>2017-05-08T11:08:41Z</time>
      </trkpt>
      <trkpt lat="42.4267" lon="2.33504">
        <ele>2356.33</ele>
        <time>2017-05-08T11:08:53Z</time>
      </trkpt>
      <trkpt lat="42.42661" lon="2.33497">
        <ele>2355.37</ele>
        <time>2017-05-08T11:09:01Z</time>
      </trkpt>
      <trkpt lat="42.42655" lon="2.33489">
        <ele>2354.89</ele>
        <time>2017-05-08T11:09:08Z</time>
      </trkpt>
      <trkpt lat="42.42651" lon="2.33481">
        <ele>2355.85</ele>
        <time>2017-05-08T11:09:22Z</time>
      </trkpt>
      <trkpt lat="42.42648" lon="2.33478">
        <ele>2355.37</ele>
        <time>2017-05-08T11:09:26Z</time>
      </trkpt>
      <trkpt lat="42.42636" lon="2.33464">
        <ele>2354.41</ele>
        <time>2017-05-08T11:09:39Z</time>
      </trkpt>
      <trkpt lat="42.42631" lon="2.33461">
        <ele>2354.89</ele>
        <time>2017-05-08T11:09:43Z</time>
      </trkpt>
      <trkpt lat="42.42619" lon="2.33449">
        <ele>2353.93</ele>
        <time>2017-05-08T11:09:56Z</time>
      </trkpt>
      <trkpt lat="42.42617" lon="2.33448">
        <ele>2354.41</ele>
        <time>2017-05-08T11:09:58Z</time>
      </trkpt>
      <trkpt lat="42.42615" lon="2.33448">
        <ele>2353.93</ele>
        <time>2017-05-08T11:10:00Z</time>
      </trkpt>
      <trkpt lat="42.42606" lon="2.33436">
        <ele>2352.96</ele>
        <time>2017-05-08T11:10:10Z</time>
      </trkpt>
      <trkpt lat="42.42604" lon="2.33435">
        <ele>2352.96</ele>
        <time>2017-05-08T11:10:12Z</time>
      </trkpt>
      <trkpt lat="42.42601" lon="2.33429">
        <ele>2352.48</ele>
        <time>2017-05-08T11:10:16Z</time>
      </trkpt>
      <trkpt lat="42.42596" lon="2.33422">
        <ele>2352.48</ele>
        <time>2017-05-08T11:10:22Z</time>
      </trkpt>
      <trkpt lat="42.4259" lon="2.33412">
        <ele>2352</ele>
        <time>2017-05-08T11:10:30Z</time>
      </trkpt>
      <trkpt lat="42.4258" lon="2.33394">
        <ele>2351.04</ele>
        <time>2017-05-08T11:10:44Z</time>
      </trkpt>
      <trkpt lat="42.4258" lon="2.33392">
        <ele>2351.04</ele>
        <time>2017-05-08T11:10:45Z</time>
      </trkpt>
      <trkpt lat="42.42579" lon="2.33389">
        <ele>2350.56</ele>
        <time>2017-05-08T11:10:48Z</time>
      </trkpt>
      <trkpt lat="42.42576" lon="2.33381">
        <ele>2350.08</ele>
        <time>2017-05-08T11:10:54Z</time>
      </trkpt>
      <trkpt lat="42.42575" lon="2.3338">
        <ele>2348.64</ele>
        <time>2017-05-08T11:10:56Z</time>
      </trkpt>
      <trkpt lat="42.42574" lon="2.33376">
        <ele>2348.16</ele>
        <time>2017-05-08T11:10:59Z</time>
      </trkpt>
      <trkpt lat="42.42572" lon="2.33373">
        <ele>2347.2</ele>
        <time>2017-05-08T11:11:02Z</time>
      </trkpt>
      <trkpt lat="42.42571" lon="2.33371">
        <ele>2346.72</ele>
        <time>2017-05-08T11:11:04Z</time>
      </trkpt>
      <trkpt lat="42.4257" lon="2.33365">
        <ele>2345.75</ele>
        <time>2017-05-08T11:11:09Z</time>
      </trkpt>
      <trkpt lat="42.42571" lon="2.3336">
        <ele>2344.79</ele>
        <time>2017-05-08T11:11:24Z</time>
      </trkpt>
      <trkpt lat="42.42571" lon="2.3336">
        <ele>2344.79</ele>
        <time>2017-05-08T11:11:25Z</time>
      </trkpt>
      <trkpt lat="42.4257" lon="2.33356">
        <ele>2344.31</ele>
        <time>2017-05-08T11:11:28Z</time>
      </trkpt>
      <trkpt lat="42.42568" lon="2.33345">
        <ele>2341.91</ele>
        <time>2017-05-08T11:11:38Z</time>
      </trkpt>
      <trkpt lat="42.42567" lon="2.33334">
        <ele>2339.99</ele>
        <time>2017-05-08T11:11:47Z</time>
      </trkpt>
      <trkpt lat="42.42566" lon="2.33332">
        <ele>2339.51</ele>
        <time>2017-05-08T11:11:49Z</time>
      </trkpt>
      <trkpt lat="42.42568" lon="2.33319">
        <ele>2339.02</ele>
        <time>2017-05-08T11:12:00Z</time>
      </trkpt>
      <trkpt lat="42.42566" lon="2.33303">
        <ele>2337.58</ele>
        <time>2017-05-08T11:12:13Z</time>
      </trkpt>
      <trkpt lat="42.42567" lon="2.333">
        <ele>2337.1</ele>
        <time>2017-05-08T11:12:17Z</time>
      </trkpt>
      <trkpt lat="42.42565" lon="2.3329">
        <ele>2334.7</ele>
        <time>2017-05-08T11:12:27Z</time>
      </trkpt>
      <trkpt lat="42.42564" lon="2.33279">
        <ele>2332.3</ele>
        <time>2017-05-08T11:12:39Z</time>
      </trkpt>
      <trkpt lat="42.42563" lon="2.33263">
        <ele>2330.37</ele>
        <time>2017-05-08T11:12:52Z</time>
      </trkpt>
      <trkpt lat="42.42565" lon="2.33256">
        <ele>2330.37</ele>
        <time>2017-05-08T11:13:03Z</time>
      </trkpt>
      <trkpt lat="42.42562" lon="2.33247">
        <ele>2329.89</ele>
        <time>2017-05-08T11:13:18Z</time>
      </trkpt>
      <trkpt lat="42.42561" lon="2.33243">
        <ele>2329.41</ele>
        <time>2017-05-08T11:13:31Z</time>
      </trkpt>
      <trkpt lat="42.42559" lon="2.33239">
        <ele>2328.45</ele>
        <time>2017-05-08T11:13:43Z</time>
      </trkpt>
      <trkpt lat="42.42558" lon="2.33236">
        <ele>2327.97</ele>
        <time>2017-05-08T11:13:55Z</time>
      </trkpt>
      <trkpt lat="42.42558" lon="2.33236">
        <ele>2327.49</ele>
        <time>2017-05-08T11:14:00Z</time>
      </trkpt>
      <trkpt lat="42.42558" lon="2.33234">
        <ele>2327.49</ele>
        <time>2017-05-08T11:14:11Z</time>
      </trkpt>
      <trkpt lat="42.42558" lon="2.33234">
        <ele>2327.97</ele>
        <time>2017-05-08T11:14:26Z</time>
      </trkpt>
      <trkpt lat="42.42557" lon="2.33233">
        <ele>2327.49</ele>
        <time>2017-05-08T11:14:48Z</time>
      </trkpt>
      <trkpt lat="42.42556" lon="2.33233">
        <ele>2327.49</ele>
        <time>2017-05-08T11:15:17Z</time>
      </trkpt>
      <trkpt lat="42.42556" lon="2.33233">
        <ele>2328.45</ele>
        <time>2017-05-08T11:15:46Z</time>
      </trkpt>
      <trkpt lat="42.42557" lon="2.33234">
        <ele>2328.45</ele>
        <time>2017-05-08T11:16:05Z</time>
      </trkpt>
      <trkpt lat="42.42557" lon="2.33234">
        <ele>2327.49</ele>
        <time>2017-05-08T11:16:37Z</time>
      </trkpt>
      <trkpt lat="42.42557" lon="2.33234">
        <ele>2327.97</ele>
        <time>2017-05-08T11:17:08Z</time>
      </trkpt>
      <trkpt lat="42.42556" lon="2.33234">
        <ele>2327.97</ele>
        <time>2017-05-08T11:17:36Z</time>
      </trkpt>
      <trkpt lat="42.42556" lon="2.33232">
        <ele>2328.45</ele>
        <time>2017-05-08T11:17:49Z</time>
      </trkpt>
      <trkpt lat="42.42555" lon="2.33226">
        <ele>2328.93</ele>
        <time>2017-05-08T11:18:00Z</time>
      </trkpt>
      <trkpt lat="42.42554" lon="2.3322">
        <ele>2328.45</ele>
        <time>2017-05-08T11:18:12Z</time>
      </trkpt>
      <trkpt lat="42.42554" lon="2.33218">
        <ele>2328.45</ele>
        <time>2017-05-08T11:18:14Z</time>
      </trkpt>
      <trkpt lat="42.42555" lon="2.33211">
        <ele>2327.97</ele>
        <time>2017-05-08T11:18:22Z</time>
      </trkpt>
      <trkpt lat="42.4255" lon="2.332">
        <ele>2326.05</ele>
        <time>2017-05-08T11:18:33Z</time>
      </trkpt>
      <trkpt lat="42.42544" lon="2.33197">
        <ele>2324.61</ele>
        <time>2017-05-08T11:18:44Z</time>
      </trkpt>
      <trkpt lat="42.42544" lon="2.33196">
        <ele>2323.64</ele>
        <time>2017-05-08T11:18:46Z</time>
      </trkpt>
      <trkpt lat="42.42542" lon="2.33192">
        <ele>2323.16</ele>
        <time>2017-05-08T11:18:49Z</time>
      </trkpt>
      <trkpt lat="42.42542" lon="2.33182">
        <ele>2322.68</ele>
        <time>2017-05-08T11:18:57Z</time>
      </trkpt>
      <trkpt lat="42.42536" lon="2.33171">
        <ele>2321.72</ele>
        <time>2017-05-08T11:19:09Z</time>
      </trkpt>
      <trkpt lat="42.42529" lon="2.33155">
        <ele>2322.68</ele>
        <time>2017-05-08T11:19:24Z</time>
      </trkpt>
      <trkpt lat="42.42521" lon="2.33141">
        <ele>2323.64</ele>
        <time>2017-05-08T11:19:38Z</time>
      </trkpt>
      <trkpt lat="42.4251" lon="2.33125">
        <ele>2324.61</ele>
        <time>2017-05-08T11:19:54Z</time>
      </trkpt>
      <trkpt lat="42.42505" lon="2.33116">
        <ele>2324.12</ele>
        <time>2017-05-08T11:20:06Z</time>
      </trkpt>
      <trkpt lat="42.42502" lon="2.33109">
        <ele>2323.64</ele>
        <time>2017-05-08T11:20:11Z</time>
      </trkpt>
      <trkpt lat="42.42493" lon="2.33092">
        <ele>2322.2</ele>
        <time>2017-05-08T11:20:24Z</time>
      </trkpt>
      <trkpt lat="42.4249" lon="2.33085">
        <ele>2321.72</ele>
        <time>2017-05-08T11:20:29Z</time>
      </trkpt>
      <trkpt lat="42.42481" lon="2.33071">
        <ele>2321.24</ele>
        <time>2017-05-08T11:20:40Z</time>
      </trkpt>
      <trkpt lat="42.42472" lon="2.33053">
        <ele>2321.72</ele>
        <time>2017-05-08T11:20:54Z</time>
      </trkpt>
      <trkpt lat="42.42464" lon="2.33039">
        <ele>2322.2</ele>
        <time>2017-05-08T11:21:08Z</time>
      </trkpt>
      <trkpt lat="42.42455" lon="2.33027">
        <ele>2322.68</ele>
        <time>2017-05-08T11:21:21Z</time>
      </trkpt>
      <trkpt lat="42.42444" lon="2.33009">
        <ele>2322.2</ele>
        <time>2017-05-08T11:21:37Z</time>
      </trkpt>
      <trkpt lat="42.42439" lon="2.33002">
        <ele>2323.16</ele>
        <time>2017-05-08T11:21:44Z</time>
      </trkpt>
      <trkpt lat="42.42427" lon="2.32989">
        <ele>2321.72</ele>
        <time>2017-05-08T11:21:58Z</time>
      </trkpt>
      <trkpt lat="42.42422" lon="2.32982">
        <ele>2320.76</ele>
        <time>2017-05-08T11:22:10Z</time>
      </trkpt>
      <trkpt lat="42.42422" lon="2.32982">
        <ele>2320.28</ele>
        <time>2017-05-08T11:22:22Z</time>
      </trkpt>
      <trkpt lat="42.42418" lon="2.32979">
        <ele>2319.32</ele>
        <time>2017-05-08T11:22:26Z</time>
      </trkpt>
      <trkpt lat="42.42407" lon="2.32964">
        <ele>2316.43</ele>
        <time>2017-05-08T11:22:41Z</time>
      </trkpt>
      <trkpt lat="42.42398" lon="2.32952">
        <ele>2316.43</ele>
        <time>2017-05-08T11:22:54Z</time>
      </trkpt>
      <trkpt lat="42.42386" lon="2.3294">
        <ele>2316.43</ele>
        <time>2017-05-08T11:23:08Z</time>
      </trkpt>
      <trkpt lat="42.42377" lon="2.32927">
        <ele>2317.4</ele>
        <time>2017-05-08T11:23:21Z</time>
      </trkpt>
      <trkpt lat="42.42373" lon="2.32921">
        <ele>2317.88</ele>
        <time>2017-05-08T11:23:27Z</time>
      </trkpt>
      <trkpt lat="42.4237" lon="2.32922">
        <ele>2317.4</ele>
        <time>2017-05-08T11:23:44Z</time>
      </trkpt>
      <trkpt lat="42.42372" lon="2.3292">
        <ele>2318.84</ele>
        <time>2017-05-08T11:23:57Z</time>
      </trkpt>
      <trkpt lat="42.42375" lon="2.32919">
        <ele>2317.88</ele>
        <time>2017-05-08T11:24:09Z</time>
      </trkpt>
      <trkpt lat="42.42373" lon="2.32916">
        <ele>2317.4</ele>
        <time>2017-05-08T11:24:20Z</time>
      </trkpt>
      <trkpt lat="42.4237" lon="2.32908">
        <ele>2317.4</ele>
        <time>2017-05-08T11:24:33Z</time>
      </trkpt>
      <trkpt lat="42.42369" lon="2.32908">
        <ele>2316.91</ele>
        <time>2017-05-08T11:24:40Z</time>
      </trkpt>
      <trkpt lat="42.42363" lon="2.329">
        <ele>2316.43</ele>
        <time>2017-05-08T11:24:50Z</time>
      </trkpt>
      <trkpt lat="42.42349" lon="2.32887">
        <ele>2314.99</ele>
        <time>2017-05-08T11:25:04Z</time>
      </trkpt>
      <trkpt lat="42.42336" lon="2.32873">
        <ele>2314.03</ele>
        <time>2017-05-08T11:25:16Z</time>
      </trkpt>
      <trkpt lat="42.42329" lon="2.32863">
        <ele>2314.03</ele>
        <time>2017-05-08T11:25:24Z</time>
      </trkpt>
      <trkpt lat="42.42324" lon="2.32859">
        <ele>2313.55</ele>
        <time>2017-05-08T11:25:28Z</time>
      </trkpt>
      <trkpt lat="42.42316" lon="2.3285">
        <ele>2313.07</ele>
        <time>2017-05-08T11:25:38Z</time>
      </trkpt>
      <trkpt lat="42.42302" lon="2.32837">
        <ele>2312.11</ele>
        <time>2017-05-08T11:25:53Z</time>
      </trkpt>
      <trkpt lat="42.42292" lon="2.32822">
        <ele>2311.63</ele>
        <time>2017-05-08T11:26:06Z</time>
      </trkpt>
      <trkpt lat="42.42286" lon="2.32807">
        <ele>2311.15</ele>
        <time>2017-05-08T11:26:20Z</time>
      </trkpt>
      <trkpt lat="42.42278" lon="2.32788">
        <ele>2309.22</ele>
        <time>2017-05-08T11:26:36Z</time>
      </trkpt>
      <trkpt lat="42.42277" lon="2.32782">
        <ele>2308.74</ele>
        <time>2017-05-08T11:26:42Z</time>
      </trkpt>
      <trkpt lat="42.42276" lon="2.32779">
        <ele>2308.26</ele>
        <time>2017-05-08T11:26:44Z</time>
      </trkpt>
      <trkpt lat="42.42274" lon="2.32759">
        <ele>2307.3</ele>
        <time>2017-05-08T11:26:58Z</time>
      </trkpt>
      <trkpt lat="42.42273" lon="2.32753">
        <ele>2307.3</ele>
        <time>2017-05-08T11:27:02Z</time>
      </trkpt>
      <trkpt lat="42.42267" lon="2.32741">
        <ele>2305.38</ele>
        <time>2017-05-08T11:27:12Z</time>
      </trkpt>
      <trkpt lat="42.42265" lon="2.32739">
        <ele>2304.9</ele>
        <time>2017-05-08T11:27:16Z</time>
      </trkpt>
      <trkpt lat="42.42262" lon="2.32735">
        <ele>2304.42</ele>
        <time>2017-05-08T11:27:22Z</time>
      </trkpt>
      <trkpt lat="42.42252" lon="2.32721">
        <ele>2302.98</ele>
        <time>2017-05-08T11:27:34Z</time>
      </trkpt>
      <trkpt lat="42.42247" lon="2.32709">
        <ele>2302.49</ele>
        <time>2017-05-08T11:27:42Z</time>
      </trkpt>
      <trkpt lat="42.42246" lon="2.32707">
        <ele>2302.49</ele>
        <time>2017-05-08T11:27:44Z</time>
      </trkpt>
      <trkpt lat="42.42241" lon="2.32702">
        <ele>2301.05</ele>
        <time>2017-05-08T11:27:50Z</time>
      </trkpt>
      <trkpt lat="42.42238" lon="2.32702">
        <ele>2301.05</ele>
        <time>2017-05-08T11:27:53Z</time>
      </trkpt>
      <trkpt lat="42.42237" lon="2.32698">
        <ele>2300.57</ele>
        <time>2017-05-08T11:27:57Z</time>
      </trkpt>
      <trkpt lat="42.42234" lon="2.32688">
        <ele>2301.05</ele>
        <time>2017-05-08T11:28:06Z</time>
      </trkpt>
      <trkpt lat="42.42232" lon="2.32687">
        <ele>2301.05</ele>
        <time>2017-05-08T11:28:08Z</time>
      </trkpt>
      <trkpt lat="42.42223" lon="2.32682">
        <ele>2300.09</ele>
        <time>2017-05-08T11:28:16Z</time>
      </trkpt>
      <trkpt lat="42.42214" lon="2.32673">
        <ele>2299.13</ele>
        <time>2017-05-08T11:28:27Z</time>
      </trkpt>
      <trkpt lat="42.42213" lon="2.32672">
        <ele>2298.65</ele>
        <time>2017-05-08T11:28:29Z</time>
      </trkpt>
      <trkpt lat="42.42212" lon="2.3267">
        <ele>2299.13</ele>
        <time>2017-05-08T11:28:31Z</time>
      </trkpt>
      <trkpt lat="42.42208" lon="2.32664">
        <ele>2298.65</ele>
        <time>2017-05-08T11:28:37Z</time>
      </trkpt>
      <trkpt lat="42.42204" lon="2.32655">
        <ele>2298.65</ele>
        <time>2017-05-08T11:28:47Z</time>
      </trkpt>
      <trkpt lat="42.42203" lon="2.32652">
        <ele>2298.65</ele>
        <time>2017-05-08T11:28:49Z</time>
      </trkpt>
      <trkpt lat="42.42191" lon="2.32636">
        <ele>2299.13</ele>
        <time>2017-05-08T11:29:04Z</time>
      </trkpt>
      <trkpt lat="42.42186" lon="2.32633">
        <ele>2298.65</ele>
        <time>2017-05-08T11:29:09Z</time>
      </trkpt>
      <trkpt lat="42.42178" lon="2.32622">
        <ele>2297.21</ele>
        <time>2017-05-08T11:29:23Z</time>
      </trkpt>
      <trkpt lat="42.42175" lon="2.32617">
        <ele>2295.77</ele>
        <time>2017-05-08T11:29:39Z</time>
      </trkpt>
      <trkpt lat="42.42171" lon="2.32615">
        <ele>2295.77</ele>
        <time>2017-05-08T11:29:53Z</time>
      </trkpt>
      <trkpt lat="42.42172" lon="2.32614">
        <ele>2295.28</ele>
        <time>2017-05-08T11:30:10Z</time>
      </trkpt>
      <trkpt lat="42.42172" lon="2.32615">
        <ele>2295.77</ele>
        <time>2017-05-08T11:30:14Z</time>
      </trkpt>
      <trkpt lat="42.42171" lon="2.32617">
        <ele>2296.25</ele>
        <time>2017-05-08T11:30:28Z</time>
      </trkpt>
      <trkpt lat="42.42166" lon="2.3262">
        <ele>2295.77</ele>
        <time>2017-05-08T11:30:36Z</time>
      </trkpt>
      <trkpt lat="42.4216" lon="2.32626">
        <ele>2294.8</ele>
        <time>2017-05-08T11:30:44Z</time>
      </trkpt>
      <trkpt lat="42.42156" lon="2.32631">
        <ele>2293.84</ele>
        <time>2017-05-08T11:30:49Z</time>
      </trkpt>
      <trkpt lat="42.42153" lon="2.32633">
        <ele>2293.84</ele>
        <time>2017-05-08T11:30:55Z</time>
      </trkpt>
      <trkpt lat="42.42152" lon="2.32635">
        <ele>2293.84</ele>
        <time>2017-05-08T11:30:57Z</time>
      </trkpt>
      <trkpt lat="42.42147" lon="2.32643">
        <ele>2292.88</ele>
        <time>2017-05-08T11:31:06Z</time>
      </trkpt>
      <trkpt lat="42.42145" lon="2.32645">
        <ele>2292.88</ele>
        <time>2017-05-08T11:31:09Z</time>
      </trkpt>
      <trkpt lat="42.42141" lon="2.3265">
        <ele>2293.36</ele>
        <time>2017-05-08T11:31:14Z</time>
      </trkpt>
      <trkpt lat="42.42139" lon="2.32656">
        <ele>2292.4</ele>
        <time>2017-05-08T11:31:18Z</time>
      </trkpt>
      <trkpt lat="42.42137" lon="2.32659">
        <ele>2292.88</ele>
        <time>2017-05-08T11:31:21Z</time>
      </trkpt>
      <trkpt lat="42.42134" lon="2.32663">
        <ele>2293.36</ele>
        <time>2017-05-08T11:31:25Z</time>
      </trkpt>
      <trkpt lat="42.42123" lon="2.32673">
        <ele>2291.92</ele>
        <time>2017-05-08T11:31:37Z</time>
      </trkpt>
      <trkpt lat="42.42115" lon="2.32688">
        <ele>2291.92</ele>
        <time>2017-05-08T11:31:51Z</time>
      </trkpt>
      <trkpt lat="42.4211" lon="2.32694">
        <ele>2291.44</ele>
        <time>2017-05-08T11:32:04Z</time>
      </trkpt>
      <trkpt lat="42.42106" lon="2.32693">
        <ele>2291.44</ele>
        <time>2017-05-08T11:32:16Z</time>
      </trkpt>
      <trkpt lat="42.42102" lon="2.32689">
        <ele>2292.4</ele>
        <time>2017-05-08T11:32:30Z</time>
      </trkpt>
      <trkpt lat="42.42102" lon="2.32689">
        <ele>2291.92</ele>
        <time>2017-05-08T11:32:55Z</time>
      </trkpt>
      <trkpt lat="42.42102" lon="2.32689">
        <ele>2292.88</ele>
        <time>2017-05-08T11:33:20Z</time>
      </trkpt>
      <trkpt lat="42.42105" lon="2.32686">
        <ele>2292.88</ele>
        <time>2017-05-08T11:33:46Z</time>
      </trkpt>
      <trkpt lat="42.42105" lon="2.32686">
        <ele>2295.77</ele>
        <time>2017-05-08T11:33:51Z</time>
      </trkpt>
      <trkpt lat="42.421" lon="2.3268">
        <ele>2294.8</ele>
        <time>2017-05-08T11:34:06Z</time>
      </trkpt>
      <trkpt lat="42.42094" lon="2.32671">
        <ele>2296.73</ele>
        <time>2017-05-08T11:34:20Z</time>
      </trkpt>
      <trkpt lat="42.42089" lon="2.32664">
        <ele>2299.13</ele>
        <time>2017-05-08T11:34:33Z</time>
      </trkpt>
      <trkpt lat="42.42088" lon="2.32662">
        <ele>2300.09</ele>
        <time>2017-05-08T11:34:37Z</time>
      </trkpt>
      <trkpt lat="42.42078" lon="2.32667">
        <ele>2301.53</ele>
        <time>2017-05-08T11:34:49Z</time>
      </trkpt>
      <trkpt lat="42.42072" lon="2.32672">
        <ele>2303.94</ele>
        <time>2017-05-08T11:35:02Z</time>
      </trkpt>
      <trkpt lat="42.4207" lon="2.32674">
        <ele>2304.42</ele>
        <time>2017-05-08T11:35:05Z</time>
      </trkpt>
      <trkpt lat="42.42066" lon="2.32675">
        <ele>2305.38</ele>
        <time>2017-05-08T11:35:10Z</time>
      </trkpt>
      <trkpt lat="42.42061" lon="2.32685">
        <ele>2304.9</ele>
        <time>2017-05-08T11:35:24Z</time>
      </trkpt>
      <trkpt lat="42.42052" lon="2.32693">
        <ele>2307.3</ele>
        <time>2017-05-08T11:35:36Z</time>
      </trkpt>
      <trkpt lat="42.42043" lon="2.32707">
        <ele>2308.26</ele>
        <time>2017-05-08T11:35:49Z</time>
      </trkpt>
      <trkpt lat="42.42034" lon="2.32718">
        <ele>2308.74</ele>
        <time>2017-05-08T11:36:03Z</time>
      </trkpt>
      <trkpt lat="42.42032" lon="2.3272">
        <ele>2309.22</ele>
        <time>2017-05-08T11:36:05Z</time>
      </trkpt>
      <trkpt lat="42.42025" lon="2.32728">
        <ele>2309.7</ele>
        <time>2017-05-08T11:36:15Z</time>
      </trkpt>
      <trkpt lat="42.42023" lon="2.32731">
        <ele>2309.7</ele>
        <time>2017-05-08T11:36:18Z</time>
      </trkpt>
      <trkpt lat="42.42018" lon="2.32736">
        <ele>2309.22</ele>
        <time>2017-05-08T11:36:24Z</time>
      </trkpt>
      <trkpt lat="42.42013" lon="2.32744">
        <ele>2308.74</ele>
        <time>2017-05-08T11:36:32Z</time>
      </trkpt>
      <trkpt lat="42.42008" lon="2.32749">
        <ele>2309.22</ele>
        <time>2017-05-08T11:36:38Z</time>
      </trkpt>
      <trkpt lat="42.42006" lon="2.32751">
        <ele>2309.22</ele>
        <time>2017-05-08T11:36:41Z</time>
      </trkpt>
      <trkpt lat="42.42004" lon="2.32753">
        <ele>2309.22</ele>
        <time>2017-05-08T11:36:44Z</time>
      </trkpt>
      <trkpt lat="42.42001" lon="2.32756">
        <ele>2309.7</ele>
        <time>2017-05-08T11:36:47Z</time>
      </trkpt>
      <trkpt lat="42.4199" lon="2.32766">
        <ele>2309.22</ele>
        <time>2017-05-08T11:37:00Z</time>
      </trkpt>
      <trkpt lat="42.41989" lon="2.32767">
        <ele>2309.7</ele>
        <time>2017-05-08T11:37:01Z</time>
      </trkpt>
      <trkpt lat="42.41985" lon="2.3277">
        <ele>2309.7</ele>
        <time>2017-05-08T11:37:05Z</time>
      </trkpt>
      <trkpt lat="42.41972" lon="2.32779">
        <ele>2310.19</ele>
        <time>2017-05-08T11:37:20Z</time>
      </trkpt>
      <trkpt lat="42.41961" lon="2.32794">
        <ele>2310.67</ele>
        <time>2017-05-08T11:37:33Z</time>
      </trkpt>
      <trkpt lat="42.41954" lon="2.32807">
        <ele>2310.19</ele>
        <time>2017-05-08T11:37:42Z</time>
      </trkpt>
      <trkpt lat="42.41948" lon="2.32818">
        <ele>2310.19</ele>
        <time>2017-05-08T11:37:53Z</time>
      </trkpt>
      <trkpt lat="42.41945" lon="2.32819">
        <ele>2310.67</ele>
        <time>2017-05-08T11:37:57Z</time>
      </trkpt>
      <trkpt lat="42.41936" lon="2.32833">
        <ele>2308.74</ele>
        <time>2017-05-08T11:38:09Z</time>
      </trkpt>
      <trkpt lat="42.41935" lon="2.32835">
        <ele>2308.74</ele>
        <time>2017-05-08T11:38:10Z</time>
      </trkpt>
      <trkpt lat="42.41932" lon="2.32836">
        <ele>2310.67</ele>
        <time>2017-05-08T11:38:13Z</time>
      </trkpt>
      <trkpt lat="42.41928" lon="2.32839">
        <ele>2311.15</ele>
        <time>2017-05-08T11:38:17Z</time>
      </trkpt>
      <trkpt lat="42.41925" lon="2.3284">
        <ele>2311.15</ele>
        <time>2017-05-08T11:38:20Z</time>
      </trkpt>
      <trkpt lat="42.41922" lon="2.32844">
        <ele>2311.63</ele>
        <time>2017-05-08T11:38:23Z</time>
      </trkpt>
      <trkpt lat="42.41915" lon="2.32857">
        <ele>2312.59</ele>
        <time>2017-05-08T11:38:32Z</time>
      </trkpt>
      <trkpt lat="42.41907" lon="2.32867">
        <ele>2312.11</ele>
        <time>2017-05-08T11:38:43Z</time>
      </trkpt>
      <trkpt lat="42.41904" lon="2.3287">
        <ele>2313.07</ele>
        <time>2017-05-08T11:38:47Z</time>
      </trkpt>
      <trkpt lat="42.41902" lon="2.3287">
        <ele>2313.07</ele>
        <time>2017-05-08T11:38:49Z</time>
      </trkpt>
      <trkpt lat="42.41895" lon="2.3288">
        <ele>2314.03</ele>
        <time>2017-05-08T11:38:59Z</time>
      </trkpt>
      <trkpt lat="42.41891" lon="2.32885">
        <ele>2314.51</ele>
        <time>2017-05-08T11:39:03Z</time>
      </trkpt>
      <trkpt lat="42.41886" lon="2.3289">
        <ele>2314.99</ele>
        <time>2017-05-08T11:39:09Z</time>
      </trkpt>
      <trkpt lat="42.41883" lon="2.32895">
        <ele>2314.99</ele>
        <time>2017-05-08T11:39:14Z</time>
      </trkpt>
      <trkpt lat="42.41875" lon="2.32906">
        <ele>2314.99</ele>
        <time>2017-05-08T11:39:25Z</time>
      </trkpt>
      <trkpt lat="42.41873" lon="2.32907">
        <ele>2315.47</ele>
        <time>2017-05-08T11:39:27Z</time>
      </trkpt>
      <trkpt lat="42.41863" lon="2.32923">
        <ele>2317.4</ele>
        <time>2017-05-08T11:39:41Z</time>
      </trkpt>
      <trkpt lat="42.41858" lon="2.32929">
        <ele>2316.43</ele>
        <time>2017-05-08T11:39:47Z</time>
      </trkpt>
      <trkpt lat="42.41857" lon="2.32936">
        <ele>2316.91</ele>
        <time>2017-05-08T11:39:52Z</time>
      </trkpt>
      <trkpt lat="42.41853" lon="2.32945">
        <ele>2316.91</ele>
        <time>2017-05-08T11:40:02Z</time>
      </trkpt>
      <trkpt lat="42.41852" lon="2.32947">
        <ele>2317.88</ele>
        <time>2017-05-08T11:40:04Z</time>
      </trkpt>
      <trkpt lat="42.41849" lon="2.32955">
        <ele>2318.36</ele>
        <time>2017-05-08T11:40:09Z</time>
      </trkpt>
      <trkpt lat="42.41847" lon="2.32968">
        <ele>2317.88</ele>
        <time>2017-05-08T11:40:17Z</time>
      </trkpt>
      <trkpt lat="42.41837" lon="2.32985">
        <ele>2319.8</ele>
        <time>2017-05-08T11:40:32Z</time>
      </trkpt>
      <trkpt lat="42.41835" lon="2.32991">
        <ele>2319.8</ele>
        <time>2017-05-08T11:40:37Z</time>
      </trkpt>
      <trkpt lat="42.41827" lon="2.32999">
        <ele>2319.8</ele>
        <time>2017-05-08T11:40:45Z</time>
      </trkpt>
      <trkpt lat="42.41823" lon="2.33003">
        <ele>2320.28</ele>
        <time>2017-05-08T11:40:49Z</time>
      </trkpt>
      <trkpt lat="42.41821" lon="2.3301">
        <ele>2319.8</ele>
        <time>2017-05-08T11:40:55Z</time>
      </trkpt>
      <trkpt lat="42.4181" lon="2.33024">
        <ele>2319.8</ele>
        <time>2017-05-08T11:41:09Z</time>
      </trkpt>
      <trkpt lat="42.418" lon="2.33035">
        <ele>2320.28</ele>
        <time>2017-05-08T11:41:21Z</time>
      </trkpt>
      <trkpt lat="42.41792" lon="2.33054">
        <ele>2318.84</ele>
        <time>2017-05-08T11:41:34Z</time>
      </trkpt>
      <trkpt lat="42.41788" lon="2.33061">
        <ele>2317.88</ele>
        <time>2017-05-08T11:41:43Z</time>
      </trkpt>
      <trkpt lat="42.41787" lon="2.33071">
        <ele>2315.95</ele>
        <time>2017-05-08T11:41:49Z</time>
      </trkpt>
      <trkpt lat="42.41787" lon="2.33073">
        <ele>2316.43</ele>
        <time>2017-05-08T11:41:50Z</time>
      </trkpt>
      <trkpt lat="42.41786" lon="2.33079">
        <ele>2315.95</ele>
        <time>2017-05-08T11:41:54Z</time>
      </trkpt>
      <trkpt lat="42.41776" lon="2.33094">
        <ele>2314.99</ele>
        <time>2017-05-08T11:42:09Z</time>
      </trkpt>
      <trkpt lat="42.41774" lon="2.33097">
        <ele>2314.99</ele>
        <time>2017-05-08T11:42:14Z</time>
      </trkpt>
      <trkpt lat="42.41769" lon="2.33114">
        <ele>2314.51</ele>
        <time>2017-05-08T11:42:28Z</time>
      </trkpt>
      <trkpt lat="42.41768" lon="2.33116">
        <ele>2314.51</ele>
        <time>2017-05-08T11:42:30Z</time>
      </trkpt>
      <trkpt lat="42.4176" lon="2.33133">
        <ele>2314.99</ele>
        <time>2017-05-08T11:42:45Z</time>
      </trkpt>
      <trkpt lat="42.41759" lon="2.33134">
        <ele>2314.99</ele>
        <time>2017-05-08T11:42:46Z</time>
      </trkpt>
      <trkpt lat="42.41757" lon="2.33138">
        <ele>2315.95</ele>
        <time>2017-05-08T11:42:49Z</time>
      </trkpt>
      <trkpt lat="42.41747" lon="2.33156">
        <ele>2316.91</ele>
        <time>2017-05-08T11:43:04Z</time>
      </trkpt>
      <trkpt lat="42.41741" lon="2.33172">
        <ele>2317.4</ele>
        <time>2017-05-08T11:43:16Z</time>
      </trkpt>
      <trkpt lat="42.41739" lon="2.33177">
        <ele>2318.36</ele>
        <time>2017-05-08T11:43:20Z</time>
      </trkpt>
      <trkpt lat="42.41736" lon="2.33187">
        <ele>2314.51</ele>
        <time>2017-05-08T11:43:32Z</time>
      </trkpt>
      <trkpt lat="42.41736" lon="2.33187">
        <ele>2314.51</ele>
        <time>2017-05-08T11:43:33Z</time>
      </trkpt>
      <trkpt lat="42.41736" lon="2.33189">
        <ele>2316.43</ele>
        <time>2017-05-08T11:43:38Z</time>
      </trkpt>
      <trkpt lat="42.41736" lon="2.33193">
        <ele>2316.91</ele>
        <time>2017-05-08T11:43:41Z</time>
      </trkpt>
      <trkpt lat="42.4173" lon="2.3321">
        <ele>2316.91</ele>
        <time>2017-05-08T11:43:54Z</time>
      </trkpt>
      <trkpt lat="42.41722" lon="2.33225">
        <ele>2316.91</ele>
        <time>2017-05-08T11:44:07Z</time>
      </trkpt>
      <trkpt lat="42.41718" lon="2.33236">
        <ele>2316.43</ele>
        <time>2017-05-08T11:44:20Z</time>
      </trkpt>
      <trkpt lat="42.41711" lon="2.33248">
        <ele>2317.4</ele>
        <time>2017-05-08T11:44:30Z</time>
      </trkpt>
      <trkpt lat="42.41709" lon="2.33251">
        <ele>2317.88</ele>
        <time>2017-05-08T11:44:34Z</time>
      </trkpt>
      <trkpt lat="42.41708" lon="2.33257">
        <ele>2316.91</ele>
        <time>2017-05-08T11:44:38Z</time>
      </trkpt>
      <trkpt lat="42.41699" lon="2.33278">
        <ele>2314.99</ele>
        <time>2017-05-08T11:44:54Z</time>
      </trkpt>
      <trkpt lat="42.41698" lon="2.33282">
        <ele>2314.99</ele>
        <time>2017-05-08T11:44:57Z</time>
      </trkpt>
      <trkpt lat="42.41692" lon="2.33299">
        <ele>2313.55</ele>
        <time>2017-05-08T11:45:10Z</time>
      </trkpt>
      <trkpt lat="42.41683" lon="2.33317">
        <ele>2314.03</ele>
        <time>2017-05-08T11:45:26Z</time>
      </trkpt>
      <trkpt lat="42.41674" lon="2.33333">
        <ele>2314.51</ele>
        <time>2017-05-08T11:45:39Z</time>
      </trkpt>
      <trkpt lat="42.41671" lon="2.33337">
        <ele>2314.51</ele>
        <time>2017-05-08T11:45:43Z</time>
      </trkpt>
      <trkpt lat="42.41665" lon="2.33356">
        <ele>2313.55</ele>
        <time>2017-05-08T11:45:57Z</time>
      </trkpt>
      <trkpt lat="42.41664" lon="2.33366">
        <ele>2313.07</ele>
        <time>2017-05-08T11:46:03Z</time>
      </trkpt>
      <trkpt lat="42.41661" lon="2.33377">
        <ele>2310.19</ele>
        <time>2017-05-08T11:46:13Z</time>
      </trkpt>
      <trkpt lat="42.4166" lon="2.33381">
        <ele>2310.67</ele>
        <time>2017-05-08T11:46:16Z</time>
      </trkpt>
      <trkpt lat="42.41656" lon="2.33407">
        <ele>2309.22</ele>
        <time>2017-05-08T11:46:32Z</time>
      </trkpt>
      <trkpt lat="42.41656" lon="2.33412">
        <ele>2308.26</ele>
        <time>2017-05-08T11:46:35Z</time>
      </trkpt>
      <trkpt lat="42.41656" lon="2.33431">
        <ele>2307.3</ele>
        <time>2017-05-08T11:46:46Z</time>
      </trkpt>
      <trkpt lat="42.41656" lon="2.33434">
        <ele>2307.3</ele>
        <time>2017-05-08T11:46:48Z</time>
      </trkpt>
      <trkpt lat="42.41657" lon="2.33439">
        <ele>2305.86</ele>
        <time>2017-05-08T11:46:52Z</time>
      </trkpt>
      <trkpt lat="42.41657" lon="2.33442">
        <ele>2308.74</ele>
        <time>2017-05-08T11:47:05Z</time>
      </trkpt>
      <trkpt lat="42.41659" lon="2.33444">
        <ele>2306.82</ele>
        <time>2017-05-08T11:47:18Z</time>
      </trkpt>
      <trkpt lat="42.41659" lon="2.33441">
        <ele>2307.78</ele>
        <time>2017-05-08T11:47:34Z</time>
      </trkpt>
      <trkpt lat="42.4166" lon="2.3344">
        <ele>2307.78</ele>
        <time>2017-05-08T11:47:51Z</time>
      </trkpt>
      <trkpt lat="42.41661" lon="2.33443">
        <ele>2308.26</ele>
        <time>2017-05-08T11:48:05Z</time>
      </trkpt>
      <trkpt lat="42.41661" lon="2.33443">
        <ele>2308.26</ele>
        <time>2017-05-08T11:48:29Z</time>
      </trkpt>
      <trkpt lat="42.41662" lon="2.33442">
        <ele>2307.3</ele>
        <time>2017-05-08T11:48:45Z</time>
      </trkpt>
      <trkpt lat="42.41662" lon="2.33441">
        <ele>2307.3</ele>
        <time>2017-05-08T11:49:08Z</time>
      </trkpt>
      <trkpt lat="42.41662" lon="2.33442">
        <ele>2306.82</ele>
        <time>2017-05-08T11:49:25Z</time>
      </trkpt>
      <trkpt lat="42.41661" lon="2.33442">
        <ele>2306.82</ele>
        <time>2017-05-08T11:49:42Z</time>
      </trkpt>
      <trkpt lat="42.41661" lon="2.33442">
        <ele>2306.34</ele>
        <time>2017-05-08T11:50:09Z</time>
      </trkpt>
      <trkpt lat="42.41661" lon="2.33444">
        <ele>2307.78</ele>
        <time>2017-05-08T11:50:28Z</time>
      </trkpt>
      <trkpt lat="42.41661" lon="2.33445">
        <ele>2308.74</ele>
        <time>2017-05-08T11:50:56Z</time>
      </trkpt>
      <trkpt lat="42.41661" lon="2.33446">
        <ele>2307.78</ele>
        <time>2017-05-08T11:51:04Z</time>
      </trkpt>
      <trkpt lat="42.41661" lon="2.33447">
        <ele>2306.82</ele>
        <time>2017-05-08T11:51:06Z</time>
      </trkpt>
      <trkpt lat="42.41661" lon="2.33449">
        <ele>2306.82</ele>
        <time>2017-05-08T11:51:07Z</time>
      </trkpt>
      <trkpt lat="42.41667" lon="2.33459">
        <ele>2306.82</ele>
        <time>2017-05-08T11:51:15Z</time>
      </trkpt>
      <trkpt lat="42.41668" lon="2.33466">
        <ele>2307.3</ele>
        <time>2017-05-08T11:51:20Z</time>
      </trkpt>
      <trkpt lat="42.4167" lon="2.33486">
        <ele>2308.74</ele>
        <time>2017-05-08T11:51:33Z</time>
      </trkpt>
      <trkpt lat="42.4167" lon="2.33487">
        <ele>2308.74</ele>
        <time>2017-05-08T11:51:34Z</time>
      </trkpt>
      <trkpt lat="42.41672" lon="2.33501">
        <ele>2310.67</ele>
        <time>2017-05-08T11:51:46Z</time>
      </trkpt>
      <trkpt lat="42.41672" lon="2.33503">
        <ele>2310.67</ele>
        <time>2017-05-08T11:51:48Z</time>
      </trkpt>
      <trkpt lat="42.41672" lon="2.3351">
        <ele>2312.11</ele>
        <time>2017-05-08T11:51:53Z</time>
      </trkpt>
      <trkpt lat="42.41675" lon="2.33528">
        <ele>2314.51</ele>
        <time>2017-05-08T11:52:07Z</time>
      </trkpt>
      <trkpt lat="42.41675" lon="2.33535">
        <ele>2314.99</ele>
        <time>2017-05-08T11:52:12Z</time>
      </trkpt>
      <trkpt lat="42.41675" lon="2.33542">
        <ele>2316.43</ele>
        <time>2017-05-08T11:52:18Z</time>
      </trkpt>
      <trkpt lat="42.41676" lon="2.33558">
        <ele>2316.91</ele>
        <time>2017-05-08T11:52:31Z</time>
      </trkpt>
      <trkpt lat="42.41676" lon="2.33562">
        <ele>2317.88</ele>
        <time>2017-05-08T11:52:35Z</time>
      </trkpt>
      <trkpt lat="42.41676" lon="2.33565">
        <ele>2318.84</ele>
        <time>2017-05-08T11:52:37Z</time>
      </trkpt>
      <trkpt lat="42.41677" lon="2.33572">
        <ele>2318.36</ele>
        <time>2017-05-08T11:52:43Z</time>
      </trkpt>
      <trkpt lat="42.41677" lon="2.3358">
        <ele>2320.28</ele>
        <time>2017-05-08T11:52:50Z</time>
      </trkpt>
      <trkpt lat="42.41678" lon="2.33584">
        <ele>2320.28</ele>
        <time>2017-05-08T11:52:53Z</time>
      </trkpt>
      <trkpt lat="42.41679" lon="2.33586">
        <ele>2320.76</ele>
        <time>2017-05-08T11:52:56Z</time>
      </trkpt>
      <trkpt lat="42.4168" lon="2.33589">
        <ele>2321.24</ele>
        <time>2017-05-08T11:52:58Z</time>
      </trkpt>
      <trkpt lat="42.4168" lon="2.33595">
        <ele>2322.2</ele>
        <time>2017-05-08T11:53:02Z</time>
      </trkpt>
      <trkpt lat="42.41681" lon="2.33599">
        <ele>2322.2</ele>
        <time>2017-05-08T11:53:05Z</time>
      </trkpt>
      <trkpt lat="42.41681" lon="2.33616">
        <ele>2323.64</ele>
        <time>2017-05-08T11:53:18Z</time>
      </trkpt>
      <trkpt lat="42.41679" lon="2.33623">
        <ele>2325.09</ele>
        <time>2017-05-08T11:53:25Z</time>
      </trkpt>
      <trkpt lat="42.41676" lon="2.33642">
        <ele>2326.05</ele>
        <time>2017-05-08T11:53:40Z</time>
      </trkpt>
      <trkpt lat="42.41676" lon="2.33657">
        <ele>2327.97</ele>
        <time>2017-05-08T11:53:52Z</time>
      </trkpt>
      <trkpt lat="42.41674" lon="2.33659">
        <ele>2328.45</ele>
        <time>2017-05-08T11:53:54Z</time>
      </trkpt>
      <trkpt lat="42.41675" lon="2.33664">
        <ele>2328.45</ele>
        <time>2017-05-08T11:53:58Z</time>
      </trkpt>
      <trkpt lat="42.41673" lon="2.33668">
        <ele>2328.45</ele>
        <time>2017-05-08T11:54:01Z</time>
      </trkpt>
      <trkpt lat="42.41673" lon="2.33673">
        <ele>2328.93</ele>
        <time>2017-05-08T11:54:04Z</time>
      </trkpt>
      <trkpt lat="42.41672" lon="2.33675">
        <ele>2328.93</ele>
        <time>2017-05-08T11:54:06Z</time>
      </trkpt>
      <trkpt lat="42.41673" lon="2.33688">
        <ele>2329.89</ele>
        <time>2017-05-08T11:54:15Z</time>
      </trkpt>
      <trkpt lat="42.4167" lon="2.33698">
        <ele>2331.81</ele>
        <time>2017-05-08T11:54:24Z</time>
      </trkpt>
      <trkpt lat="42.41671" lon="2.33714">
        <ele>2331.33</ele>
        <time>2017-05-08T11:54:35Z</time>
      </trkpt>
      <trkpt lat="42.41671" lon="2.33722">
        <ele>2331.81</ele>
        <time>2017-05-08T11:54:41Z</time>
      </trkpt>
      <trkpt lat="42.41667" lon="2.33739">
        <ele>2333.26</ele>
        <time>2017-05-08T11:54:56Z</time>
      </trkpt>
      <trkpt lat="42.41667" lon="2.33744">
        <ele>2333.74</ele>
        <time>2017-05-08T11:55:08Z</time>
      </trkpt>
      <trkpt lat="42.41666" lon="2.33751">
        <ele>2334.22</ele>
        <time>2017-05-08T11:55:13Z</time>
      </trkpt>
      <trkpt lat="42.41665" lon="2.33766">
        <ele>2334.7</ele>
        <time>2017-05-08T11:55:26Z</time>
      </trkpt>
      <trkpt lat="42.41666" lon="2.33771">
        <ele>2334.7</ele>
        <time>2017-05-08T11:55:29Z</time>
      </trkpt>
      <trkpt lat="42.41665" lon="2.33785">
        <ele>2336.14</ele>
        <time>2017-05-08T11:55:41Z</time>
      </trkpt>
      <trkpt lat="42.41666" lon="2.33789">
        <ele>2337.1</ele>
        <time>2017-05-08T11:55:44Z</time>
      </trkpt>
      <trkpt lat="42.41666" lon="2.33796">
        <ele>2337.1</ele>
        <time>2017-05-08T11:55:59Z</time>
      </trkpt>
      <trkpt lat="42.41666" lon="2.33796">
        <ele>2336.62</ele>
        <time>2017-05-08T11:56:01Z</time>
      </trkpt>
      <trkpt lat="42.41666" lon="2.338">
        <ele>2337.1</ele>
        <time>2017-05-08T11:56:04Z</time>
      </trkpt>
      <trkpt lat="42.41666" lon="2.33802">
        <ele>2337.58</ele>
        <time>2017-05-08T11:56:06Z</time>
      </trkpt>
      <trkpt lat="42.41665" lon="2.33806">
        <ele>2338.54</ele>
        <time>2017-05-08T11:56:09Z</time>
      </trkpt>
      <trkpt lat="42.41664" lon="2.33815">
        <ele>2339.02</ele>
        <time>2017-05-08T11:56:16Z</time>
      </trkpt>
      <trkpt lat="42.41661" lon="2.33831">
        <ele>2341.91</ele>
        <time>2017-05-08T11:56:31Z</time>
      </trkpt>
      <trkpt lat="42.41659" lon="2.33838">
        <ele>2343.35</ele>
        <time>2017-05-08T11:56:39Z</time>
      </trkpt>
      <trkpt lat="42.41656" lon="2.33845">
        <ele>2344.31</ele>
        <time>2017-05-08T11:56:54Z</time>
      </trkpt>
      <trkpt lat="42.41655" lon="2.33851">
        <ele>2345.75</ele>
        <time>2017-05-08T11:57:00Z</time>
      </trkpt>
      <trkpt lat="42.41655" lon="2.33853">
        <ele>2345.75</ele>
        <time>2017-05-08T11:57:02Z</time>
      </trkpt>
      <trkpt lat="42.41655" lon="2.33863">
        <ele>2347.2</ele>
        <time>2017-05-08T11:57:15Z</time>
      </trkpt>
      <trkpt lat="42.41654" lon="2.33873">
        <ele>2350.56</ele>
        <time>2017-05-08T11:57:25Z</time>
      </trkpt>
      <trkpt lat="42.41654" lon="2.33882">
        <ele>2353.44</ele>
        <time>2017-05-08T11:57:36Z</time>
      </trkpt>
      <trkpt lat="42.41655" lon="2.33886">
        <ele>2354.41</ele>
        <time>2017-05-08T11:57:49Z</time>
      </trkpt>
      <trkpt lat="42.41655" lon="2.33885">
        <ele>2354.41</ele>
        <time>2017-05-08T11:57:58Z</time>
      </trkpt>
      <trkpt lat="42.41657" lon="2.33895">
        <ele>2356.33</ele>
        <time>2017-05-08T11:58:10Z</time>
      </trkpt>
      <trkpt lat="42.41656" lon="2.33907">
        <ele>2358.73</ele>
        <time>2017-05-08T11:58:25Z</time>
      </trkpt>
      <trkpt lat="42.41655" lon="2.33916">
        <ele>2361.62</ele>
        <time>2017-05-08T11:58:38Z</time>
      </trkpt>
      <trkpt lat="42.41653" lon="2.33926">
        <ele>2364.5</ele>
        <time>2017-05-08T11:58:51Z</time>
      </trkpt>
      <trkpt lat="42.41654" lon="2.3393">
        <ele>2365.46</ele>
        <time>2017-05-08T11:59:02Z</time>
      </trkpt>
      <trkpt lat="42.41654" lon="2.3393">
        <ele>2367.38</ele>
        <time>2017-05-08T11:59:05Z</time>
      </trkpt>
      <trkpt lat="42.41656" lon="2.33933">
        <ele>2364.98</ele>
        <time>2017-05-08T11:59:19Z</time>
      </trkpt>
      <trkpt lat="42.41655" lon="2.33941">
        <ele>2368.35</ele>
        <time>2017-05-08T11:59:27Z</time>
      </trkpt>
      <trkpt lat="42.41655" lon="2.3395">
        <ele>2369.31</ele>
        <time>2017-05-08T11:59:38Z</time>
      </trkpt>
      <trkpt lat="42.41655" lon="2.33957">
        <ele>2372.19</ele>
        <time>2017-05-08T11:59:48Z</time>
      </trkpt>
      <trkpt lat="42.41655" lon="2.33959">
        <ele>2372.19</ele>
        <time>2017-05-08T11:59:49Z</time>
      </trkpt>
      <trkpt lat="42.41654" lon="2.33968">
        <ele>2375.07</ele>
        <time>2017-05-08T12:00:05Z</time>
      </trkpt>
      <trkpt lat="42.41654" lon="2.33969">
        <ele>2376.04</ele>
        <time>2017-05-08T12:00:25Z</time>
      </trkpt>
      <trkpt lat="42.41655" lon="2.33982">
        <ele>2378.92</ele>
        <time>2017-05-08T12:00:37Z</time>
      </trkpt>
      <trkpt lat="42.41655" lon="2.33986">
        <ele>2379.4</ele>
        <time>2017-05-08T12:00:40Z</time>
      </trkpt>
      <trkpt lat="42.41656" lon="2.34001">
        <ele>2380.84</ele>
        <time>2017-05-08T12:00:53Z</time>
      </trkpt>
      <trkpt lat="42.41657" lon="2.34009">
        <ele>2381.8</ele>
        <time>2017-05-08T12:01:01Z</time>
      </trkpt>
      <trkpt lat="42.41657" lon="2.34015">
        <ele>2382.76</ele>
        <time>2017-05-08T12:01:17Z</time>
      </trkpt>
      <trkpt lat="42.41656" lon="2.34015">
        <ele>2383.25</ele>
        <time>2017-05-08T12:01:42Z</time>
      </trkpt>
      <trkpt lat="42.41656" lon="2.34015">
        <ele>2383.73</ele>
        <time>2017-05-08T12:02:11Z</time>
      </trkpt>
      <trkpt lat="42.41657" lon="2.34016">
        <ele>2382.76</ele>
        <time>2017-05-08T12:02:17Z</time>
      </trkpt>
      <trkpt lat="42.41656" lon="2.3402">
        <ele>2383.25</ele>
        <time>2017-05-08T12:02:21Z</time>
      </trkpt>
      <trkpt lat="42.41654" lon="2.3404">
        <ele>2385.17</ele>
        <time>2017-05-08T12:02:36Z</time>
      </trkpt>
      <trkpt lat="42.41652" lon="2.34061">
        <ele>2386.13</ele>
        <time>2017-05-08T12:02:52Z</time>
      </trkpt>
      <trkpt lat="42.41649" lon="2.34077">
        <ele>2388.05</ele>
        <time>2017-05-08T12:03:05Z</time>
      </trkpt>
      <trkpt lat="42.41649" lon="2.34078">
        <ele>2388.05</ele>
        <time>2017-05-08T12:03:06Z</time>
      </trkpt>
      <trkpt lat="42.41645" lon="2.34096">
        <ele>2390.46</ele>
        <time>2017-05-08T12:03:22Z</time>
      </trkpt>
      <trkpt lat="42.41644" lon="2.34102">
        <ele>2391.42</ele>
        <time>2017-05-08T12:03:28Z</time>
      </trkpt>
      <trkpt lat="42.41641" lon="2.34117">
        <ele>2394.3</ele>
        <time>2017-05-08T12:03:43Z</time>
      </trkpt>
      <trkpt lat="42.41639" lon="2.34128">
        <ele>2395.74</ele>
        <time>2017-05-08T12:03:57Z</time>
      </trkpt>
      <trkpt lat="42.41638" lon="2.34129">
        <ele>2395.74</ele>
        <time>2017-05-08T12:03:58Z</time>
      </trkpt>
      <trkpt lat="42.41637" lon="2.34134">
        <ele>2396.7</ele>
        <time>2017-05-08T12:04:02Z</time>
      </trkpt>
      <trkpt lat="42.41636" lon="2.34148">
        <ele>2399.11</ele>
        <time>2017-05-08T12:04:16Z</time>
      </trkpt>
      <trkpt lat="42.41634" lon="2.3415">
        <ele>2399.59</ele>
        <time>2017-05-08T12:04:19Z</time>
      </trkpt>
      <trkpt lat="42.41633" lon="2.34163">
        <ele>2401.51</ele>
        <time>2017-05-08T12:04:30Z</time>
      </trkpt>
      <trkpt lat="42.41634" lon="2.34174">
        <ele>2403.91</ele>
        <time>2017-05-08T12:04:42Z</time>
      </trkpt>
      <trkpt lat="42.41634" lon="2.34175">
        <ele>2403.43</ele>
        <time>2017-05-08T12:04:43Z</time>
      </trkpt>
      <trkpt lat="42.41635" lon="2.34181">
        <ele>2404.88</ele>
        <time>2017-05-08T12:04:52Z</time>
      </trkpt>
      <trkpt lat="42.41643" lon="2.34183">
        <ele>2407.76</ele>
        <time>2017-05-08T12:05:04Z</time>
      </trkpt>
      <trkpt lat="42.41645" lon="2.34186">
        <ele>2409.2</ele>
        <time>2017-05-08T12:05:14Z</time>
      </trkpt>
      <trkpt lat="42.41646" lon="2.3419">
        <ele>2409.2</ele>
        <time>2017-05-08T12:05:34Z</time>
      </trkpt>
      <trkpt lat="42.41645" lon="2.34191">
        <ele>2409.68</ele>
        <time>2017-05-08T12:05:35Z</time>
      </trkpt>
      <trkpt lat="42.41643" lon="2.34203">
        <ele>2412.57</ele>
        <time>2017-05-08T12:05:46Z</time>
      </trkpt>
      <trkpt lat="42.41643" lon="2.34207">
        <ele>2414.01</ele>
        <time>2017-05-08T12:05:58Z</time>
      </trkpt>
      <trkpt lat="42.41644" lon="2.34205">
        <ele>2413.53</ele>
        <time>2017-05-08T12:06:15Z</time>
      </trkpt>
      <trkpt lat="42.41645" lon="2.34201">
        <ele>2413.05</ele>
        <time>2017-05-08T12:06:37Z</time>
      </trkpt>
      <trkpt lat="42.41646" lon="2.34201">
        <ele>2413.05</ele>
        <time>2017-05-08T12:07:03Z</time>
      </trkpt>
      <trkpt lat="42.41645" lon="2.34202">
        <ele>2413.05</ele>
        <time>2017-05-08T12:07:15Z</time>
      </trkpt>
      <trkpt lat="42.41642" lon="2.34208">
        <ele>2414.01</ele>
        <time>2017-05-08T12:07:22Z</time>
      </trkpt>
      <trkpt lat="42.41642" lon="2.34216">
        <ele>2415.45</ele>
        <time>2017-05-08T12:07:32Z</time>
      </trkpt>
      <trkpt lat="42.41643" lon="2.34219">
        <ele>2415.93</ele>
        <time>2017-05-08T12:07:40Z</time>
      </trkpt>
      <trkpt lat="42.41646" lon="2.34222">
        <ele>2416.89</ele>
        <time>2017-05-08T12:07:45Z</time>
      </trkpt>
      <trkpt lat="42.41651" lon="2.34223">
        <ele>2418.81</ele>
        <time>2017-05-08T12:07:53Z</time>
      </trkpt>
      <trkpt lat="42.41655" lon="2.34226">
        <ele>2420.26</ele>
        <time>2017-05-08T12:08:00Z</time>
      </trkpt>
      <trkpt lat="42.41656" lon="2.34228">
        <ele>2420.74</ele>
        <time>2017-05-08T12:08:02Z</time>
      </trkpt>
      <trkpt lat="42.41657" lon="2.34235">
        <ele>2423.62</ele>
        <time>2017-05-08T12:08:09Z</time>
      </trkpt>
      <trkpt lat="42.41658" lon="2.34236">
        <ele>2424.1</ele>
        <time>2017-05-08T12:08:11Z</time>
      </trkpt>
      <trkpt lat="42.4166" lon="2.34242">
        <ele>2426.02</ele>
        <time>2017-05-08T12:08:20Z</time>
      </trkpt>
      <trkpt lat="42.41663" lon="2.3425">
        <ele>2426.5</ele>
        <time>2017-05-08T12:08:34Z</time>
      </trkpt>
      <trkpt lat="42.41664" lon="2.34255">
        <ele>2428.91</ele>
        <time>2017-05-08T12:08:43Z</time>
      </trkpt>
      <trkpt lat="42.41668" lon="2.34263">
        <ele>2431.31</ele>
        <time>2017-05-08T12:08:54Z</time>
      </trkpt>
      <trkpt lat="42.41668" lon="2.34263">
        <ele>2431.31</ele>
        <time>2017-05-08T12:08:55Z</time>
      </trkpt>
      <trkpt lat="42.4167" lon="2.3427">
        <ele>2434.2</ele>
        <time>2017-05-08T12:09:07Z</time>
      </trkpt>
      <trkpt lat="42.4167" lon="2.34277">
        <ele>2435.64</ele>
        <time>2017-05-08T12:09:17Z</time>
      </trkpt>
      <trkpt lat="42.41671" lon="2.34286">
        <ele>2437.56</ele>
        <time>2017-05-08T12:09:29Z</time>
      </trkpt>
      <trkpt lat="42.4168" lon="2.34285">
        <ele>2439</ele>
        <time>2017-05-08T12:09:43Z</time>
      </trkpt>
      <trkpt lat="42.41681" lon="2.343">
        <ele>2442.37</ele>
        <time>2017-05-08T12:09:56Z</time>
      </trkpt>
      <trkpt lat="42.41681" lon="2.34301">
        <ele>2442.37</ele>
        <time>2017-05-08T12:09:57Z</time>
      </trkpt>
      <trkpt lat="42.41684" lon="2.34317">
        <ele>2444.77</ele>
        <time>2017-05-08T12:10:11Z</time>
      </trkpt>
      <trkpt lat="42.41685" lon="2.34324">
        <ele>2446.21</ele>
        <time>2017-05-08T12:10:17Z</time>
      </trkpt>
      <trkpt lat="42.41689" lon="2.34331">
        <ele>2447.65</ele>
        <time>2017-05-08T12:10:24Z</time>
      </trkpt>
      <trkpt lat="42.41689" lon="2.34338">
        <ele>2448.13</ele>
        <time>2017-05-08T12:10:35Z</time>
      </trkpt>
      <trkpt lat="42.41689" lon="2.34342">
        <ele>2448.62</ele>
        <time>2017-05-08T12:10:38Z</time>
      </trkpt>
      <trkpt lat="42.41688" lon="2.3435">
        <ele>2450.54</ele>
        <time>2017-05-08T12:10:45Z</time>
      </trkpt>
      <trkpt lat="42.41689" lon="2.34355">
        <ele>2451.02</ele>
        <time>2017-05-08T12:10:50Z</time>
      </trkpt>
      <trkpt lat="42.41691" lon="2.34362">
        <ele>2451.98</ele>
        <time>2017-05-08T12:11:02Z</time>
      </trkpt>
      <trkpt lat="42.41689" lon="2.34372">
        <ele>2453.9</ele>
        <time>2017-05-08T12:11:14Z</time>
      </trkpt>
      <trkpt lat="42.41689" lon="2.34381">
        <ele>2454.38</ele>
        <time>2017-05-08T12:11:25Z</time>
      </trkpt>
      <trkpt lat="42.41693" lon="2.34386">
        <ele>2456.31</ele>
        <time>2017-05-08T12:11:33Z</time>
      </trkpt>
      <trkpt lat="42.41694" lon="2.3439">
        <ele>2456.79</ele>
        <time>2017-05-08T12:11:49Z</time>
      </trkpt>
      <trkpt lat="42.41694" lon="2.34389">
        <ele>2456.79</ele>
        <time>2017-05-08T12:12:09Z</time>
      </trkpt>
      <trkpt lat="42.41691" lon="2.3439">
        <ele>2457.27</ele>
        <time>2017-05-08T12:12:29Z</time>
      </trkpt>
      <trkpt lat="42.41691" lon="2.34391">
        <ele>2456.79</ele>
        <time>2017-05-08T12:12:43Z</time>
      </trkpt>
      <trkpt lat="42.4169" lon="2.34391">
        <ele>2456.79</ele>
        <time>2017-05-08T12:13:05Z</time>
      </trkpt>
      <trkpt lat="42.41692" lon="2.34391">
        <ele>2457.27</ele>
        <time>2017-05-08T12:13:30Z</time>
      </trkpt>
      <trkpt lat="42.41693" lon="2.34391">
        <ele>2457.27</ele>
        <time>2017-05-08T12:13:45Z</time>
      </trkpt>
      <trkpt lat="42.41693" lon="2.34391">
        <ele>2457.27</ele>
        <time>2017-05-08T12:14:01Z</time>
      </trkpt>
      <trkpt lat="42.41693" lon="2.34392">
        <ele>2457.27</ele>
        <time>2017-05-08T12:14:30Z</time>
      </trkpt>
      <trkpt lat="42.41692" lon="2.34393">
        <ele>2456.79</ele>
        <time>2017-05-08T12:14:49Z</time>
      </trkpt>
      <trkpt lat="42.41691" lon="2.34394">
        <ele>2456.79</ele>
        <time>2017-05-08T12:15:05Z</time>
      </trkpt>
      <trkpt lat="42.41691" lon="2.34395">
        <ele>2456.79</ele>
        <time>2017-05-08T12:15:20Z</time>
      </trkpt>
      <trkpt lat="42.41691" lon="2.34394">
        <ele>2457.27</ele>
        <time>2017-05-08T12:15:40Z</time>
      </trkpt>
      <trkpt lat="42.41692" lon="2.34394">
        <ele>2457.27</ele>
        <time>2017-05-08T12:15:58Z</time>
      </trkpt>
      <trkpt lat="42.41693" lon="2.34393">
        <ele>2456.79</ele>
        <time>2017-05-08T12:16:13Z</time>
      </trkpt>
      <trkpt lat="42.41692" lon="2.34393">
        <ele>2458.23</ele>
        <time>2017-05-08T12:16:33Z</time>
      </trkpt>
      <trkpt lat="42.41693" lon="2.34393">
        <ele>2457.75</ele>
        <time>2017-05-08T12:16:57Z</time>
      </trkpt>
      <trkpt lat="42.41693" lon="2.34393">
        <ele>2458.23</ele>
        <time>2017-05-08T12:17:19Z</time>
      </trkpt>
      <trkpt lat="42.41692" lon="2.34393">
        <ele>2458.23</ele>
        <time>2017-05-08T12:17:35Z</time>
      </trkpt>
      <trkpt lat="42.41691" lon="2.34395">
        <ele>2457.27</ele>
        <time>2017-05-08T12:17:48Z</time>
      </trkpt>
      <trkpt lat="42.41687" lon="2.34398">
        <ele>2455.82</ele>
        <time>2017-05-08T12:17:57Z</time>
      </trkpt>
      <trkpt lat="42.41684" lon="2.34404">
        <ele>2454.38</ele>
        <time>2017-05-08T12:18:08Z</time>
      </trkpt>
      <trkpt lat="42.41683" lon="2.34413">
        <ele>2452.94</ele>
        <time>2017-05-08T12:18:20Z</time>
      </trkpt>
      <trkpt lat="42.41684" lon="2.34416">
        <ele>2452.94</ele>
        <time>2017-05-08T12:18:37Z</time>
      </trkpt>
      <trkpt lat="42.41684" lon="2.34416">
        <ele>2452.94</ele>
        <time>2017-05-08T12:18:52Z</time>
      </trkpt>
      <trkpt lat="42.41678" lon="2.34417">
        <ele>2453.42</ele>
        <time>2017-05-08T12:19:05Z</time>
      </trkpt>
      <trkpt lat="42.41678" lon="2.34416">
        <ele>2452.94</ele>
        <time>2017-05-08T12:19:07Z</time>
      </trkpt>
      <trkpt lat="42.41678" lon="2.34416">
        <ele>2451.5</ele>
        <time>2017-05-08T12:19:20Z</time>
      </trkpt>
      <trkpt lat="42.41678" lon="2.34417">
        <ele>2451.98</ele>
        <time>2017-05-08T12:19:47Z</time>
      </trkpt>
      <trkpt lat="42.41678" lon="2.34416">
        <ele>2452.94</ele>
        <time>2017-05-08T12:20:20Z</time>
      </trkpt>
      <trkpt lat="42.41678" lon="2.34417">
        <ele>2452.46</ele>
        <time>2017-05-08T12:20:53Z</time>
      </trkpt>
      <trkpt lat="42.41678" lon="2.34417">
        <ele>2452.94</ele>
        <time>2017-05-08T12:21:29Z</time>
      </trkpt>
      <trkpt lat="42.41678" lon="2.34417">
        <ele>2452.94</ele>
        <time>2017-05-08T12:22:03Z</time>
      </trkpt>
      <trkpt lat="42.41678" lon="2.34417">
        <ele>2452.94</ele>
        <time>2017-05-08T12:22:41Z</time>
      </trkpt>
      <trkpt lat="42.41678" lon="2.34417">
        <ele>2452.46</ele>
        <time>2017-05-08T12:23:17Z</time>
      </trkpt>
      <trkpt lat="42.41678" lon="2.34417">
        <ele>2452.46</ele>
        <time>2017-05-08T12:23:53Z</time>
      </trkpt>
      <trkpt lat="42.41678" lon="2.34417">
        <ele>2452.94</ele>
        <time>2017-05-08T12:24:36Z</time>
      </trkpt>
      <trkpt lat="42.41678" lon="2.34417">
        <ele>2454.38</ele>
        <time>2017-05-08T12:25:19Z</time>
      </trkpt>
      <trkpt lat="42.41678" lon="2.34417">
        <ele>2454.86</ele>
        <time>2017-05-08T12:26:02Z</time>
      </trkpt>
      <trkpt lat="42.41678" lon="2.34417">
        <ele>2453.9</ele>
        <time>2017-05-08T12:26:36Z</time>
      </trkpt>
      <trkpt lat="42.41678" lon="2.34417">
        <ele>2453.9</ele>
        <time>2017-05-08T12:27:16Z</time>
      </trkpt>
      <trkpt lat="42.41678" lon="2.34417">
        <ele>2453.9</ele>
        <time>2017-05-08T12:27:51Z</time>
      </trkpt>
      <trkpt lat="42.41678" lon="2.34417">
        <ele>2453.9</ele>
        <time>2017-05-08T12:28:30Z</time>
      </trkpt>
      <trkpt lat="42.41678" lon="2.34417">
        <ele>2453.9</ele>
        <time>2017-05-08T12:29:11Z</time>
      </trkpt>
      <trkpt lat="42.41678" lon="2.34417">
        <ele>2453.9</ele>
        <time>2017-05-08T12:29:56Z</time>
      </trkpt>
      <trkpt lat="42.41678" lon="2.34417">
        <ele>2455.34</ele>
        <time>2017-05-08T12:30:42Z</time>
      </trkpt>
      <trkpt lat="42.41678" lon="2.34417">
        <ele>2455.82</ele>
        <time>2017-05-08T12:31:21Z</time>
      </trkpt>
      <trkpt lat="42.41678" lon="2.34417">
        <ele>2455.34</ele>
        <time>2017-05-08T12:32:00Z</time>
      </trkpt>
      <trkpt lat="42.41678" lon="2.34417">
        <ele>2456.31</ele>
        <time>2017-05-08T12:32:41Z</time>
      </trkpt>
      <trkpt lat="42.41678" lon="2.34417">
        <ele>2455.82</ele>
        <time>2017-05-08T12:33:25Z</time>
      </trkpt>
      <trkpt lat="42.41678" lon="2.34417">
        <ele>2455.82</ele>
        <time>2017-05-08T12:34:06Z</time>
      </trkpt>
      <trkpt lat="42.41678" lon="2.34417">
        <ele>2455.82</ele>
        <time>2017-05-08T12:34:42Z</time>
      </trkpt>
      <trkpt lat="42.41678" lon="2.34417">
        <ele>2455.82</ele>
        <time>2017-05-08T12:35:24Z</time>
      </trkpt>
      <trkpt lat="42.41678" lon="2.34417">
        <ele>2455.82</ele>
        <time>2017-05-08T12:36:04Z</time>
      </trkpt>
      <trkpt lat="42.41678" lon="2.34417">
        <ele>2455.82</ele>
        <time>2017-05-08T12:36:45Z</time>
      </trkpt>
      <trkpt lat="42.41678" lon="2.34417">
        <ele>2455.82</ele>
        <time>2017-05-08T12:37:26Z</time>
      </trkpt>
      <trkpt lat="42.41678" lon="2.34417">
        <ele>2455.82</ele>
        <time>2017-05-08T12:38:06Z</time>
      </trkpt>
      <trkpt lat="42.41678" lon="2.34417">
        <ele>2455.34</ele>
        <time>2017-05-08T12:38:50Z</time>
      </trkpt>
      <trkpt lat="42.41677" lon="2.34417">
        <ele>2455.82</ele>
        <time>2017-05-08T12:39:31Z</time>
      </trkpt>
      <trkpt lat="42.41678" lon="2.34417">
        <ele>2455.34</ele>
        <time>2017-05-08T12:40:15Z</time>
      </trkpt>
      <trkpt lat="42.41678" lon="2.34417">
        <ele>2454.86</ele>
        <time>2017-05-08T12:40:55Z</time>
      </trkpt>
      <trkpt lat="42.41678" lon="2.34417">
        <ele>2456.31</ele>
        <time>2017-05-08T12:41:38Z</time>
      </trkpt>
      <trkpt lat="42.41678" lon="2.34417">
        <ele>2455.82</ele>
        <time>2017-05-08T12:42:22Z</time>
      </trkpt>
      <trkpt lat="42.41678" lon="2.34417">
        <ele>2455.34</ele>
        <time>2017-05-08T12:43:06Z</time>
      </trkpt>
      <trkpt lat="42.41678" lon="2.34417">
        <ele>2455.34</ele>
        <time>2017-05-08T12:43:47Z</time>
      </trkpt>
      <trkpt lat="42.41678" lon="2.34417">
        <ele>2455.34</ele>
        <time>2017-05-08T12:44:25Z</time>
      </trkpt>
      <trkpt lat="42.41678" lon="2.34417">
        <ele>2455.34</ele>
        <time>2017-05-08T12:45:08Z</time>
      </trkpt>
      <trkpt lat="42.41678" lon="2.34417">
        <ele>2454.86</ele>
        <time>2017-05-08T12:45:48Z</time>
      </trkpt>
      <trkpt lat="42.41678" lon="2.34417">
        <ele>2455.82</ele>
        <time>2017-05-08T12:46:09Z</time>
      </trkpt>
      <trkpt lat="42.41678" lon="2.34417">
        <ele>2456.31</ele>
        <time>2017-05-08T12:46:29Z</time>
      </trkpt>
      <trkpt lat="42.41678" lon="2.34417">
        <ele>2456.31</ele>
        <time>2017-05-08T12:47:02Z</time>
      </trkpt>
      <trkpt lat="42.41677" lon="2.34417">
        <ele>2456.31</ele>
        <time>2017-05-08T12:47:39Z</time>
      </trkpt>
      <trkpt lat="42.41677" lon="2.34417">
        <ele>2456.31</ele>
        <time>2017-05-08T12:48:15Z</time>
      </trkpt>
      <trkpt lat="42.41677" lon="2.34417">
        <ele>2456.79</ele>
        <time>2017-05-08T12:48:52Z</time>
      </trkpt>
      <trkpt lat="42.41677" lon="2.34417">
        <ele>2456.79</ele>
        <time>2017-05-08T12:49:22Z</time>
      </trkpt>
      <trkpt lat="42.41677" lon="2.34417">
        <ele>2458.23</ele>
        <time>2017-05-08T12:49:57Z</time>
      </trkpt>
      <trkpt lat="42.41677" lon="2.34416">
        <ele>2457.75</ele>
        <time>2017-05-08T12:50:09Z</time>
      </trkpt>
      <trkpt lat="42.41677" lon="2.34417">
        <ele>2459.19</ele>
        <time>2017-05-08T12:50:20Z</time>
      </trkpt>
      <trkpt lat="42.41678" lon="2.34418">
        <ele>2457.27</ele>
        <time>2017-05-08T12:50:36Z</time>
      </trkpt>
      <trkpt lat="42.41681" lon="2.3441">
        <ele>2456.79</ele>
        <time>2017-05-08T12:50:47Z</time>
      </trkpt>
      <trkpt lat="42.41681" lon="2.34408">
        <ele>2456.79</ele>
        <time>2017-05-08T12:50:49Z</time>
      </trkpt>
      <trkpt lat="42.41685" lon="2.34399">
        <ele>2458.71</ele>
        <time>2017-05-08T12:51:02Z</time>
      </trkpt>
      <trkpt lat="42.41685" lon="2.34399">
        <ele>2459.19</ele>
        <time>2017-05-08T12:51:03Z</time>
      </trkpt>
      <trkpt lat="42.41684" lon="2.34399">
        <ele>2457.75</ele>
        <time>2017-05-08T12:51:24Z</time>
      </trkpt>
      <trkpt lat="42.41684" lon="2.34401">
        <ele>2457.75</ele>
        <time>2017-05-08T12:51:28Z</time>
      </trkpt>
      <trkpt lat="42.41682" lon="2.34409">
        <ele>2456.79</ele>
        <time>2017-05-08T12:51:36Z</time>
      </trkpt>
      <trkpt lat="42.41679" lon="2.34416">
        <ele>2456.79</ele>
        <time>2017-05-08T12:51:50Z</time>
      </trkpt>
      <trkpt lat="42.41679" lon="2.34416">
        <ele>2457.75</ele>
        <time>2017-05-08T12:52:04Z</time>
      </trkpt>
      <trkpt lat="42.41677" lon="2.34416">
        <ele>2457.75</ele>
        <time>2017-05-08T12:52:19Z</time>
      </trkpt>
      <trkpt lat="42.41677" lon="2.34416">
        <ele>2457.75</ele>
        <time>2017-05-08T12:52:32Z</time>
      </trkpt>
      <trkpt lat="42.41677" lon="2.34416">
        <ele>2458.23</ele>
        <time>2017-05-08T12:53:01Z</time>
      </trkpt>
      <trkpt lat="42.41677" lon="2.34416">
        <ele>2458.71</ele>
        <time>2017-05-08T12:53:22Z</time>
      </trkpt>
      <trkpt lat="42.41676" lon="2.34416">
        <ele>2457.75</ele>
        <time>2017-05-08T12:53:52Z</time>
      </trkpt>
      <trkpt lat="42.41677" lon="2.34416">
        <ele>2457.27</ele>
        <time>2017-05-08T12:54:02Z</time>
      </trkpt>
      <trkpt lat="42.41679" lon="2.34418">
        <ele>2456.79</ele>
        <time>2017-05-08T12:54:12Z</time>
      </trkpt>
      <trkpt lat="42.41679" lon="2.34419">
        <ele>2458.23</ele>
        <time>2017-05-08T12:54:15Z</time>
      </trkpt>
      <trkpt lat="42.41679" lon="2.34417">
        <ele>2457.75</ele>
        <time>2017-05-08T12:54:31Z</time>
      </trkpt>
      <trkpt lat="42.4168" lon="2.34412">
        <ele>2457.75</ele>
        <time>2017-05-08T12:54:34Z</time>
      </trkpt>
      <trkpt lat="42.41684" lon="2.34398">
        <ele>2459.19</ele>
        <time>2017-05-08T12:54:47Z</time>
      </trkpt>
      <trkpt lat="42.41684" lon="2.34404">
        <ele>2457.75</ele>
        <time>2017-05-08T12:55:03Z</time>
      </trkpt>
      <trkpt lat="42.41683" lon="2.34406">
        <ele>2457.75</ele>
        <time>2017-05-08T12:55:05Z</time>
      </trkpt>
      <trkpt lat="42.41681" lon="2.34409">
        <ele>2456.79</ele>
        <time>2017-05-08T12:55:08Z</time>
      </trkpt>
      <trkpt lat="42.41671" lon="2.34425">
        <ele>2454.86</ele>
        <time>2017-05-08T12:55:23Z</time>
      </trkpt>
      <trkpt lat="42.41665" lon="2.34435">
        <ele>2452.46</ele>
        <time>2017-05-08T12:55:33Z</time>
      </trkpt>
      <trkpt lat="42.41656" lon="2.34446">
        <ele>2450.06</ele>
        <time>2017-05-08T12:55:44Z</time>
      </trkpt>
      <trkpt lat="42.41651" lon="2.34456">
        <ele>2450.06</ele>
        <time>2017-05-08T12:55:54Z</time>
      </trkpt>
      <trkpt lat="42.41645" lon="2.34464">
        <ele>2448.13</ele>
        <time>2017-05-08T12:56:08Z</time>
      </trkpt>
      <trkpt lat="42.41644" lon="2.34465">
        <ele>2447.65</ele>
        <time>2017-05-08T12:56:25Z</time>
      </trkpt>
      <trkpt lat="42.41642" lon="2.34468">
        <ele>2447.65</ele>
        <time>2017-05-08T12:56:44Z</time>
      </trkpt>
      <trkpt lat="42.41642" lon="2.34467">
        <ele>2446.69</ele>
        <time>2017-05-08T12:56:46Z</time>
      </trkpt>
      <trkpt lat="42.41643" lon="2.34467">
        <ele>2446.69</ele>
        <time>2017-05-08T12:57:04Z</time>
      </trkpt>
      <trkpt lat="42.41643" lon="2.34467">
        <ele>2447.17</ele>
        <time>2017-05-08T12:57:23Z</time>
      </trkpt>
      <trkpt lat="42.41637" lon="2.34469">
        <ele>2444.29</ele>
        <time>2017-05-08T12:57:45Z</time>
      </trkpt>
      <trkpt lat="42.41628" lon="2.3448">
        <ele>2440.92</ele>
        <time>2017-05-08T12:58:00Z</time>
      </trkpt>
      <trkpt lat="42.41623" lon="2.34488">
        <ele>2439</ele>
        <time>2017-05-08T12:58:10Z</time>
      </trkpt>
      <trkpt lat="42.41617" lon="2.34496">
        <ele>2435.16</ele>
        <time>2017-05-08T12:58:20Z</time>
      </trkpt>
      <trkpt lat="42.4161" lon="2.34502">
        <ele>2432.27</ele>
        <time>2017-05-08T12:58:29Z</time>
      </trkpt>
      <trkpt lat="42.41607" lon="2.34506">
        <ele>2429.39</ele>
        <time>2017-05-08T12:58:44Z</time>
      </trkpt>
      <trkpt lat="42.41604" lon="2.34511">
        <ele>2427.47</ele>
        <time>2017-05-08T12:58:57Z</time>
      </trkpt>
      <trkpt lat="42.41601" lon="2.34525">
        <ele>2424.1</ele>
        <time>2017-05-08T12:59:09Z</time>
      </trkpt>
      <trkpt lat="42.41597" lon="2.34535">
        <ele>2421.22</ele>
        <time>2017-05-08T12:59:20Z</time>
      </trkpt>
      <trkpt lat="42.41594" lon="2.3455">
        <ele>2418.33</ele>
        <time>2017-05-08T12:59:35Z</time>
      </trkpt>
      <trkpt lat="42.41592" lon="2.34556">
        <ele>2415.45</ele>
        <time>2017-05-08T12:59:42Z</time>
      </trkpt>
      <trkpt lat="42.41589" lon="2.34564">
        <ele>2413.05</ele>
        <time>2017-05-08T12:59:50Z</time>
      </trkpt>
      <trkpt lat="42.41584" lon="2.34569">
        <ele>2410.16</ele>
        <time>2017-05-08T13:00:02Z</time>
      </trkpt>
      <trkpt lat="42.41575" lon="2.34576">
        <ele>2406.8</ele>
        <time>2017-05-08T13:00:16Z</time>
      </trkpt>
      <trkpt lat="42.41565" lon="2.34581">
        <ele>2403.91</ele>
        <time>2017-05-08T13:00:26Z</time>
      </trkpt>
      <trkpt lat="42.41557" lon="2.34585">
        <ele>2401.03</ele>
        <time>2017-05-08T13:00:36Z</time>
      </trkpt>
      <trkpt lat="42.41545" lon="2.34592">
        <ele>2397.67</ele>
        <time>2017-05-08T13:00:50Z</time>
      </trkpt>
      <trkpt lat="42.41542" lon="2.34595">
        <ele>2396.7</ele>
        <time>2017-05-08T13:00:56Z</time>
      </trkpt>
      <trkpt lat="42.41532" lon="2.34599">
        <ele>2393.34</ele>
        <time>2017-05-08T13:01:11Z</time>
      </trkpt>
      <trkpt lat="42.41528" lon="2.34597">
        <ele>2392.86</ele>
        <time>2017-05-08T13:01:25Z</time>
      </trkpt>
      <trkpt lat="42.41523" lon="2.34591">
        <ele>2390.94</ele>
        <time>2017-05-08T13:01:38Z</time>
      </trkpt>
      <trkpt lat="42.41523" lon="2.34592">
        <ele>2390.94</ele>
        <time>2017-05-08T13:01:41Z</time>
      </trkpt>
      <trkpt lat="42.41521" lon="2.346">
        <ele>2389.97</ele>
        <time>2017-05-08T13:01:53Z</time>
      </trkpt>
      <trkpt lat="42.41525" lon="2.34599">
        <ele>2391.42</ele>
        <time>2017-05-08T13:02:07Z</time>
      </trkpt>
      <trkpt lat="42.41531" lon="2.346">
        <ele>2393.34</ele>
        <time>2017-05-08T13:02:18Z</time>
      </trkpt>
      <trkpt lat="42.4154" lon="2.34608">
        <ele>2395.74</ele>
        <time>2017-05-08T13:02:32Z</time>
      </trkpt>
      <trkpt lat="42.41541" lon="2.34609">
        <ele>2395.26</ele>
        <time>2017-05-08T13:02:46Z</time>
      </trkpt>
      <trkpt lat="42.41532" lon="2.34618">
        <ele>2394.3</ele>
        <time>2017-05-08T13:03:00Z</time>
      </trkpt>
      <trkpt lat="42.41528" lon="2.34626">
        <ele>2391.9</ele>
        <time>2017-05-08T13:03:12Z</time>
      </trkpt>
      <trkpt lat="42.41526" lon="2.34629">
        <ele>2390.46</ele>
        <time>2017-05-08T13:03:24Z</time>
      </trkpt>
      <trkpt lat="42.41521" lon="2.34632">
        <ele>2387.57</ele>
        <time>2017-05-08T13:03:35Z</time>
      </trkpt>
      <trkpt lat="42.41521" lon="2.34633">
        <ele>2387.57</ele>
        <time>2017-05-08T13:03:51Z</time>
      </trkpt>
      <trkpt lat="42.41521" lon="2.34635">
        <ele>2387.09</ele>
        <time>2017-05-08T13:03:55Z</time>
      </trkpt>
      <trkpt lat="42.41519" lon="2.3464">
        <ele>2384.69</ele>
        <time>2017-05-08T13:04:03Z</time>
      </trkpt>
      <trkpt lat="42.41515" lon="2.34637">
        <ele>2382.76</ele>
        <time>2017-05-08T13:04:10Z</time>
      </trkpt>
      <trkpt lat="42.41514" lon="2.34634">
        <ele>2381.8</ele>
        <time>2017-05-08T13:04:13Z</time>
      </trkpt>
      <trkpt lat="42.41513" lon="2.34633">
        <ele>2381.32</ele>
        <time>2017-05-08T13:04:15Z</time>
      </trkpt>
      <trkpt lat="42.41507" lon="2.3463">
        <ele>2378.92</ele>
        <time>2017-05-08T13:04:28Z</time>
      </trkpt>
      <trkpt lat="42.41505" lon="2.34631">
        <ele>2377</ele>
        <time>2017-05-08T13:04:33Z</time>
      </trkpt>
      <trkpt lat="42.415" lon="2.34629">
        <ele>2373.63</ele>
        <time>2017-05-08T13:04:45Z</time>
      </trkpt>
      <trkpt lat="42.41495" lon="2.34631">
        <ele>2371.23</ele>
        <time>2017-05-08T13:04:56Z</time>
      </trkpt>
      <trkpt lat="42.41492" lon="2.34636">
        <ele>2368.83</ele>
        <time>2017-05-08T13:05:07Z</time>
      </trkpt>
      <trkpt lat="42.41489" lon="2.34639">
        <ele>2365.94</ele>
        <time>2017-05-08T13:05:14Z</time>
      </trkpt>
      <trkpt lat="42.41486" lon="2.34643">
        <ele>2364.5</ele>
        <time>2017-05-08T13:05:25Z</time>
      </trkpt>
      <trkpt lat="42.41484" lon="2.34642">
        <ele>2362.1</ele>
        <time>2017-05-08T13:05:30Z</time>
      </trkpt>
      <trkpt lat="42.41478" lon="2.34642">
        <ele>2359.21</ele>
        <time>2017-05-08T13:05:41Z</time>
      </trkpt>
      <trkpt lat="42.41476" lon="2.3464">
        <ele>2357.77</ele>
        <time>2017-05-08T13:05:52Z</time>
      </trkpt>
      <trkpt lat="42.41474" lon="2.34636">
        <ele>2357.77</ele>
        <time>2017-05-08T13:06:06Z</time>
      </trkpt>
      <trkpt lat="42.41474" lon="2.34636">
        <ele>2357.29</ele>
        <time>2017-05-08T13:06:29Z</time>
      </trkpt>
      <trkpt lat="42.41474" lon="2.34636">
        <ele>2357.29</ele>
        <time>2017-05-08T13:06:56Z</time>
      </trkpt>
      <trkpt lat="42.41474" lon="2.34636">
        <ele>2358.25</ele>
        <time>2017-05-08T13:07:05Z</time>
      </trkpt>
      <trkpt lat="42.41472" lon="2.34633">
        <ele>2357.77</ele>
        <time>2017-05-08T13:07:10Z</time>
      </trkpt>
      <trkpt lat="42.41464" lon="2.34615">
        <ele>2354.41</ele>
        <time>2017-05-08T13:07:25Z</time>
      </trkpt>
      <trkpt lat="42.41457" lon="2.34603">
        <ele>2351.52</ele>
        <time>2017-05-08T13:07:36Z</time>
      </trkpt>
      <trkpt lat="42.41451" lon="2.34589">
        <ele>2349.6</ele>
        <time>2017-05-08T13:07:49Z</time>
      </trkpt>
      <trkpt lat="42.41448" lon="2.34583">
        <ele>2347.68</ele>
        <time>2017-05-08T13:07:55Z</time>
      </trkpt>
      <trkpt lat="42.41441" lon="2.34566">
        <ele>2344.31</ele>
        <time>2017-05-08T13:08:08Z</time>
      </trkpt>
      <trkpt lat="42.41433" lon="2.34549">
        <ele>2341.43</ele>
        <time>2017-05-08T13:08:21Z</time>
      </trkpt>
      <trkpt lat="42.41425" lon="2.34534">
        <ele>2339.02</ele>
        <time>2017-05-08T13:08:34Z</time>
      </trkpt>
      <trkpt lat="42.41421" lon="2.34529">
        <ele>2337.58</ele>
        <time>2017-05-08T13:08:39Z</time>
      </trkpt>
      <trkpt lat="42.4142" lon="2.34527">
        <ele>2337.1</ele>
        <time>2017-05-08T13:08:41Z</time>
      </trkpt>
      <trkpt lat="42.41412" lon="2.34513">
        <ele>2333.74</ele>
        <time>2017-05-08T13:08:57Z</time>
      </trkpt>
      <trkpt lat="42.41409" lon="2.34511">
        <ele>2332.78</ele>
        <time>2017-05-08T13:09:02Z</time>
      </trkpt>
      <trkpt lat="42.41405" lon="2.34524">
        <ele>2331.33</ele>
        <time>2017-05-08T13:09:15Z</time>
      </trkpt>
      <trkpt lat="42.41405" lon="2.34539">
        <ele>2327.49</ele>
        <time>2017-05-08T13:09:27Z</time>
      </trkpt>
      <trkpt lat="42.41403" lon="2.34554">
        <ele>2324.61</ele>
        <time>2017-05-08T13:09:40Z</time>
      </trkpt>
      <trkpt lat="42.41402" lon="2.34553">
        <ele>2323.64</ele>
        <time>2017-05-08T13:09:42Z</time>
      </trkpt>
      <trkpt lat="42.41401" lon="2.34552">
        <ele>2323.64</ele>
        <time>2017-05-08T13:09:44Z</time>
      </trkpt>
      <trkpt lat="42.41396" lon="2.34547">
        <ele>2321.72</ele>
        <time>2017-05-08T13:09:50Z</time>
      </trkpt>
      <trkpt lat="42.4139" lon="2.3454">
        <ele>2319.8</ele>
        <time>2017-05-08T13:10:04Z</time>
      </trkpt>
      <trkpt lat="42.41388" lon="2.3454">
        <ele>2318.36</ele>
        <time>2017-05-08T13:10:26Z</time>
      </trkpt>
      <trkpt lat="42.41388" lon="2.34541">
        <ele>2318.36</ele>
        <time>2017-05-08T13:10:28Z</time>
      </trkpt>
      <trkpt lat="42.41389" lon="2.3455">
        <ele>2317.4</ele>
        <time>2017-05-08T13:10:34Z</time>
      </trkpt>
      <trkpt lat="42.41389" lon="2.34568">
        <ele>2315.95</ele>
        <time>2017-05-08T13:10:47Z</time>
      </trkpt>
      <trkpt lat="42.41389" lon="2.34582">
        <ele>2312.11</ele>
        <time>2017-05-08T13:10:59Z</time>
      </trkpt>
      <trkpt lat="42.41389" lon="2.34589">
        <ele>2310.67</ele>
        <time>2017-05-08T13:11:12Z</time>
      </trkpt>
      <trkpt lat="42.4139" lon="2.34595">
        <ele>2310.19</ele>
        <time>2017-05-08T13:11:20Z</time>
      </trkpt>
      <trkpt lat="42.41389" lon="2.34607">
        <ele>2307.78</ele>
        <time>2017-05-08T13:11:32Z</time>
      </trkpt>
      <trkpt lat="42.4139" lon="2.34621">
        <ele>2304.9</ele>
        <time>2017-05-08T13:11:47Z</time>
      </trkpt>
      <trkpt lat="42.41391" lon="2.34623">
        <ele>2305.38</ele>
        <time>2017-05-08T13:11:56Z</time>
      </trkpt>
      <trkpt lat="42.4139" lon="2.34631">
        <ele>2302.49</ele>
        <time>2017-05-08T13:12:11Z</time>
      </trkpt>
      <trkpt lat="42.41391" lon="2.34636">
        <ele>2302.49</ele>
        <time>2017-05-08T13:12:27Z</time>
      </trkpt>
      <trkpt lat="42.41391" lon="2.34639">
        <ele>2302.49</ele>
        <time>2017-05-08T13:12:40Z</time>
      </trkpt>
      <trkpt lat="42.41391" lon="2.34644">
        <ele>2302.01</ele>
        <time>2017-05-08T13:12:45Z</time>
      </trkpt>
      <trkpt lat="42.41393" lon="2.34659">
        <ele>2299.13</ele>
        <time>2017-05-08T13:12:57Z</time>
      </trkpt>
      <trkpt lat="42.41394" lon="2.34661">
        <ele>2299.61</ele>
        <time>2017-05-08T13:12:58Z</time>
      </trkpt>
      <trkpt lat="42.41394" lon="2.34664">
        <ele>2299.61</ele>
        <time>2017-05-08T13:13:00Z</time>
      </trkpt>
      <trkpt lat="42.41398" lon="2.34679">
        <ele>2297.69</ele>
        <time>2017-05-08T13:13:12Z</time>
      </trkpt>
      <trkpt lat="42.41399" lon="2.34683">
        <ele>2297.21</ele>
        <time>2017-05-08T13:13:15Z</time>
      </trkpt>
      <trkpt lat="42.41401" lon="2.34702">
        <ele>2294.32</ele>
        <time>2017-05-08T13:13:29Z</time>
      </trkpt>
      <trkpt lat="42.41404" lon="2.34715">
        <ele>2292.4</ele>
        <time>2017-05-08T13:13:39Z</time>
      </trkpt>
      <trkpt lat="42.41407" lon="2.34726">
        <ele>2290.48</ele>
        <time>2017-05-08T13:13:54Z</time>
      </trkpt>
      <trkpt lat="42.41408" lon="2.34732">
        <ele>2289.52</ele>
        <time>2017-05-08T13:14:06Z</time>
      </trkpt>
      <trkpt lat="42.41409" lon="2.34741">
        <ele>2287.59</ele>
        <time>2017-05-08T13:14:17Z</time>
      </trkpt>
      <trkpt lat="42.41411" lon="2.34742">
        <ele>2287.59</ele>
        <time>2017-05-08T13:14:30Z</time>
      </trkpt>
      <trkpt lat="42.41411" lon="2.34743">
        <ele>2287.11</ele>
        <time>2017-05-08T13:15:02Z</time>
      </trkpt>
      <trkpt lat="42.41411" lon="2.34744">
        <ele>2286.63</ele>
        <time>2017-05-08T13:15:23Z</time>
      </trkpt>
      <trkpt lat="42.41411" lon="2.34745">
        <ele>2286.63</ele>
        <time>2017-05-08T13:15:42Z</time>
      </trkpt>
      <trkpt lat="42.41411" lon="2.34746">
        <ele>2286.15</ele>
        <time>2017-05-08T13:15:59Z</time>
      </trkpt>
      <trkpt lat="42.41412" lon="2.34748">
        <ele>2286.15</ele>
        <time>2017-05-08T13:16:02Z</time>
      </trkpt>
      <trkpt lat="42.41415" lon="2.34752">
        <ele>2285.67</ele>
        <time>2017-05-08T13:16:06Z</time>
      </trkpt>
      <trkpt lat="42.41417" lon="2.34755">
        <ele>2285.19</ele>
        <time>2017-05-08T13:16:09Z</time>
      </trkpt>
      <trkpt lat="42.4142" lon="2.34763">
        <ele>2283.75</ele>
        <time>2017-05-08T13:16:16Z</time>
      </trkpt>
      <trkpt lat="42.41421" lon="2.34768">
        <ele>2282.79</ele>
        <time>2017-05-08T13:16:21Z</time>
      </trkpt>
      <trkpt lat="42.41418" lon="2.34767">
        <ele>2282.31</ele>
        <time>2017-05-08T13:16:24Z</time>
      </trkpt>
      <trkpt lat="42.41414" lon="2.34765">
        <ele>2281.35</ele>
        <time>2017-05-08T13:16:28Z</time>
      </trkpt>
      <trkpt lat="42.41411" lon="2.34763">
        <ele>2280.87</ele>
        <time>2017-05-08T13:16:31Z</time>
      </trkpt>
      <trkpt lat="42.41409" lon="2.3476">
        <ele>2280.38</ele>
        <time>2017-05-08T13:16:34Z</time>
      </trkpt>
      <trkpt lat="42.41398" lon="2.34752">
        <ele>2277.02</ele>
        <time>2017-05-08T13:16:47Z</time>
      </trkpt>
      <trkpt lat="42.41389" lon="2.34748">
        <ele>2274.62</ele>
        <time>2017-05-08T13:16:59Z</time>
      </trkpt>
      <trkpt lat="42.41384" lon="2.34747">
        <ele>2273.17</ele>
        <time>2017-05-08T13:17:05Z</time>
      </trkpt>
      <trkpt lat="42.41381" lon="2.34745">
        <ele>2273.17</ele>
        <time>2017-05-08T13:17:08Z</time>
      </trkpt>
      <trkpt lat="42.41371" lon="2.34738">
        <ele>2269.33</ele>
        <time>2017-05-08T13:17:21Z</time>
      </trkpt>
      <trkpt lat="42.41359" lon="2.34732">
        <ele>2265.96</ele>
        <time>2017-05-08T13:17:35Z</time>
      </trkpt>
      <trkpt lat="42.41351" lon="2.34726">
        <ele>2262.6</ele>
        <time>2017-05-08T13:17:46Z</time>
      </trkpt>
      <trkpt lat="42.41345" lon="2.34728">
        <ele>2259.72</ele>
        <time>2017-05-08T13:17:59Z</time>
      </trkpt>
      <trkpt lat="42.41345" lon="2.34732">
        <ele>2258.75</ele>
        <time>2017-05-08T13:18:03Z</time>
      </trkpt>
      <trkpt lat="42.41345" lon="2.34737">
        <ele>2257.79</ele>
        <time>2017-05-08T13:18:07Z</time>
      </trkpt>
      <trkpt lat="42.41344" lon="2.34756">
        <ele>2254.43</ele>
        <time>2017-05-08T13:18:22Z</time>
      </trkpt>
      <trkpt lat="42.41345" lon="2.34757">
        <ele>2254.43</ele>
        <time>2017-05-08T13:18:23Z</time>
      </trkpt>
      <trkpt lat="42.41346" lon="2.3476">
        <ele>2253.47</ele>
        <time>2017-05-08T13:18:26Z</time>
      </trkpt>
      <trkpt lat="42.41346" lon="2.34775">
        <ele>2250.1</ele>
        <time>2017-05-08T13:18:38Z</time>
      </trkpt>
      <trkpt lat="42.41349" lon="2.34785">
        <ele>2247.7</ele>
        <time>2017-05-08T13:18:48Z</time>
      </trkpt>
      <trkpt lat="42.4135" lon="2.34788">
        <ele>2247.7</ele>
        <time>2017-05-08T13:18:50Z</time>
      </trkpt>
      <trkpt lat="42.41354" lon="2.34808">
        <ele>2244.33</ele>
        <time>2017-05-08T13:19:07Z</time>
      </trkpt>
      <trkpt lat="42.41355" lon="2.34813">
        <ele>2242.89</ele>
        <time>2017-05-08T13:19:11Z</time>
      </trkpt>
      <trkpt lat="42.41358" lon="2.34826">
        <ele>2240.01</ele>
        <time>2017-05-08T13:19:25Z</time>
      </trkpt>
      <trkpt lat="42.41366" lon="2.34832">
        <ele>2239.05</ele>
        <time>2017-05-08T13:19:37Z</time>
      </trkpt>
      <trkpt lat="42.41366" lon="2.34834">
        <ele>2238.09</ele>
        <time>2017-05-08T13:19:39Z</time>
      </trkpt>
      <trkpt lat="42.41352" lon="2.34832">
        <ele>2236.16</ele>
        <time>2017-05-08T13:19:53Z</time>
      </trkpt>
      <trkpt lat="42.4135" lon="2.34832">
        <ele>2236.16</ele>
        <time>2017-05-08T13:19:55Z</time>
      </trkpt>
      <trkpt lat="42.41339" lon="2.34826">
        <ele>2232.8</ele>
        <time>2017-05-08T13:20:10Z</time>
      </trkpt>
      <trkpt lat="42.41336" lon="2.34825">
        <ele>2231.36</ele>
        <time>2017-05-08T13:20:14Z</time>
      </trkpt>
      <trkpt lat="42.41332" lon="2.34823">
        <ele>2230.4</ele>
        <time>2017-05-08T13:20:19Z</time>
      </trkpt>
      <trkpt lat="42.41322" lon="2.34821">
        <ele>2227.03</ele>
        <time>2017-05-08T13:20:30Z</time>
      </trkpt>
      <trkpt lat="42.41321" lon="2.34821">
        <ele>2226.55</ele>
        <time>2017-05-08T13:20:31Z</time>
      </trkpt>
      <trkpt lat="42.4131" lon="2.34812">
        <ele>2223.19</ele>
        <time>2017-05-08T13:20:45Z</time>
      </trkpt>
      <trkpt lat="42.41302" lon="2.34805">
        <ele>2219.82</ele>
        <time>2017-05-08T13:20:56Z</time>
      </trkpt>
      <trkpt lat="42.41299" lon="2.34802">
        <ele>2218.38</ele>
        <time>2017-05-08T13:21:01Z</time>
      </trkpt>
      <trkpt lat="42.41298" lon="2.34806">
        <ele>2217.42</ele>
        <time>2017-05-08T13:21:09Z</time>
      </trkpt>
      <trkpt lat="42.41298" lon="2.34822">
        <ele>2213.57</ele>
        <time>2017-05-08T13:21:23Z</time>
      </trkpt>
      <trkpt lat="42.41298" lon="2.34834">
        <ele>2211.65</ele>
        <time>2017-05-08T13:21:37Z</time>
      </trkpt>
      <trkpt lat="42.41299" lon="2.3485">
        <ele>2208.29</ele>
        <time>2017-05-08T13:21:50Z</time>
      </trkpt>
      <trkpt lat="42.413" lon="2.34866">
        <ele>2205.88</ele>
        <time>2017-05-08T13:22:02Z</time>
      </trkpt>
      <trkpt lat="42.413" lon="2.3488">
        <ele>2203.48</ele>
        <time>2017-05-08T13:22:14Z</time>
      </trkpt>
      <trkpt lat="42.41301" lon="2.34889">
        <ele>2201.56</ele>
        <time>2017-05-08T13:22:22Z</time>
      </trkpt>
      <trkpt lat="42.41303" lon="2.34895">
        <ele>2200.59</ele>
        <time>2017-05-08T13:22:27Z</time>
      </trkpt>
      <trkpt lat="42.41304" lon="2.34902">
        <ele>2199.15</ele>
        <time>2017-05-08T13:22:33Z</time>
      </trkpt>
      <trkpt lat="42.41306" lon="2.34909">
        <ele>2197.71</ele>
        <time>2017-05-08T13:22:49Z</time>
      </trkpt>
      <trkpt lat="42.41311" lon="2.34916">
        <ele>2195.31</ele>
        <time>2017-05-08T13:23:02Z</time>
      </trkpt>
      <trkpt lat="42.4131" lon="2.34918">
        <ele>2194.35</ele>
        <time>2017-05-08T13:23:12Z</time>
      </trkpt>
      <trkpt lat="42.41307" lon="2.34918">
        <ele>2194.35</ele>
        <time>2017-05-08T13:23:15Z</time>
      </trkpt>
      <trkpt lat="42.41297" lon="2.34915">
        <ele>2192.42</ele>
        <time>2017-05-08T13:23:28Z</time>
      </trkpt>
      <trkpt lat="42.41293" lon="2.34913">
        <ele>2191.94</ele>
        <time>2017-05-08T13:23:32Z</time>
      </trkpt>
      <trkpt lat="42.41278" lon="2.34904">
        <ele>2188.58</ele>
        <time>2017-05-08T13:23:47Z</time>
      </trkpt>
      <trkpt lat="42.4127" lon="2.349">
        <ele>2186.18</ele>
        <time>2017-05-08T13:23:55Z</time>
      </trkpt>
      <trkpt lat="42.41259" lon="2.34889">
        <ele>2183.29</ele>
        <time>2017-05-08T13:24:09Z</time>
      </trkpt>
      <trkpt lat="42.41251" lon="2.34879">
        <ele>2180.41</ele>
        <time>2017-05-08T13:24:21Z</time>
      </trkpt>
      <trkpt lat="42.41247" lon="2.34876">
        <ele>2179.45</ele>
        <time>2017-05-08T13:24:25Z</time>
      </trkpt>
      <trkpt lat="42.41239" lon="2.34869">
        <ele>2177.04</ele>
        <time>2017-05-08T13:24:35Z</time>
      </trkpt>
      <trkpt lat="42.41238" lon="2.34866">
        <ele>2176.56</ele>
        <time>2017-05-08T13:24:38Z</time>
      </trkpt>
      <trkpt lat="42.41232" lon="2.34867">
        <ele>2173.68</ele>
        <time>2017-05-08T13:24:51Z</time>
      </trkpt>
      <trkpt lat="42.41231" lon="2.34872">
        <ele>2172.24</ele>
        <time>2017-05-08T13:24:56Z</time>
      </trkpt>
      <trkpt lat="42.41232" lon="2.34887">
        <ele>2169.35</ele>
        <time>2017-05-08T13:25:08Z</time>
      </trkpt>
      <trkpt lat="42.41232" lon="2.34894">
        <ele>2168.39</ele>
        <time>2017-05-08T13:25:13Z</time>
      </trkpt>
      <trkpt lat="42.41231" lon="2.3491">
        <ele>2165.51</ele>
        <time>2017-05-08T13:25:26Z</time>
      </trkpt>
      <trkpt lat="42.41232" lon="2.34928">
        <ele>2163.1</ele>
        <time>2017-05-08T13:25:39Z</time>
      </trkpt>
      <trkpt lat="42.41231" lon="2.34932">
        <ele>2162.62</ele>
        <time>2017-05-08T13:25:42Z</time>
      </trkpt>
      <trkpt lat="42.41231" lon="2.34936">
        <ele>2161.18</ele>
        <time>2017-05-08T13:25:45Z</time>
      </trkpt>
      <trkpt lat="42.41231" lon="2.34939">
        <ele>2161.18</ele>
        <time>2017-05-08T13:25:48Z</time>
      </trkpt>
      <trkpt lat="42.41232" lon="2.34956">
        <ele>2157.82</ele>
        <time>2017-05-08T13:26:02Z</time>
      </trkpt>
      <trkpt lat="42.41231" lon="2.34972">
        <ele>2154.93</ele>
        <time>2017-05-08T13:26:15Z</time>
      </trkpt>
      <trkpt lat="42.41232" lon="2.34984">
        <ele>2152.53</ele>
        <time>2017-05-08T13:26:29Z</time>
      </trkpt>
      <trkpt lat="42.41232" lon="2.34986">
        <ele>2152.05</ele>
        <time>2017-05-08T13:26:46Z</time>
      </trkpt>
      <trkpt lat="42.41234" lon="2.34994">
        <ele>2151.09</ele>
        <time>2017-05-08T13:27:02Z</time>
      </trkpt>
      <trkpt lat="42.41235" lon="2.35004">
        <ele>2147.72</ele>
        <time>2017-05-08T13:27:14Z</time>
      </trkpt>
      <trkpt lat="42.41233" lon="2.35004">
        <ele>2147.24</ele>
        <time>2017-05-08T13:27:16Z</time>
      </trkpt>
      <trkpt lat="42.41225" lon="2.35004">
        <ele>2146.76</ele>
        <time>2017-05-08T13:27:29Z</time>
      </trkpt>
      <trkpt lat="42.41225" lon="2.35006">
        <ele>2146.76</ele>
        <time>2017-05-08T13:27:44Z</time>
      </trkpt>
      <trkpt lat="42.4123" lon="2.35007">
        <ele>2146.76</ele>
        <time>2017-05-08T13:27:55Z</time>
      </trkpt>
      <trkpt lat="42.41226" lon="2.35001">
        <ele>2146.76</ele>
        <time>2017-05-08T13:28:08Z</time>
      </trkpt>
      <trkpt lat="42.41223" lon="2.34999">
        <ele>2146.76</ele>
        <time>2017-05-08T13:28:11Z</time>
      </trkpt>
      <trkpt lat="42.41217" lon="2.3499">
        <ele>2146.76</ele>
        <time>2017-05-08T13:28:19Z</time>
      </trkpt>
      <trkpt lat="42.41205" lon="2.34971">
        <ele>2145.32</ele>
        <time>2017-05-08T13:28:36Z</time>
      </trkpt>
      <trkpt lat="42.41204" lon="2.34969">
        <ele>2145.32</ele>
        <time>2017-05-08T13:28:38Z</time>
      </trkpt>
      <trkpt lat="42.41196" lon="2.34958">
        <ele>2143.88</ele>
        <time>2017-05-08T13:28:48Z</time>
      </trkpt>
      <trkpt lat="42.41193" lon="2.34955">
        <ele>2142.92</ele>
        <time>2017-05-08T13:28:52Z</time>
      </trkpt>
      <trkpt lat="42.41181" lon="2.34937">
        <ele>2140.03</ele>
        <time>2017-05-08T13:29:08Z</time>
      </trkpt>
      <trkpt lat="42.41172" lon="2.34921">
        <ele>2137.63</ele>
        <time>2017-05-08T13:29:21Z</time>
      </trkpt>
      <trkpt lat="42.41172" lon="2.34917">
        <ele>2137.15</ele>
        <time>2017-05-08T13:29:32Z</time>
      </trkpt>
      <trkpt lat="42.41172" lon="2.34918">
        <ele>2136.19</ele>
        <time>2017-05-08T13:29:47Z</time>
      </trkpt>
      <trkpt lat="42.41172" lon="2.34918">
        <ele>2135.71</ele>
        <time>2017-05-08T13:30:21Z</time>
      </trkpt>
      <trkpt lat="42.41172" lon="2.34918">
        <ele>2136.19</ele>
        <time>2017-05-08T13:30:49Z</time>
      </trkpt>
      <trkpt lat="42.41173" lon="2.34917">
        <ele>2136.19</ele>
        <time>2017-05-08T13:31:28Z</time>
      </trkpt>
      <trkpt lat="42.41173" lon="2.34917">
        <ele>2137.63</ele>
        <time>2017-05-08T13:31:30Z</time>
      </trkpt>
      <trkpt lat="42.41173" lon="2.34917">
        <ele>2137.15</ele>
        <time>2017-05-08T13:31:46Z</time>
      </trkpt>
      <trkpt lat="42.41173" lon="2.34917">
        <ele>2137.15</ele>
        <time>2017-05-08T13:32:00Z</time>
      </trkpt>
      <trkpt lat="42.41173" lon="2.34917">
        <ele>2137.15</ele>
        <time>2017-05-08T13:32:18Z</time>
      </trkpt>
      <trkpt lat="42.41173" lon="2.34918">
        <ele>2137.15</ele>
        <time>2017-05-08T13:32:38Z</time>
      </trkpt>
      <trkpt lat="42.41169" lon="2.34912">
        <ele>2136.19</ele>
        <time>2017-05-08T13:32:53Z</time>
      </trkpt>
      <trkpt lat="42.41166" lon="2.34905">
        <ele>2135.23</ele>
        <time>2017-05-08T13:33:00Z</time>
      </trkpt>
      <trkpt lat="42.41164" lon="2.34902">
        <ele>2134.74</ele>
        <time>2017-05-08T13:33:03Z</time>
      </trkpt>
      <trkpt lat="42.4116" lon="2.34893">
        <ele>2133.78</ele>
        <time>2017-05-08T13:33:11Z</time>
      </trkpt>
      <trkpt lat="42.41152" lon="2.34877">
        <ele>2131.38</ele>
        <time>2017-05-08T13:33:26Z</time>
      </trkpt>
      <trkpt lat="42.4115" lon="2.34883">
        <ele>2131.38</ele>
        <time>2017-05-08T13:33:34Z</time>
      </trkpt>
      <trkpt lat="42.41151" lon="2.34896">
        <ele>2129.46</ele>
        <time>2017-05-08T13:33:46Z</time>
      </trkpt>
      <trkpt lat="42.41151" lon="2.34913">
        <ele>2127.53</ele>
        <time>2017-05-08T13:34:00Z</time>
      </trkpt>
      <trkpt lat="42.41152" lon="2.34915">
        <ele>2127.05</ele>
        <time>2017-05-08T13:34:02Z</time>
      </trkpt>
      <trkpt lat="42.41151" lon="2.34917">
        <ele>2127.05</ele>
        <time>2017-05-08T13:34:04Z</time>
      </trkpt>
      <trkpt lat="42.41151" lon="2.34921">
        <ele>2126.57</ele>
        <time>2017-05-08T13:34:07Z</time>
      </trkpt>
      <trkpt lat="42.41151" lon="2.34925">
        <ele>2126.57</ele>
        <time>2017-05-08T13:34:10Z</time>
      </trkpt>
      <trkpt lat="42.41152" lon="2.3493">
        <ele>2126.09</ele>
        <time>2017-05-08T13:34:19Z</time>
      </trkpt>
      <trkpt lat="42.41151" lon="2.34939">
        <ele>2125.61</ele>
        <time>2017-05-08T13:34:26Z</time>
      </trkpt>
      <trkpt lat="42.41152" lon="2.34947">
        <ele>2125.13</ele>
        <time>2017-05-08T13:34:31Z</time>
      </trkpt>
      <trkpt lat="42.4115" lon="2.34954">
        <ele>2124.17</ele>
        <time>2017-05-08T13:34:36Z</time>
      </trkpt>
      <trkpt lat="42.41149" lon="2.34968">
        <ele>2123.21</ele>
        <time>2017-05-08T13:34:46Z</time>
      </trkpt>
      <trkpt lat="42.4115" lon="2.34983">
        <ele>2120.81</ele>
        <time>2017-05-08T13:35:00Z</time>
      </trkpt>
      <trkpt lat="42.4115" lon="2.34987">
        <ele>2120.81</ele>
        <time>2017-05-08T13:35:03Z</time>
      </trkpt>
      <trkpt lat="42.4115" lon="2.35009">
        <ele>2119.36</ele>
        <time>2017-05-08T13:35:17Z</time>
      </trkpt>
      <trkpt lat="42.41151" lon="2.3501">
        <ele>2119.36</ele>
        <time>2017-05-08T13:35:18Z</time>
      </trkpt>
      <trkpt lat="42.41151" lon="2.35021">
        <ele>2118.4</ele>
        <time>2017-05-08T13:35:26Z</time>
      </trkpt>
      <trkpt lat="42.41151" lon="2.35028">
        <ele>2117.44</ele>
        <time>2017-05-08T13:35:31Z</time>
      </trkpt>
      <trkpt lat="42.41152" lon="2.35038">
        <ele>2116.48</ele>
        <time>2017-05-08T13:35:39Z</time>
      </trkpt>
      <trkpt lat="42.41151" lon="2.35055">
        <ele>2114.56</ele>
        <time>2017-05-08T13:35:53Z</time>
      </trkpt>
      <trkpt lat="42.41153" lon="2.35066">
        <ele>2113.12</ele>
        <time>2017-05-08T13:36:02Z</time>
      </trkpt>
      <trkpt lat="42.41152" lon="2.35069">
        <ele>2112.63</ele>
        <time>2017-05-08T13:36:04Z</time>
      </trkpt>
      <trkpt lat="42.41147" lon="2.35069">
        <ele>2110.71</ele>
        <time>2017-05-08T13:36:09Z</time>
      </trkpt>
      <trkpt lat="42.41142" lon="2.35066">
        <ele>2110.23</ele>
        <time>2017-05-08T13:36:15Z</time>
      </trkpt>
      <trkpt lat="42.41139" lon="2.35064">
        <ele>2109.75</ele>
        <time>2017-05-08T13:36:18Z</time>
      </trkpt>
      <trkpt lat="42.41128" lon="2.35048">
        <ele>2107.83</ele>
        <time>2017-05-08T13:36:32Z</time>
      </trkpt>
      <trkpt lat="42.4112" lon="2.35036">
        <ele>2104.94</ele>
        <time>2017-05-08T13:36:44Z</time>
      </trkpt>
      <trkpt lat="42.41112" lon="2.35022">
        <ele>2102.54</ele>
        <time>2017-05-08T13:36:58Z</time>
      </trkpt>
      <trkpt lat="42.41106" lon="2.35003">
        <ele>2101.1</ele>
        <time>2017-05-08T13:37:11Z</time>
      </trkpt>
      <trkpt lat="42.41101" lon="2.34991">
        <ele>2099.18</ele>
        <time>2017-05-08T13:37:20Z</time>
      </trkpt>
      <trkpt lat="42.41096" lon="2.34969">
        <ele>2096.29</ele>
        <time>2017-05-08T13:37:35Z</time>
      </trkpt>
      <trkpt lat="42.41094" lon="2.34959">
        <ele>2095.33</ele>
        <time>2017-05-08T13:37:42Z</time>
      </trkpt>
      <trkpt lat="42.41088" lon="2.34955">
        <ele>2093.89</ele>
        <time>2017-05-08T13:37:51Z</time>
      </trkpt>
      <trkpt lat="42.41083" lon="2.34973">
        <ele>2091</ele>
        <time>2017-05-08T13:38:04Z</time>
      </trkpt>
      <trkpt lat="42.41078" lon="2.34992">
        <ele>2089.56</ele>
        <time>2017-05-08T13:38:17Z</time>
      </trkpt>
      <trkpt lat="42.41077" lon="2.34999">
        <ele>2088.12</ele>
        <time>2017-05-08T13:38:22Z</time>
      </trkpt>
      <trkpt lat="42.41072" lon="2.35015">
        <ele>2086.2</ele>
        <time>2017-05-08T13:38:34Z</time>
      </trkpt>
      <trkpt lat="42.41071" lon="2.3502">
        <ele>2085.72</ele>
        <time>2017-05-08T13:38:37Z</time>
      </trkpt>
      <trkpt lat="42.4107" lon="2.35023">
        <ele>2085.24</ele>
        <time>2017-05-08T13:38:40Z</time>
      </trkpt>
      <trkpt lat="42.41068" lon="2.35026">
        <ele>2084.76</ele>
        <time>2017-05-08T13:38:42Z</time>
      </trkpt>
      <trkpt lat="42.41068" lon="2.35031">
        <ele>2084.76</ele>
        <time>2017-05-08T13:38:46Z</time>
      </trkpt>
      <trkpt lat="42.41067" lon="2.35036">
        <ele>2084.28</ele>
        <time>2017-05-08T13:38:49Z</time>
      </trkpt>
      <trkpt lat="42.41064" lon="2.35051">
        <ele>2081.87</ele>
        <time>2017-05-08T13:39:00Z</time>
      </trkpt>
      <trkpt lat="42.41058" lon="2.35073">
        <ele>2078.99</ele>
        <time>2017-05-08T13:39:15Z</time>
      </trkpt>
      <trkpt lat="42.41054" lon="2.35095">
        <ele>2077.07</ele>
        <time>2017-05-08T13:39:31Z</time>
      </trkpt>
      <trkpt lat="42.41054" lon="2.35097">
        <ele>2077.07</ele>
        <time>2017-05-08T13:39:33Z</time>
      </trkpt>
      <trkpt lat="42.41051" lon="2.3511">
        <ele>2075.14</ele>
        <time>2017-05-08T13:39:42Z</time>
      </trkpt>
      <trkpt lat="42.41051" lon="2.35117">
        <ele>2073.7</ele>
        <time>2017-05-08T13:39:47Z</time>
      </trkpt>
      <trkpt lat="42.4105" lon="2.35122">
        <ele>2073.22</ele>
        <time>2017-05-08T13:39:50Z</time>
      </trkpt>
      <trkpt lat="42.41048" lon="2.3513">
        <ele>2073.7</ele>
        <time>2017-05-08T13:39:55Z</time>
      </trkpt>
      <trkpt lat="42.4105" lon="2.35146">
        <ele>2071.78</ele>
        <time>2017-05-08T13:40:06Z</time>
      </trkpt>
      <trkpt lat="42.41051" lon="2.35148">
        <ele>2071.78</ele>
        <time>2017-05-08T13:40:08Z</time>
      </trkpt>
      <trkpt lat="42.41052" lon="2.35152">
        <ele>2069.38</ele>
        <time>2017-05-08T13:40:12Z</time>
      </trkpt>
      <trkpt lat="42.41043" lon="2.35147">
        <ele>2068.89</ele>
        <time>2017-05-08T13:40:22Z</time>
      </trkpt>
      <trkpt lat="42.41035" lon="2.3514">
        <ele>2067.45</ele>
        <time>2017-05-08T13:40:31Z</time>
      </trkpt>
      <trkpt lat="42.41034" lon="2.35138">
        <ele>2066.97</ele>
        <time>2017-05-08T13:40:33Z</time>
      </trkpt>
      <trkpt lat="42.41028" lon="2.35128">
        <ele>2065.53</ele>
        <time>2017-05-08T13:40:42Z</time>
      </trkpt>
      <trkpt lat="42.41021" lon="2.35109">
        <ele>2064.09</ele>
        <time>2017-05-08T13:40:56Z</time>
      </trkpt>
      <trkpt lat="42.41018" lon="2.35103">
        <ele>2063.61</ele>
        <time>2017-05-08T13:41:04Z</time>
      </trkpt>
      <trkpt lat="42.41018" lon="2.35098">
        <ele>2063.61</ele>
        <time>2017-05-08T13:41:08Z</time>
      </trkpt>
      <trkpt lat="42.41016" lon="2.35093">
        <ele>2062.65</ele>
        <time>2017-05-08T13:41:16Z</time>
      </trkpt>
      <trkpt lat="42.41016" lon="2.35088">
        <ele>2063.13</ele>
        <time>2017-05-08T13:41:20Z</time>
      </trkpt>
      <trkpt lat="42.41013" lon="2.35078">
        <ele>2061.2</ele>
        <time>2017-05-08T13:41:32Z</time>
      </trkpt>
      <trkpt lat="42.41013" lon="2.35077">
        <ele>2060.72</ele>
        <time>2017-05-08T13:41:37Z</time>
      </trkpt>
      <trkpt lat="42.41012" lon="2.35072">
        <ele>2060.72</ele>
        <time>2017-05-08T13:41:42Z</time>
      </trkpt>
      <trkpt lat="42.41008" lon="2.35047">
        <ele>2058.32</ele>
        <time>2017-05-08T13:41:58Z</time>
      </trkpt>
      <trkpt lat="42.41008" lon="2.35041">
        <ele>2056.88</ele>
        <time>2017-05-08T13:42:03Z</time>
      </trkpt>
      <trkpt lat="42.41005" lon="2.35032">
        <ele>2056.4</ele>
        <time>2017-05-08T13:42:09Z</time>
      </trkpt>
      <trkpt lat="42.41" lon="2.35012">
        <ele>2053.51</ele>
        <time>2017-05-08T13:42:23Z</time>
      </trkpt>
      <trkpt lat="42.40998" lon="2.35003">
        <ele>2053.03</ele>
        <time>2017-05-08T13:42:29Z</time>
      </trkpt>
      <trkpt lat="42.40997" lon="2.34991">
        <ele>2052.07</ele>
        <time>2017-05-08T13:42:37Z</time>
      </trkpt>
      <trkpt lat="42.40996" lon="2.34988">
        <ele>2051.59</ele>
        <time>2017-05-08T13:42:39Z</time>
      </trkpt>
      <trkpt lat="42.40996" lon="2.34979">
        <ele>2052.07</ele>
        <time>2017-05-08T13:42:45Z</time>
      </trkpt>
      <trkpt lat="42.40992" lon="2.34978">
        <ele>2051.11</ele>
        <time>2017-05-08T13:42:51Z</time>
      </trkpt>
      <trkpt lat="42.4099" lon="2.35002">
        <ele>2048.23</ele>
        <time>2017-05-08T13:43:07Z</time>
      </trkpt>
      <trkpt lat="42.40988" lon="2.35024">
        <ele>2045.82</ele>
        <time>2017-05-08T13:43:22Z</time>
      </trkpt>
      <trkpt lat="42.40987" lon="2.35027">
        <ele>2046.78</ele>
        <time>2017-05-08T13:43:32Z</time>
      </trkpt>
      <trkpt lat="42.40986" lon="2.35043">
        <ele>2043.9</ele>
        <time>2017-05-08T13:43:43Z</time>
      </trkpt>
      <trkpt lat="42.40984" lon="2.3505">
        <ele>2044.38</ele>
        <time>2017-05-08T13:43:48Z</time>
      </trkpt>
      <trkpt lat="42.40981" lon="2.3507">
        <ele>2041.02</ele>
        <time>2017-05-08T13:44:02Z</time>
      </trkpt>
      <trkpt lat="42.40981" lon="2.35071">
        <ele>2041.5</ele>
        <time>2017-05-08T13:44:03Z</time>
      </trkpt>
      <trkpt lat="42.40982" lon="2.35077">
        <ele>2040.54</ele>
        <time>2017-05-08T13:44:07Z</time>
      </trkpt>
      <trkpt lat="42.40979" lon="2.35087">
        <ele>2039.57</ele>
        <time>2017-05-08T13:44:14Z</time>
      </trkpt>
      <trkpt lat="42.40979" lon="2.3509">
        <ele>2039.09</ele>
        <time>2017-05-08T13:44:16Z</time>
      </trkpt>
      <trkpt lat="42.40979" lon="2.35093">
        <ele>2039.09</ele>
        <time>2017-05-08T13:44:18Z</time>
      </trkpt>
      <trkpt lat="42.40979" lon="2.35101">
        <ele>2038.61</ele>
        <time>2017-05-08T13:44:24Z</time>
      </trkpt>
      <trkpt lat="42.40976" lon="2.35112">
        <ele>2037.17</ele>
        <time>2017-05-08T13:44:31Z</time>
      </trkpt>
      <trkpt lat="42.40976" lon="2.35116">
        <ele>2037.65</ele>
        <time>2017-05-08T13:44:34Z</time>
      </trkpt>
      <trkpt lat="42.40976" lon="2.3512">
        <ele>2036.21</ele>
        <time>2017-05-08T13:44:37Z</time>
      </trkpt>
      <trkpt lat="42.40975" lon="2.35126">
        <ele>2035.73</ele>
        <time>2017-05-08T13:44:41Z</time>
      </trkpt>
      <trkpt lat="42.40973" lon="2.35136">
        <ele>2034.29</ele>
        <time>2017-05-08T13:44:48Z</time>
      </trkpt>
      <trkpt lat="42.40973" lon="2.35146">
        <ele>2032.84</ele>
        <time>2017-05-08T13:44:55Z</time>
      </trkpt>
      <trkpt lat="42.40971" lon="2.35154">
        <ele>2031.88</ele>
        <time>2017-05-08T13:45:01Z</time>
      </trkpt>
      <trkpt lat="42.4097" lon="2.35161">
        <ele>2031.4</ele>
        <time>2017-05-08T13:45:12Z</time>
      </trkpt>
      <trkpt lat="42.4097" lon="2.35164">
        <ele>2032.36</ele>
        <time>2017-05-08T13:45:14Z</time>
      </trkpt>
      <trkpt lat="42.40969" lon="2.35172">
        <ele>2030.92</ele>
        <time>2017-05-08T13:45:20Z</time>
      </trkpt>
      <trkpt lat="42.40967" lon="2.35188">
        <ele>2029.48</ele>
        <time>2017-05-08T13:45:31Z</time>
      </trkpt>
      <trkpt lat="42.40965" lon="2.35194">
        <ele>2028.52</ele>
        <time>2017-05-08T13:45:35Z</time>
      </trkpt>
      <trkpt lat="42.40961" lon="2.35203">
        <ele>2027.56</ele>
        <time>2017-05-08T13:45:50Z</time>
      </trkpt>
      <trkpt lat="42.40961" lon="2.35203">
        <ele>2028.04</ele>
        <time>2017-05-08T13:45:53Z</time>
      </trkpt>
      <trkpt lat="42.40961" lon="2.35212">
        <ele>2027.08</ele>
        <time>2017-05-08T13:45:59Z</time>
      </trkpt>
      <trkpt lat="42.40961" lon="2.35217">
        <ele>2026.6</ele>
        <time>2017-05-08T13:46:02Z</time>
      </trkpt>
      <trkpt lat="42.40961" lon="2.35231">
        <ele>2025.15</ele>
        <time>2017-05-08T13:46:12Z</time>
      </trkpt>
      <trkpt lat="42.40963" lon="2.35241">
        <ele>2024.67</ele>
        <time>2017-05-08T13:46:19Z</time>
      </trkpt>
      <trkpt lat="42.40962" lon="2.35252">
        <ele>2022.75</ele>
        <time>2017-05-08T13:46:27Z</time>
      </trkpt>
      <trkpt lat="42.40963" lon="2.35256">
        <ele>2022.75</ele>
        <time>2017-05-08T13:46:30Z</time>
      </trkpt>
      <trkpt lat="42.40966" lon="2.35266">
        <ele>2022.27</ele>
        <time>2017-05-08T13:46:37Z</time>
      </trkpt>
      <trkpt lat="42.40973" lon="2.35282">
        <ele>2021.31</ele>
        <time>2017-05-08T13:46:48Z</time>
      </trkpt>
      <trkpt lat="42.40976" lon="2.3529">
        <ele>2020.83</ele>
        <time>2017-05-08T13:46:54Z</time>
      </trkpt>
      <trkpt lat="42.40979" lon="2.35297">
        <ele>2020.83</ele>
        <time>2017-05-08T13:46:59Z</time>
      </trkpt>
      <trkpt lat="42.4098" lon="2.353">
        <ele>2020.83</ele>
        <time>2017-05-08T13:47:02Z</time>
      </trkpt>
      <trkpt lat="42.40989" lon="2.35309">
        <ele>2021.31</ele>
        <time>2017-05-08T13:47:17Z</time>
      </trkpt>
      <trkpt lat="42.40989" lon="2.3531">
        <ele>2021.31</ele>
        <time>2017-05-08T13:47:21Z</time>
      </trkpt>
      <trkpt lat="42.40992" lon="2.35311">
        <ele>2022.27</ele>
        <time>2017-05-08T13:47:24Z</time>
      </trkpt>
      <trkpt lat="42.41001" lon="2.35316">
        <ele>2021.31</ele>
        <time>2017-05-08T13:47:33Z</time>
      </trkpt>
      <trkpt lat="42.41005" lon="2.35319">
        <ele>2021.31</ele>
        <time>2017-05-08T13:47:37Z</time>
      </trkpt>
      <trkpt lat="42.4101" lon="2.35324">
        <ele>2021.31</ele>
        <time>2017-05-08T13:47:43Z</time>
      </trkpt>
      <trkpt lat="42.41013" lon="2.35327">
        <ele>2021.31</ele>
        <time>2017-05-08T13:47:47Z</time>
      </trkpt>
      <trkpt lat="42.41021" lon="2.35332">
        <ele>2021.79</ele>
        <time>2017-05-08T13:47:56Z</time>
      </trkpt>
      <trkpt lat="42.41027" lon="2.3533">
        <ele>2021.79</ele>
        <time>2017-05-08T13:48:02Z</time>
      </trkpt>
      <trkpt lat="42.41035" lon="2.35323">
        <ele>2021.79</ele>
        <time>2017-05-08T13:48:12Z</time>
      </trkpt>
      <trkpt lat="42.4104" lon="2.35319">
        <ele>2021.79</ele>
        <time>2017-05-08T13:48:18Z</time>
      </trkpt>
      <trkpt lat="42.41051" lon="2.35308">
        <ele>2020.83</ele>
        <time>2017-05-08T13:48:29Z</time>
      </trkpt>
      <trkpt lat="42.41062" lon="2.35293">
        <ele>2019.87</ele>
        <time>2017-05-08T13:48:42Z</time>
      </trkpt>
      <trkpt lat="42.41063" lon="2.35292">
        <ele>2019.87</ele>
        <time>2017-05-08T13:48:43Z</time>
      </trkpt>
      <trkpt lat="42.41069" lon="2.35283">
        <ele>2019.87</ele>
        <time>2017-05-08T13:48:50Z</time>
      </trkpt>
      <trkpt lat="42.41075" lon="2.35277">
        <ele>2018.43</ele>
        <time>2017-05-08T13:48:56Z</time>
      </trkpt>
      <trkpt lat="42.41078" lon="2.35272">
        <ele>2018.43</ele>
        <time>2017-05-08T13:49:00Z</time>
      </trkpt>
      <trkpt lat="42.41083" lon="2.35267">
        <ele>2018.43</ele>
        <time>2017-05-08T13:49:06Z</time>
      </trkpt>
      <trkpt lat="42.41086" lon="2.35265">
        <ele>2017.94</ele>
        <time>2017-05-08T13:49:09Z</time>
      </trkpt>
      <trkpt lat="42.411" lon="2.3525">
        <ele>2016.5</ele>
        <time>2017-05-08T13:49:23Z</time>
      </trkpt>
      <trkpt lat="42.41115" lon="2.35247">
        <ele>2016.98</ele>
        <time>2017-05-08T13:49:35Z</time>
      </trkpt>
      <trkpt lat="42.4112" lon="2.3525">
        <ele>2016.02</ele>
        <time>2017-05-08T13:49:41Z</time>
      </trkpt>
      <trkpt lat="42.41129" lon="2.35258">
        <ele>2016.02</ele>
        <time>2017-05-08T13:49:51Z</time>
      </trkpt>
      <trkpt lat="42.41132" lon="2.35262">
        <ele>2014.58</ele>
        <time>2017-05-08T13:49:55Z</time>
      </trkpt>
      <trkpt lat="42.41138" lon="2.35267">
        <ele>2014.58</ele>
        <time>2017-05-08T13:50:01Z</time>
      </trkpt>
      <trkpt lat="42.41145" lon="2.35273">
        <ele>2014.1</ele>
        <time>2017-05-08T13:50:09Z</time>
      </trkpt>
      <trkpt lat="42.41148" lon="2.35272">
        <ele>2013.14</ele>
        <time>2017-05-08T13:50:11Z</time>
      </trkpt>
      <trkpt lat="42.41161" lon="2.35271">
        <ele>2012.66</ele>
        <time>2017-05-08T13:50:22Z</time>
      </trkpt>
      <trkpt lat="42.41176" lon="2.35275">
        <ele>2009.77</ele>
        <time>2017-05-08T13:50:36Z</time>
      </trkpt>
      <trkpt lat="42.41182" lon="2.35276">
        <ele>2008.81</ele>
        <time>2017-05-08T13:50:41Z</time>
      </trkpt>
      <trkpt lat="42.41196" lon="2.3527">
        <ele>2006.41</ele>
        <time>2017-05-08T13:50:55Z</time>
      </trkpt>
      <trkpt lat="42.41196" lon="2.35269">
        <ele>2010.73</ele>
        <time>2017-05-08T13:50:56Z</time>
      </trkpt>
      <trkpt lat="42.41202" lon="2.35269">
        <ele>2008.33</ele>
        <time>2017-05-08T13:51:01Z</time>
      </trkpt>
      <trkpt lat="42.41206" lon="2.35267">
        <ele>2008.81</ele>
        <time>2017-05-08T13:51:17Z</time>
      </trkpt>
      <trkpt lat="42.41207" lon="2.35268">
        <ele>2008.33</ele>
        <time>2017-05-08T13:51:41Z</time>
      </trkpt>
      <trkpt lat="42.41209" lon="2.35265">
        <ele>2008.33</ele>
        <time>2017-05-08T13:51:49Z</time>
      </trkpt>
      <trkpt lat="42.41215" lon="2.35256">
        <ele>2006.41</ele>
        <time>2017-05-08T13:51:59Z</time>
      </trkpt>
      <trkpt lat="42.41218" lon="2.35252">
        <ele>2006.89</ele>
        <time>2017-05-08T13:52:02Z</time>
      </trkpt>
      <trkpt lat="42.41229" lon="2.35246">
        <ele>2006.89</ele>
        <time>2017-05-08T13:52:13Z</time>
      </trkpt>
      <trkpt lat="42.41235" lon="2.35246">
        <ele>2004.49</ele>
        <time>2017-05-08T13:52:20Z</time>
      </trkpt>
      <trkpt lat="42.41241" lon="2.35244">
        <ele>2004.01</ele>
        <time>2017-05-08T13:52:26Z</time>
      </trkpt>
      <trkpt lat="42.41249" lon="2.35243">
        <ele>2004.01</ele>
        <time>2017-05-08T13:52:33Z</time>
      </trkpt>
      <trkpt lat="42.41257" lon="2.35247">
        <ele>2002.56</ele>
        <time>2017-05-08T13:52:44Z</time>
      </trkpt>
      <trkpt lat="42.41269" lon="2.35252">
        <ele>2001.6</ele>
        <time>2017-05-08T13:52:57Z</time>
      </trkpt>
      <trkpt lat="42.41278" lon="2.35256">
        <ele>2001.12</ele>
        <time>2017-05-08T13:53:06Z</time>
      </trkpt>
      <trkpt lat="42.41286" lon="2.35263">
        <ele>2000.16</ele>
        <time>2017-05-08T13:53:20Z</time>
      </trkpt>
      <trkpt lat="42.41286" lon="2.35263">
        <ele>2000.16</ele>
        <time>2017-05-08T13:53:25Z</time>
      </trkpt>
      <trkpt lat="42.41292" lon="2.35267">
        <ele>1999.68</ele>
        <time>2017-05-08T13:53:32Z</time>
      </trkpt>
      <trkpt lat="42.41296" lon="2.35269">
        <ele>1998.24</ele>
        <time>2017-05-08T13:53:35Z</time>
      </trkpt>
      <trkpt lat="42.41303" lon="2.35277">
        <ele>1998.72</ele>
        <time>2017-05-08T13:53:43Z</time>
      </trkpt>
      <trkpt lat="42.4131" lon="2.3528">
        <ele>1998.24</ele>
        <time>2017-05-08T13:53:52Z</time>
      </trkpt>
      <trkpt lat="42.41316" lon="2.35279">
        <ele>1997.28</ele>
        <time>2017-05-08T13:54:00Z</time>
      </trkpt>
      <trkpt lat="42.41325" lon="2.35278">
        <ele>1996.32</ele>
        <time>2017-05-08T13:54:10Z</time>
      </trkpt>
      <trkpt lat="42.41334" lon="2.35275">
        <ele>1994.87</ele>
        <time>2017-05-08T13:54:23Z</time>
      </trkpt>
      <trkpt lat="42.41347" lon="2.35273">
        <ele>1991.51</ele>
        <time>2017-05-08T13:54:35Z</time>
      </trkpt>
      <trkpt lat="42.4136" lon="2.35269">
        <ele>1990.55</ele>
        <time>2017-05-08T13:54:49Z</time>
      </trkpt>
      <trkpt lat="42.41362" lon="2.35267">
        <ele>1988.62</ele>
        <time>2017-05-08T13:54:52Z</time>
      </trkpt>
      <trkpt lat="42.41368" lon="2.35265">
        <ele>1988.14</ele>
        <time>2017-05-08T13:54:59Z</time>
      </trkpt>
      <trkpt lat="42.41378" lon="2.35267">
        <ele>1988.62</ele>
        <time>2017-05-08T13:55:10Z</time>
      </trkpt>
      <trkpt lat="42.41381" lon="2.35274">
        <ele>1988.62</ele>
        <time>2017-05-08T13:55:21Z</time>
      </trkpt>
      <trkpt lat="42.41386" lon="2.35285">
        <ele>1987.18</ele>
        <time>2017-05-08T13:55:32Z</time>
      </trkpt>
      <trkpt lat="42.41389" lon="2.3529">
        <ele>1988.62</ele>
        <time>2017-05-08T13:55:36Z</time>
      </trkpt>
      <trkpt lat="42.41397" lon="2.35304">
        <ele>1986.22</ele>
        <time>2017-05-08T13:55:48Z</time>
      </trkpt>
      <trkpt lat="42.414" lon="2.35312">
        <ele>1984.78</ele>
        <time>2017-05-08T13:55:56Z</time>
      </trkpt>
      <trkpt lat="42.41402" lon="2.35316">
        <ele>1983.82</ele>
        <time>2017-05-08T13:56:00Z</time>
      </trkpt>
      <trkpt lat="42.41406" lon="2.35323">
        <ele>1982.86</ele>
        <time>2017-05-08T13:56:07Z</time>
      </trkpt>
      <trkpt lat="42.41408" lon="2.35329">
        <ele>1981.9</ele>
        <time>2017-05-08T13:56:17Z</time>
      </trkpt>
      <trkpt lat="42.41411" lon="2.35336">
        <ele>1981.41</ele>
        <time>2017-05-08T13:56:23Z</time>
      </trkpt>
      <trkpt lat="42.41413" lon="2.35341">
        <ele>1980.93</ele>
        <time>2017-05-08T13:56:27Z</time>
      </trkpt>
      <trkpt lat="42.41416" lon="2.35345">
        <ele>1980.45</ele>
        <time>2017-05-08T13:56:30Z</time>
      </trkpt>
      <trkpt lat="42.41419" lon="2.35352">
        <ele>1981.41</ele>
        <time>2017-05-08T13:56:35Z</time>
      </trkpt>
      <trkpt lat="42.4142" lon="2.35359">
        <ele>1979.97</ele>
        <time>2017-05-08T13:56:41Z</time>
      </trkpt>
      <trkpt lat="42.41425" lon="2.35379">
        <ele>1977.09</ele>
        <time>2017-05-08T13:56:56Z</time>
      </trkpt>
      <trkpt lat="42.41426" lon="2.35379">
        <ele>1977.09</ele>
        <time>2017-05-08T13:56:57Z</time>
      </trkpt>
      <trkpt lat="42.41429" lon="2.35385">
        <ele>1976.61</ele>
        <time>2017-05-08T13:57:02Z</time>
      </trkpt>
      <trkpt lat="42.41436" lon="2.35404">
        <ele>1975.17</ele>
        <time>2017-05-08T13:57:16Z</time>
      </trkpt>
      <trkpt lat="42.41438" lon="2.35412">
        <ele>1975.17</ele>
        <time>2017-05-08T13:57:21Z</time>
      </trkpt>
      <trkpt lat="42.41441" lon="2.35429">
        <ele>1974.69</ele>
        <time>2017-05-08T13:57:33Z</time>
      </trkpt>
      <trkpt lat="42.41444" lon="2.35436">
        <ele>1973.72</ele>
        <time>2017-05-08T13:57:39Z</time>
      </trkpt>
      <trkpt lat="42.41445" lon="2.3544">
        <ele>1973.72</ele>
        <time>2017-05-08T13:57:42Z</time>
      </trkpt>
      <trkpt lat="42.41445" lon="2.35446">
        <ele>1973.24</ele>
        <time>2017-05-08T13:57:46Z</time>
      </trkpt>
      <trkpt lat="42.41446" lon="2.35449">
        <ele>1973.72</ele>
        <time>2017-05-08T13:57:48Z</time>
      </trkpt>
      <trkpt lat="42.41447" lon="2.35456">
        <ele>1972.28</ele>
        <time>2017-05-08T13:57:55Z</time>
      </trkpt>
      <trkpt lat="42.41442" lon="2.35456">
        <ele>1970.36</ele>
        <time>2017-05-08T13:58:05Z</time>
      </trkpt>
      <trkpt lat="42.41439" lon="2.35452">
        <ele>1968.44</ele>
        <time>2017-05-08T13:58:09Z</time>
      </trkpt>
      <trkpt lat="42.41437" lon="2.35447">
        <ele>1968.92</ele>
        <time>2017-05-08T13:58:13Z</time>
      </trkpt>
      <trkpt lat="42.41435" lon="2.35444">
        <ele>1969.4</ele>
        <time>2017-05-08T13:58:16Z</time>
      </trkpt>
      <trkpt lat="42.41431" lon="2.35435">
        <ele>1968.44</ele>
        <time>2017-05-08T13:58:24Z</time>
      </trkpt>
      <trkpt lat="42.41429" lon="2.35427">
        <ele>1966.99</ele>
        <time>2017-05-08T13:58:31Z</time>
      </trkpt>
      <trkpt lat="42.41428" lon="2.35425">
        <ele>1966.51</ele>
        <time>2017-05-08T13:58:33Z</time>
      </trkpt>
      <trkpt lat="42.41427" lon="2.35423">
        <ele>1966.99</ele>
        <time>2017-05-08T13:58:35Z</time>
      </trkpt>
      <trkpt lat="42.41424" lon="2.35418">
        <ele>1965.55</ele>
        <time>2017-05-08T13:58:39Z</time>
      </trkpt>
      <trkpt lat="42.4142" lon="2.35411">
        <ele>1964.11</ele>
        <time>2017-05-08T13:58:47Z</time>
      </trkpt>
      <trkpt lat="42.41414" lon="2.35404">
        <ele>1964.11</ele>
        <time>2017-05-08T13:58:57Z</time>
      </trkpt>
      <trkpt lat="42.4141" lon="2.35396">
        <ele>1964.11</ele>
        <time>2017-05-08T13:59:07Z</time>
      </trkpt>
      <trkpt lat="42.41409" lon="2.35395">
        <ele>1962.67</ele>
        <time>2017-05-08T13:59:09Z</time>
      </trkpt>
      <trkpt lat="42.41406" lon="2.3539">
        <ele>1962.67</ele>
        <time>2017-05-08T13:59:13Z</time>
      </trkpt>
      <trkpt lat="42.41396" lon="2.35375">
        <ele>1961.23</ele>
        <time>2017-05-08T13:59:27Z</time>
      </trkpt>
      <trkpt lat="42.41394" lon="2.35372">
        <ele>1960.27</ele>
        <time>2017-05-08T13:59:30Z</time>
      </trkpt>
      <trkpt lat="42.41389" lon="2.35365">
        <ele>1959.78</ele>
        <time>2017-05-08T13:59:38Z</time>
      </trkpt>
      <trkpt lat="42.41387" lon="2.35363">
        <ele>1960.75</ele>
        <time>2017-05-08T13:59:40Z</time>
      </trkpt>
      <trkpt lat="42.41383" lon="2.35361">
        <ele>1958.82</ele>
        <time>2017-05-08T13:59:44Z</time>
      </trkpt>
      <trkpt lat="42.41379" lon="2.35358">
        <ele>1958.34</ele>
        <time>2017-05-08T13:59:49Z</time>
      </trkpt>
      <trkpt lat="42.41374" lon="2.35355">
        <ele>1957.86</ele>
        <time>2017-05-08T13:59:53Z</time>
      </trkpt>
      <trkpt lat="42.41368" lon="2.3535">
        <ele>1955.46</ele>
        <time>2017-05-08T14:00:06Z</time>
      </trkpt>
      <trkpt lat="42.41368" lon="2.35349">
        <ele>1955.46</ele>
        <time>2017-05-08T14:00:11Z</time>
      </trkpt>
      <trkpt lat="42.41365" lon="2.35347">
        <ele>1955.46</ele>
        <time>2017-05-08T14:00:18Z</time>
      </trkpt>
      <trkpt lat="42.41369" lon="2.35352">
        <ele>1954.02</ele>
        <time>2017-05-08T14:00:26Z</time>
      </trkpt>
      <trkpt lat="42.41376" lon="2.3536">
        <ele>1953.06</ele>
        <time>2017-05-08T14:00:34Z</time>
      </trkpt>
      <trkpt lat="42.41379" lon="2.35362">
        <ele>1952.57</ele>
        <time>2017-05-08T14:00:37Z</time>
      </trkpt>
      <trkpt lat="42.41382" lon="2.35367">
        <ele>1953.06</ele>
        <time>2017-05-08T14:00:42Z</time>
      </trkpt>
      <trkpt lat="42.41388" lon="2.35381">
        <ele>1951.61</ele>
        <time>2017-05-08T14:00:56Z</time>
      </trkpt>
      <trkpt lat="42.41389" lon="2.35386">
        <ele>1950.65</ele>
        <time>2017-05-08T14:01:00Z</time>
      </trkpt>
      <trkpt lat="42.41392" lon="2.35404">
        <ele>1947.77</ele>
        <time>2017-05-08T14:01:15Z</time>
      </trkpt>
      <trkpt lat="42.41392" lon="2.35405">
        <ele>1948.73</ele>
        <time>2017-05-08T14:01:16Z</time>
      </trkpt>
      <trkpt lat="42.41396" lon="2.35417">
        <ele>1946.33</ele>
        <time>2017-05-08T14:01:26Z</time>
      </trkpt>
      <trkpt lat="42.41398" lon="2.35421">
        <ele>1945.36</ele>
        <time>2017-05-08T14:01:29Z</time>
      </trkpt>
      <trkpt lat="42.41399" lon="2.35425">
        <ele>1945.85</ele>
        <time>2017-05-08T14:01:33Z</time>
      </trkpt>
      <trkpt lat="42.414" lon="2.35427">
        <ele>1944.88</ele>
        <time>2017-05-08T14:01:35Z</time>
      </trkpt>
      <trkpt lat="42.41401" lon="2.35429">
        <ele>1945.36</ele>
        <time>2017-05-08T14:01:37Z</time>
      </trkpt>
      <trkpt lat="42.41401" lon="2.35446">
        <ele>1943.44</ele>
        <time>2017-05-08T14:01:50Z</time>
      </trkpt>
      <trkpt lat="42.41401" lon="2.35454">
        <ele>1941.52</ele>
        <time>2017-05-08T14:01:55Z</time>
      </trkpt>
      <trkpt lat="42.41404" lon="2.35465">
        <ele>1940.08</ele>
        <time>2017-05-08T14:02:04Z</time>
      </trkpt>
      <trkpt lat="42.41407" lon="2.35474">
        <ele>1939.12</ele>
        <time>2017-05-08T14:02:11Z</time>
      </trkpt>
      <trkpt lat="42.41407" lon="2.35477">
        <ele>1938.16</ele>
        <time>2017-05-08T14:02:13Z</time>
      </trkpt>
      <trkpt lat="42.41407" lon="2.35481">
        <ele>1938.64</ele>
        <time>2017-05-08T14:02:16Z</time>
      </trkpt>
      <trkpt lat="42.41411" lon="2.3549">
        <ele>1937.19</ele>
        <time>2017-05-08T14:02:23Z</time>
      </trkpt>
      <trkpt lat="42.41414" lon="2.355">
        <ele>1935.75</ele>
        <time>2017-05-08T14:02:31Z</time>
      </trkpt>
      <trkpt lat="42.41416" lon="2.35517">
        <ele>1936.23</ele>
        <time>2017-05-08T14:02:42Z</time>
      </trkpt>
      <trkpt lat="42.41419" lon="2.35524">
        <ele>1935.27</ele>
        <time>2017-05-08T14:02:48Z</time>
      </trkpt>
      <trkpt lat="42.41421" lon="2.35529">
        <ele>1934.79</ele>
        <time>2017-05-08T14:02:52Z</time>
      </trkpt>
      <trkpt lat="42.41426" lon="2.35542">
        <ele>1934.31</ele>
        <time>2017-05-08T14:03:02Z</time>
      </trkpt>
      <trkpt lat="42.41428" lon="2.35544">
        <ele>1933.83</ele>
        <time>2017-05-08T14:03:04Z</time>
      </trkpt>
      <trkpt lat="42.4143" lon="2.35547">
        <ele>1934.31</ele>
        <time>2017-05-08T14:03:07Z</time>
      </trkpt>
      <trkpt lat="42.41437" lon="2.35564">
        <ele>1932.87</ele>
        <time>2017-05-08T14:03:19Z</time>
      </trkpt>
      <trkpt lat="42.41445" lon="2.35579">
        <ele>1932.39</ele>
        <time>2017-05-08T14:03:32Z</time>
      </trkpt>
      <trkpt lat="42.41445" lon="2.3558">
        <ele>1932.39</ele>
        <time>2017-05-08T14:03:33Z</time>
      </trkpt>
      <trkpt lat="42.41451" lon="2.35585">
        <ele>1930.95</ele>
        <time>2017-05-08T14:03:40Z</time>
      </trkpt>
      <trkpt lat="42.41455" lon="2.3559">
        <ele>1929.98</ele>
        <time>2017-05-08T14:03:46Z</time>
      </trkpt>
      <trkpt lat="42.41463" lon="2.35609">
        <ele>1927.58</ele>
        <time>2017-05-08T14:03:59Z</time>
      </trkpt>
      <trkpt lat="42.41466" lon="2.35625">
        <ele>1926.14</ele>
        <time>2017-05-08T14:04:10Z</time>
      </trkpt>
      <trkpt lat="42.41471" lon="2.35648">
        <ele>1923.74</ele>
        <time>2017-05-08T14:04:26Z</time>
      </trkpt>
      <trkpt lat="42.41473" lon="2.35665">
        <ele>1921.33</ele>
        <time>2017-05-08T14:04:38Z</time>
      </trkpt>
      <trkpt lat="42.41473" lon="2.35668">
        <ele>1921.81</ele>
        <time>2017-05-08T14:04:40Z</time>
      </trkpt>
      <trkpt lat="42.41473" lon="2.35676">
        <ele>1920.85</ele>
        <time>2017-05-08T14:04:45Z</time>
      </trkpt>
      <trkpt lat="42.41474" lon="2.3568">
        <ele>1919.89</ele>
        <time>2017-05-08T14:04:48Z</time>
      </trkpt>
      <trkpt lat="42.41476" lon="2.35686">
        <ele>1919.41</ele>
        <time>2017-05-08T14:04:53Z</time>
      </trkpt>
      <trkpt lat="42.41488" lon="2.35692">
        <ele>1918.45</ele>
        <time>2017-05-08T14:05:06Z</time>
      </trkpt>
      <trkpt lat="42.415" lon="2.35687">
        <ele>1916.53</ele>
        <time>2017-05-08T14:05:19Z</time>
      </trkpt>
      <trkpt lat="42.41508" lon="2.3568">
        <ele>1916.53</ele>
        <time>2017-05-08T14:05:30Z</time>
      </trkpt>
      <trkpt lat="42.41512" lon="2.35679">
        <ele>1917.01</ele>
        <time>2017-05-08T14:05:33Z</time>
      </trkpt>
      <trkpt lat="42.41524" lon="2.35666">
        <ele>1916.04</ele>
        <time>2017-05-08T14:05:47Z</time>
      </trkpt>
      <trkpt lat="42.41525" lon="2.35666">
        <ele>1916.04</ele>
        <time>2017-05-08T14:05:48Z</time>
      </trkpt>
      <trkpt lat="42.41539" lon="2.35657">
        <ele>1914.6</ele>
        <time>2017-05-08T14:06:03Z</time>
      </trkpt>
      <trkpt lat="42.41542" lon="2.35655">
        <ele>1915.08</ele>
        <time>2017-05-08T14:06:06Z</time>
      </trkpt>
      <trkpt lat="42.41553" lon="2.3565">
        <ele>1913.64</ele>
        <time>2017-05-08T14:06:18Z</time>
      </trkpt>
      <trkpt lat="42.41564" lon="2.3564">
        <ele>1913.16</ele>
        <time>2017-05-08T14:06:30Z</time>
      </trkpt>
      <trkpt lat="42.41577" lon="2.35631">
        <ele>1912.2</ele>
        <time>2017-05-08T14:06:42Z</time>
      </trkpt>
      <trkpt lat="42.41583" lon="2.35631">
        <ele>1910.76</ele>
        <time>2017-05-08T14:06:47Z</time>
      </trkpt>
      <trkpt lat="42.41585" lon="2.35634">
        <ele>1911.72</ele>
        <time>2017-05-08T14:06:49Z</time>
      </trkpt>
      <trkpt lat="42.41585" lon="2.35638">
        <ele>1908.83</ele>
        <time>2017-05-08T14:06:56Z</time>
      </trkpt>
      <trkpt lat="42.41584" lon="2.35639">
        <ele>1911.72</ele>
        <time>2017-05-08T14:06:58Z</time>
      </trkpt>
      <trkpt lat="42.41578" lon="2.35645">
        <ele>1907.87</ele>
        <time>2017-05-08T14:07:07Z</time>
      </trkpt>
      <trkpt lat="42.41577" lon="2.35647">
        <ele>1908.35</ele>
        <time>2017-05-08T14:07:09Z</time>
      </trkpt>
      <trkpt lat="42.41575" lon="2.35651">
        <ele>1910.28</ele>
        <time>2017-05-08T14:07:13Z</time>
      </trkpt>
      <trkpt lat="42.41572" lon="2.35654">
        <ele>1907.87</ele>
        <time>2017-05-08T14:07:16Z</time>
      </trkpt>
      <trkpt lat="42.41568" lon="2.35657">
        <ele>1907.39</ele>
        <time>2017-05-08T14:07:20Z</time>
      </trkpt>
      <trkpt lat="42.41566" lon="2.35661">
        <ele>1907.39</ele>
        <time>2017-05-08T14:07:23Z</time>
      </trkpt>
      <trkpt lat="42.41564" lon="2.35664">
        <ele>1905.95</ele>
        <time>2017-05-08T14:07:26Z</time>
      </trkpt>
      <trkpt lat="42.41563" lon="2.35665">
        <ele>1907.39</ele>
        <time>2017-05-08T14:07:28Z</time>
      </trkpt>
      <trkpt lat="42.41556" lon="2.35676">
        <ele>1904.51</ele>
        <time>2017-05-08T14:07:41Z</time>
      </trkpt>
      <trkpt lat="42.41552" lon="2.35683">
        <ele>1903.07</ele>
        <time>2017-05-08T14:07:49Z</time>
      </trkpt>
      <trkpt lat="42.41546" lon="2.35691">
        <ele>1902.11</ele>
        <time>2017-05-08T14:07:59Z</time>
      </trkpt>
      <trkpt lat="42.41539" lon="2.35699">
        <ele>1901.14</ele>
        <time>2017-05-08T14:08:05Z</time>
      </trkpt>
      <trkpt lat="42.41533" lon="2.35705">
        <ele>1900.66</ele>
        <time>2017-05-08T14:08:19Z</time>
      </trkpt>
      <trkpt lat="42.41532" lon="2.35707">
        <ele>1902.11</ele>
        <time>2017-05-08T14:08:50Z</time>
      </trkpt>
      <trkpt lat="42.4153" lon="2.35714">
        <ele>1899.7</ele>
        <time>2017-05-08T14:08:58Z</time>
      </trkpt>
      <trkpt lat="42.41521" lon="2.35726">
        <ele>1897.78</ele>
        <time>2017-05-08T14:09:09Z</time>
      </trkpt>
      <trkpt lat="42.41514" lon="2.35734">
        <ele>1896.34</ele>
        <time>2017-05-08T14:09:20Z</time>
      </trkpt>
      <trkpt lat="42.41509" lon="2.35743">
        <ele>1895.86</ele>
        <time>2017-05-08T14:09:30Z</time>
      </trkpt>
      <trkpt lat="42.41503" lon="2.35751">
        <ele>1896.34</ele>
        <time>2017-05-08T14:09:36Z</time>
      </trkpt>
      <trkpt lat="42.41499" lon="2.35754">
        <ele>1894.9</ele>
        <time>2017-05-08T14:09:39Z</time>
      </trkpt>
      <trkpt lat="42.41487" lon="2.35767">
        <ele>1892.49</ele>
        <time>2017-05-08T14:09:51Z</time>
      </trkpt>
      <trkpt lat="42.41486" lon="2.35768">
        <ele>1893.93</ele>
        <time>2017-05-08T14:09:52Z</time>
      </trkpt>
      <trkpt lat="42.41483" lon="2.35773">
        <ele>1892.49</ele>
        <time>2017-05-08T14:10:04Z</time>
      </trkpt>
      <trkpt lat="42.4148" lon="2.35777">
        <ele>1891.53</ele>
        <time>2017-05-08T14:10:08Z</time>
      </trkpt>
      <trkpt lat="42.41477" lon="2.35782">
        <ele>1890.57</ele>
        <time>2017-05-08T14:10:13Z</time>
      </trkpt>
      <trkpt lat="42.41471" lon="2.3579">
        <ele>1889.61</ele>
        <time>2017-05-08T14:10:21Z</time>
      </trkpt>
      <trkpt lat="42.41466" lon="2.358">
        <ele>1887.69</ele>
        <time>2017-05-08T14:10:30Z</time>
      </trkpt>
      <trkpt lat="42.41463" lon="2.35805">
        <ele>1887.69</ele>
        <time>2017-05-08T14:10:34Z</time>
      </trkpt>
      <trkpt lat="42.4146" lon="2.35807">
        <ele>1886.72</ele>
        <time>2017-05-08T14:10:36Z</time>
      </trkpt>
      <trkpt lat="42.41455" lon="2.35815">
        <ele>1886.24</ele>
        <time>2017-05-08T14:10:43Z</time>
      </trkpt>
      <trkpt lat="42.41445" lon="2.3582">
        <ele>1883.84</ele>
        <time>2017-05-08T14:10:53Z</time>
      </trkpt>
      <trkpt lat="42.41443" lon="2.35819">
        <ele>1883.84</ele>
        <time>2017-05-08T14:10:55Z</time>
      </trkpt>
      <trkpt lat="42.41435" lon="2.35806">
        <ele>1882.4</ele>
        <time>2017-05-08T14:11:07Z</time>
      </trkpt>
      <trkpt lat="42.4143" lon="2.35796">
        <ele>1881.92</ele>
        <time>2017-05-08T14:11:15Z</time>
      </trkpt>
      <trkpt lat="42.41423" lon="2.35784">
        <ele>1880.48</ele>
        <time>2017-05-08T14:11:25Z</time>
      </trkpt>
      <trkpt lat="42.41422" lon="2.35781">
        <ele>1881.44</ele>
        <time>2017-05-08T14:11:28Z</time>
      </trkpt>
      <trkpt lat="42.41418" lon="2.35773">
        <ele>1879.03</ele>
        <time>2017-05-08T14:11:34Z</time>
      </trkpt>
      <trkpt lat="42.41414" lon="2.35763">
        <ele>1879.51</ele>
        <time>2017-05-08T14:11:42Z</time>
      </trkpt>
      <trkpt lat="42.41411" lon="2.35739">
        <ele>1877.11</ele>
        <time>2017-05-08T14:11:57Z</time>
      </trkpt>
      <trkpt lat="42.41411" lon="2.35734">
        <ele>1877.11</ele>
        <time>2017-05-08T14:12:00Z</time>
      </trkpt>
      <trkpt lat="42.41406" lon="2.35707">
        <ele>1875.67</ele>
        <time>2017-05-08T14:12:18Z</time>
      </trkpt>
      <trkpt lat="42.41404" lon="2.35694">
        <ele>1874.71</ele>
        <time>2017-05-08T14:12:26Z</time>
      </trkpt>
      <trkpt lat="42.414" lon="2.35673">
        <ele>1874.71</ele>
        <time>2017-05-08T14:12:41Z</time>
      </trkpt>
      <trkpt lat="42.41398" lon="2.35671">
        <ele>1872.79</ele>
        <time>2017-05-08T14:12:44Z</time>
      </trkpt>
      <trkpt lat="42.4139" lon="2.35665">
        <ele>1871.34</ele>
        <time>2017-05-08T14:12:55Z</time>
      </trkpt>
      <trkpt lat="42.41388" lon="2.35662">
        <ele>1869.9</ele>
        <time>2017-05-08T14:12:59Z</time>
      </trkpt>
      <trkpt lat="42.41381" lon="2.35649">
        <ele>1869.9</ele>
        <time>2017-05-08T14:13:12Z</time>
      </trkpt>
      <trkpt lat="42.41377" lon="2.3565">
        <ele>1867.02</ele>
        <time>2017-05-08T14:13:23Z</time>
      </trkpt>
      <trkpt lat="42.41376" lon="2.35649">
        <ele>1867.02</ele>
        <time>2017-05-08T14:13:37Z</time>
      </trkpt>
      <trkpt lat="42.41376" lon="2.35649">
        <ele>1865.58</ele>
        <time>2017-05-08T14:13:40Z</time>
      </trkpt>
      <trkpt lat="42.41378" lon="2.35651">
        <ele>1866.06</ele>
        <time>2017-05-08T14:13:42Z</time>
      </trkpt>
      <trkpt lat="42.41381" lon="2.3566">
        <ele>1865.09</ele>
        <time>2017-05-08T14:13:50Z</time>
      </trkpt>
      <trkpt lat="42.41388" lon="2.3567">
        <ele>1864.13</ele>
        <time>2017-05-08T14:13:59Z</time>
      </trkpt>
      <trkpt lat="42.41392" lon="2.35687">
        <ele>1861.73</ele>
        <time>2017-05-08T14:14:12Z</time>
      </trkpt>
      <trkpt lat="42.41391" lon="2.35707">
        <ele>1861.73</ele>
        <time>2017-05-08T14:14:25Z</time>
      </trkpt>
      <trkpt lat="42.4139" lon="2.35712">
        <ele>1859.81</ele>
        <time>2017-05-08T14:14:28Z</time>
      </trkpt>
      <trkpt lat="42.4139" lon="2.35724">
        <ele>1859.81</ele>
        <time>2017-05-08T14:14:36Z</time>
      </trkpt>
      <trkpt lat="42.41391" lon="2.35729">
        <ele>1860.29</ele>
        <time>2017-05-08T14:14:40Z</time>
      </trkpt>
      <trkpt lat="42.4139" lon="2.35748">
        <ele>1857.4</ele>
        <time>2017-05-08T14:14:53Z</time>
      </trkpt>
      <trkpt lat="42.41391" lon="2.35759">
        <ele>1857.4</ele>
        <time>2017-05-08T14:15:01Z</time>
      </trkpt>
      <trkpt lat="42.41391" lon="2.35762">
        <ele>1855.96</ele>
        <time>2017-05-08T14:15:03Z</time>
      </trkpt>
      <trkpt lat="42.41392" lon="2.35775">
        <ele>1855.48</ele>
        <time>2017-05-08T14:15:12Z</time>
      </trkpt>
      <trkpt lat="42.41392" lon="2.35779">
        <ele>1855</ele>
        <time>2017-05-08T14:15:15Z</time>
      </trkpt>
      <trkpt lat="42.41391" lon="2.35796">
        <ele>1853.08</ele>
        <time>2017-05-08T14:15:27Z</time>
      </trkpt>
      <trkpt lat="42.41391" lon="2.358">
        <ele>1854.04</ele>
        <time>2017-05-08T14:15:30Z</time>
      </trkpt>
      <trkpt lat="42.41392" lon="2.3581">
        <ele>1851.16</ele>
        <time>2017-05-08T14:15:37Z</time>
      </trkpt>
      <trkpt lat="42.41393" lon="2.35821">
        <ele>1849.71</ele>
        <time>2017-05-08T14:15:44Z</time>
      </trkpt>
      <trkpt lat="42.41394" lon="2.35835">
        <ele>1848.27</ele>
        <time>2017-05-08T14:15:58Z</time>
      </trkpt>
      <trkpt lat="42.41395" lon="2.35837">
        <ele>1848.27</ele>
        <time>2017-05-08T14:16:15Z</time>
      </trkpt>
      <trkpt lat="42.41392" lon="2.3585">
        <ele>1846.83</ele>
        <time>2017-05-08T14:16:28Z</time>
      </trkpt>
      <trkpt lat="42.4139" lon="2.3587">
        <ele>1843.95</ele>
        <time>2017-05-08T14:16:42Z</time>
      </trkpt>
      <trkpt lat="42.41388" lon="2.35891">
        <ele>1841.54</ele>
        <time>2017-05-08T14:16:56Z</time>
      </trkpt>
      <trkpt lat="42.41385" lon="2.35906">
        <ele>1839.62</ele>
        <time>2017-05-08T14:17:06Z</time>
      </trkpt>
      <trkpt lat="42.41386" lon="2.3591">
        <ele>1839.14</ele>
        <time>2017-05-08T14:17:09Z</time>
      </trkpt>
      <trkpt lat="42.41389" lon="2.35931">
        <ele>1837.22</ele>
        <time>2017-05-08T14:17:23Z</time>
      </trkpt>
      <trkpt lat="42.41391" lon="2.35938">
        <ele>1835.77</ele>
        <time>2017-05-08T14:17:29Z</time>
      </trkpt>
      <trkpt lat="42.41399" lon="2.35955">
        <ele>1832.41</ele>
        <time>2017-05-08T14:17:43Z</time>
      </trkpt>
      <trkpt lat="42.414" lon="2.35958">
        <ele>1831.93</ele>
        <time>2017-05-08T14:17:46Z</time>
      </trkpt>
      <trkpt lat="42.41403" lon="2.35975">
        <ele>1830.01</ele>
        <time>2017-05-08T14:17:58Z</time>
      </trkpt>
      <trkpt lat="42.41404" lon="2.35982">
        <ele>1828.56</ele>
        <time>2017-05-08T14:18:03Z</time>
      </trkpt>
      <trkpt lat="42.41405" lon="2.35985">
        <ele>1828.08</ele>
        <time>2017-05-08T14:18:06Z</time>
      </trkpt>
      <trkpt lat="42.4141" lon="2.35996">
        <ele>1826.16</ele>
        <time>2017-05-08T14:18:15Z</time>
      </trkpt>
      <trkpt lat="42.41412" lon="2.35999">
        <ele>1825.2</ele>
        <time>2017-05-08T14:18:18Z</time>
      </trkpt>
      <trkpt lat="42.4143" lon="2.36003">
        <ele>1822.32</ele>
        <time>2017-05-08T14:18:34Z</time>
      </trkpt>
      <trkpt lat="42.41443" lon="2.35999">
        <ele>1819.43</ele>
        <time>2017-05-08T14:18:47Z</time>
      </trkpt>
      <trkpt lat="42.41453" lon="2.35998">
        <ele>1818.47</ele>
        <time>2017-05-08T14:19:01Z</time>
      </trkpt>
      <trkpt lat="42.41453" lon="2.35998">
        <ele>1821.84</ele>
        <time>2017-05-08T14:19:04Z</time>
      </trkpt>
      <trkpt lat="42.41453" lon="2.35999">
        <ele>1818.47</ele>
        <time>2017-05-08T14:19:15Z</time>
      </trkpt>
      <trkpt lat="42.4146" lon="2.3599">
        <ele>1816.55</ele>
        <time>2017-05-08T14:19:28Z</time>
      </trkpt>
      <trkpt lat="42.41466" lon="2.35987">
        <ele>1816.07</ele>
        <time>2017-05-08T14:19:45Z</time>
      </trkpt>
      <trkpt lat="42.41474" lon="2.3598">
        <ele>1814.63</ele>
        <time>2017-05-08T14:19:55Z</time>
      </trkpt>
      <trkpt lat="42.41482" lon="2.35972">
        <ele>1813.18</ele>
        <time>2017-05-08T14:20:09Z</time>
      </trkpt>
      <trkpt lat="42.41487" lon="2.35966">
        <ele>1810.3</ele>
        <time>2017-05-08T14:20:24Z</time>
      </trkpt>
      <trkpt lat="42.41496" lon="2.35955">
        <ele>1809.34</ele>
        <time>2017-05-08T14:20:33Z</time>
      </trkpt>
      <trkpt lat="42.41512" lon="2.35943">
        <ele>1806.94</ele>
        <time>2017-05-08T14:20:46Z</time>
      </trkpt>
      <trkpt lat="42.41512" lon="2.35944">
        <ele>1807.9</ele>
        <time>2017-05-08T14:20:47Z</time>
      </trkpt>
      <trkpt lat="42.41512" lon="2.35945">
        <ele>1806.94</ele>
        <time>2017-05-08T14:20:49Z</time>
      </trkpt>
      <trkpt lat="42.41512" lon="2.35948">
        <ele>1807.9</ele>
        <time>2017-05-08T14:20:51Z</time>
      </trkpt>
      <trkpt lat="42.41513" lon="2.35952">
        <ele>1806.45</ele>
        <time>2017-05-08T14:20:55Z</time>
      </trkpt>
      <trkpt lat="42.41512" lon="2.35956">
        <ele>1806.45</ele>
        <time>2017-05-08T14:21:01Z</time>
      </trkpt>
      <trkpt lat="42.41511" lon="2.35959">
        <ele>1806.45</ele>
        <time>2017-05-08T14:21:03Z</time>
      </trkpt>
      <trkpt lat="42.41509" lon="2.35965">
        <ele>1805.49</ele>
        <time>2017-05-08T14:21:08Z</time>
      </trkpt>
      <trkpt lat="42.41502" lon="2.35983">
        <ele>1803.09</ele>
        <time>2017-05-08T14:21:22Z</time>
      </trkpt>
      <trkpt lat="42.41502" lon="2.35986">
        <ele>1804.05</ele>
        <time>2017-05-08T14:21:24Z</time>
      </trkpt>
      <trkpt lat="42.415" lon="2.35992">
        <ele>1801.65</ele>
        <time>2017-05-08T14:21:29Z</time>
      </trkpt>
      <trkpt lat="42.41494" lon="2.36003">
        <ele>1800.21</ele>
        <time>2017-05-08T14:21:40Z</time>
      </trkpt>
      <trkpt lat="42.41493" lon="2.36007">
        <ele>1800.69</ele>
        <time>2017-05-08T14:21:42Z</time>
      </trkpt>
      <trkpt lat="42.41482" lon="2.36022">
        <ele>1797.32</ele>
        <time>2017-05-08T14:21:56Z</time>
      </trkpt>
      <trkpt lat="42.4148" lon="2.36026">
        <ele>1796.84</ele>
        <time>2017-05-08T14:22:00Z</time>
      </trkpt>
      <trkpt lat="42.41476" lon="2.36036">
        <ele>1796.84</ele>
        <time>2017-05-08T14:22:09Z</time>
      </trkpt>
      <trkpt lat="42.41473" lon="2.36039">
        <ele>1794.92</ele>
        <time>2017-05-08T14:22:13Z</time>
      </trkpt>
      <trkpt lat="42.41468" lon="2.36046">
        <ele>1793.96</ele>
        <time>2017-05-08T14:22:20Z</time>
      </trkpt>
      <trkpt lat="42.41467" lon="2.36048">
        <ele>1793.48</ele>
        <time>2017-05-08T14:22:22Z</time>
      </trkpt>
      <trkpt lat="42.41457" lon="2.36061">
        <ele>1792.52</ele>
        <time>2017-05-08T14:22:34Z</time>
      </trkpt>
      <trkpt lat="42.41452" lon="2.3607">
        <ele>1791.07</ele>
        <time>2017-05-08T14:22:40Z</time>
      </trkpt>
      <trkpt lat="42.41446" lon="2.36077">
        <ele>1789.63</ele>
        <time>2017-05-08T14:22:45Z</time>
      </trkpt>
      <trkpt lat="42.41442" lon="2.36083">
        <ele>1789.63</ele>
        <time>2017-05-08T14:22:50Z</time>
      </trkpt>
      <trkpt lat="42.41438" lon="2.36083">
        <ele>1788.19</ele>
        <time>2017-05-08T14:22:53Z</time>
      </trkpt>
      <trkpt lat="42.41428" lon="2.36095">
        <ele>1786.75</ele>
        <time>2017-05-08T14:23:05Z</time>
      </trkpt>
      <trkpt lat="42.41424" lon="2.36099">
        <ele>1785.31</ele>
        <time>2017-05-08T14:23:14Z</time>
      </trkpt>
      <trkpt lat="42.41417" lon="2.3611">
        <ele>1783.86</ele>
        <time>2017-05-08T14:23:22Z</time>
      </trkpt>
      <trkpt lat="42.4141" lon="2.36119">
        <ele>1782.42</ele>
        <time>2017-05-08T14:23:30Z</time>
      </trkpt>
      <trkpt lat="42.41405" lon="2.36126">
        <ele>1782.42</ele>
        <time>2017-05-08T14:23:36Z</time>
      </trkpt>
      <trkpt lat="42.41402" lon="2.36129">
        <ele>1780.5</ele>
        <time>2017-05-08T14:23:39Z</time>
      </trkpt>
      <trkpt lat="42.41396" lon="2.36137">
        <ele>1779.54</ele>
        <time>2017-05-08T14:23:46Z</time>
      </trkpt>
      <trkpt lat="42.4139" lon="2.36141">
        <ele>1779.06</ele>
        <time>2017-05-08T14:23:52Z</time>
      </trkpt>
      <trkpt lat="42.41388" lon="2.36143">
        <ele>1777.61</ele>
        <time>2017-05-08T14:23:55Z</time>
      </trkpt>
      <trkpt lat="42.41378" lon="2.36152">
        <ele>1776.17</ele>
        <time>2017-05-08T14:24:05Z</time>
      </trkpt>
      <trkpt lat="42.41365" lon="2.36162">
        <ele>1773.77</ele>
        <time>2017-05-08T14:24:17Z</time>
      </trkpt>
      <trkpt lat="42.41353" lon="2.3617">
        <ele>1771.85</ele>
        <time>2017-05-08T14:24:29Z</time>
      </trkpt>
      <trkpt lat="42.41351" lon="2.36172">
        <ele>1771.37</ele>
        <time>2017-05-08T14:24:31Z</time>
      </trkpt>
      <trkpt lat="42.41348" lon="2.36175">
        <ele>1770.41</ele>
        <time>2017-05-08T14:24:34Z</time>
      </trkpt>
      <trkpt lat="42.41335" lon="2.3618">
        <ele>1768.96</ele>
        <time>2017-05-08T14:24:46Z</time>
      </trkpt>
      <trkpt lat="42.41334" lon="2.36188">
        <ele>1767.52</ele>
        <time>2017-05-08T14:24:52Z</time>
      </trkpt>
      <trkpt lat="42.41337" lon="2.36189">
        <ele>1767.52</ele>
        <time>2017-05-08T14:25:03Z</time>
      </trkpt>
      <trkpt lat="42.41339" lon="2.3619">
        <ele>1768.48</ele>
        <time>2017-05-08T14:25:06Z</time>
      </trkpt>
      <trkpt lat="42.41343" lon="2.36188">
        <ele>1767.52</ele>
        <time>2017-05-08T14:25:14Z</time>
      </trkpt>
      <trkpt lat="42.41345" lon="2.36188">
        <ele>1767.52</ele>
        <time>2017-05-08T14:25:16Z</time>
      </trkpt>
      <trkpt lat="42.41362" lon="2.36187">
        <ele>1765.6</ele>
        <time>2017-05-08T14:25:30Z</time>
      </trkpt>
      <trkpt lat="42.41368" lon="2.36186">
        <ele>1765.12</ele>
        <time>2017-05-08T14:25:36Z</time>
      </trkpt>
      <trkpt lat="42.41378" lon="2.36184">
        <ele>1764.64</ele>
        <time>2017-05-08T14:25:45Z</time>
      </trkpt>
      <trkpt lat="42.41383" lon="2.36184">
        <ele>1762.71</ele>
        <time>2017-05-08T14:25:49Z</time>
      </trkpt>
      <trkpt lat="42.41389" lon="2.36184">
        <ele>1760.31</ele>
        <time>2017-05-08T14:26:00Z</time>
      </trkpt>
      <trkpt lat="42.41401" lon="2.36175">
        <ele>1760.31</ele>
        <time>2017-05-08T14:26:13Z</time>
      </trkpt>
      <trkpt lat="42.41406" lon="2.36173">
        <ele>1757.43</ele>
        <time>2017-05-08T14:26:27Z</time>
      </trkpt>
      <trkpt lat="42.41411" lon="2.36172">
        <ele>1756.95</ele>
        <time>2017-05-08T14:26:33Z</time>
      </trkpt>
      <trkpt lat="42.41415" lon="2.36173">
        <ele>1754.06</ele>
        <time>2017-05-08T14:26:36Z</time>
      </trkpt>
      <trkpt lat="42.4142" lon="2.36173">
        <ele>1755.02</ele>
        <time>2017-05-08T14:26:39Z</time>
      </trkpt>
      <trkpt lat="42.41427" lon="2.3617">
        <ele>1755.02</ele>
        <time>2017-05-08T14:26:44Z</time>
      </trkpt>
      <trkpt lat="42.41431" lon="2.36168">
        <ele>1753.58</ele>
        <time>2017-05-08T14:26:47Z</time>
      </trkpt>
      <trkpt lat="42.41442" lon="2.36164">
        <ele>1751.66</ele>
        <time>2017-05-08T14:26:59Z</time>
      </trkpt>
      <trkpt lat="42.41459" lon="2.36158">
        <ele>1750.22</ele>
        <time>2017-05-08T14:27:11Z</time>
      </trkpt>
      <trkpt lat="42.41476" lon="2.36149">
        <ele>1748.29</ele>
        <time>2017-05-08T14:27:26Z</time>
      </trkpt>
      <trkpt lat="42.41503" lon="2.36136">
        <ele>1744.93</ele>
        <time>2017-05-08T14:27:44Z</time>
      </trkpt>
      <trkpt lat="42.41512" lon="2.36131">
        <ele>1743.01</ele>
        <time>2017-05-08T14:27:57Z</time>
      </trkpt>
      <trkpt lat="42.41527" lon="2.36125">
        <ele>1742.05</ele>
        <time>2017-05-08T14:28:13Z</time>
      </trkpt>
      <trkpt lat="42.41531" lon="2.36122">
        <ele>1740.6</ele>
        <time>2017-05-08T14:28:16Z</time>
      </trkpt>
      <trkpt lat="42.41546" lon="2.36114">
        <ele>1738.2</ele>
        <time>2017-05-08T14:28:29Z</time>
      </trkpt>
      <trkpt lat="42.41555" lon="2.36103">
        <ele>1737.24</ele>
        <time>2017-05-08T14:28:39Z</time>
      </trkpt>
      <trkpt lat="42.4156" lon="2.36095">
        <ele>1735.32</ele>
        <time>2017-05-08T14:28:47Z</time>
      </trkpt>
      <trkpt lat="42.41576" lon="2.36103">
        <ele>1734.36</ele>
        <time>2017-05-08T14:28:59Z</time>
      </trkpt>
      <trkpt lat="42.41576" lon="2.36108">
        <ele>1733.39</ele>
        <time>2017-05-08T14:29:05Z</time>
      </trkpt>
      <trkpt lat="42.41575" lon="2.36111">
        <ele>1732.91</ele>
        <time>2017-05-08T14:29:07Z</time>
      </trkpt>
      <trkpt lat="42.4157" lon="2.36128">
        <ele>1730.99</ele>
        <time>2017-05-08T14:29:21Z</time>
      </trkpt>
      <trkpt lat="42.41569" lon="2.3613">
        <ele>1731.95</ele>
        <time>2017-05-08T14:29:23Z</time>
      </trkpt>
      <trkpt lat="42.41567" lon="2.36132">
        <ele>1730.99</ele>
        <time>2017-05-08T14:29:26Z</time>
      </trkpt>
      <trkpt lat="42.41561" lon="2.36143">
        <ele>1728.59</ele>
        <time>2017-05-08T14:29:36Z</time>
      </trkpt>
      <trkpt lat="42.41556" lon="2.36155">
        <ele>1727.15</ele>
        <time>2017-05-08T14:29:46Z</time>
      </trkpt>
      <trkpt lat="42.41551" lon="2.36161">
        <ele>1727.15</ele>
        <time>2017-05-08T14:29:51Z</time>
      </trkpt>
      <trkpt lat="42.4155" lon="2.36164">
        <ele>1727.15</ele>
        <time>2017-05-08T14:29:57Z</time>
      </trkpt>
      <trkpt lat="42.41545" lon="2.36169">
        <ele>1724.26</ele>
        <time>2017-05-08T14:30:04Z</time>
      </trkpt>
      <trkpt lat="42.41541" lon="2.36173">
        <ele>1725.22</ele>
        <time>2017-05-08T14:30:06Z</time>
      </trkpt>
      <trkpt lat="42.41533" lon="2.36181">
        <ele>1724.26</ele>
        <time>2017-05-08T14:30:13Z</time>
      </trkpt>
      <trkpt lat="42.4153" lon="2.36186">
        <ele>1722.82</ele>
        <time>2017-05-08T14:30:16Z</time>
      </trkpt>
      <trkpt lat="42.41526" lon="2.36193">
        <ele>1722.82</ele>
        <time>2017-05-08T14:30:32Z</time>
      </trkpt>
      <trkpt lat="42.41525" lon="2.36188">
        <ele>1722.34</ele>
        <time>2017-05-08T14:30:58Z</time>
      </trkpt>
      <trkpt lat="42.41525" lon="2.36189">
        <ele>1721.86</ele>
        <time>2017-05-08T14:31:06Z</time>
      </trkpt>
      <trkpt lat="42.41515" lon="2.36201">
        <ele>1719.46</ele>
        <time>2017-05-08T14:31:19Z</time>
      </trkpt>
      <trkpt lat="42.41509" lon="2.36206">
        <ele>1718.49</ele>
        <time>2017-05-08T14:31:33Z</time>
      </trkpt>
      <trkpt lat="42.4151" lon="2.36205">
        <ele>1718.01</ele>
        <time>2017-05-08T14:31:58Z</time>
      </trkpt>
      <trkpt lat="42.41511" lon="2.36204">
        <ele>1718.49</ele>
        <time>2017-05-08T14:32:24Z</time>
      </trkpt>
      <trkpt lat="42.4151" lon="2.36205">
        <ele>1718.01</ele>
        <time>2017-05-08T14:32:38Z</time>
      </trkpt>
      <trkpt lat="42.41509" lon="2.36206">
        <ele>1717.53</ele>
        <time>2017-05-08T14:32:39Z</time>
      </trkpt>
      <trkpt lat="42.41503" lon="2.36218">
        <ele>1716.09</ele>
        <time>2017-05-08T14:32:51Z</time>
      </trkpt>
      <trkpt lat="42.415" lon="2.3623">
        <ele>1714.65</ele>
        <time>2017-05-08T14:33:01Z</time>
      </trkpt>
      <trkpt lat="42.41494" lon="2.36246">
        <ele>1712.25</ele>
        <time>2017-05-08T14:33:12Z</time>
      </trkpt>
      <trkpt lat="42.41483" lon="2.36259">
        <ele>1710.32</ele>
        <time>2017-05-08T14:33:24Z</time>
      </trkpt>
      <trkpt lat="42.41473" lon="2.36272">
        <ele>1708.4</ele>
        <time>2017-05-08T14:33:36Z</time>
      </trkpt>
      <trkpt lat="42.41464" lon="2.36285">
        <ele>1706.96</ele>
        <time>2017-05-08T14:33:44Z</time>
      </trkpt>
      <trkpt lat="42.41456" lon="2.36295">
        <ele>1706</ele>
        <time>2017-05-08T14:33:53Z</time>
      </trkpt>
      <trkpt lat="42.41446" lon="2.36308">
        <ele>1704.07</ele>
        <time>2017-05-08T14:34:04Z</time>
      </trkpt>
      <trkpt lat="42.41434" lon="2.36325">
        <ele>1701.67</ele>
        <time>2017-05-08T14:34:17Z</time>
      </trkpt>
      <trkpt lat="42.4143" lon="2.36328">
        <ele>1700.71</ele>
        <time>2017-05-08T14:34:21Z</time>
      </trkpt>
      <trkpt lat="42.41423" lon="2.36338">
        <ele>1699.27</ele>
        <time>2017-05-08T14:34:30Z</time>
      </trkpt>
      <trkpt lat="42.41409" lon="2.36352">
        <ele>1696.38</ele>
        <time>2017-05-08T14:34:41Z</time>
      </trkpt>
      <trkpt lat="42.41404" lon="2.36357">
        <ele>1694.94</ele>
        <time>2017-05-08T14:34:48Z</time>
      </trkpt>
      <trkpt lat="42.41397" lon="2.36371">
        <ele>1692.54</ele>
        <time>2017-05-08T14:35:00Z</time>
      </trkpt>
      <trkpt lat="42.41395" lon="2.36374">
        <ele>1692.06</ele>
        <time>2017-05-08T14:35:02Z</time>
      </trkpt>
      <trkpt lat="42.41387" lon="2.36382">
        <ele>1690.62</ele>
        <time>2017-05-08T14:35:10Z</time>
      </trkpt>
      <trkpt lat="42.4138" lon="2.36387">
        <ele>1689.65</ele>
        <time>2017-05-08T14:35:15Z</time>
      </trkpt>
      <trkpt lat="42.41371" lon="2.36395">
        <ele>1687.73</ele>
        <time>2017-05-08T14:35:26Z</time>
      </trkpt>
      <trkpt lat="42.41366" lon="2.36398">
        <ele>1687.25</ele>
        <time>2017-05-08T14:35:30Z</time>
      </trkpt>
      <trkpt lat="42.4136" lon="2.36401">
        <ele>1686.29</ele>
        <time>2017-05-08T14:35:35Z</time>
      </trkpt>
      <trkpt lat="42.41351" lon="2.36408">
        <ele>1685.81</ele>
        <time>2017-05-08T14:35:40Z</time>
      </trkpt>
      <trkpt lat="42.41339" lon="2.36418">
        <ele>1684.37</ele>
        <time>2017-05-08T14:35:51Z</time>
      </trkpt>
      <trkpt lat="42.41336" lon="2.36421">
        <ele>1683.41</ele>
        <time>2017-05-08T14:35:55Z</time>
      </trkpt>
      <trkpt lat="42.41326" lon="2.36432">
        <ele>1682.44</ele>
        <time>2017-05-08T14:36:05Z</time>
      </trkpt>
      <trkpt lat="42.41321" lon="2.36436">
        <ele>1681.96</ele>
        <time>2017-05-08T14:36:08Z</time>
      </trkpt>
      <trkpt lat="42.41314" lon="2.36448">
        <ele>1679.56</ele>
        <time>2017-05-08T14:36:19Z</time>
      </trkpt>
      <trkpt lat="42.41313" lon="2.36449">
        <ele>1679.08</ele>
        <time>2017-05-08T14:36:20Z</time>
      </trkpt>
      <trkpt lat="42.41309" lon="2.36451">
        <ele>1678.12</ele>
        <time>2017-05-08T14:36:23Z</time>
      </trkpt>
      <trkpt lat="42.41301" lon="2.36456">
        <ele>1677.64</ele>
        <time>2017-05-08T14:36:30Z</time>
      </trkpt>
      <trkpt lat="42.41299" lon="2.36456">
        <ele>1676.68</ele>
        <time>2017-05-08T14:36:32Z</time>
      </trkpt>
      <trkpt lat="42.41289" lon="2.36461">
        <ele>1675.72</ele>
        <time>2017-05-08T14:36:40Z</time>
      </trkpt>
      <trkpt lat="42.41284" lon="2.36464">
        <ele>1674.75</ele>
        <time>2017-05-08T14:36:45Z</time>
      </trkpt>
      <trkpt lat="42.41282" lon="2.36466">
        <ele>1674.75</ele>
        <time>2017-05-08T14:36:47Z</time>
      </trkpt>
      <trkpt lat="42.41266" lon="2.36473">
        <ele>1671.87</ele>
        <time>2017-05-08T14:37:01Z</time>
      </trkpt>
      <trkpt lat="42.41254" lon="2.36478">
        <ele>1668.99</ele>
        <time>2017-05-08T14:37:15Z</time>
      </trkpt>
      <trkpt lat="42.41244" lon="2.36481">
        <ele>1668.51</ele>
        <time>2017-05-08T14:37:22Z</time>
      </trkpt>
      <trkpt lat="42.41228" lon="2.36489">
        <ele>1665.62</ele>
        <time>2017-05-08T14:37:34Z</time>
      </trkpt>
      <trkpt lat="42.41224" lon="2.36488">
        <ele>1665.62</ele>
        <time>2017-05-08T14:37:47Z</time>
      </trkpt>
      <trkpt lat="42.41224" lon="2.36485">
        <ele>1665.62</ele>
        <time>2017-05-08T14:38:03Z</time>
      </trkpt>
      <trkpt lat="42.41224" lon="2.36485">
        <ele>1665.62</ele>
        <time>2017-05-08T14:38:25Z</time>
      </trkpt>
      <trkpt lat="42.41226" lon="2.36487">
        <ele>1664.66</ele>
        <time>2017-05-08T14:38:30Z</time>
      </trkpt>
      <trkpt lat="42.41229" lon="2.36486">
        <ele>1664.66</ele>
        <time>2017-05-08T14:38:33Z</time>
      </trkpt>
      <trkpt lat="42.4124" lon="2.36491">
        <ele>1664.18</ele>
        <time>2017-05-08T14:38:45Z</time>
      </trkpt>
      <trkpt lat="42.41246" lon="2.3649">
        <ele>1664.18</ele>
        <time>2017-05-08T14:38:49Z</time>
      </trkpt>
      <trkpt lat="42.41255" lon="2.36492">
        <ele>1664.18</ele>
        <time>2017-05-08T14:39:02Z</time>
      </trkpt>
      <trkpt lat="42.4126" lon="2.36492">
        <ele>1664.18</ele>
        <time>2017-05-08T14:39:15Z</time>
      </trkpt>
      <trkpt lat="42.41263" lon="2.36491">
        <ele>1664.18</ele>
        <time>2017-05-08T14:39:24Z</time>
      </trkpt>
      <trkpt lat="42.41275" lon="2.3649">
        <ele>1664.18</ele>
        <time>2017-05-08T14:39:34Z</time>
      </trkpt>
      <trkpt lat="42.41286" lon="2.36486">
        <ele>1663.7</ele>
        <time>2017-05-08T14:39:43Z</time>
      </trkpt>
      <trkpt lat="42.41295" lon="2.36482">
        <ele>1662.74</ele>
        <time>2017-05-08T14:39:56Z</time>
      </trkpt>
      <trkpt lat="42.41301" lon="2.36481">
        <ele>1661.3</ele>
        <time>2017-05-08T14:40:09Z</time>
      </trkpt>
      <trkpt lat="42.41306" lon="2.36479">
        <ele>1659.85</ele>
        <time>2017-05-08T14:40:21Z</time>
      </trkpt>
      <trkpt lat="42.41309" lon="2.36477">
        <ele>1657.93</ele>
        <time>2017-05-08T14:40:29Z</time>
      </trkpt>
      <trkpt lat="42.41309" lon="2.36477">
        <ele>1659.37</ele>
        <time>2017-05-08T14:40:30Z</time>
      </trkpt>
      <trkpt lat="42.41309" lon="2.36477">
        <ele>1657.93</ele>
        <time>2017-05-08T14:40:31Z</time>
      </trkpt>
      <trkpt lat="42.4131" lon="2.36477">
        <ele>1657.93</ele>
        <time>2017-05-08T14:40:34Z</time>
      </trkpt>
      <trkpt lat="42.41316" lon="2.36473">
        <ele>1657.93</ele>
        <time>2017-05-08T14:40:45Z</time>
      </trkpt>
      <trkpt lat="42.41317" lon="2.36472">
        <ele>1657.93</ele>
        <time>2017-05-08T14:40:46Z</time>
      </trkpt>
      <trkpt lat="42.41334" lon="2.36467">
        <ele>1659.85</ele>
        <time>2017-05-08T14:40:57Z</time>
      </trkpt>
      <trkpt lat="42.41353" lon="2.36456">
        <ele>1659.85</ele>
        <time>2017-05-08T14:41:09Z</time>
      </trkpt>
      <trkpt lat="42.41363" lon="2.36453">
        <ele>1659.85</ele>
        <time>2017-05-08T14:41:18Z</time>
      </trkpt>
      <trkpt lat="42.41376" lon="2.36446">
        <ele>1659.37</ele>
        <time>2017-05-08T14:41:29Z</time>
      </trkpt>
      <trkpt lat="42.41378" lon="2.36441">
        <ele>1659.37</ele>
        <time>2017-05-08T14:41:32Z</time>
      </trkpt>
      <trkpt lat="42.41383" lon="2.36432">
        <ele>1660.33</ele>
        <time>2017-05-08T14:41:43Z</time>
      </trkpt>
      <trkpt lat="42.41388" lon="2.36428">
        <ele>1660.81</ele>
        <time>2017-05-08T14:41:54Z</time>
      </trkpt>
      <trkpt lat="42.41397" lon="2.36425">
        <ele>1659.37</ele>
        <time>2017-05-08T14:42:06Z</time>
      </trkpt>
      <trkpt lat="42.41398" lon="2.36425">
        <ele>1659.85</ele>
        <time>2017-05-08T14:42:07Z</time>
      </trkpt>
      <trkpt lat="42.41409" lon="2.3642">
        <ele>1659.85</ele>
        <time>2017-05-08T14:42:16Z</time>
      </trkpt>
      <trkpt lat="42.41413" lon="2.36419">
        <ele>1659.85</ele>
        <time>2017-05-08T14:42:18Z</time>
      </trkpt>
      <trkpt lat="42.41415" lon="2.36417">
        <ele>1662.26</ele>
        <time>2017-05-08T14:42:20Z</time>
      </trkpt>
      <trkpt lat="42.41425" lon="2.36416">
        <ele>1659.37</ele>
        <time>2017-05-08T14:42:27Z</time>
      </trkpt>
      <trkpt lat="42.41436" lon="2.3641">
        <ele>1658.89</ele>
        <time>2017-05-08T14:42:39Z</time>
      </trkpt>
      <trkpt lat="42.41442" lon="2.36401">
        <ele>1659.85</ele>
        <time>2017-05-08T14:42:51Z</time>
      </trkpt>
      <trkpt lat="42.4145" lon="2.36393">
        <ele>1660.33</ele>
        <time>2017-05-08T14:43:02Z</time>
      </trkpt>
      <trkpt lat="42.41451" lon="2.3639">
        <ele>1660.33</ele>
        <time>2017-05-08T14:43:04Z</time>
      </trkpt>
      <trkpt lat="42.41459" lon="2.36382">
        <ele>1660.33</ele>
        <time>2017-05-08T14:43:14Z</time>
      </trkpt>
      <trkpt lat="42.41472" lon="2.36368">
        <ele>1660.33</ele>
        <time>2017-05-08T14:43:28Z</time>
      </trkpt>
      <trkpt lat="42.41477" lon="2.36357">
        <ele>1660.33</ele>
        <time>2017-05-08T14:43:40Z</time>
      </trkpt>
      <trkpt lat="42.41486" lon="2.36349">
        <ele>1659.85</ele>
        <time>2017-05-08T14:43:52Z</time>
      </trkpt>
      <trkpt lat="42.41492" lon="2.36341">
        <ele>1660.81</ele>
        <time>2017-05-08T14:44:03Z</time>
      </trkpt>
      <trkpt lat="42.41499" lon="2.36335">
        <ele>1660.81</ele>
        <time>2017-05-08T14:44:14Z</time>
      </trkpt>
      <trkpt lat="42.4151" lon="2.36328">
        <ele>1658.89</ele>
        <time>2017-05-08T14:44:27Z</time>
      </trkpt>
      <trkpt lat="42.4152" lon="2.36318">
        <ele>1659.85</ele>
        <time>2017-05-08T14:44:38Z</time>
      </trkpt>
      <trkpt lat="42.41531" lon="2.36312">
        <ele>1659.85</ele>
        <time>2017-05-08T14:44:49Z</time>
      </trkpt>
      <trkpt lat="42.41541" lon="2.36306">
        <ele>1660.33</ele>
        <time>2017-05-08T14:45:02Z</time>
      </trkpt>
      <trkpt lat="42.41545" lon="2.36302">
        <ele>1661.3</ele>
        <time>2017-05-08T14:45:14Z</time>
      </trkpt>
      <trkpt lat="42.41546" lon="2.36299">
        <ele>1661.78</ele>
        <time>2017-05-08T14:45:23Z</time>
      </trkpt>
      <trkpt lat="42.41551" lon="2.36294">
        <ele>1661.78</ele>
        <time>2017-05-08T14:45:27Z</time>
      </trkpt>
      <trkpt lat="42.41556" lon="2.3629">
        <ele>1661.78</ele>
        <time>2017-05-08T14:45:32Z</time>
      </trkpt>
      <trkpt lat="42.41569" lon="2.3628">
        <ele>1661.3</ele>
        <time>2017-05-08T14:45:45Z</time>
      </trkpt>
      <trkpt lat="42.41572" lon="2.36273">
        <ele>1661.78</ele>
        <time>2017-05-08T14:45:55Z</time>
      </trkpt>
      <trkpt lat="42.41576" lon="2.36262">
        <ele>1661.3</ele>
        <time>2017-05-08T14:46:06Z</time>
      </trkpt>
      <trkpt lat="42.41576" lon="2.36262">
        <ele>1660.33</ele>
        <time>2017-05-08T14:46:08Z</time>
      </trkpt>
      <trkpt lat="42.41585" lon="2.36249">
        <ele>1659.37</ele>
        <time>2017-05-08T14:46:15Z</time>
      </trkpt>
      <trkpt lat="42.41595" lon="2.3624">
        <ele>1659.37</ele>
        <time>2017-05-08T14:46:24Z</time>
      </trkpt>
      <trkpt lat="42.416" lon="2.36232">
        <ele>1659.37</ele>
        <time>2017-05-08T14:46:31Z</time>
      </trkpt>
      <trkpt lat="42.416" lon="2.36225">
        <ele>1659.37</ele>
        <time>2017-05-08T14:46:41Z</time>
      </trkpt>
      <trkpt lat="42.416" lon="2.36216">
        <ele>1659.85</ele>
        <time>2017-05-08T14:46:48Z</time>
      </trkpt>
      <trkpt lat="42.41604" lon="2.36211">
        <ele>1659.85</ele>
        <time>2017-05-08T14:46:52Z</time>
      </trkpt>
      <trkpt lat="42.41603" lon="2.3621">
        <ele>1659.37</ele>
        <time>2017-05-08T14:46:54Z</time>
      </trkpt>
      <trkpt lat="42.41601" lon="2.3621">
        <ele>1659.37</ele>
        <time>2017-05-08T14:46:56Z</time>
      </trkpt>
      <trkpt lat="42.41599" lon="2.36206">
        <ele>1659.37</ele>
        <time>2017-05-08T14:47:01Z</time>
      </trkpt>
      <trkpt lat="42.41614" lon="2.362">
        <ele>1658.89</ele>
        <time>2017-05-08T14:47:10Z</time>
      </trkpt>
      <trkpt lat="42.41624" lon="2.36197">
        <ele>1659.37</ele>
        <time>2017-05-08T14:47:18Z</time>
      </trkpt>
      <trkpt lat="42.41629" lon="2.3619">
        <ele>1657.93</ele>
        <time>2017-05-08T14:47:28Z</time>
      </trkpt>
      <trkpt lat="42.41635" lon="2.36185">
        <ele>1656.49</ele>
        <time>2017-05-08T14:47:35Z</time>
      </trkpt>
      <trkpt lat="42.41642" lon="2.36177">
        <ele>1656.49</ele>
        <time>2017-05-08T14:47:45Z</time>
      </trkpt>
      <trkpt lat="42.41643" lon="2.36176">
        <ele>1656.49</ele>
        <time>2017-05-08T14:47:47Z</time>
      </trkpt>
      <trkpt lat="42.41642" lon="2.36165">
        <ele>1656.01</ele>
        <time>2017-05-08T14:47:57Z</time>
      </trkpt>
      <trkpt lat="42.41644" lon="2.36164">
        <ele>1656.01</ele>
        <time>2017-05-08T14:47:59Z</time>
      </trkpt>
      <trkpt lat="42.41645" lon="2.36163">
        <ele>1656.49</ele>
        <time>2017-05-08T14:48:00Z</time>
      </trkpt>
      <trkpt lat="42.41648" lon="2.36154">
        <ele>1656.97</ele>
        <time>2017-05-08T14:48:08Z</time>
      </trkpt>
      <trkpt lat="42.4165" lon="2.36149">
        <ele>1657.45</ele>
        <time>2017-05-08T14:48:12Z</time>
      </trkpt>
      <trkpt lat="42.41653" lon="2.36142">
        <ele>1657.93</ele>
        <time>2017-05-08T14:48:21Z</time>
      </trkpt>
      <trkpt lat="42.41658" lon="2.36137">
        <ele>1658.41</ele>
        <time>2017-05-08T14:48:29Z</time>
      </trkpt>
      <trkpt lat="42.41666" lon="2.36138">
        <ele>1658.41</ele>
        <time>2017-05-08T14:48:40Z</time>
      </trkpt>
      <trkpt lat="42.4167" lon="2.3614">
        <ele>1658.41</ele>
        <time>2017-05-08T14:48:53Z</time>
      </trkpt>
      <trkpt lat="42.41672" lon="2.36142">
        <ele>1658.89</ele>
        <time>2017-05-08T14:48:57Z</time>
      </trkpt>
      <trkpt lat="42.41676" lon="2.36147">
        <ele>1658.89</ele>
        <time>2017-05-08T14:49:00Z</time>
      </trkpt>
      <trkpt lat="42.41676" lon="2.3615">
        <ele>1658.89</ele>
        <time>2017-05-08T14:49:02Z</time>
      </trkpt>
      <trkpt lat="42.41674" lon="2.36154">
        <ele>1658.89</ele>
        <time>2017-05-08T14:49:06Z</time>
      </trkpt>
      <trkpt lat="42.41676" lon="2.36157">
        <ele>1659.37</ele>
        <time>2017-05-08T14:49:11Z</time>
      </trkpt>
      <trkpt lat="42.41715" lon="2.36165">
        <ele>1659.37</ele>
        <time>2017-05-08T14:49:26Z</time>
      </trkpt>
      <trkpt lat="42.41716" lon="2.36168">
        <ele>1659.37</ele>
        <time>2017-05-08T14:49:29Z</time>
      </trkpt>
      <trkpt lat="42.41718" lon="2.36176">
        <ele>1658.89</ele>
        <time>2017-05-08T14:49:36Z</time>
      </trkpt>
      <trkpt lat="42.41718" lon="2.36179">
        <ele>1658.89</ele>
        <time>2017-05-08T14:49:39Z</time>
      </trkpt>
      <trkpt lat="42.41721" lon="2.36185">
        <ele>1658.89</ele>
        <time>2017-05-08T14:49:50Z</time>
      </trkpt>
      <trkpt lat="42.41723" lon="2.36189">
        <ele>1659.85</ele>
        <time>2017-05-08T14:49:54Z</time>
      </trkpt>
      <trkpt lat="42.41724" lon="2.36198">
        <ele>1659.37</ele>
        <time>2017-05-08T14:50:04Z</time>
      </trkpt>
      <trkpt lat="42.41721" lon="2.36204">
        <ele>1658.89</ele>
        <time>2017-05-08T14:50:15Z</time>
      </trkpt>
      <trkpt lat="42.4172" lon="2.36208">
        <ele>1658.41</ele>
        <time>2017-05-08T14:50:18Z</time>
      </trkpt>
      <trkpt lat="42.4172" lon="2.36216">
        <ele>1656.97</ele>
        <time>2017-05-08T14:50:26Z</time>
      </trkpt>
      <trkpt lat="42.41719" lon="2.36219">
        <ele>1656.97</ele>
        <time>2017-05-08T14:50:30Z</time>
      </trkpt>
      <trkpt lat="42.41721" lon="2.36229">
        <ele>1656.01</ele>
        <time>2017-05-08T14:50:40Z</time>
      </trkpt>
      <trkpt lat="42.4172" lon="2.36231">
        <ele>1656.01</ele>
        <time>2017-05-08T14:50:41Z</time>
      </trkpt>
      <trkpt lat="42.41719" lon="2.36238">
        <ele>1656.01</ele>
        <time>2017-05-08T14:50:48Z</time>
      </trkpt>
      <trkpt lat="42.41719" lon="2.36242">
        <ele>1654.57</ele>
        <time>2017-05-08T14:50:51Z</time>
      </trkpt>
      <trkpt lat="42.4172" lon="2.36249">
        <ele>1654.09</ele>
        <time>2017-05-08T14:50:55Z</time>
      </trkpt>
      <trkpt lat="42.41721" lon="2.36253">
        <ele>1654.57</ele>
        <time>2017-05-08T14:50:59Z</time>
      </trkpt>
      <trkpt lat="42.41723" lon="2.36259">
        <ele>1655.05</ele>
        <time>2017-05-08T14:51:04Z</time>
      </trkpt>
      <trkpt lat="42.41725" lon="2.36266">
        <ele>1655.53</ele>
        <time>2017-05-08T14:51:12Z</time>
      </trkpt>
      <trkpt lat="42.41726" lon="2.36268">
        <ele>1655.05</ele>
        <time>2017-05-08T14:51:14Z</time>
      </trkpt>
      <trkpt lat="42.41729" lon="2.36272">
        <ele>1656.97</ele>
        <time>2017-05-08T14:51:18Z</time>
      </trkpt>
      <trkpt lat="42.4173" lon="2.36272">
        <ele>1655.53</ele>
        <time>2017-05-08T14:51:19Z</time>
      </trkpt>
      <trkpt lat="42.41734" lon="2.36278">
        <ele>1655.53</ele>
        <time>2017-05-08T14:51:27Z</time>
      </trkpt>
      <trkpt lat="42.41737" lon="2.36286">
        <ele>1657.45</ele>
        <time>2017-05-08T14:51:38Z</time>
      </trkpt>
      <trkpt lat="42.41734" lon="2.36292">
        <ele>1658.89</ele>
        <time>2017-05-08T14:51:47Z</time>
      </trkpt>
      <trkpt lat="42.41728" lon="2.36294">
        <ele>1657.45</ele>
        <time>2017-05-08T14:51:55Z</time>
      </trkpt>
      <trkpt lat="42.41724" lon="2.36296">
        <ele>1657.45</ele>
        <time>2017-05-08T14:51:59Z</time>
      </trkpt>
      <trkpt lat="42.41717" lon="2.36304">
        <ele>1658.89</ele>
        <time>2017-05-08T14:52:10Z</time>
      </trkpt>
      <trkpt lat="42.41696" lon="2.36314">
        <ele>1658.89</ele>
        <time>2017-05-08T14:52:19Z</time>
      </trkpt>
      <trkpt lat="42.41707" lon="2.36312">
        <ele>1659.37</ele>
        <time>2017-05-08T14:52:38Z</time>
      </trkpt>
      <trkpt lat="42.41706" lon="2.36313">
        <ele>1656.97</ele>
        <time>2017-05-08T14:52:46Z</time>
      </trkpt>
      <trkpt lat="42.41587" lon="2.36236">
        <ele>1659.37</ele>
        <time>2017-05-08T14:53:38Z</time>
      </trkpt>
      <trkpt lat="42.41621" lon="2.36209">
        <ele>1659.85</ele>
        <time>2017-05-08T14:53:55Z</time>
      </trkpt>
      <trkpt lat="42.41656" lon="2.36296">
        <ele>1659.85</ele>
        <time>2017-05-08T14:54:18Z</time>
      </trkpt>
      <trkpt lat="42.41697" lon="2.36292">
        <ele>1660.33</ele>
        <time>2017-05-08T14:54:37Z</time>
      </trkpt>
      <trkpt lat="42.41706" lon="2.36315">
        <ele>1660.33</ele>
        <time>2017-05-08T14:54:54Z</time>
      </trkpt>
      <trkpt lat="42.41703" lon="2.36315">
        <ele>1660.81</ele>
        <time>2017-05-08T14:55:14Z</time>
      </trkpt>
      <trkpt lat="42.41703" lon="2.36321">
        <ele>1660.81</ele>
        <time>2017-05-08T14:55:44Z</time>
      </trkpt>
      <trkpt lat="42.41703" lon="2.36318">
        <ele>1660.81</ele>
        <time>2017-05-08T14:56:03Z</time>
      </trkpt>
      <trkpt lat="42.41702" lon="2.36318">
        <ele>1660.81</ele>
        <time>2017-05-08T14:56:15Z</time>
      </trkpt>
      <trkpt lat="42.41705" lon="2.36332">
        <ele>1661.3</ele>
        <time>2017-05-08T14:56:32Z</time>
      </trkpt>
      <trkpt lat="42.41707" lon="2.3634">
        <ele>1662.74</ele>
        <time>2017-05-08T14:56:44Z</time>
      </trkpt>
      <trkpt lat="42.41705" lon="2.36346">
        <ele>1663.22</ele>
        <time>2017-05-08T14:57:01Z</time>
      </trkpt>
      <trkpt lat="42.41705" lon="2.3635">
        <ele>1663.22</ele>
        <time>2017-05-08T14:57:05Z</time>
      </trkpt>
      <trkpt lat="42.41704" lon="2.36362">
        <ele>1664.66</ele>
        <time>2017-05-08T14:57:17Z</time>
      </trkpt>
      <trkpt lat="42.41702" lon="2.36368">
        <ele>1665.14</ele>
        <time>2017-05-08T14:57:23Z</time>
      </trkpt>
      <trkpt lat="42.41706" lon="2.3638">
        <ele>1666.1</ele>
        <time>2017-05-08T14:57:37Z</time>
      </trkpt>
      <trkpt lat="42.41709" lon="2.36388">
        <ele>1667.54</ele>
        <time>2017-05-08T14:57:48Z</time>
      </trkpt>
      <trkpt lat="42.41708" lon="2.36399">
        <ele>1669.47</ele>
        <time>2017-05-08T14:58:00Z</time>
      </trkpt>
      <trkpt lat="42.41708" lon="2.36412">
        <ele>1670.91</ele>
        <time>2017-05-08T14:58:12Z</time>
      </trkpt>
      <trkpt lat="42.41707" lon="2.36427">
        <ele>1672.35</ele>
        <time>2017-05-08T14:58:25Z</time>
      </trkpt>
      <trkpt lat="42.41711" lon="2.36445">
        <ele>1673.79</ele>
        <time>2017-05-08T14:58:38Z</time>
      </trkpt>
      <trkpt lat="42.41714" lon="2.36454">
        <ele>1675.23</ele>
        <time>2017-05-08T14:58:48Z</time>
      </trkpt>
      <trkpt lat="42.41716" lon="2.36467">
        <ele>1676.2</ele>
        <time>2017-05-08T14:59:01Z</time>
      </trkpt>
      <trkpt lat="42.41716" lon="2.36478">
        <ele>1677.16</ele>
        <time>2017-05-08T14:59:11Z</time>
      </trkpt>
      <trkpt lat="42.41716" lon="2.36482">
        <ele>1677.64</ele>
        <time>2017-05-08T14:59:15Z</time>
      </trkpt>
      <trkpt lat="42.41717" lon="2.36484">
        <ele>1677.64</ele>
        <time>2017-05-08T14:59:17Z</time>
      </trkpt>
      <trkpt lat="42.41715" lon="2.36496">
        <ele>1678.6</ele>
        <time>2017-05-08T14:59:29Z</time>
      </trkpt>
      <trkpt lat="42.41712" lon="2.36502">
        <ele>1679.08</ele>
        <time>2017-05-08T14:59:35Z</time>
      </trkpt>
      <trkpt lat="42.41709" lon="2.36508">
        <ele>1678.6</ele>
        <time>2017-05-08T14:59:40Z</time>
      </trkpt>
      <trkpt lat="42.41706" lon="2.36518">
        <ele>1679.08</ele>
        <time>2017-05-08T14:59:47Z</time>
      </trkpt>
      <trkpt lat="42.41706" lon="2.36522">
        <ele>1679.08</ele>
        <time>2017-05-08T14:59:50Z</time>
      </trkpt>
      <trkpt lat="42.41704" lon="2.36531">
        <ele>1679.56</ele>
        <time>2017-05-08T14:59:57Z</time>
      </trkpt>
      <trkpt lat="42.41703" lon="2.36542">
        <ele>1680.52</ele>
        <time>2017-05-08T15:00:05Z</time>
      </trkpt>
      <trkpt lat="42.41703" lon="2.36555">
        <ele>1681</ele>
        <time>2017-05-08T15:00:15Z</time>
      </trkpt>
      <trkpt lat="42.41704" lon="2.36561">
        <ele>1681.96</ele>
        <time>2017-05-08T15:00:22Z</time>
      </trkpt>
      <trkpt lat="42.41703" lon="2.36564">
        <ele>1682.44</ele>
        <time>2017-05-08T15:00:25Z</time>
      </trkpt>
      <trkpt lat="42.41702" lon="2.36579">
        <ele>1683.41</ele>
        <time>2017-05-08T15:00:38Z</time>
      </trkpt>
      <trkpt lat="42.41701" lon="2.36596">
        <ele>1685.33</ele>
        <time>2017-05-08T15:00:53Z</time>
      </trkpt>
      <trkpt lat="42.41697" lon="2.36604">
        <ele>1686.29</ele>
        <time>2017-05-08T15:01:05Z</time>
      </trkpt>
      <trkpt lat="42.41696" lon="2.36606">
        <ele>1686.29</ele>
        <time>2017-05-08T15:01:24Z</time>
      </trkpt>
      <trkpt lat="42.41695" lon="2.3661">
        <ele>1686.77</ele>
        <time>2017-05-08T15:01:27Z</time>
      </trkpt>
      <trkpt lat="42.41696" lon="2.36619">
        <ele>1687.25</ele>
        <time>2017-05-08T15:01:35Z</time>
      </trkpt>
      <trkpt lat="42.41697" lon="2.36635">
        <ele>1687.25</ele>
        <time>2017-05-08T15:01:47Z</time>
      </trkpt>
      <trkpt lat="42.41697" lon="2.36637">
        <ele>1687.25</ele>
        <time>2017-05-08T15:01:49Z</time>
      </trkpt>
      <trkpt lat="42.41698" lon="2.36641">
        <ele>1687.73</ele>
        <time>2017-05-08T15:01:52Z</time>
      </trkpt>
      <trkpt lat="42.417" lon="2.36645">
        <ele>1687.73</ele>
        <time>2017-05-08T15:01:55Z</time>
      </trkpt>
      <trkpt lat="42.417" lon="2.36648">
        <ele>1687.73</ele>
        <time>2017-05-08T15:01:57Z</time>
      </trkpt>
      <trkpt lat="42.41705" lon="2.36656">
        <ele>1688.69</ele>
        <time>2017-05-08T15:02:09Z</time>
      </trkpt>
      <trkpt lat="42.41709" lon="2.36665">
        <ele>1689.17</ele>
        <time>2017-05-08T15:02:22Z</time>
      </trkpt>
      <trkpt lat="42.41713" lon="2.36672">
        <ele>1689.65</ele>
        <time>2017-05-08T15:02:30Z</time>
      </trkpt>
      <trkpt lat="42.41715" lon="2.36674">
        <ele>1690.14</ele>
        <time>2017-05-08T15:02:33Z</time>
      </trkpt>
      <trkpt lat="42.41718" lon="2.36677">
        <ele>1690.14</ele>
        <time>2017-05-08T15:02:36Z</time>
      </trkpt>
      <trkpt lat="42.41725" lon="2.36685">
        <ele>1691.58</ele>
        <time>2017-05-08T15:02:48Z</time>
      </trkpt>
      <trkpt lat="42.41729" lon="2.36697">
        <ele>1691.58</ele>
        <time>2017-05-08T15:03:00Z</time>
      </trkpt>
      <trkpt lat="42.41734" lon="2.36702">
        <ele>1692.06</ele>
        <time>2017-05-08T15:03:05Z</time>
      </trkpt>
      <trkpt lat="42.41744" lon="2.36711">
        <ele>1693.98</ele>
        <time>2017-05-08T15:03:19Z</time>
      </trkpt>
      <trkpt lat="42.41752" lon="2.36723">
        <ele>1696.38</ele>
        <time>2017-05-08T15:03:35Z</time>
      </trkpt>
      <trkpt lat="42.41753" lon="2.36737">
        <ele>1698.31</ele>
        <time>2017-05-08T15:03:47Z</time>
      </trkpt>
      <trkpt lat="42.41754" lon="2.36738">
        <ele>1698.31</ele>
        <time>2017-05-08T15:03:48Z</time>
      </trkpt>
      <trkpt lat="42.41759" lon="2.36752">
        <ele>1698.79</ele>
        <time>2017-05-08T15:04:01Z</time>
      </trkpt>
      <trkpt lat="42.4176" lon="2.36764">
        <ele>1700.23</ele>
        <time>2017-05-08T15:04:12Z</time>
      </trkpt>
      <trkpt lat="42.41761" lon="2.36766">
        <ele>1700.23</ele>
        <time>2017-05-08T15:04:14Z</time>
      </trkpt>
      <trkpt lat="42.41762" lon="2.36774">
        <ele>1701.19</ele>
        <time>2017-05-08T15:04:21Z</time>
      </trkpt>
      <trkpt lat="42.41766" lon="2.36786">
        <ele>1701.67</ele>
        <time>2017-05-08T15:04:32Z</time>
      </trkpt>
      <trkpt lat="42.41769" lon="2.36794">
        <ele>1702.15</ele>
        <time>2017-05-08T15:04:38Z</time>
      </trkpt>
      <trkpt lat="42.41769" lon="2.36806">
        <ele>1702.15</ele>
        <time>2017-05-08T15:04:47Z</time>
      </trkpt>
      <trkpt lat="42.41768" lon="2.3682">
        <ele>1702.63</ele>
        <time>2017-05-08T15:04:59Z</time>
      </trkpt>
      <trkpt lat="42.41768" lon="2.36823">
        <ele>1703.11</ele>
        <time>2017-05-08T15:05:01Z</time>
      </trkpt>
      <trkpt lat="42.41767" lon="2.36828">
        <ele>1703.11</ele>
        <time>2017-05-08T15:05:04Z</time>
      </trkpt>
      <trkpt lat="42.41767" lon="2.36839">
        <ele>1703.11</ele>
        <time>2017-05-08T15:05:13Z</time>
      </trkpt>
      <trkpt lat="42.41768" lon="2.36855">
        <ele>1704.55</ele>
        <time>2017-05-08T15:05:26Z</time>
      </trkpt>
      <trkpt lat="42.41766" lon="2.36858">
        <ele>1704.55</ele>
        <time>2017-05-08T15:05:29Z</time>
      </trkpt>
      <trkpt lat="42.41767" lon="2.36868">
        <ele>1705.04</ele>
        <time>2017-05-08T15:05:37Z</time>
      </trkpt>
      <trkpt lat="42.41766" lon="2.36872">
        <ele>1705.04</ele>
        <time>2017-05-08T15:05:40Z</time>
      </trkpt>
      <trkpt lat="42.41767" lon="2.3688">
        <ele>1704.55</ele>
        <time>2017-05-08T15:05:46Z</time>
      </trkpt>
      <trkpt lat="42.41765" lon="2.36892">
        <ele>1705.04</ele>
        <time>2017-05-08T15:05:57Z</time>
      </trkpt>
      <trkpt lat="42.41767" lon="2.36896">
        <ele>1706.96</ele>
        <time>2017-05-08T15:06:02Z</time>
      </trkpt>
      <trkpt lat="42.41768" lon="2.369">
        <ele>1708.4</ele>
        <time>2017-05-08T15:06:07Z</time>
      </trkpt>
      <trkpt lat="42.41765" lon="2.36909">
        <ele>1708.88</ele>
        <time>2017-05-08T15:06:21Z</time>
      </trkpt>
      <trkpt lat="42.41765" lon="2.36912">
        <ele>1709.36</ele>
        <time>2017-05-08T15:06:40Z</time>
      </trkpt>
      <trkpt lat="42.41765" lon="2.3692">
        <ele>1709.84</ele>
        <time>2017-05-08T15:06:45Z</time>
      </trkpt>
      <trkpt lat="42.41765" lon="2.36927">
        <ele>1709.84</ele>
        <time>2017-05-08T15:06:50Z</time>
      </trkpt>
      <trkpt lat="42.41772" lon="2.36939">
        <ele>1712.73</ele>
        <time>2017-05-08T15:07:06Z</time>
      </trkpt>
      <trkpt lat="42.4178" lon="2.36943">
        <ele>1714.17</ele>
        <time>2017-05-08T15:07:22Z</time>
      </trkpt>
      <trkpt lat="42.4178" lon="2.36943">
        <ele>1714.17</ele>
        <time>2017-05-08T15:07:41Z</time>
      </trkpt>
      <trkpt lat="42.41782" lon="2.36945">
        <ele>1713.69</ele>
        <time>2017-05-08T15:07:58Z</time>
      </trkpt>
      <trkpt lat="42.41782" lon="2.36946">
        <ele>1713.69</ele>
        <time>2017-05-08T15:08:19Z</time>
      </trkpt>
      <trkpt lat="42.41782" lon="2.36945">
        <ele>1713.69</ele>
        <time>2017-05-08T15:08:29Z</time>
      </trkpt>
      <trkpt lat="42.41785" lon="2.36949">
        <ele>1713.21</ele>
        <time>2017-05-08T15:08:33Z</time>
      </trkpt>
      <trkpt lat="42.4179" lon="2.36952">
        <ele>1712.25</ele>
        <time>2017-05-08T15:08:38Z</time>
      </trkpt>
      <trkpt lat="42.418" lon="2.36966">
        <ele>1708.88</ele>
        <time>2017-05-08T15:08:53Z</time>
      </trkpt>
      <trkpt lat="42.41809" lon="2.36975">
        <ele>1705.52</ele>
        <time>2017-05-08T15:09:05Z</time>
      </trkpt>
      <trkpt lat="42.41815" lon="2.36982">
        <ele>1703.59</ele>
        <time>2017-05-08T15:09:14Z</time>
      </trkpt>
      <trkpt lat="42.41824" lon="2.36992">
        <ele>1700.23</ele>
        <time>2017-05-08T15:09:29Z</time>
      </trkpt>
      <trkpt lat="42.41834" lon="2.37">
        <ele>1696.86</ele>
        <time>2017-05-08T15:09:42Z</time>
      </trkpt>
      <trkpt lat="42.41835" lon="2.37001">
        <ele>1696.38</ele>
        <time>2017-05-08T15:09:44Z</time>
      </trkpt>
      <trkpt lat="42.41843" lon="2.37005">
        <ele>1693.5</ele>
        <time>2017-05-08T15:09:54Z</time>
      </trkpt>
      <trkpt lat="42.41852" lon="2.37012">
        <ele>1690.62</ele>
        <time>2017-05-08T15:10:05Z</time>
      </trkpt>
      <trkpt lat="42.41857" lon="2.37015">
        <ele>1689.65</ele>
        <time>2017-05-08T15:10:11Z</time>
      </trkpt>
      <trkpt lat="42.41861" lon="2.37017">
        <ele>1686.77</ele>
        <time>2017-05-08T15:10:15Z</time>
      </trkpt>
      <trkpt lat="42.41864" lon="2.37022">
        <ele>1685.33</ele>
        <time>2017-05-08T15:10:20Z</time>
      </trkpt>
      <trkpt lat="42.41874" lon="2.3703">
        <ele>1681.96</ele>
        <time>2017-05-08T15:10:31Z</time>
      </trkpt>
      <trkpt lat="42.41882" lon="2.37036">
        <ele>1679.08</ele>
        <time>2017-05-08T15:10:42Z</time>
      </trkpt>
      <trkpt lat="42.41889" lon="2.37041">
        <ele>1675.72</ele>
        <time>2017-05-08T15:10:52Z</time>
      </trkpt>
      <trkpt lat="42.41892" lon="2.37044">
        <ele>1674.27</ele>
        <time>2017-05-08T15:10:56Z</time>
      </trkpt>
      <trkpt lat="42.41897" lon="2.37049">
        <ele>1671.87</ele>
        <time>2017-05-08T15:11:03Z</time>
      </trkpt>
      <trkpt lat="42.41906" lon="2.37052">
        <ele>1668.02</ele>
        <time>2017-05-08T15:11:13Z</time>
      </trkpt>
      <trkpt lat="42.41915" lon="2.3706">
        <ele>1664.66</ele>
        <time>2017-05-08T15:11:24Z</time>
      </trkpt>
      <trkpt lat="42.41917" lon="2.37064">
        <ele>1662.74</ele>
        <time>2017-05-08T15:11:28Z</time>
      </trkpt>
      <trkpt lat="42.41929" lon="2.37072">
        <ele>1659.37</ele>
        <time>2017-05-08T15:11:41Z</time>
      </trkpt>
      <trkpt lat="42.41931" lon="2.37073">
        <ele>1658.89</ele>
        <time>2017-05-08T15:11:43Z</time>
      </trkpt>
      <trkpt lat="42.41933" lon="2.37073">
        <ele>1657.93</ele>
        <time>2017-05-08T15:11:45Z</time>
      </trkpt>
      <trkpt lat="42.4194" lon="2.37074">
        <ele>1656.01</ele>
        <time>2017-05-08T15:11:52Z</time>
      </trkpt>
      <trkpt lat="42.41943" lon="2.37076">
        <ele>1655.05</ele>
        <time>2017-05-08T15:11:56Z</time>
      </trkpt>
      <trkpt lat="42.41956" lon="2.37081">
        <ele>1652.16</ele>
        <time>2017-05-08T15:12:09Z</time>
      </trkpt>
      <trkpt lat="42.41972" lon="2.37092">
        <ele>1649.28</ele>
        <time>2017-05-08T15:12:23Z</time>
      </trkpt>
      <trkpt lat="42.41977" lon="2.37092">
        <ele>1647.84</ele>
        <time>2017-05-08T15:12:36Z</time>
      </trkpt>
      <trkpt lat="42.41979" lon="2.37095">
        <ele>1647.36</ele>
        <time>2017-05-08T15:12:53Z</time>
      </trkpt>
      <trkpt lat="42.4198" lon="2.37095">
        <ele>1646.88</ele>
        <time>2017-05-08T15:12:54Z</time>
      </trkpt>
      <trkpt lat="42.41982" lon="2.37098">
        <ele>1646.88</ele>
        <time>2017-05-08T15:12:57Z</time>
      </trkpt>
      <trkpt lat="42.41994" lon="2.37112">
        <ele>1644.95</ele>
        <time>2017-05-08T15:13:12Z</time>
      </trkpt>
      <trkpt lat="42.41998" lon="2.37117">
        <ele>1644.47</ele>
        <time>2017-05-08T15:13:17Z</time>
      </trkpt>
      <trkpt lat="42.42001" lon="2.37122">
        <ele>1643.99</ele>
        <time>2017-05-08T15:13:21Z</time>
      </trkpt>
      <trkpt lat="42.42013" lon="2.37133">
        <ele>1642.55</ele>
        <time>2017-05-08T15:13:32Z</time>
      </trkpt>
      <trkpt lat="42.42026" lon="2.37147">
        <ele>1640.15</ele>
        <time>2017-05-08T15:13:46Z</time>
      </trkpt>
      <trkpt lat="42.42039" lon="2.37159">
        <ele>1639.19</ele>
        <time>2017-05-08T15:13:59Z</time>
      </trkpt>
      <trkpt lat="42.42044" lon="2.37157">
        <ele>1638.22</ele>
        <time>2017-05-08T15:14:04Z</time>
      </trkpt>
      <trkpt lat="42.42062" lon="2.37165">
        <ele>1636.3</ele>
        <time>2017-05-08T15:14:20Z</time>
      </trkpt>
      <trkpt lat="42.42078" lon="2.3717">
        <ele>1634.38</ele>
        <time>2017-05-08T15:14:34Z</time>
      </trkpt>
      <trkpt lat="42.42082" lon="2.37172">
        <ele>1633.9</ele>
        <time>2017-05-08T15:14:38Z</time>
      </trkpt>
      <trkpt lat="42.42085" lon="2.37175">
        <ele>1633.42</ele>
        <time>2017-05-08T15:14:48Z</time>
      </trkpt>
      <trkpt lat="42.42087" lon="2.37169">
        <ele>1633.42</ele>
        <time>2017-05-08T15:14:54Z</time>
      </trkpt>
      <trkpt lat="42.4209" lon="2.37159">
        <ele>1635.34</ele>
        <time>2017-05-08T15:15:05Z</time>
      </trkpt>
      <trkpt lat="42.42094" lon="2.3715">
        <ele>1638.22</ele>
        <time>2017-05-08T15:15:16Z</time>
      </trkpt>
      <trkpt lat="42.42098" lon="2.37146">
        <ele>1639.67</ele>
        <time>2017-05-08T15:15:24Z</time>
      </trkpt>
      <trkpt lat="42.42106" lon="2.37142">
        <ele>1641.11</ele>
        <time>2017-05-08T15:15:37Z</time>
      </trkpt>
      <trkpt lat="42.42109" lon="2.3714">
        <ele>1641.11</ele>
        <time>2017-05-08T15:15:41Z</time>
      </trkpt>
      <trkpt lat="42.42111" lon="2.37137">
        <ele>1641.59</ele>
        <time>2017-05-08T15:15:54Z</time>
      </trkpt>
      <trkpt lat="42.42116" lon="2.37129">
        <ele>1640.63</ele>
        <time>2017-05-08T15:16:11Z</time>
      </trkpt>
      <trkpt lat="42.42121" lon="2.37117">
        <ele>1638.22</ele>
        <time>2017-05-08T15:16:23Z</time>
      </trkpt>
      <trkpt lat="42.42123" lon="2.37106">
        <ele>1636.78</ele>
        <time>2017-05-08T15:16:32Z</time>
      </trkpt>
      <trkpt lat="42.42124" lon="2.37097">
        <ele>1636.3</ele>
        <time>2017-05-08T15:16:43Z</time>
      </trkpt>
      <trkpt lat="42.42127" lon="2.37089">
        <ele>1633.9</ele>
        <time>2017-05-08T15:16:53Z</time>
      </trkpt>
      <trkpt lat="42.42126" lon="2.3708">
        <ele>1633.42</ele>
        <time>2017-05-08T15:16:59Z</time>
      </trkpt>
      <trkpt lat="42.42126" lon="2.37077">
        <ele>1632.94</ele>
        <time>2017-05-08T15:17:01Z</time>
      </trkpt>
      <trkpt lat="42.42129" lon="2.37063">
        <ele>1632.46</ele>
        <time>2017-05-08T15:17:12Z</time>
      </trkpt>
      <trkpt lat="42.42124" lon="2.37053">
        <ele>1631.49</ele>
        <time>2017-05-08T15:17:23Z</time>
      </trkpt>
      <trkpt lat="42.42122" lon="2.37048">
        <ele>1631.01</ele>
        <time>2017-05-08T15:17:28Z</time>
      </trkpt>
      <trkpt lat="42.42121" lon="2.37033">
        <ele>1628.61</ele>
        <time>2017-05-08T15:17:38Z</time>
      </trkpt>
      <trkpt lat="42.4212" lon="2.37022">
        <ele>1628.61</ele>
        <time>2017-05-08T15:17:49Z</time>
      </trkpt>
      <trkpt lat="42.42121" lon="2.37021">
        <ele>1628.61</ele>
        <time>2017-05-08T15:17:50Z</time>
      </trkpt>
      <trkpt lat="42.42122" lon="2.37017">
        <ele>1628.13</ele>
        <time>2017-05-08T15:17:52Z</time>
      </trkpt>
      <trkpt lat="42.42123" lon="2.3701">
        <ele>1626.69</ele>
        <time>2017-05-08T15:17:57Z</time>
      </trkpt>
      <trkpt lat="42.42125" lon="2.37008">
        <ele>1626.69</ele>
        <time>2017-05-08T15:17:59Z</time>
      </trkpt>
      <trkpt lat="42.42126" lon="2.37003">
        <ele>1625.73</ele>
        <time>2017-05-08T15:18:04Z</time>
      </trkpt>
      <trkpt lat="42.42127" lon="2.37001">
        <ele>1625.73</ele>
        <time>2017-05-08T15:18:06Z</time>
      </trkpt>
      <trkpt lat="42.42129" lon="2.36999">
        <ele>1624.77</ele>
        <time>2017-05-08T15:18:09Z</time>
      </trkpt>
      <trkpt lat="42.42137" lon="2.36995">
        <ele>1624.77</ele>
        <time>2017-05-08T15:18:19Z</time>
      </trkpt>
      <trkpt lat="42.42139" lon="2.36987">
        <ele>1622.84</ele>
        <time>2017-05-08T15:18:30Z</time>
      </trkpt>
      <trkpt lat="42.42139" lon="2.36986">
        <ele>1622.36</ele>
        <time>2017-05-08T15:18:32Z</time>
      </trkpt>
      <trkpt lat="42.42144" lon="2.36977">
        <ele>1620.44</ele>
        <time>2017-05-08T15:18:43Z</time>
      </trkpt>
      <trkpt lat="42.42146" lon="2.36971">
        <ele>1619.96</ele>
        <time>2017-05-08T15:19:01Z</time>
      </trkpt>
      <trkpt lat="42.42147" lon="2.36968">
        <ele>1618.52</ele>
        <time>2017-05-08T15:19:12Z</time>
      </trkpt>
      <trkpt lat="42.42148" lon="2.36966">
        <ele>1618.04</ele>
        <time>2017-05-08T15:19:29Z</time>
      </trkpt>
      <trkpt lat="42.42149" lon="2.36962">
        <ele>1618.52</ele>
        <time>2017-05-08T15:19:41Z</time>
      </trkpt>
      <trkpt lat="42.42151" lon="2.36959">
        <ele>1619</ele>
        <time>2017-05-08T15:19:54Z</time>
      </trkpt>
      <trkpt lat="42.42151" lon="2.36964">
        <ele>1619</ele>
        <time>2017-05-08T15:19:59Z</time>
      </trkpt>
      <trkpt lat="42.42155" lon="2.3697">
        <ele>1618.52</ele>
        <time>2017-05-08T15:20:11Z</time>
      </trkpt>
      <trkpt lat="42.42156" lon="2.36971">
        <ele>1618.52</ele>
        <time>2017-05-08T15:20:21Z</time>
      </trkpt>
      <trkpt lat="42.42155" lon="2.36973">
        <ele>1618.04</ele>
        <time>2017-05-08T15:20:25Z</time>
      </trkpt>
      <trkpt lat="42.42162" lon="2.36977">
        <ele>1617.56</ele>
        <time>2017-05-08T15:20:37Z</time>
      </trkpt>
      <trkpt lat="42.42161" lon="2.36976">
        <ele>1617.56</ele>
        <time>2017-05-08T15:20:55Z</time>
      </trkpt>
      <trkpt lat="42.42161" lon="2.36981">
        <ele>1617.56</ele>
        <time>2017-05-08T15:21:09Z</time>
      </trkpt>
      <trkpt lat="42.42161" lon="2.36983">
        <ele>1616.59</ele>
        <time>2017-05-08T15:21:19Z</time>
      </trkpt>
      <trkpt lat="42.42161" lon="2.36989">
        <ele>1615.63</ele>
        <time>2017-05-08T15:21:32Z</time>
      </trkpt>
      <trkpt lat="42.42162" lon="2.36992">
        <ele>1616.11</ele>
        <time>2017-05-08T15:21:42Z</time>
      </trkpt>
      <trkpt lat="42.4216" lon="2.36989">
        <ele>1616.11</ele>
        <time>2017-05-08T15:21:58Z</time>
      </trkpt>
      <trkpt lat="42.42158" lon="2.36989">
        <ele>1616.59</ele>
        <time>2017-05-08T15:22:13Z</time>
      </trkpt>
      <trkpt lat="42.42158" lon="2.3699">
        <ele>1617.56</ele>
        <time>2017-05-08T15:22:27Z</time>
      </trkpt>
      <trkpt lat="42.42158" lon="2.36987">
        <ele>1618.52</ele>
        <time>2017-05-08T15:22:41Z</time>
      </trkpt>
      <trkpt lat="42.42156" lon="2.36981">
        <ele>1618.52</ele>
        <time>2017-05-08T15:23:02Z</time>
      </trkpt>
      <trkpt lat="42.42157" lon="2.36979">
        <ele>1618.04</ele>
        <time>2017-05-08T15:23:21Z</time>
      </trkpt>
      <trkpt lat="42.4216" lon="2.36977">
        <ele>1618.04</ele>
        <time>2017-05-08T15:23:34Z</time>
      </trkpt>
      <trkpt lat="42.42161" lon="2.36975">
        <ele>1618.04</ele>
        <time>2017-05-08T15:23:44Z</time>
      </trkpt>
      <trkpt lat="42.42163" lon="2.36977">
        <ele>1617.56</ele>
        <time>2017-05-08T15:23:59Z</time>
      </trkpt>
      <trkpt lat="42.42163" lon="2.36979">
        <ele>1618.04</ele>
        <time>2017-05-08T15:24:32Z</time>
      </trkpt>
      <trkpt lat="42.42165" lon="2.36978">
        <ele>1618.04</ele>
        <time>2017-05-08T15:25:03Z</time>
      </trkpt>
      <trkpt lat="42.42164" lon="2.36978">
        <ele>1618.52</ele>
        <time>2017-05-08T15:25:32Z</time>
      </trkpt>
      <trkpt lat="42.42164" lon="2.36978">
        <ele>1619</ele>
        <time>2017-05-08T15:25:50Z</time>
      </trkpt>
      <trkpt lat="42.42164" lon="2.36977">
        <ele>1619</ele>
        <time>2017-05-08T15:26:04Z</time>
      </trkpt>
      <trkpt lat="42.42164" lon="2.36976">
        <ele>1619</ele>
        <time>2017-05-08T15:26:10Z</time>
      </trkpt>
      <trkpt lat="42.42166" lon="2.36976">
        <ele>1619.48</ele>
        <time>2017-05-08T15:26:23Z</time>
      </trkpt>
      <trkpt lat="42.42169" lon="2.36974">
        <ele>1620.44</ele>
        <time>2017-05-08T15:26:35Z</time>
      </trkpt>
      <trkpt lat="42.42174" lon="2.36974">
        <ele>1620.92</ele>
        <time>2017-05-08T15:26:48Z</time>
      </trkpt>
      <trkpt lat="42.42173" lon="2.36976">
        <ele>1619.96</ele>
        <time>2017-05-08T15:27:00Z</time>
      </trkpt>
      <trkpt lat="42.42175" lon="2.36977">
        <ele>1620.44</ele>
        <time>2017-05-08T15:27:14Z</time>
      </trkpt>
      <trkpt lat="42.42187" lon="2.36971">
        <ele>1622.36</ele>
        <time>2017-05-08T15:27:27Z</time>
      </trkpt>
      <trkpt lat="42.42191" lon="2.36968">
        <ele>1624.28</ele>
        <time>2017-05-08T15:27:38Z</time>
      </trkpt>
      <trkpt lat="42.42195" lon="2.36974">
        <ele>1623.8</ele>
        <time>2017-05-08T15:27:52Z</time>
      </trkpt>
      <trkpt lat="42.42197" lon="2.3698">
        <ele>1624.28</ele>
        <time>2017-05-08T15:28:02Z</time>
      </trkpt>
      <trkpt lat="42.42201" lon="2.36989">
        <ele>1625.25</ele>
        <time>2017-05-08T15:28:12Z</time>
      </trkpt>
      <trkpt lat="42.42201" lon="2.3699">
        <ele>1625.25</ele>
        <time>2017-05-08T15:28:13Z</time>
      </trkpt>
      <trkpt lat="42.42202" lon="2.36998">
        <ele>1625.25</ele>
        <time>2017-05-08T15:28:21Z</time>
      </trkpt>
      <trkpt lat="42.42205" lon="2.37009">
        <ele>1626.21</ele>
        <time>2017-05-08T15:28:31Z</time>
      </trkpt>
      <trkpt lat="42.42203" lon="2.37022">
        <ele>1628.13</ele>
        <time>2017-05-08T15:28:43Z</time>
      </trkpt>
      <trkpt lat="42.422" lon="2.37038">
        <ele>1629.09</ele>
        <time>2017-05-08T15:28:58Z</time>
      </trkpt>
      <trkpt lat="42.42201" lon="2.37044">
        <ele>1630.53</ele>
        <time>2017-05-08T15:29:09Z</time>
      </trkpt>
      <trkpt lat="42.42201" lon="2.37054">
        <ele>1630.53</ele>
        <time>2017-05-08T15:29:19Z</time>
      </trkpt>
      <trkpt lat="42.42202" lon="2.3706">
        <ele>1630.05</ele>
        <time>2017-05-08T15:29:24Z</time>
      </trkpt>
      <trkpt lat="42.42202" lon="2.37073">
        <ele>1630.05</ele>
        <time>2017-05-08T15:29:35Z</time>
      </trkpt>
      <trkpt lat="42.42205" lon="2.37097">
        <ele>1631.01</ele>
        <time>2017-05-08T15:29:48Z</time>
      </trkpt>
      <trkpt lat="42.42209" lon="2.37116">
        <ele>1631.98</ele>
        <time>2017-05-08T15:30:01Z</time>
      </trkpt>
      <trkpt lat="42.42213" lon="2.37133">
        <ele>1633.9</ele>
        <time>2017-05-08T15:30:13Z</time>
      </trkpt>
      <trkpt lat="42.42216" lon="2.37146">
        <ele>1633.9</ele>
        <time>2017-05-08T15:30:24Z</time>
      </trkpt>
      <trkpt lat="42.42217" lon="2.37152">
        <ele>1633.9</ele>
        <time>2017-05-08T15:30:29Z</time>
      </trkpt>
      <trkpt lat="42.42217" lon="2.37162">
        <ele>1633.42</ele>
        <time>2017-05-08T15:30:37Z</time>
      </trkpt>
      <trkpt lat="42.42223" lon="2.37171">
        <ele>1633.42</ele>
        <time>2017-05-08T15:30:48Z</time>
      </trkpt>
      <trkpt lat="42.42225" lon="2.37178">
        <ele>1633.9</ele>
        <time>2017-05-08T15:30:54Z</time>
      </trkpt>
      <trkpt lat="42.42227" lon="2.37194">
        <ele>1634.86</ele>
        <time>2017-05-08T15:31:04Z</time>
      </trkpt>
      <trkpt lat="42.42229" lon="2.37202">
        <ele>1634.38</ele>
        <time>2017-05-08T15:31:11Z</time>
      </trkpt>
      <trkpt lat="42.42231" lon="2.37207">
        <ele>1634.86</ele>
        <time>2017-05-08T15:31:18Z</time>
      </trkpt>
      <trkpt lat="42.42234" lon="2.37224">
        <ele>1635.82</ele>
        <time>2017-05-08T15:31:30Z</time>
      </trkpt>
      <trkpt lat="42.42234" lon="2.37229">
        <ele>1635.82</ele>
        <time>2017-05-08T15:31:33Z</time>
      </trkpt>
      <trkpt lat="42.42236" lon="2.37238">
        <ele>1636.3</ele>
        <time>2017-05-08T15:31:42Z</time>
      </trkpt>
      <trkpt lat="42.42238" lon="2.37251">
        <ele>1637.26</ele>
        <time>2017-05-08T15:31:54Z</time>
      </trkpt>
      <trkpt lat="42.42237" lon="2.37259">
        <ele>1639.19</ele>
        <time>2017-05-08T15:32:03Z</time>
      </trkpt>
      <trkpt lat="42.42237" lon="2.37269">
        <ele>1640.15</ele>
        <time>2017-05-08T15:32:11Z</time>
      </trkpt>
      <trkpt lat="42.42236" lon="2.37278">
        <ele>1641.11</ele>
        <time>2017-05-08T15:32:22Z</time>
      </trkpt>
      <trkpt lat="42.42236" lon="2.3728">
        <ele>1641.59</ele>
        <time>2017-05-08T15:32:24Z</time>
      </trkpt>
      <trkpt lat="42.42237" lon="2.37292">
        <ele>1643.03</ele>
        <time>2017-05-08T15:32:35Z</time>
      </trkpt>
      <trkpt lat="42.42237" lon="2.37295">
        <ele>1643.03</ele>
        <time>2017-05-08T15:32:38Z</time>
      </trkpt>
      <trkpt lat="42.42235" lon="2.37302">
        <ele>1643.51</ele>
        <time>2017-05-08T15:32:44Z</time>
      </trkpt>
      <trkpt lat="42.42236" lon="2.37312">
        <ele>1643.99</ele>
        <time>2017-05-08T15:32:54Z</time>
      </trkpt>
      <trkpt lat="42.42234" lon="2.3732">
        <ele>1643.99</ele>
        <time>2017-05-08T15:32:59Z</time>
      </trkpt>
      <trkpt lat="42.42231" lon="2.37324">
        <ele>1644.47</ele>
        <time>2017-05-08T15:33:04Z</time>
      </trkpt>
      <trkpt lat="42.4223" lon="2.37331">
        <ele>1644.95</ele>
        <time>2017-05-08T15:33:10Z</time>
      </trkpt>
      <trkpt lat="42.42229" lon="2.37335">
        <ele>1643.99</ele>
        <time>2017-05-08T15:33:20Z</time>
      </trkpt>
      <trkpt lat="42.42228" lon="2.37335">
        <ele>1643.99</ele>
        <time>2017-05-08T15:33:37Z</time>
      </trkpt>
      <trkpt lat="42.42231" lon="2.37345">
        <ele>1643.99</ele>
        <time>2017-05-08T15:33:45Z</time>
      </trkpt>
      <trkpt lat="42.42237" lon="2.37357">
        <ele>1644.47</ele>
        <time>2017-05-08T15:33:57Z</time>
      </trkpt>
      <trkpt lat="42.42238" lon="2.37358">
        <ele>1644.95</ele>
        <time>2017-05-08T15:33:58Z</time>
      </trkpt>
      <trkpt lat="42.42241" lon="2.37361">
        <ele>1646.4</ele>
        <time>2017-05-08T15:34:04Z</time>
      </trkpt>
      <trkpt lat="42.42245" lon="2.37369">
        <ele>1646.88</ele>
        <time>2017-05-08T15:34:12Z</time>
      </trkpt>
      <trkpt lat="42.42247" lon="2.37372">
        <ele>1646.4</ele>
        <time>2017-05-08T15:34:16Z</time>
      </trkpt>
      <trkpt lat="42.42254" lon="2.37384">
        <ele>1646.4</ele>
        <time>2017-05-08T15:34:29Z</time>
      </trkpt>
      <trkpt lat="42.42257" lon="2.37387">
        <ele>1647.36</ele>
        <time>2017-05-08T15:34:33Z</time>
      </trkpt>
      <trkpt lat="42.42264" lon="2.37393">
        <ele>1648.8</ele>
        <time>2017-05-08T15:34:44Z</time>
      </trkpt>
      <trkpt lat="42.42266" lon="2.37406">
        <ele>1647.84</ele>
        <time>2017-05-08T15:34:55Z</time>
      </trkpt>
      <trkpt lat="42.42273" lon="2.37414">
        <ele>1648.8</ele>
        <time>2017-05-08T15:35:05Z</time>
      </trkpt>
      <trkpt lat="42.4228" lon="2.37419">
        <ele>1649.76</ele>
        <time>2017-05-08T15:35:18Z</time>
      </trkpt>
      <trkpt lat="42.42279" lon="2.37423">
        <ele>1649.28</ele>
        <time>2017-05-08T15:35:21Z</time>
      </trkpt>
      <trkpt lat="42.42281" lon="2.37428">
        <ele>1649.28</ele>
        <time>2017-05-08T15:35:26Z</time>
      </trkpt>
      <trkpt lat="42.42283" lon="2.37432">
        <ele>1649.28</ele>
        <time>2017-05-08T15:35:29Z</time>
      </trkpt>
      <trkpt lat="42.42284" lon="2.37437">
        <ele>1648.8</ele>
        <time>2017-05-08T15:35:34Z</time>
      </trkpt>
      <trkpt lat="42.42291" lon="2.37446">
        <ele>1650.24</ele>
        <time>2017-05-08T15:35:47Z</time>
      </trkpt>
      <trkpt lat="42.42296" lon="2.37455">
        <ele>1652.16</ele>
        <time>2017-05-08T15:35:59Z</time>
      </trkpt>
      <trkpt lat="42.42301" lon="2.37463">
        <ele>1653.6</ele>
        <time>2017-05-08T15:36:12Z</time>
      </trkpt>
      <trkpt lat="42.423" lon="2.37471">
        <ele>1654.09</ele>
        <time>2017-05-08T15:36:22Z</time>
      </trkpt>
      <trkpt lat="42.42303" lon="2.37482">
        <ele>1653.6</ele>
        <time>2017-05-08T15:36:29Z</time>
      </trkpt>
      <trkpt lat="42.42304" lon="2.37489">
        <ele>1653.6</ele>
        <time>2017-05-08T15:36:34Z</time>
      </trkpt>
      <trkpt lat="42.42307" lon="2.37504">
        <ele>1653.6</ele>
        <time>2017-05-08T15:36:48Z</time>
      </trkpt>
      <trkpt lat="42.42308" lon="2.37509">
        <ele>1654.09</ele>
        <time>2017-05-08T15:36:52Z</time>
      </trkpt>
      <trkpt lat="42.42311" lon="2.37523">
        <ele>1655.53</ele>
        <time>2017-05-08T15:37:04Z</time>
      </trkpt>
      <trkpt lat="42.42311" lon="2.37535">
        <ele>1656.01</ele>
        <time>2017-05-08T15:37:16Z</time>
      </trkpt>
      <trkpt lat="42.42312" lon="2.37544">
        <ele>1656.97</ele>
        <time>2017-05-08T15:37:27Z</time>
      </trkpt>
      <trkpt lat="42.42313" lon="2.37548">
        <ele>1657.45</ele>
        <time>2017-05-08T15:37:31Z</time>
      </trkpt>
      <trkpt lat="42.42314" lon="2.37557">
        <ele>1657.45</ele>
        <time>2017-05-08T15:37:37Z</time>
      </trkpt>
      <trkpt lat="42.42318" lon="2.3757">
        <ele>1658.41</ele>
        <time>2017-05-08T15:37:49Z</time>
      </trkpt>
      <trkpt lat="42.42319" lon="2.37573">
        <ele>1658.41</ele>
        <time>2017-05-08T15:37:52Z</time>
      </trkpt>
      <trkpt lat="42.42323" lon="2.37583">
        <ele>1659.37</ele>
        <time>2017-05-08T15:38:00Z</time>
      </trkpt>
      <trkpt lat="42.42326" lon="2.37592">
        <ele>1661.3</ele>
        <time>2017-05-08T15:38:12Z</time>
      </trkpt>
      <trkpt lat="42.42328" lon="2.3761">
        <ele>1662.74</ele>
        <time>2017-05-08T15:38:26Z</time>
      </trkpt>
      <trkpt lat="42.42328" lon="2.37612">
        <ele>1662.74</ele>
        <time>2017-05-08T15:38:27Z</time>
      </trkpt>
      <trkpt lat="42.4233" lon="2.37622">
        <ele>1663.22</ele>
        <time>2017-05-08T15:38:35Z</time>
      </trkpt>
      <trkpt lat="42.42332" lon="2.37634">
        <ele>1664.66</ele>
        <time>2017-05-08T15:38:47Z</time>
      </trkpt>
      <trkpt lat="42.42329" lon="2.37652">
        <ele>1665.14</ele>
        <time>2017-05-08T15:39:01Z</time>
      </trkpt>
      <trkpt lat="42.42331" lon="2.3766">
        <ele>1666.1</ele>
        <time>2017-05-08T15:39:14Z</time>
      </trkpt>
      <trkpt lat="42.42329" lon="2.3766">
        <ele>1666.1</ele>
        <time>2017-05-08T15:39:28Z</time>
      </trkpt>
      <trkpt lat="42.42329" lon="2.37659">
        <ele>1666.1</ele>
        <time>2017-05-08T15:39:51Z</time>
      </trkpt>
      <trkpt lat="42.42329" lon="2.37658">
        <ele>1666.1</ele>
        <time>2017-05-08T15:40:03Z</time>
      </trkpt>
      <trkpt lat="42.42331" lon="2.37659">
        <ele>1665.62</ele>
        <time>2017-05-08T15:40:17Z</time>
      </trkpt>
      <trkpt lat="42.42338" lon="2.37657">
        <ele>1664.18</ele>
        <time>2017-05-08T15:40:29Z</time>
      </trkpt>
      <trkpt lat="42.42341" lon="2.37653">
        <ele>1663.22</ele>
        <time>2017-05-08T15:40:35Z</time>
      </trkpt>
      <trkpt lat="42.42346" lon="2.37643">
        <ele>1663.7</ele>
        <time>2017-05-08T15:40:45Z</time>
      </trkpt>
      <trkpt lat="42.42351" lon="2.37636">
        <ele>1663.7</ele>
        <time>2017-05-08T15:40:54Z</time>
      </trkpt>
      <trkpt lat="42.42354" lon="2.37633">
        <ele>1663.22</ele>
        <time>2017-05-08T15:40:56Z</time>
      </trkpt>
      <trkpt lat="42.42359" lon="2.37619">
        <ele>1663.7</ele>
        <time>2017-05-08T15:41:04Z</time>
      </trkpt>
      <trkpt lat="42.42368" lon="2.37608">
        <ele>1662.74</ele>
        <time>2017-05-08T15:41:16Z</time>
      </trkpt>
      <trkpt lat="42.42369" lon="2.37598">
        <ele>1663.22</ele>
        <time>2017-05-08T15:41:25Z</time>
      </trkpt>
      <trkpt lat="42.42372" lon="2.37593">
        <ele>1663.7</ele>
        <time>2017-05-08T15:41:30Z</time>
      </trkpt>
      <trkpt lat="42.42377" lon="2.37582">
        <ele>1664.18</ele>
        <time>2017-05-08T15:41:41Z</time>
      </trkpt>
      <trkpt lat="42.42384" lon="2.3757">
        <ele>1663.7</ele>
        <time>2017-05-08T15:41:53Z</time>
      </trkpt>
      <trkpt lat="42.42391" lon="2.37558">
        <ele>1663.22</ele>
        <time>2017-05-08T15:42:04Z</time>
      </trkpt>
      <trkpt lat="42.42397" lon="2.37547">
        <ele>1662.26</ele>
        <time>2017-05-08T15:42:15Z</time>
      </trkpt>
      <trkpt lat="42.42403" lon="2.37538">
        <ele>1662.26</ele>
        <time>2017-05-08T15:42:25Z</time>
      </trkpt>
      <trkpt lat="42.42405" lon="2.37529">
        <ele>1663.7</ele>
        <time>2017-05-08T15:42:36Z</time>
      </trkpt>
      <trkpt lat="42.42409" lon="2.37519">
        <ele>1664.18</ele>
        <time>2017-05-08T15:42:46Z</time>
      </trkpt>
      <trkpt lat="42.42413" lon="2.37508">
        <ele>1663.22</ele>
        <time>2017-05-08T15:42:56Z</time>
      </trkpt>
      <trkpt lat="42.42419" lon="2.37498">
        <ele>1663.7</ele>
        <time>2017-05-08T15:43:05Z</time>
      </trkpt>
      <trkpt lat="42.42424" lon="2.37484">
        <ele>1663.7</ele>
        <time>2017-05-08T15:43:15Z</time>
      </trkpt>
      <trkpt lat="42.4243" lon="2.3747">
        <ele>1663.22</ele>
        <time>2017-05-08T15:43:26Z</time>
      </trkpt>
      <trkpt lat="42.42438" lon="2.37455">
        <ele>1663.7</ele>
        <time>2017-05-08T15:43:40Z</time>
      </trkpt>
      <trkpt lat="42.42444" lon="2.37443">
        <ele>1663.7</ele>
        <time>2017-05-08T15:43:53Z</time>
      </trkpt>
      <trkpt lat="42.42449" lon="2.3743">
        <ele>1664.18</ele>
        <time>2017-05-08T15:44:04Z</time>
      </trkpt>
      <trkpt lat="42.42458" lon="2.37417">
        <ele>1664.18</ele>
        <time>2017-05-08T15:44:16Z</time>
      </trkpt>
      <trkpt lat="42.4246" lon="2.37414">
        <ele>1663.7</ele>
        <time>2017-05-08T15:44:18Z</time>
      </trkpt>
      <trkpt lat="42.42462" lon="2.37408">
        <ele>1663.7</ele>
        <time>2017-05-08T15:44:23Z</time>
      </trkpt>
      <trkpt lat="42.42468" lon="2.374">
        <ele>1663.7</ele>
        <time>2017-05-08T15:44:33Z</time>
      </trkpt>
      <trkpt lat="42.4247" lon="2.37396">
        <ele>1663.7</ele>
        <time>2017-05-08T15:44:37Z</time>
      </trkpt>
      <trkpt lat="42.42477" lon="2.3739">
        <ele>1665.14</ele>
        <time>2017-05-08T15:44:48Z</time>
      </trkpt>
      <trkpt lat="42.42481" lon="2.37385">
        <ele>1664.66</ele>
        <time>2017-05-08T15:44:52Z</time>
      </trkpt>
      <trkpt lat="42.42487" lon="2.37375">
        <ele>1665.14</ele>
        <time>2017-05-08T15:45:03Z</time>
      </trkpt>
      <trkpt lat="42.42493" lon="2.37367">
        <ele>1666.1</ele>
        <time>2017-05-08T15:45:12Z</time>
      </trkpt>
      <trkpt lat="42.42498" lon="2.37357">
        <ele>1667.06</ele>
        <time>2017-05-08T15:45:24Z</time>
      </trkpt>
      <trkpt lat="42.42504" lon="2.37344">
        <ele>1668.02</ele>
        <time>2017-05-08T15:45:37Z</time>
      </trkpt>
      <trkpt lat="42.42505" lon="2.37342">
        <ele>1668.02</ele>
        <time>2017-05-08T15:45:39Z</time>
      </trkpt>
      <trkpt lat="42.42508" lon="2.3733">
        <ele>1668.99</ele>
        <time>2017-05-08T15:45:50Z</time>
      </trkpt>
      <trkpt lat="42.4251" lon="2.37329">
        <ele>1668.51</ele>
        <time>2017-05-08T15:45:54Z</time>
      </trkpt>
      <trkpt lat="42.42518" lon="2.37318">
        <ele>1668.51</ele>
        <time>2017-05-08T15:46:03Z</time>
      </trkpt>
      <trkpt lat="42.42526" lon="2.37305">
        <ele>1668.51</ele>
        <time>2017-05-08T15:46:15Z</time>
      </trkpt>
      <trkpt lat="42.42531" lon="2.37296">
        <ele>1668.99</ele>
        <time>2017-05-08T15:46:25Z</time>
      </trkpt>
      <trkpt lat="42.42536" lon="2.3729">
        <ele>1669.95</ele>
        <time>2017-05-08T15:46:36Z</time>
      </trkpt>
      <trkpt lat="42.42541" lon="2.37282">
        <ele>1670.91</ele>
        <time>2017-05-08T15:46:47Z</time>
      </trkpt>
      <trkpt lat="42.42552" lon="2.37274">
        <ele>1670.91</ele>
        <time>2017-05-08T15:46:57Z</time>
      </trkpt>
      <trkpt lat="42.42559" lon="2.37269">
        <ele>1669.95</ele>
        <time>2017-05-08T15:47:09Z</time>
      </trkpt>
      <trkpt lat="42.4257" lon="2.37261">
        <ele>1669.47</ele>
        <time>2017-05-08T15:47:19Z</time>
      </trkpt>
      <trkpt lat="42.4258" lon="2.37255">
        <ele>1669.47</ele>
        <time>2017-05-08T15:47:30Z</time>
      </trkpt>
      <trkpt lat="42.42585" lon="2.37248">
        <ele>1669.95</ele>
        <time>2017-05-08T15:47:39Z</time>
      </trkpt>
      <trkpt lat="42.42589" lon="2.37243">
        <ele>1669.95</ele>
        <time>2017-05-08T15:47:44Z</time>
      </trkpt>
      <trkpt lat="42.42602" lon="2.37233">
        <ele>1668.99</ele>
        <time>2017-05-08T15:47:57Z</time>
      </trkpt>
      <trkpt lat="42.42607" lon="2.3723">
        <ele>1669.47</ele>
        <time>2017-05-08T15:48:09Z</time>
      </trkpt>
      <trkpt lat="42.42607" lon="2.3723">
        <ele>1669.47</ele>
        <time>2017-05-08T15:48:10Z</time>
      </trkpt>
      <trkpt lat="42.42614" lon="2.37228">
        <ele>1669.47</ele>
        <time>2017-05-08T15:48:20Z</time>
      </trkpt>
      <trkpt lat="42.42615" lon="2.37229">
        <ele>1668.99</ele>
        <time>2017-05-08T15:48:21Z</time>
      </trkpt>
      <trkpt lat="42.4262" lon="2.37231">
        <ele>1668.99</ele>
        <time>2017-05-08T15:48:36Z</time>
      </trkpt>
      <trkpt lat="42.42621" lon="2.37233">
        <ele>1669.47</ele>
        <time>2017-05-08T15:48:58Z</time>
      </trkpt>
      <trkpt lat="42.42621" lon="2.37233">
        <ele>1669.47</ele>
        <time>2017-05-08T15:49:18Z</time>
      </trkpt>
      <trkpt lat="42.42621" lon="2.37232">
        <ele>1669.47</ele>
        <time>2017-05-08T15:49:39Z</time>
      </trkpt>
      <trkpt lat="42.42617" lon="2.37232">
        <ele>1668.99</ele>
        <time>2017-05-08T15:49:54Z</time>
      </trkpt>
      <trkpt lat="42.42618" lon="2.37234">
        <ele>1668.99</ele>
        <time>2017-05-08T15:50:18Z</time>
      </trkpt>
      <trkpt lat="42.4262" lon="2.37234">
        <ele>1668.99</ele>
        <time>2017-05-08T15:50:21Z</time>
      </trkpt>
      <trkpt lat="42.42627" lon="2.37226">
        <ele>1669.47</ele>
        <time>2017-05-08T15:50:33Z</time>
      </trkpt>
      <trkpt lat="42.42634" lon="2.37227">
        <ele>1668.99</ele>
        <time>2017-05-08T15:50:47Z</time>
      </trkpt>
      <trkpt lat="42.42636" lon="2.37229">
        <ele>1668.99</ele>
        <time>2017-05-08T15:51:11Z</time>
      </trkpt>
      <trkpt lat="42.42646" lon="2.37231">
        <ele>1668.51</ele>
        <time>2017-05-08T15:51:26Z</time>
      </trkpt>
      <trkpt lat="42.42653" lon="2.37225">
        <ele>1668.99</ele>
        <time>2017-05-08T15:51:37Z</time>
      </trkpt>
      <trkpt lat="42.42652" lon="2.37222">
        <ele>1671.39</ele>
        <time>2017-05-08T15:51:49Z</time>
      </trkpt>
      <trkpt lat="42.42658" lon="2.3722">
        <ele>1672.35</ele>
        <time>2017-05-08T15:52:02Z</time>
      </trkpt>
      <trkpt lat="42.42668" lon="2.37216">
        <ele>1670.91</ele>
        <time>2017-05-08T15:52:12Z</time>
      </trkpt>
      <trkpt lat="42.42677" lon="2.3721">
        <ele>1670.91</ele>
        <time>2017-05-08T15:52:24Z</time>
      </trkpt>
      <trkpt lat="42.42681" lon="2.37212">
        <ele>1668.99</ele>
        <time>2017-05-08T15:52:30Z</time>
      </trkpt>
      <trkpt lat="42.42692" lon="2.37225">
        <ele>1667.06</ele>
        <time>2017-05-08T15:52:43Z</time>
      </trkpt>
      <trkpt lat="42.42696" lon="2.37234">
        <ele>1666.58</ele>
        <time>2017-05-08T15:52:53Z</time>
      </trkpt>
      <trkpt lat="42.42701" lon="2.37238">
        <ele>1667.06</ele>
        <time>2017-05-08T15:53:04Z</time>
      </trkpt>
      <trkpt lat="42.42706" lon="2.37246">
        <ele>1667.06</ele>
        <time>2017-05-08T15:53:17Z</time>
      </trkpt>
      <trkpt lat="42.42705" lon="2.37254">
        <ele>1666.58</ele>
        <time>2017-05-08T15:53:28Z</time>
      </trkpt>
      <trkpt lat="42.42708" lon="2.3726">
        <ele>1665.62</ele>
        <time>2017-05-08T15:53:38Z</time>
      </trkpt>
      <trkpt lat="42.42712" lon="2.37266">
        <ele>1664.66</ele>
        <time>2017-05-08T15:53:50Z</time>
      </trkpt>
      <trkpt lat="42.42715" lon="2.3727">
        <ele>1664.66</ele>
        <time>2017-05-08T15:54:02Z</time>
      </trkpt>
      <trkpt lat="42.42712" lon="2.37271">
        <ele>1664.66</ele>
        <time>2017-05-08T15:54:13Z</time>
      </trkpt>
      <trkpt lat="42.4271" lon="2.37272">
        <ele>1665.62</ele>
        <time>2017-05-08T15:54:15Z</time>
      </trkpt>
      <trkpt lat="42.42706" lon="2.37277">
        <ele>1665.62</ele>
        <time>2017-05-08T15:54:27Z</time>
      </trkpt>
      <trkpt lat="42.42705" lon="2.37279">
        <ele>1666.1</ele>
        <time>2017-05-08T15:54:29Z</time>
      </trkpt>
      <trkpt lat="42.42697" lon="2.37285">
        <ele>1668.51</ele>
        <time>2017-05-08T15:54:41Z</time>
      </trkpt>
      <trkpt lat="42.42688" lon="2.37295">
        <ele>1668.99</ele>
        <time>2017-05-08T15:54:52Z</time>
      </trkpt>
      <trkpt lat="42.42676" lon="2.37303">
        <ele>1667.54</ele>
        <time>2017-05-08T15:55:02Z</time>
      </trkpt>
      <trkpt lat="42.42676" lon="2.37306">
        <ele>1668.02</ele>
        <time>2017-05-08T15:55:05Z</time>
      </trkpt>
      <trkpt lat="42.42672" lon="2.37309">
        <ele>1668.02</ele>
        <time>2017-05-08T15:55:09Z</time>
      </trkpt>
      <trkpt lat="42.42667" lon="2.3731">
        <ele>1667.06</ele>
        <time>2017-05-08T15:55:12Z</time>
      </trkpt>
      <trkpt lat="42.42661" lon="2.37319">
        <ele>1666.58</ele>
        <time>2017-05-08T15:55:19Z</time>
      </trkpt>
      <trkpt lat="42.42657" lon="2.37328">
        <ele>1666.58</ele>
        <time>2017-05-08T15:55:32Z</time>
      </trkpt>
      <trkpt lat="42.42653" lon="2.37339">
        <ele>1667.06</ele>
        <time>2017-05-08T15:55:42Z</time>
      </trkpt>
      <trkpt lat="42.42649" lon="2.3735">
        <ele>1667.06</ele>
        <time>2017-05-08T15:55:52Z</time>
      </trkpt>
      <trkpt lat="42.42647" lon="2.37355">
        <ele>1666.58</ele>
        <time>2017-05-08T15:55:57Z</time>
      </trkpt>
      <trkpt lat="42.42646" lon="2.37362">
        <ele>1667.06</ele>
        <time>2017-05-08T15:56:08Z</time>
      </trkpt>
      <trkpt lat="42.42643" lon="2.37374">
        <ele>1666.1</ele>
        <time>2017-05-08T15:56:19Z</time>
      </trkpt>
      <trkpt lat="42.42637" lon="2.37383">
        <ele>1664.18</ele>
        <time>2017-05-08T15:56:30Z</time>
      </trkpt>
      <trkpt lat="42.42636" lon="2.37394">
        <ele>1662.74</ele>
        <time>2017-05-08T15:56:41Z</time>
      </trkpt>
      <trkpt lat="42.42633" lon="2.37404">
        <ele>1662.26</ele>
        <time>2017-05-08T15:56:52Z</time>
      </trkpt>
      <trkpt lat="42.42632" lon="2.37417">
        <ele>1659.85</ele>
        <time>2017-05-08T15:57:03Z</time>
      </trkpt>
      <trkpt lat="42.42631" lon="2.37427">
        <ele>1656.97</ele>
        <time>2017-05-08T15:57:15Z</time>
      </trkpt>
      <trkpt lat="42.4263" lon="2.37436">
        <ele>1654.57</ele>
        <time>2017-05-08T15:57:26Z</time>
      </trkpt>
      <trkpt lat="42.42626" lon="2.37445">
        <ele>1653.6</ele>
        <time>2017-05-08T15:57:37Z</time>
      </trkpt>
      <trkpt lat="42.42629" lon="2.3745">
        <ele>1655.53</ele>
        <time>2017-05-08T15:57:48Z</time>
      </trkpt>
      <trkpt lat="42.42628" lon="2.37458">
        <ele>1656.01</ele>
        <time>2017-05-08T15:58:00Z</time>
      </trkpt>
      <trkpt lat="42.42629" lon="2.3746">
        <ele>1657.93</ele>
        <time>2017-05-08T15:58:12Z</time>
      </trkpt>
      <trkpt lat="42.42629" lon="2.37469">
        <ele>1659.37</ele>
        <time>2017-05-08T15:58:23Z</time>
      </trkpt>
      <trkpt lat="42.42632" lon="2.37472">
        <ele>1660.81</ele>
        <time>2017-05-08T15:58:37Z</time>
      </trkpt>
      <trkpt lat="42.42632" lon="2.37476">
        <ele>1660.81</ele>
        <time>2017-05-08T15:58:54Z</time>
      </trkpt>
      <trkpt lat="42.42633" lon="2.37485">
        <ele>1659.85</ele>
        <time>2017-05-08T15:59:04Z</time>
      </trkpt>
      <trkpt lat="42.42631" lon="2.37491">
        <ele>1658.89</ele>
        <time>2017-05-08T15:59:11Z</time>
      </trkpt>
      <trkpt lat="42.42624" lon="2.375">
        <ele>1658.41</ele>
        <time>2017-05-08T15:59:22Z</time>
      </trkpt>
      <trkpt lat="42.42625" lon="2.37506">
        <ele>1659.85</ele>
        <time>2017-05-08T15:59:34Z</time>
      </trkpt>
      <trkpt lat="42.42624" lon="2.37515">
        <ele>1658.89</ele>
        <time>2017-05-08T15:59:47Z</time>
      </trkpt>
      <trkpt lat="42.42621" lon="2.37523">
        <ele>1657.45</ele>
        <time>2017-05-08T15:59:57Z</time>
      </trkpt>
      <trkpt lat="42.4262" lon="2.37524">
        <ele>1656.01</ele>
        <time>2017-05-08T15:59:58Z</time>
      </trkpt>
      <trkpt lat="42.4262" lon="2.37527">
        <ele>1656.49</ele>
        <time>2017-05-08T16:00:00Z</time>
      </trkpt>
      <trkpt lat="42.4262" lon="2.3754">
        <ele>1656.01</ele>
        <time>2017-05-08T16:00:11Z</time>
      </trkpt>
      <trkpt lat="42.42621" lon="2.3755">
        <ele>1656.01</ele>
        <time>2017-05-08T16:00:23Z</time>
      </trkpt>
      <trkpt lat="42.4262" lon="2.37554">
        <ele>1656.01</ele>
        <time>2017-05-08T16:00:26Z</time>
      </trkpt>
      <trkpt lat="42.42616" lon="2.37566">
        <ele>1655.05</ele>
        <time>2017-05-08T16:00:39Z</time>
      </trkpt>
      <trkpt lat="42.42615" lon="2.37575">
        <ele>1653.6</ele>
        <time>2017-05-08T16:00:52Z</time>
      </trkpt>
      <trkpt lat="42.42612" lon="2.37585">
        <ele>1651.2</ele>
        <time>2017-05-08T16:01:04Z</time>
      </trkpt>
      <trkpt lat="42.42611" lon="2.37588">
        <ele>1650.72</ele>
        <time>2017-05-08T16:01:08Z</time>
      </trkpt>
      <trkpt lat="42.42609" lon="2.37601">
        <ele>1648.32</ele>
        <time>2017-05-08T16:01:20Z</time>
      </trkpt>
      <trkpt lat="42.42608" lon="2.37611">
        <ele>1646.88</ele>
        <time>2017-05-08T16:01:31Z</time>
      </trkpt>
      <trkpt lat="42.42607" lon="2.37625">
        <ele>1645.91</ele>
        <time>2017-05-08T16:01:42Z</time>
      </trkpt>
      <trkpt lat="42.42608" lon="2.37637">
        <ele>1646.88</ele>
        <time>2017-05-08T16:01:55Z</time>
      </trkpt>
      <trkpt lat="42.42608" lon="2.37641">
        <ele>1646.88</ele>
        <time>2017-05-08T16:01:57Z</time>
      </trkpt>
      <trkpt lat="42.42606" lon="2.37646">
        <ele>1646.88</ele>
        <time>2017-05-08T16:02:00Z</time>
      </trkpt>
      <trkpt lat="42.42601" lon="2.37653">
        <ele>1647.36</ele>
        <time>2017-05-08T16:02:14Z</time>
      </trkpt>
      <trkpt lat="42.42604" lon="2.3766">
        <ele>1646.88</ele>
        <time>2017-05-08T16:02:29Z</time>
      </trkpt>
      <trkpt lat="42.4261" lon="2.37665">
        <ele>1647.84</ele>
        <time>2017-05-08T16:02:41Z</time>
      </trkpt>
      <trkpt lat="42.42615" lon="2.37673">
        <ele>1646.88</ele>
        <time>2017-05-08T16:02:48Z</time>
      </trkpt>
      <trkpt lat="42.42619" lon="2.37684">
        <ele>1645.43</ele>
        <time>2017-05-08T16:02:55Z</time>
      </trkpt>
      <trkpt lat="42.42619" lon="2.37693">
        <ele>1644.47</ele>
        <time>2017-05-08T16:03:00Z</time>
      </trkpt>
      <trkpt lat="42.42622" lon="2.377">
        <ele>1643.99</ele>
        <time>2017-05-08T16:03:05Z</time>
      </trkpt>
      <trkpt lat="42.42628" lon="2.37712">
        <ele>1643.03</ele>
        <time>2017-05-08T16:03:15Z</time>
      </trkpt>
      <trkpt lat="42.42633" lon="2.37715">
        <ele>1643.99</ele>
        <time>2017-05-08T16:03:26Z</time>
      </trkpt>
      <trkpt lat="42.42637" lon="2.37721">
        <ele>1644.47</ele>
        <time>2017-05-08T16:03:36Z</time>
      </trkpt>
      <trkpt lat="42.42633" lon="2.37742">
        <ele>1642.55</ele>
        <time>2017-05-08T16:03:49Z</time>
      </trkpt>
      <trkpt lat="42.42632" lon="2.37752">
        <ele>1643.03</ele>
        <time>2017-05-08T16:04:01Z</time>
      </trkpt>
      <trkpt lat="42.42631" lon="2.37759">
        <ele>1642.07</ele>
        <time>2017-05-08T16:04:08Z</time>
      </trkpt>
      <trkpt lat="42.42629" lon="2.37775">
        <ele>1639.67</ele>
        <time>2017-05-08T16:04:20Z</time>
      </trkpt>
      <trkpt lat="42.42626" lon="2.37785">
        <ele>1639.19</ele>
        <time>2017-05-08T16:04:28Z</time>
      </trkpt>
      <trkpt lat="42.42625" lon="2.37799">
        <ele>1638.7</ele>
        <time>2017-05-08T16:04:39Z</time>
      </trkpt>
      <trkpt lat="42.42627" lon="2.37811">
        <ele>1637.74</ele>
        <time>2017-05-08T16:04:50Z</time>
      </trkpt>
      <trkpt lat="42.42629" lon="2.37824">
        <ele>1636.78</ele>
        <time>2017-05-08T16:05:01Z</time>
      </trkpt>
      <trkpt lat="42.42628" lon="2.37826">
        <ele>1637.74</ele>
        <time>2017-05-08T16:05:14Z</time>
      </trkpt>
      <trkpt lat="42.42628" lon="2.37828">
        <ele>1637.26</ele>
        <time>2017-05-08T16:05:34Z</time>
      </trkpt>
      <trkpt lat="42.42628" lon="2.37828">
        <ele>1636.78</ele>
        <time>2017-05-08T16:05:57Z</time>
      </trkpt>
      <trkpt lat="42.4263" lon="2.3783">
        <ele>1636.3</ele>
        <time>2017-05-08T16:06:03Z</time>
      </trkpt>
      <trkpt lat="42.42636" lon="2.37841">
        <ele>1636.3</ele>
        <time>2017-05-08T16:06:15Z</time>
      </trkpt>
      <trkpt lat="42.42638" lon="2.37845">
        <ele>1636.78</ele>
        <time>2017-05-08T16:06:19Z</time>
      </trkpt>
      <trkpt lat="42.42643" lon="2.37859">
        <ele>1636.3</ele>
        <time>2017-05-08T16:06:33Z</time>
      </trkpt>
      <trkpt lat="42.42644" lon="2.37869">
        <ele>1633.9</ele>
        <time>2017-05-08T16:06:44Z</time>
      </trkpt>
      <trkpt lat="42.42645" lon="2.37887">
        <ele>1631.01</ele>
        <time>2017-05-08T16:06:56Z</time>
      </trkpt>
      <trkpt lat="42.42647" lon="2.37894">
        <ele>1629.57</ele>
        <time>2017-05-08T16:07:06Z</time>
      </trkpt>
      <trkpt lat="42.42652" lon="2.37899">
        <ele>1627.17</ele>
        <time>2017-05-08T16:07:19Z</time>
      </trkpt>
      <trkpt lat="42.4265" lon="2.37907">
        <ele>1623.8</ele>
        <time>2017-05-08T16:07:30Z</time>
      </trkpt>
      <trkpt lat="42.42646" lon="2.37919">
        <ele>1622.84</ele>
        <time>2017-05-08T16:07:44Z</time>
      </trkpt>
      <trkpt lat="42.42645" lon="2.37929">
        <ele>1622.36</ele>
        <time>2017-05-08T16:07:56Z</time>
      </trkpt>
      <trkpt lat="42.42644" lon="2.37929">
        <ele>1622.36</ele>
        <time>2017-05-08T16:07:58Z</time>
      </trkpt>
      <trkpt lat="42.42641" lon="2.37936">
        <ele>1621.88</ele>
        <time>2017-05-08T16:08:04Z</time>
      </trkpt>
      <trkpt lat="42.42636" lon="2.37949">
        <ele>1621.88</ele>
        <time>2017-05-08T16:08:16Z</time>
      </trkpt>
      <trkpt lat="42.42635" lon="2.37964">
        <ele>1623.32</ele>
        <time>2017-05-08T16:08:27Z</time>
      </trkpt>
      <trkpt lat="42.42633" lon="2.37977">
        <ele>1624.28</ele>
        <time>2017-05-08T16:08:40Z</time>
      </trkpt>
      <trkpt lat="42.42634" lon="2.37981">
        <ele>1625.25</ele>
        <time>2017-05-08T16:08:55Z</time>
      </trkpt>
      <trkpt lat="42.42632" lon="2.37985">
        <ele>1625.25</ele>
        <time>2017-05-08T16:08:59Z</time>
      </trkpt>
      <trkpt lat="42.42632" lon="2.37997">
        <ele>1624.28</ele>
        <time>2017-05-08T16:09:10Z</time>
      </trkpt>
      <trkpt lat="42.42633" lon="2.38">
        <ele>1624.28</ele>
        <time>2017-05-08T16:09:13Z</time>
      </trkpt>
      <trkpt lat="42.42633" lon="2.38015">
        <ele>1624.28</ele>
        <time>2017-05-08T16:09:26Z</time>
      </trkpt>
      <trkpt lat="42.42634" lon="2.38027">
        <ele>1624.77</ele>
        <time>2017-05-08T16:09:37Z</time>
      </trkpt>
      <trkpt lat="42.42634" lon="2.38036">
        <ele>1623.32</ele>
        <time>2017-05-08T16:09:44Z</time>
      </trkpt>
      <trkpt lat="42.42633" lon="2.38056">
        <ele>1622.84</ele>
        <time>2017-05-08T16:09:58Z</time>
      </trkpt>
      <trkpt lat="42.42638" lon="2.38069">
        <ele>1624.77</ele>
        <time>2017-05-08T16:10:10Z</time>
      </trkpt>
      <trkpt lat="42.42637" lon="2.38073">
        <ele>1624.77</ele>
        <time>2017-05-08T16:10:12Z</time>
      </trkpt>
      <trkpt lat="42.42636" lon="2.38082">
        <ele>1625.25</ele>
        <time>2017-05-08T16:10:19Z</time>
      </trkpt>
      <trkpt lat="42.42638" lon="2.38093">
        <ele>1626.69</ele>
        <time>2017-05-08T16:10:31Z</time>
      </trkpt>
      <trkpt lat="42.4264" lon="2.38102">
        <ele>1627.65</ele>
        <time>2017-05-08T16:10:40Z</time>
      </trkpt>
      <trkpt lat="42.42645" lon="2.38112">
        <ele>1628.61</ele>
        <time>2017-05-08T16:10:53Z</time>
      </trkpt>
      <trkpt lat="42.42646" lon="2.38113">
        <ele>1628.61</ele>
        <time>2017-05-08T16:10:58Z</time>
      </trkpt>
      <trkpt lat="42.42651" lon="2.38123">
        <ele>1627.65</ele>
        <time>2017-05-08T16:11:07Z</time>
      </trkpt>
      <trkpt lat="42.42655" lon="2.38132">
        <ele>1627.17</ele>
        <time>2017-05-08T16:11:20Z</time>
      </trkpt>
      <trkpt lat="42.42663" lon="2.38134">
        <ele>1627.17</ele>
        <time>2017-05-08T16:11:29Z</time>
      </trkpt>
      <trkpt lat="42.42674" lon="2.38138">
        <ele>1627.17</ele>
        <time>2017-05-08T16:11:41Z</time>
      </trkpt>
      <trkpt lat="42.42678" lon="2.38145">
        <ele>1626.21</ele>
        <time>2017-05-08T16:11:51Z</time>
      </trkpt>
      <trkpt lat="42.42679" lon="2.38144">
        <ele>1625.25</ele>
        <time>2017-05-08T16:12:06Z</time>
      </trkpt>
      <trkpt lat="42.42686" lon="2.38156">
        <ele>1624.28</ele>
        <time>2017-05-08T16:12:18Z</time>
      </trkpt>
      <trkpt lat="42.42688" lon="2.3816">
        <ele>1624.77</ele>
        <time>2017-05-08T16:12:22Z</time>
      </trkpt>
      <trkpt lat="42.42692" lon="2.38174">
        <ele>1624.28</ele>
        <time>2017-05-08T16:12:33Z</time>
      </trkpt>
      <trkpt lat="42.42696" lon="2.38173">
        <ele>1626.69</ele>
        <time>2017-05-08T16:12:44Z</time>
      </trkpt>
      <trkpt lat="42.42701" lon="2.38177">
        <ele>1628.13</ele>
        <time>2017-05-08T16:12:54Z</time>
      </trkpt>
      <trkpt lat="42.42703" lon="2.3819">
        <ele>1628.61</ele>
        <time>2017-05-08T16:13:07Z</time>
      </trkpt>
      <trkpt lat="42.42708" lon="2.38198">
        <ele>1629.57</ele>
        <time>2017-05-08T16:13:20Z</time>
      </trkpt>
      <trkpt lat="42.42713" lon="2.38208">
        <ele>1628.13</ele>
        <time>2017-05-08T16:13:33Z</time>
      </trkpt>
      <trkpt lat="42.42713" lon="2.38212">
        <ele>1627.65</ele>
        <time>2017-05-08T16:13:43Z</time>
      </trkpt>
      <trkpt lat="42.4271" lon="2.38213">
        <ele>1627.17</ele>
        <time>2017-05-08T16:13:56Z</time>
      </trkpt>
      <trkpt lat="42.4271" lon="2.38214">
        <ele>1627.65</ele>
        <time>2017-05-08T16:14:03Z</time>
      </trkpt>
      <trkpt lat="42.42702" lon="2.38224">
        <ele>1628.61</ele>
        <time>2017-05-08T16:14:15Z</time>
      </trkpt>
      <trkpt lat="42.42694" lon="2.38236">
        <ele>1630.05</ele>
        <time>2017-05-08T16:14:26Z</time>
      </trkpt>
      <trkpt lat="42.4269" lon="2.38246">
        <ele>1631.49</ele>
        <time>2017-05-08T16:14:37Z</time>
      </trkpt>
      <trkpt lat="42.42689" lon="2.38247">
        <ele>1631.49</ele>
        <time>2017-05-08T16:14:39Z</time>
      </trkpt>
      <trkpt lat="42.42687" lon="2.38251">
        <ele>1631.49</ele>
        <time>2017-05-08T16:14:42Z</time>
      </trkpt>
      <trkpt lat="42.42685" lon="2.38262">
        <ele>1631.01</ele>
        <time>2017-05-08T16:14:53Z</time>
      </trkpt>
      <trkpt lat="42.42684" lon="2.38269">
        <ele>1631.01</ele>
        <time>2017-05-08T16:15:01Z</time>
      </trkpt>
      <trkpt lat="42.4269" lon="2.38277">
        <ele>1631.98</ele>
        <time>2017-05-08T16:15:13Z</time>
      </trkpt>
      <trkpt lat="42.42694" lon="2.38285">
        <ele>1632.46</ele>
        <time>2017-05-08T16:15:24Z</time>
      </trkpt>
      <trkpt lat="42.42702" lon="2.38294">
        <ele>1633.9</ele>
        <time>2017-05-08T16:15:37Z</time>
      </trkpt>
      <trkpt lat="42.42708" lon="2.38304">
        <ele>1634.38</ele>
        <time>2017-05-08T16:15:47Z</time>
      </trkpt>
      <trkpt lat="42.42711" lon="2.38318">
        <ele>1635.34</ele>
        <time>2017-05-08T16:15:57Z</time>
      </trkpt>
      <trkpt lat="42.42707" lon="2.38334">
        <ele>1634.86</ele>
        <time>2017-05-08T16:16:09Z</time>
      </trkpt>
      <trkpt lat="42.42707" lon="2.38335">
        <ele>1634.86</ele>
        <time>2017-05-08T16:16:10Z</time>
      </trkpt>
      <trkpt lat="42.42709" lon="2.38345">
        <ele>1636.78</ele>
        <time>2017-05-08T16:16:23Z</time>
      </trkpt>
      <trkpt lat="42.42713" lon="2.3835">
        <ele>1638.22</ele>
        <time>2017-05-08T16:16:35Z</time>
      </trkpt>
      <trkpt lat="42.42715" lon="2.38355">
        <ele>1639.67</ele>
        <time>2017-05-08T16:16:43Z</time>
      </trkpt>
      <trkpt lat="42.42718" lon="2.38362">
        <ele>1642.07</ele>
        <time>2017-05-08T16:16:54Z</time>
      </trkpt>
      <trkpt lat="42.4272" lon="2.38368">
        <ele>1643.03</ele>
        <time>2017-05-08T16:17:05Z</time>
      </trkpt>
      <trkpt lat="42.42724" lon="2.38374">
        <ele>1643.99</ele>
        <time>2017-05-08T16:17:16Z</time>
      </trkpt>
      <trkpt lat="42.42724" lon="2.38385">
        <ele>1644.47</ele>
        <time>2017-05-08T16:17:26Z</time>
      </trkpt>
      <trkpt lat="42.42721" lon="2.38398">
        <ele>1644.95</ele>
        <time>2017-05-08T16:17:36Z</time>
      </trkpt>
      <trkpt lat="42.42713" lon="2.38413">
        <ele>1645.43</ele>
        <time>2017-05-08T16:17:49Z</time>
      </trkpt>
      <trkpt lat="42.42707" lon="2.38416">
        <ele>1645.91</ele>
        <time>2017-05-08T16:18:04Z</time>
      </trkpt>
      <trkpt lat="42.42706" lon="2.38419">
        <ele>1645.43</ele>
        <time>2017-05-08T16:18:30Z</time>
      </trkpt>
      <trkpt lat="42.427" lon="2.3843">
        <ele>1643.99</ele>
        <time>2017-05-08T16:18:41Z</time>
      </trkpt>
      <trkpt lat="42.42698" lon="2.38441">
        <ele>1644.47</ele>
        <time>2017-05-08T16:18:51Z</time>
      </trkpt>
      <trkpt lat="42.42694" lon="2.38451">
        <ele>1643.99</ele>
        <time>2017-05-08T16:19:05Z</time>
      </trkpt>
      <trkpt lat="42.42693" lon="2.38459">
        <ele>1643.99</ele>
        <time>2017-05-08T16:19:11Z</time>
      </trkpt>
      <trkpt lat="42.42697" lon="2.38477">
        <ele>1643.03</ele>
        <time>2017-05-08T16:19:24Z</time>
      </trkpt>
      <trkpt lat="42.42698" lon="2.38483">
        <ele>1643.51</ele>
        <time>2017-05-08T16:19:32Z</time>
      </trkpt>
      <trkpt lat="42.42701" lon="2.38492">
        <ele>1643.03</ele>
        <time>2017-05-08T16:19:37Z</time>
      </trkpt>
      <trkpt lat="42.42702" lon="2.38502">
        <ele>1642.07</ele>
        <time>2017-05-08T16:19:48Z</time>
      </trkpt>
      <trkpt lat="42.42695" lon="2.3851">
        <ele>1642.55</ele>
        <time>2017-05-08T16:19:59Z</time>
      </trkpt>
      <trkpt lat="42.42692" lon="2.38514">
        <ele>1644.47</ele>
        <time>2017-05-08T16:20:10Z</time>
      </trkpt>
      <trkpt lat="42.42682" lon="2.38522">
        <ele>1643.03</ele>
        <time>2017-05-08T16:20:22Z</time>
      </trkpt>
      <trkpt lat="42.42675" lon="2.38529">
        <ele>1642.55</ele>
        <time>2017-05-08T16:20:35Z</time>
      </trkpt>
      <trkpt lat="42.42673" lon="2.38534">
        <ele>1642.55</ele>
        <time>2017-05-08T16:20:49Z</time>
      </trkpt>
      <trkpt lat="42.42665" lon="2.38542">
        <ele>1643.03</ele>
        <time>2017-05-08T16:21:00Z</time>
      </trkpt>
      <trkpt lat="42.42663" lon="2.38544">
        <ele>1643.51</ele>
        <time>2017-05-08T16:21:02Z</time>
      </trkpt>
      <trkpt lat="42.42659" lon="2.38545">
        <ele>1643.03</ele>
        <time>2017-05-08T16:21:05Z</time>
      </trkpt>
      <trkpt lat="42.42654" lon="2.38548">
        <ele>1643.03</ele>
        <time>2017-05-08T16:21:09Z</time>
      </trkpt>
      <trkpt lat="42.4265" lon="2.38551">
        <ele>1642.07</ele>
        <time>2017-05-08T16:21:14Z</time>
      </trkpt>
      <trkpt lat="42.42648" lon="2.38559">
        <ele>1641.59</ele>
        <time>2017-05-08T16:21:20Z</time>
      </trkpt>
      <trkpt lat="42.42644" lon="2.38569">
        <ele>1641.11</ele>
        <time>2017-05-08T16:21:31Z</time>
      </trkpt>
      <trkpt lat="42.42645" lon="2.38574">
        <ele>1641.59</ele>
        <time>2017-05-08T16:21:36Z</time>
      </trkpt>
      <trkpt lat="42.42642" lon="2.38587">
        <ele>1640.15</ele>
        <time>2017-05-08T16:21:47Z</time>
      </trkpt>
      <trkpt lat="42.42642" lon="2.38589">
        <ele>1640.63</ele>
        <time>2017-05-08T16:21:51Z</time>
      </trkpt>
      <trkpt lat="42.42642" lon="2.38599">
        <ele>1640.63</ele>
        <time>2017-05-08T16:21:58Z</time>
      </trkpt>
      <trkpt lat="42.42636" lon="2.38615">
        <ele>1639.19</ele>
        <time>2017-05-08T16:22:11Z</time>
      </trkpt>
      <trkpt lat="42.42636" lon="2.3862">
        <ele>1639.19</ele>
        <time>2017-05-08T16:22:15Z</time>
      </trkpt>
      <trkpt lat="42.42632" lon="2.38629">
        <ele>1638.7</ele>
        <time>2017-05-08T16:22:23Z</time>
      </trkpt>
      <trkpt lat="42.42628" lon="2.38636">
        <ele>1637.74</ele>
        <time>2017-05-08T16:22:30Z</time>
      </trkpt>
      <trkpt lat="42.42623" lon="2.3865">
        <ele>1637.26</ele>
        <time>2017-05-08T16:22:40Z</time>
      </trkpt>
      <trkpt lat="42.42619" lon="2.38658">
        <ele>1635.82</ele>
        <time>2017-05-08T16:22:50Z</time>
      </trkpt>
      <trkpt lat="42.42621" lon="2.38672">
        <ele>1637.26</ele>
        <time>2017-05-08T16:23:03Z</time>
      </trkpt>
      <trkpt lat="42.42615" lon="2.38681">
        <ele>1637.74</ele>
        <time>2017-05-08T16:23:14Z</time>
      </trkpt>
      <trkpt lat="42.4261" lon="2.38687">
        <ele>1638.22</ele>
        <time>2017-05-08T16:23:21Z</time>
      </trkpt>
      <trkpt lat="42.42607" lon="2.38688">
        <ele>1638.7</ele>
        <time>2017-05-08T16:23:24Z</time>
      </trkpt>
      <trkpt lat="42.42602" lon="2.38691">
        <ele>1638.7</ele>
        <time>2017-05-08T16:23:35Z</time>
      </trkpt>
      <trkpt lat="42.426" lon="2.38693">
        <ele>1638.7</ele>
        <time>2017-05-08T16:23:39Z</time>
      </trkpt>
      <trkpt lat="42.4259" lon="2.38702">
        <ele>1639.67</ele>
        <time>2017-05-08T16:23:50Z</time>
      </trkpt>
      <trkpt lat="42.42571" lon="2.38717">
        <ele>1640.15</ele>
        <time>2017-05-08T16:24:00Z</time>
      </trkpt>
      <trkpt lat="42.42561" lon="2.38723">
        <ele>1640.63</ele>
        <time>2017-05-08T16:24:07Z</time>
      </trkpt>
      <trkpt lat="42.42559" lon="2.38724">
        <ele>1641.11</ele>
        <time>2017-05-08T16:24:09Z</time>
      </trkpt>
      <trkpt lat="42.42555" lon="2.38727">
        <ele>1641.11</ele>
        <time>2017-05-08T16:24:12Z</time>
      </trkpt>
      <trkpt lat="42.42551" lon="2.38736">
        <ele>1642.55</ele>
        <time>2017-05-08T16:24:18Z</time>
      </trkpt>
      <trkpt lat="42.42548" lon="2.38749">
        <ele>1642.07</ele>
        <time>2017-05-08T16:24:31Z</time>
      </trkpt>
      <trkpt lat="42.42548" lon="2.3875">
        <ele>1642.07</ele>
        <time>2017-05-08T16:24:39Z</time>
      </trkpt>
      <trkpt lat="42.42548" lon="2.38753">
        <ele>1641.59</ele>
        <time>2017-05-08T16:24:41Z</time>
      </trkpt>
      <trkpt lat="42.42548" lon="2.3876">
        <ele>1641.59</ele>
        <time>2017-05-08T16:24:45Z</time>
      </trkpt>
      <trkpt lat="42.42548" lon="2.38764">
        <ele>1641.59</ele>
        <time>2017-05-08T16:24:48Z</time>
      </trkpt>
      <trkpt lat="42.42549" lon="2.38775">
        <ele>1641.11</ele>
        <time>2017-05-08T16:24:55Z</time>
      </trkpt>
      <trkpt lat="42.42549" lon="2.3878">
        <ele>1641.11</ele>
        <time>2017-05-08T16:24:58Z</time>
      </trkpt>
      <trkpt lat="42.42554" lon="2.38802">
        <ele>1641.59</ele>
        <time>2017-05-08T16:25:13Z</time>
      </trkpt>
      <trkpt lat="42.4256" lon="2.38826">
        <ele>1641.59</ele>
        <time>2017-05-08T16:25:28Z</time>
      </trkpt>
      <trkpt lat="42.42565" lon="2.38842">
        <ele>1642.55</ele>
        <time>2017-05-08T16:25:40Z</time>
      </trkpt>
      <trkpt lat="42.4257" lon="2.38851">
        <ele>1643.03</ele>
        <time>2017-05-08T16:25:49Z</time>
      </trkpt>
      <trkpt lat="42.42573" lon="2.38877">
        <ele>1643.51</ele>
        <time>2017-05-08T16:26:04Z</time>
      </trkpt>
      <trkpt lat="42.42578" lon="2.38892">
        <ele>1643.51</ele>
        <time>2017-05-08T16:26:16Z</time>
      </trkpt>
      <trkpt lat="42.42581" lon="2.389">
        <ele>1643.99</ele>
        <time>2017-05-08T16:26:21Z</time>
      </trkpt>
      <trkpt lat="42.42583" lon="2.38905">
        <ele>1643.99</ele>
        <time>2017-05-08T16:26:25Z</time>
      </trkpt>
      <trkpt lat="42.42585" lon="2.38911">
        <ele>1643.99</ele>
        <time>2017-05-08T16:26:29Z</time>
      </trkpt>
      <trkpt lat="42.42588" lon="2.38914">
        <ele>1643.99</ele>
        <time>2017-05-08T16:26:32Z</time>
      </trkpt>
      <trkpt lat="42.42593" lon="2.38923">
        <ele>1644.95</ele>
        <time>2017-05-08T16:26:41Z</time>
      </trkpt>
      <trkpt lat="42.42596" lon="2.3893">
        <ele>1644.47</ele>
        <time>2017-05-08T16:26:47Z</time>
      </trkpt>
      <trkpt lat="42.42601" lon="2.38941">
        <ele>1645.91</ele>
        <time>2017-05-08T16:27:00Z</time>
      </trkpt>
      <trkpt lat="42.42605" lon="2.3895">
        <ele>1646.4</ele>
        <time>2017-05-08T16:27:08Z</time>
      </trkpt>
      <trkpt lat="42.4261" lon="2.38962">
        <ele>1647.84</ele>
        <time>2017-05-08T16:27:20Z</time>
      </trkpt>
      <trkpt lat="42.42612" lon="2.38962">
        <ele>1648.32</ele>
        <time>2017-05-08T16:27:25Z</time>
      </trkpt>
      <trkpt lat="42.42613" lon="2.38968">
        <ele>1649.28</ele>
        <time>2017-05-08T16:27:31Z</time>
      </trkpt>
      <trkpt lat="42.4261" lon="2.3898">
        <ele>1650.24</ele>
        <time>2017-05-08T16:27:41Z</time>
      </trkpt>
      <trkpt lat="42.4261" lon="2.38994">
        <ele>1651.2</ele>
        <time>2017-05-08T16:27:50Z</time>
      </trkpt>
      <trkpt lat="42.42608" lon="2.39012">
        <ele>1653.12</ele>
        <time>2017-05-08T16:28:03Z</time>
      </trkpt>
      <trkpt lat="42.42601" lon="2.39027">
        <ele>1654.57</ele>
        <time>2017-05-08T16:28:15Z</time>
      </trkpt>
      <trkpt lat="42.42598" lon="2.39036">
        <ele>1656.49</ele>
        <time>2017-05-08T16:28:26Z</time>
      </trkpt>
      <trkpt lat="42.42597" lon="2.39054">
        <ele>1656.49</ele>
        <time>2017-05-08T16:28:38Z</time>
      </trkpt>
      <trkpt lat="42.42602" lon="2.39071">
        <ele>1656.97</ele>
        <time>2017-05-08T16:28:50Z</time>
      </trkpt>
      <trkpt lat="42.42601" lon="2.39087">
        <ele>1657.93</ele>
        <time>2017-05-08T16:29:02Z</time>
      </trkpt>
      <trkpt lat="42.426" lon="2.3909">
        <ele>1657.93</ele>
        <time>2017-05-08T16:29:05Z</time>
      </trkpt>
      <trkpt lat="42.42599" lon="2.39097">
        <ele>1658.41</ele>
        <time>2017-05-08T16:29:18Z</time>
      </trkpt>
      <trkpt lat="42.42599" lon="2.39098">
        <ele>1657.93</ele>
        <time>2017-05-08T16:29:23Z</time>
      </trkpt>
      <trkpt lat="42.426" lon="2.39105">
        <ele>1659.37</ele>
        <time>2017-05-08T16:29:32Z</time>
      </trkpt>
      <trkpt lat="42.42604" lon="2.39119">
        <ele>1659.85</ele>
        <time>2017-05-08T16:29:42Z</time>
      </trkpt>
      <trkpt lat="42.42607" lon="2.39125">
        <ele>1659.85</ele>
        <time>2017-05-08T16:29:47Z</time>
      </trkpt>
      <trkpt lat="42.42609" lon="2.39128">
        <ele>1660.33</ele>
        <time>2017-05-08T16:29:49Z</time>
      </trkpt>
      <trkpt lat="42.42611" lon="2.39132">
        <ele>1661.3</ele>
        <time>2017-05-08T16:29:54Z</time>
      </trkpt>
      <trkpt lat="42.42612" lon="2.39143">
        <ele>1660.81</ele>
        <time>2017-05-08T16:30:02Z</time>
      </trkpt>
      <trkpt lat="42.42612" lon="2.39156">
        <ele>1661.78</ele>
        <time>2017-05-08T16:30:11Z</time>
      </trkpt>
      <trkpt lat="42.42613" lon="2.39164">
        <ele>1664.18</ele>
        <time>2017-05-08T16:30:19Z</time>
      </trkpt>
      <trkpt lat="42.42616" lon="2.39168">
        <ele>1664.18</ele>
        <time>2017-05-08T16:30:23Z</time>
      </trkpt>
      <trkpt lat="42.42619" lon="2.39179">
        <ele>1666.58</ele>
        <time>2017-05-08T16:30:34Z</time>
      </trkpt>
      <trkpt lat="42.4262" lon="2.39189">
        <ele>1668.51</ele>
        <time>2017-05-08T16:30:47Z</time>
      </trkpt>
      <trkpt lat="42.4262" lon="2.39197">
        <ele>1670.43</ele>
        <time>2017-05-08T16:30:57Z</time>
      </trkpt>
      <trkpt lat="42.42622" lon="2.3921">
        <ele>1673.31</ele>
        <time>2017-05-08T16:31:11Z</time>
      </trkpt>
      <trkpt lat="42.42624" lon="2.39215">
        <ele>1674.27</ele>
        <time>2017-05-08T16:31:17Z</time>
      </trkpt>
      <trkpt lat="42.42627" lon="2.39228">
        <ele>1676.68</ele>
        <time>2017-05-08T16:31:30Z</time>
      </trkpt>
      <trkpt lat="42.42629" lon="2.39234">
        <ele>1677.64</ele>
        <time>2017-05-08T16:31:38Z</time>
      </trkpt>
      <trkpt lat="42.42632" lon="2.39245">
        <ele>1678.12</ele>
        <time>2017-05-08T16:31:46Z</time>
      </trkpt>
      <trkpt lat="42.42631" lon="2.39255">
        <ele>1679.08</ele>
        <time>2017-05-08T16:31:53Z</time>
      </trkpt>
      <trkpt lat="42.42631" lon="2.39275">
        <ele>1680.52</ele>
        <time>2017-05-08T16:32:07Z</time>
      </trkpt>
      <trkpt lat="42.4263" lon="2.39278">
        <ele>1681</ele>
        <time>2017-05-08T16:32:09Z</time>
      </trkpt>
      <trkpt lat="42.42629" lon="2.39286">
        <ele>1681</ele>
        <time>2017-05-08T16:32:15Z</time>
      </trkpt>
      <trkpt lat="42.42627" lon="2.39295">
        <ele>1681.48</ele>
        <time>2017-05-08T16:32:29Z</time>
      </trkpt>
      <trkpt lat="42.42628" lon="2.39295">
        <ele>1681.96</ele>
        <time>2017-05-08T16:32:43Z</time>
      </trkpt>
      <trkpt lat="42.42628" lon="2.39294">
        <ele>1681.48</ele>
        <time>2017-05-08T16:32:56Z</time>
      </trkpt>
      <trkpt lat="42.42627" lon="2.39294">
        <ele>1681.96</ele>
        <time>2017-05-08T16:33:21Z</time>
      </trkpt>
      <trkpt lat="42.42627" lon="2.39294">
        <ele>1681.48</ele>
        <time>2017-05-08T16:33:28Z</time>
      </trkpt>
      <trkpt lat="42.42629" lon="2.39299">
        <ele>1681.96</ele>
        <time>2017-05-08T16:33:45Z</time>
      </trkpt>
      <trkpt lat="42.42627" lon="2.39301">
        <ele>1682.44</ele>
        <time>2017-05-08T16:34:08Z</time>
      </trkpt>
      <trkpt lat="42.42629" lon="2.39307">
        <ele>1681.96</ele>
        <time>2017-05-08T16:34:13Z</time>
      </trkpt>
      <trkpt lat="42.4263" lon="2.39309">
        <ele>1681.96</ele>
        <time>2017-05-08T16:34:15Z</time>
      </trkpt>
      <trkpt lat="42.42632" lon="2.39332">
        <ele>1681</ele>
        <time>2017-05-08T16:34:31Z</time>
      </trkpt>
      <trkpt lat="42.42633" lon="2.39349">
        <ele>1679.08</ele>
        <time>2017-05-08T16:34:45Z</time>
      </trkpt>
      <trkpt lat="42.42634" lon="2.39349">
        <ele>1678.12</ele>
        <time>2017-05-08T16:34:59Z</time>
      </trkpt>
      <trkpt lat="42.42633" lon="2.39352">
        <ele>1678.6</ele>
        <time>2017-05-08T16:35:02Z</time>
      </trkpt>
      <trkpt lat="42.42631" lon="2.39358">
        <ele>1678.12</ele>
        <time>2017-05-08T16:35:15Z</time>
      </trkpt>
      <trkpt lat="42.42631" lon="2.39358">
        <ele>1678.12</ele>
        <time>2017-05-08T16:35:17Z</time>
      </trkpt>
      <trkpt lat="42.42631" lon="2.39366">
        <ele>1677.64</ele>
        <time>2017-05-08T16:35:23Z</time>
      </trkpt>
      <trkpt lat="42.42632" lon="2.39369">
        <ele>1677.64</ele>
        <time>2017-05-08T16:35:25Z</time>
      </trkpt>
      <trkpt lat="42.42633" lon="2.39375">
        <ele>1676.68</ele>
        <time>2017-05-08T16:35:30Z</time>
      </trkpt>
      <trkpt lat="42.42631" lon="2.39381">
        <ele>1676.68</ele>
        <time>2017-05-08T16:35:43Z</time>
      </trkpt>
      <trkpt lat="42.42631" lon="2.39382">
        <ele>1673.31</ele>
        <time>2017-05-08T16:35:47Z</time>
      </trkpt>
      <trkpt lat="42.42631" lon="2.39382">
        <ele>1676.68</ele>
        <time>2017-05-08T16:35:48Z</time>
      </trkpt>
      <trkpt lat="42.4263" lon="2.39385">
        <ele>1676.68</ele>
        <time>2017-05-08T16:36:21Z</time>
      </trkpt>
      <trkpt lat="42.4263" lon="2.39385">
        <ele>1676.68</ele>
        <time>2017-05-08T16:36:22Z</time>
      </trkpt>
      <trkpt lat="42.4263" lon="2.39385">
        <ele>1676.2</ele>
        <time>2017-05-08T16:36:29Z</time>
      </trkpt>
      <trkpt lat="42.42632" lon="2.39389">
        <ele>1674.27</ele>
        <time>2017-05-08T16:36:34Z</time>
      </trkpt>
      <trkpt lat="42.42631" lon="2.39394">
        <ele>1673.79</ele>
        <time>2017-05-08T16:36:40Z</time>
      </trkpt>
      <trkpt lat="42.4263" lon="2.39409">
        <ele>1671.87</ele>
        <time>2017-05-08T16:36:52Z</time>
      </trkpt>
      <trkpt lat="42.4263" lon="2.39417">
        <ele>1668.51</ele>
        <time>2017-05-08T16:37:01Z</time>
      </trkpt>
      <trkpt lat="42.4263" lon="2.39419">
        <ele>1668.51</ele>
        <time>2017-05-08T16:37:02Z</time>
      </trkpt>
      <trkpt lat="42.42629" lon="2.39434">
        <ele>1665.14</ele>
        <time>2017-05-08T16:37:14Z</time>
      </trkpt>
      <trkpt lat="42.4263" lon="2.39437">
        <ele>1664.66</ele>
        <time>2017-05-08T16:37:16Z</time>
      </trkpt>
      <trkpt lat="42.4263" lon="2.39441">
        <ele>1661.3</ele>
        <time>2017-05-08T16:37:24Z</time>
      </trkpt>
      <trkpt lat="42.42629" lon="2.39453">
        <ele>1659.37</ele>
        <time>2017-05-08T16:37:36Z</time>
      </trkpt>
      <trkpt lat="42.42624" lon="2.39464">
        <ele>1656.01</ele>
        <time>2017-05-08T16:37:45Z</time>
      </trkpt>
      <trkpt lat="42.42623" lon="2.39465">
        <ele>1656.49</ele>
        <time>2017-05-08T16:37:46Z</time>
      </trkpt>
      <trkpt lat="42.42622" lon="2.39476">
        <ele>1653.6</ele>
        <time>2017-05-08T16:37:54Z</time>
      </trkpt>
      <trkpt lat="42.4262" lon="2.39482">
        <ele>1651.68</ele>
        <time>2017-05-08T16:38:04Z</time>
      </trkpt>
      <trkpt lat="42.42619" lon="2.39496">
        <ele>1648.8</ele>
        <time>2017-05-08T16:38:14Z</time>
      </trkpt>
      <trkpt lat="42.42619" lon="2.39507">
        <ele>1645.91</ele>
        <time>2017-05-08T16:38:25Z</time>
      </trkpt>
      <trkpt lat="42.42615" lon="2.3952">
        <ele>1643.03</ele>
        <time>2017-05-08T16:38:34Z</time>
      </trkpt>
      <trkpt lat="42.42615" lon="2.39533">
        <ele>1642.07</ele>
        <time>2017-05-08T16:38:40Z</time>
      </trkpt>
      <trkpt lat="42.42615" lon="2.39539">
        <ele>1640.63</ele>
        <time>2017-05-08T16:38:43Z</time>
      </trkpt>
      <trkpt lat="42.42614" lon="2.39551">
        <ele>1637.74</ele>
        <time>2017-05-08T16:38:55Z</time>
      </trkpt>
      <trkpt lat="42.42616" lon="2.39556">
        <ele>1635.34</ele>
        <time>2017-05-08T16:39:04Z</time>
      </trkpt>
      <trkpt lat="42.42617" lon="2.39556">
        <ele>1634.86</ele>
        <time>2017-05-08T16:39:05Z</time>
      </trkpt>
      <trkpt lat="42.42618" lon="2.39562">
        <ele>1635.34</ele>
        <time>2017-05-08T16:39:09Z</time>
      </trkpt>
      <trkpt lat="42.42617" lon="2.39564">
        <ele>1633.9</ele>
        <time>2017-05-08T16:39:11Z</time>
      </trkpt>
      <trkpt lat="42.42616" lon="2.39571">
        <ele>1630.05</ele>
        <time>2017-05-08T16:39:21Z</time>
      </trkpt>
      <trkpt lat="42.42616" lon="2.39584">
        <ele>1629.09</ele>
        <time>2017-05-08T16:39:28Z</time>
      </trkpt>
      <trkpt lat="42.42616" lon="2.3959">
        <ele>1629.09</ele>
        <time>2017-05-08T16:39:31Z</time>
      </trkpt>
      <trkpt lat="42.42617" lon="2.39604">
        <ele>1626.21</ele>
        <time>2017-05-08T16:39:42Z</time>
      </trkpt>
      <trkpt lat="42.42618" lon="2.39611">
        <ele>1624.28</ele>
        <time>2017-05-08T16:39:46Z</time>
      </trkpt>
      <trkpt lat="42.42618" lon="2.39616">
        <ele>1624.77</ele>
        <time>2017-05-08T16:39:49Z</time>
      </trkpt>
      <trkpt lat="42.42614" lon="2.39625">
        <ele>1622.36</ele>
        <time>2017-05-08T16:39:56Z</time>
      </trkpt>
      <trkpt lat="42.42608" lon="2.39638">
        <ele>1620.44</ele>
        <time>2017-05-08T16:40:07Z</time>
      </trkpt>
      <trkpt lat="42.42605" lon="2.3965">
        <ele>1618.52</ele>
        <time>2017-05-08T16:40:15Z</time>
      </trkpt>
      <trkpt lat="42.426" lon="2.39667">
        <ele>1615.63</ele>
        <time>2017-05-08T16:40:25Z</time>
      </trkpt>
      <trkpt lat="42.42599" lon="2.39669">
        <ele>1616.11</ele>
        <time>2017-05-08T16:40:26Z</time>
      </trkpt>
      <trkpt lat="42.42598" lon="2.39678">
        <ele>1614.67</ele>
        <time>2017-05-08T16:40:32Z</time>
      </trkpt>
      <trkpt lat="42.42598" lon="2.39689">
        <ele>1614.19</ele>
        <time>2017-05-08T16:40:38Z</time>
      </trkpt>
      <trkpt lat="42.42599" lon="2.39699">
        <ele>1611.79</ele>
        <time>2017-05-08T16:40:45Z</time>
      </trkpt>
      <trkpt lat="42.42601" lon="2.39711">
        <ele>1609.86</ele>
        <time>2017-05-08T16:40:53Z</time>
      </trkpt>
      <trkpt lat="42.42605" lon="2.39725">
        <ele>1607.94</ele>
        <time>2017-05-08T16:41:04Z</time>
      </trkpt>
      <trkpt lat="42.42605" lon="2.39732">
        <ele>1605.54</ele>
        <time>2017-05-08T16:41:09Z</time>
      </trkpt>
      <trkpt lat="42.42609" lon="2.39741">
        <ele>1604.58</ele>
        <time>2017-05-08T16:41:16Z</time>
      </trkpt>
      <trkpt lat="42.42612" lon="2.39754">
        <ele>1601.69</ele>
        <time>2017-05-08T16:41:26Z</time>
      </trkpt>
      <trkpt lat="42.42614" lon="2.39771">
        <ele>1598.33</ele>
        <time>2017-05-08T16:41:38Z</time>
      </trkpt>
      <trkpt lat="42.42615" lon="2.39776">
        <ele>1597.85</ele>
        <time>2017-05-08T16:41:43Z</time>
      </trkpt>
      <trkpt lat="42.4262" lon="2.39782">
        <ele>1596.89</ele>
        <time>2017-05-08T16:41:51Z</time>
      </trkpt>
      <trkpt lat="42.42628" lon="2.39791">
        <ele>1594.96</ele>
        <time>2017-05-08T16:42:05Z</time>
      </trkpt>
      <trkpt lat="42.42631" lon="2.39798">
        <ele>1594.96</ele>
        <time>2017-05-08T16:42:19Z</time>
      </trkpt>
      <trkpt lat="42.42631" lon="2.398">
        <ele>1594.96</ele>
        <time>2017-05-08T16:42:38Z</time>
      </trkpt>
      <trkpt lat="42.4263" lon="2.398">
        <ele>1594.96</ele>
        <time>2017-05-08T16:42:58Z</time>
      </trkpt>
      <trkpt lat="42.4263" lon="2.39801">
        <ele>1594.96</ele>
        <time>2017-05-08T16:43:23Z</time>
      </trkpt>
      <trkpt lat="42.4263" lon="2.398">
        <ele>1594.96</ele>
        <time>2017-05-08T16:43:44Z</time>
      </trkpt>
      <trkpt lat="42.4263" lon="2.398">
        <ele>1595.45</ele>
        <time>2017-05-08T16:44:15Z</time>
      </trkpt>
      <trkpt lat="42.42629" lon="2.398">
        <ele>1595.45</ele>
        <time>2017-05-08T16:44:34Z</time>
      </trkpt>
      <trkpt lat="42.42629" lon="2.39799">
        <ele>1595.45</ele>
        <time>2017-05-08T16:44:55Z</time>
      </trkpt>
      <trkpt lat="42.4263" lon="2.39799">
        <ele>1595.45</ele>
        <time>2017-05-08T16:45:13Z</time>
      </trkpt>
      <trkpt lat="42.42633" lon="2.39797">
        <ele>1595.93</ele>
        <time>2017-05-08T16:45:37Z</time>
      </trkpt>
      <trkpt lat="42.42633" lon="2.39794">
        <ele>1595.93</ele>
        <time>2017-05-08T16:45:57Z</time>
      </trkpt>
      <trkpt lat="42.42633" lon="2.3979">
        <ele>1595.93</ele>
        <time>2017-05-08T16:46:17Z</time>
      </trkpt>
      <trkpt lat="42.42639" lon="2.39786">
        <ele>1596.41</ele>
        <time>2017-05-08T16:46:24Z</time>
      </trkpt>
      <trkpt lat="42.42641" lon="2.39782">
        <ele>1596.41</ele>
        <time>2017-05-08T16:46:27Z</time>
      </trkpt>
      <trkpt lat="42.42643" lon="2.39778">
        <ele>1596.89</ele>
        <time>2017-05-08T16:46:31Z</time>
      </trkpt>
      <trkpt lat="42.42644" lon="2.39776">
        <ele>1596.89</ele>
        <time>2017-05-08T16:46:33Z</time>
      </trkpt>
      <trkpt lat="42.42646" lon="2.39772">
        <ele>1597.37</ele>
        <time>2017-05-08T16:46:36Z</time>
      </trkpt>
      <trkpt lat="42.42654" lon="2.3976">
        <ele>1598.33</ele>
        <time>2017-05-08T16:46:48Z</time>
      </trkpt>
      <trkpt lat="42.42663" lon="2.39747">
        <ele>1598.81</ele>
        <time>2017-05-08T16:47:01Z</time>
      </trkpt>
      <trkpt lat="42.42667" lon="2.39745">
        <ele>1599.29</ele>
        <time>2017-05-08T16:47:11Z</time>
      </trkpt>
      <trkpt lat="42.42667" lon="2.39745">
        <ele>1599.29</ele>
        <time>2017-05-08T16:47:28Z</time>
      </trkpt>
      <trkpt lat="42.42666" lon="2.39746">
        <ele>1599.29</ele>
        <time>2017-05-08T16:47:41Z</time>
      </trkpt>
      <trkpt lat="42.42666" lon="2.39745">
        <ele>1599.77</ele>
        <time>2017-05-08T16:47:57Z</time>
      </trkpt>
      <trkpt lat="42.42667" lon="2.39744">
        <ele>1599.29</ele>
        <time>2017-05-08T16:48:18Z</time>
      </trkpt>
      <trkpt lat="42.42667" lon="2.39743">
        <ele>1599.29</ele>
        <time>2017-05-08T16:48:38Z</time>
      </trkpt>
    </trkseg>
  </trk>
</gpx>